<?xml version='1.0' encoding='UTF-8'?><gpx version="1.1" creator="JPX - https://github.com/jenetics/jpx" xmlns="http://www.topografix.com/GPX/1/1"><trk><trkseg><trkpt lat="46.6133451" lon="12.5133668"><ele>1684.0</ele><time>2026-04-25T13:21:27.96Z</time></trkpt><trkpt lat="46.613286" lon="12.5132434"><ele>1684.0</ele><time>2026-04-25T13:21:29.959Z</time></trkpt><trkpt lat="46.6132048" lon="12.5131193"><ele>1684.0</ele><time>2026-04-25T13:21:31.96Z</time></trkpt><trkpt lat="46.6131421" lon="12.5130698"><ele>1684.0</ele><time>2026-04-25T13:21:32.96Z</time></trkpt><trkpt lat="46.6130643" lon="12.513029"><ele>1684.0</ele><time>2026-04-25T13:21:33.959Z</time></trkpt><trkpt lat="46.6129802" lon="12.5129993"><ele>1684.0000000000002</ele><time>2026-04-25T13:21:34.96Z</time></trkpt><trkpt lat="46.6128939" lon="12.5129687"><ele>1684.0</ele><time>2026-04-25T13:21:35.96Z</time></trkpt><trkpt lat="46.6128072" lon="12.5129473"><ele>1684.0</ele><time>2026-04-25T13:21:36.959Z</time></trkpt><trkpt lat="46.6127352" lon="12.5129338"><ele>1684.0</ele><time>2026-04-25T13:21:37.96Z</time></trkpt><trkpt lat="46.6126691" lon="12.512934"><ele>1684.0000000000002</ele><time>2026-04-25T13:21:38.96Z</time></trkpt><trkpt lat="46.612547" lon="12.5129451"><ele>1684.0</ele><time>2026-04-25T13:21:40.959Z</time></trkpt><trkpt lat="46.6124755" lon="12.5129496"><ele>1684.0000000000002</ele><time>2026-04-25T13:21:41.959Z</time></trkpt><trkpt lat="46.6123988" lon="12.5129393"><ele>1684.0</ele><time>2026-04-25T13:21:42.959Z</time></trkpt><trkpt lat="46.6123356" lon="12.5129299"><ele>1684.0</ele><time>2026-04-25T13:21:43.959Z</time></trkpt><trkpt lat="46.6122712" lon="12.5129229"><ele>1684.0</ele><time>2026-04-25T13:21:44.959Z</time></trkpt><trkpt lat="46.6122035" lon="12.512916"><ele>1684.0</ele><time>2026-04-25T13:21:45.959Z</time></trkpt><trkpt lat="46.6121345" lon="12.5129069"><ele>1684.0000000000002</ele><time>2026-04-25T13:21:46.958Z</time></trkpt><trkpt lat="46.6120638" lon="12.5129008"><ele>1684.0</ele><time>2026-04-25T13:21:47.959Z</time></trkpt><trkpt lat="46.6119676" lon="12.5128847"><ele>1676.25</ele><time>2026-04-25T13:21:49.958Z</time></trkpt><trkpt lat="46.6118605" lon="12.5128433"><ele>1668.5</ele><time>2026-04-25T13:21:51.959Z</time></trkpt><trkpt lat="46.611764" lon="12.5127767"><ele>1660.75</ele><time>2026-04-25T13:21:53.958Z</time></trkpt><trkpt lat="46.6116811" lon="12.5126948"><ele>1653.0</ele><time>2026-04-25T13:21:55.958Z</time></trkpt><trkpt lat="46.6115946" lon="12.5125492"><ele>1653.0</ele><time>2026-04-25T13:21:57.959Z</time></trkpt><trkpt lat="46.6115536" lon="12.512449"><ele>1653.0</ele><time>2026-04-25T13:21:58.959Z</time></trkpt><trkpt lat="46.6115079" lon="12.5123535"><ele>1653.0</ele><time>2026-04-25T13:21:59.959Z</time></trkpt><trkpt lat="46.6114556" lon="12.5122659"><ele>1653.0</ele><time>2026-04-25T13:22:00.959Z</time></trkpt><trkpt lat="46.6113993" lon="12.5121787"><ele>1653.0</ele><time>2026-04-25T13:22:01.959Z</time></trkpt><trkpt lat="46.6113386" lon="12.5120833"><ele>1653.0</ele><time>2026-04-25T13:22:02.959Z</time></trkpt><trkpt lat="46.6112822" lon="12.511997"><ele>1651.3333333333333</ele><time>2026-04-25T13:22:03.959Z</time></trkpt><trkpt lat="46.6112166" lon="12.5119222"><ele>1649.6666666666665</ele><time>2026-04-25T13:22:04.959Z</time></trkpt><trkpt lat="46.6111558" lon="12.5118578"><ele>1648.0</ele><time>2026-04-25T13:22:05.959Z</time></trkpt><trkpt lat="46.6110868" lon="12.5118105"><ele>1646.3333333333333</ele><time>2026-04-25T13:22:06.96Z</time></trkpt><trkpt lat="46.6110163" lon="12.5117605"><ele>1644.6666666666665</ele><time>2026-04-25T13:22:07.96Z</time></trkpt><trkpt lat="46.6109419" lon="12.5117083"><ele>1643.0</ele><time>2026-04-25T13:22:08.959Z</time></trkpt><trkpt lat="46.6108631" lon="12.5116467"><ele>1642.9999999999998</ele><time>2026-04-25T13:22:09.959Z</time></trkpt><trkpt lat="46.6107931" lon="12.5115735"><ele>1643.0</ele><time>2026-04-25T13:22:10.959Z</time></trkpt><trkpt lat="46.6107404" lon="12.5114855"><ele>1643.0</ele><time>2026-04-25T13:22:11.959Z</time></trkpt><trkpt lat="46.6106829" lon="12.5114078"><ele>1643.0</ele><time>2026-04-25T13:22:12.959Z</time></trkpt><trkpt lat="46.6106562" lon="12.5113223"><ele>1642.9999999999998</ele><time>2026-04-25T13:22:13.959Z</time></trkpt><trkpt lat="46.6106292" lon="12.5112205"><ele>1643.0</ele><time>2026-04-25T13:22:14.96Z</time></trkpt><trkpt lat="46.6106042" lon="12.511115"><ele>1641.3333333333333</ele><time>2026-04-25T13:22:15.959Z</time></trkpt><trkpt lat="46.610581" lon="12.5110243"><ele>1639.6666666666665</ele><time>2026-04-25T13:22:16.959Z</time></trkpt><trkpt lat="46.6105622" lon="12.510917"><ele>1638.0</ele><time>2026-04-25T13:22:17.959Z</time></trkpt><trkpt lat="46.6105354" lon="12.5108328"><ele>1636.3333333333335</ele><time>2026-04-25T13:22:18.958Z</time></trkpt><trkpt lat="46.6104975" lon="12.5107582"><ele>1634.6666666666667</ele><time>2026-04-25T13:22:19.959Z</time></trkpt><trkpt lat="46.610435" lon="12.5107281"><ele>1633.0</ele><time>2026-04-25T13:22:20.96Z</time></trkpt><trkpt lat="46.6103145" lon="12.5107687"><ele>1633.0000000000002</ele><time>2026-04-25T13:22:22.959Z</time></trkpt><trkpt lat="46.6102012" lon="12.5107883"><ele>1633.0</ele><time>2026-04-25T13:22:24.959Z</time></trkpt><trkpt lat="46.6101168" lon="12.5107142"><ele>1633.0</ele><time>2026-04-25T13:22:26.959Z</time></trkpt><trkpt lat="46.6100794" lon="12.5106329"><ele>1633.0</ele><time>2026-04-25T13:22:27.96Z</time></trkpt><trkpt lat="46.6100471" lon="12.510548"><ele>1633.0000000000002</ele><time>2026-04-25T13:22:28.959Z</time></trkpt><trkpt lat="46.610002" lon="12.5104625"><ele>1633.0</ele><time>2026-04-25T13:22:29.959Z</time></trkpt><trkpt lat="46.6099517" lon="12.5103945"><ele>1633.6666666666667</ele><time>2026-04-25T13:22:30.96Z</time></trkpt><trkpt lat="46.6098914" lon="12.5103539"><ele>1634.3333333333335</ele><time>2026-04-25T13:22:31.959Z</time></trkpt><trkpt lat="46.6098273" lon="12.5103468"><ele>1635.0</ele><time>2026-04-25T13:22:32.959Z</time></trkpt><trkpt lat="46.60976" lon="12.5103534"><ele>1635.6666666666665</ele><time>2026-04-25T13:22:33.959Z</time></trkpt><trkpt lat="46.6096404" lon="12.5103292"><ele>1636.3333333333333</ele><time>2026-04-25T13:22:35.96Z</time></trkpt><trkpt lat="46.6095689" lon="12.5102946"><ele>1637.0</ele><time>2026-04-25T13:22:36.958Z</time></trkpt><trkpt lat="46.6094887" lon="12.5102542"><ele>1636.9999999999998</ele><time>2026-04-25T13:22:37.959Z</time></trkpt><trkpt lat="46.6094112" lon="12.5102092"><ele>1637.0</ele><time>2026-04-25T13:22:38.959Z</time></trkpt><trkpt lat="46.6093349" lon="12.5101638"><ele>1637.0</ele><time>2026-04-25T13:22:39.959Z</time></trkpt><trkpt lat="46.6092528" lon="12.5101196"><ele>1637.0</ele><time>2026-04-25T13:22:40.959Z</time></trkpt><trkpt lat="46.6091765" lon="12.5100997"><ele>1636.9999999999998</ele><time>2026-04-25T13:22:41.959Z</time></trkpt><trkpt lat="46.6090853" lon="12.5100833"><ele>1637.0</ele><time>2026-04-25T13:22:42.959Z</time></trkpt><trkpt lat="46.6090149" lon="12.510116"><ele>1636.9999999999998</ele><time>2026-04-25T13:22:43.958Z</time></trkpt><trkpt lat="46.6089388" lon="12.5101239"><ele>1637.0</ele><time>2026-04-25T13:22:44.959Z</time></trkpt><trkpt lat="46.6088504" lon="12.5101682"><ele>1637.0</ele><time>2026-04-25T13:22:45.959Z</time></trkpt><trkpt lat="46.6087745" lon="12.5102247"><ele>1637.0</ele><time>2026-04-25T13:22:46.959Z</time></trkpt><trkpt lat="46.6087163" lon="12.5102612"><ele>1636.9999999999998</ele><time>2026-04-25T13:22:47.959Z</time></trkpt><trkpt lat="46.6086529" lon="12.5102942"><ele>1637.0</ele><time>2026-04-25T13:22:48.96Z</time></trkpt><trkpt lat="46.6085379" lon="12.5102912"><ele>1637.6666666666665</ele><time>2026-04-25T13:22:50.959Z</time></trkpt><trkpt lat="46.608469" lon="12.5102567"><ele>1638.3333333333333</ele><time>2026-04-25T13:22:51.959Z</time></trkpt><trkpt lat="46.6083932" lon="12.510216"><ele>1639.0</ele><time>2026-04-25T13:22:52.959Z</time></trkpt><trkpt lat="46.6083201" lon="12.5101761"><ele>1639.6666666666665</ele><time>2026-04-25T13:22:53.958Z</time></trkpt><trkpt lat="46.6082454" lon="12.5101459"><ele>1640.3333333333333</ele><time>2026-04-25T13:22:54.959Z</time></trkpt><trkpt lat="46.6081752" lon="12.5101258"><ele>1641.0</ele><time>2026-04-25T13:22:55.959Z</time></trkpt><trkpt lat="46.6080942" lon="12.5101056"><ele>1641.0</ele><time>2026-04-25T13:22:56.959Z</time></trkpt><trkpt lat="46.6080069" lon="12.510096"><ele>1641.0</ele><time>2026-04-25T13:22:57.959Z</time></trkpt><trkpt lat="46.6079218" lon="12.5100906"><ele>1641.0</ele><time>2026-04-25T13:22:58.959Z</time></trkpt><trkpt lat="46.6078335" lon="12.5100891"><ele>1641.0</ele><time>2026-04-25T13:22:59.958Z</time></trkpt><trkpt lat="46.6077475" lon="12.5100765"><ele>1641.0</ele><time>2026-04-25T13:23:00.959Z</time></trkpt><trkpt lat="46.6076624" lon="12.5100719"><ele>1641.0</ele><time>2026-04-25T13:23:01.958Z</time></trkpt><trkpt lat="46.6075895" lon="12.5100571"><ele>1640.0</ele><time>2026-04-25T13:23:02.958Z</time></trkpt><trkpt lat="46.6075099" lon="12.5100497"><ele>1639.0</ele><time>2026-04-25T13:23:03.958Z</time></trkpt><trkpt lat="46.6074344" lon="12.5100474"><ele>1638.0</ele><time>2026-04-25T13:23:04.959Z</time></trkpt><trkpt lat="46.6073515" lon="12.5100566"><ele>1637.0</ele><time>2026-04-25T13:23:05.959Z</time></trkpt><trkpt lat="46.6072698" lon="12.5100647"><ele>1636.0</ele><time>2026-04-25T13:23:06.959Z</time></trkpt><trkpt lat="46.607188" lon="12.510072"><ele>1635.0</ele><time>2026-04-25T13:23:07.958Z</time></trkpt><trkpt lat="46.60711" lon="12.510079"><ele>1635.0</ele><time>2026-04-25T13:23:08.958Z</time></trkpt><trkpt lat="46.6070328" lon="12.51008"><ele>1635.0</ele><time>2026-04-25T13:23:09.958Z</time></trkpt><trkpt lat="46.6069592" lon="12.5100701"><ele>1635.0</ele><time>2026-04-25T13:23:10.959Z</time></trkpt><trkpt lat="46.6068799" lon="12.5100905"><ele>1635.0</ele><time>2026-04-25T13:23:11.959Z</time></trkpt><trkpt lat="46.606804" lon="12.5100983"><ele>1635.0</ele><time>2026-04-25T13:23:12.959Z</time></trkpt><trkpt lat="46.6067312" lon="12.5100767"><ele>1635.0</ele><time>2026-04-25T13:23:13.959Z</time></trkpt><trkpt lat="46.6066576" lon="12.510041"><ele>1632.8</ele><time>2026-04-25T13:23:14.959Z</time></trkpt><trkpt lat="46.6065767" lon="12.5100096"><ele>1630.6</ele><time>2026-04-25T13:23:15.959Z</time></trkpt><trkpt lat="46.6064904" lon="12.5099931"><ele>1628.4</ele><time>2026-04-25T13:23:16.958Z</time></trkpt><trkpt lat="46.6064003" lon="12.5099951"><ele>1626.2</ele><time>2026-04-25T13:23:17.959Z</time></trkpt><trkpt lat="46.6063067" lon="12.509992"><ele>1624.0</ele><time>2026-04-25T13:23:18.959Z</time></trkpt><trkpt lat="46.6062111" lon="12.5099882"><ele>1623.2</ele><time>2026-04-25T13:23:19.959Z</time></trkpt><trkpt lat="46.6061156" lon="12.5099897"><ele>1622.4</ele><time>2026-04-25T13:23:20.959Z</time></trkpt><trkpt lat="46.6060268" lon="12.5099969"><ele>1621.6</ele><time>2026-04-25T13:23:21.959Z</time></trkpt><trkpt lat="46.6059364" lon="12.5100238"><ele>1620.8</ele><time>2026-04-25T13:23:22.958Z</time></trkpt><trkpt lat="46.6058458" lon="12.5100597"><ele>1620.0</ele><time>2026-04-25T13:23:23.959Z</time></trkpt><trkpt lat="46.6057616" lon="12.5100722"><ele>1620.0</ele><time>2026-04-25T13:23:24.959Z</time></trkpt><trkpt lat="46.6056781" lon="12.5100877"><ele>1620.0</ele><time>2026-04-25T13:23:25.959Z</time></trkpt><trkpt lat="46.6055942" lon="12.5101011"><ele>1620.0</ele><time>2026-04-25T13:23:26.959Z</time></trkpt><trkpt lat="46.6055207" lon="12.5101219"><ele>1620.0</ele><time>2026-04-25T13:23:27.959Z</time></trkpt><trkpt lat="46.605449" lon="12.5101374"><ele>1620.0</ele><time>2026-04-25T13:23:28.959Z</time></trkpt><trkpt lat="46.605366" lon="12.5101509"><ele>1620.0</ele><time>2026-04-25T13:23:29.959Z</time></trkpt><trkpt lat="46.6052907" lon="12.5101553"><ele>1619.0</ele><time>2026-04-25T13:23:30.959Z</time></trkpt><trkpt lat="46.6051909" lon="12.5101574"><ele>1618.0</ele><time>2026-04-25T13:23:31.959Z</time></trkpt><trkpt lat="46.605091" lon="12.5101464"><ele>1617.0</ele><time>2026-04-25T13:23:32.959Z</time></trkpt><trkpt lat="46.604995" lon="12.5101399"><ele>1616.0</ele><time>2026-04-25T13:23:33.959Z</time></trkpt><trkpt lat="46.6048994" lon="12.5101328"><ele>1615.0</ele><time>2026-04-25T13:23:34.959Z</time></trkpt><trkpt lat="46.604816" lon="12.5101405"><ele>1615.0000000000002</ele><time>2026-04-25T13:23:35.959Z</time></trkpt><trkpt lat="46.6047348" lon="12.5101625"><ele>1615.0</ele><time>2026-04-25T13:23:36.959Z</time></trkpt><trkpt lat="46.6046496" lon="12.5101771"><ele>1615.0</ele><time>2026-04-25T13:23:37.959Z</time></trkpt><trkpt lat="46.6045614" lon="12.5101923"><ele>1615.0</ele><time>2026-04-25T13:23:38.959Z</time></trkpt><trkpt lat="46.6044752" lon="12.5102007"><ele>1615.0000000000002</ele><time>2026-04-25T13:23:39.959Z</time></trkpt><trkpt lat="46.6043816" lon="12.5102191"><ele>1615.0</ele><time>2026-04-25T13:23:40.959Z</time></trkpt><trkpt lat="46.6042925" lon="12.5102374"><ele>1613.5000000000002</ele><time>2026-04-25T13:23:41.959Z</time></trkpt><trkpt lat="46.6042018" lon="12.510253"><ele>1612.0</ele><time>2026-04-25T13:23:42.959Z</time></trkpt><trkpt lat="46.6041152" lon="12.5102771"><ele>1610.5</ele><time>2026-04-25T13:23:43.958Z</time></trkpt><trkpt lat="46.6040288" lon="12.5103106"><ele>1609.0</ele><time>2026-04-25T13:23:44.959Z</time></trkpt><trkpt lat="46.6039447" lon="12.5103532"><ele>1607.5000000000002</ele><time>2026-04-25T13:23:45.959Z</time></trkpt><trkpt lat="46.6038586" lon="12.5103826"><ele>1606.0</ele><time>2026-04-25T13:23:46.957Z</time></trkpt><trkpt lat="46.6037725" lon="12.5103939"><ele>1606.0</ele><time>2026-04-25T13:23:47.959Z</time></trkpt><trkpt lat="46.6036797" lon="12.5103879"><ele>1606.0</ele><time>2026-04-25T13:23:48.959Z</time></trkpt><trkpt lat="46.6035883" lon="12.5103624"><ele>1606.0</ele><time>2026-04-25T13:23:49.958Z</time></trkpt><trkpt lat="46.6034993" lon="12.5103394"><ele>1606.0</ele><time>2026-04-25T13:23:50.958Z</time></trkpt><trkpt lat="46.6034017" lon="12.5103228"><ele>1606.0</ele><time>2026-04-25T13:23:51.959Z</time></trkpt><trkpt lat="46.6033178" lon="12.5102929"><ele>1604.8333333333335</ele><time>2026-04-25T13:23:52.959Z</time></trkpt><trkpt lat="46.6032387" lon="12.5102524"><ele>1603.6666666666667</ele><time>2026-04-25T13:23:53.959Z</time></trkpt><trkpt lat="46.6031594" lon="12.5102299"><ele>1602.5</ele><time>2026-04-25T13:23:54.959Z</time></trkpt><trkpt lat="46.603075" lon="12.5102209"><ele>1601.3333333333335</ele><time>2026-04-25T13:23:55.959Z</time></trkpt><trkpt lat="46.6029838" lon="12.5102267"><ele>1600.1666666666667</ele><time>2026-04-25T13:23:56.959Z</time></trkpt><trkpt lat="46.6028846" lon="12.510242"><ele>1599.0</ele><time>2026-04-25T13:23:57.959Z</time></trkpt><trkpt lat="46.602783" lon="12.5102557"><ele>1598.2</ele><time>2026-04-25T13:23:58.959Z</time></trkpt><trkpt lat="46.6026812" lon="12.5102535"><ele>1597.4</ele><time>2026-04-25T13:23:59.959Z</time></trkpt><trkpt lat="46.6025818" lon="12.5102108"><ele>1596.6</ele><time>2026-04-25T13:24:00.959Z</time></trkpt><trkpt lat="46.60248" lon="12.5101975"><ele>1595.8</ele><time>2026-04-25T13:24:01.958Z</time></trkpt><trkpt lat="46.6023766" lon="12.510191"><ele>1595.0</ele><time>2026-04-25T13:24:02.959Z</time></trkpt><trkpt lat="46.602277" lon="12.51018"><ele>1595.0</ele><time>2026-04-25T13:24:03.959Z</time></trkpt><trkpt lat="46.6021767" lon="12.5101663"><ele>1595.0</ele><time>2026-04-25T13:24:04.959Z</time></trkpt><trkpt lat="46.6020865" lon="12.5101641"><ele>1595.0</ele><time>2026-04-25T13:24:05.958Z</time></trkpt><trkpt lat="46.6019904" lon="12.5101846"><ele>1595.0</ele><time>2026-04-25T13:24:06.959Z</time></trkpt><trkpt lat="46.601908" lon="12.5101619"><ele>1595.0</ele><time>2026-04-25T13:24:07.959Z</time></trkpt><trkpt lat="46.6018072" lon="12.5101656"><ele>1595.0</ele><time>2026-04-25T13:24:08.959Z</time></trkpt><trkpt lat="46.6017024" lon="12.5101648"><ele>1595.0</ele><time>2026-04-25T13:24:09.959Z</time></trkpt><trkpt lat="46.601584" lon="12.5101704"><ele>1595.0</ele><time>2026-04-25T13:24:10.959Z</time></trkpt><trkpt lat="46.6014644" lon="12.5102009"><ele>1595.0</ele><time>2026-04-25T13:24:11.957Z</time></trkpt><trkpt lat="46.6013445" lon="12.5102194"><ele>1595.0</ele><time>2026-04-25T13:24:12.959Z</time></trkpt><trkpt lat="46.6012448" lon="12.5102563"><ele>1595.0</ele><time>2026-04-25T13:24:13.959Z</time></trkpt><trkpt lat="46.6011381" lon="12.5102541"><ele>1595.0</ele><time>2026-04-25T13:24:14.959Z</time></trkpt><trkpt lat="46.6010486" lon="12.51026"><ele>1595.0</ele><time>2026-04-25T13:24:15.959Z</time></trkpt><trkpt lat="46.6009601" lon="12.5102482"><ele>1595.0</ele><time>2026-04-25T13:24:16.959Z</time></trkpt><trkpt lat="46.6008783" lon="12.5102096"><ele>1593.4</ele><time>2026-04-25T13:24:17.958Z</time></trkpt><trkpt lat="46.6008016" lon="12.5101671"><ele>1591.8</ele><time>2026-04-25T13:24:18.959Z</time></trkpt><trkpt lat="46.6007327" lon="12.5101282"><ele>1590.1999999999998</ele><time>2026-04-25T13:24:19.958Z</time></trkpt><trkpt lat="46.6006147" lon="12.5101278"><ele>1588.6</ele><time>2026-04-25T13:24:21.959Z</time></trkpt><trkpt lat="46.6004864" lon="12.5101857"><ele>1587.0</ele><time>2026-04-25T13:24:23.958Z</time></trkpt><trkpt lat="46.6004074" lon="12.5102124"><ele>1584.0</ele><time>2026-04-25T13:24:24.959Z</time></trkpt><trkpt lat="46.600329" lon="12.5102356"><ele>1581.0</ele><time>2026-04-25T13:24:25.959Z</time></trkpt><trkpt lat="46.6002465" lon="12.510255"><ele>1578.0</ele><time>2026-04-25T13:24:26.959Z</time></trkpt><trkpt lat="46.6001665" lon="12.5102704"><ele>1575.0</ele><time>2026-04-25T13:24:27.958Z</time></trkpt><trkpt lat="46.6000878" lon="12.5102812"><ele>1572.0</ele><time>2026-04-25T13:24:28.959Z</time></trkpt><trkpt lat="46.6000164" lon="12.5102942"><ele>1569.0</ele><time>2026-04-25T13:24:29.958Z</time></trkpt><trkpt lat="46.5999072" lon="12.5102908"><ele>1569.0</ele><time>2026-04-25T13:24:31.959Z</time></trkpt><trkpt lat="46.5998248" lon="12.5102795"><ele>1569.0</ele><time>2026-04-25T13:24:33.959Z</time></trkpt><trkpt lat="46.5997196" lon="12.5102467"><ele>1569.0</ele><time>2026-04-25T13:24:35.959Z</time></trkpt><trkpt lat="46.5996553" lon="12.5102226"><ele>1569.0</ele><time>2026-04-25T13:24:36.958Z</time></trkpt><trkpt lat="46.5995904" lon="12.5102061"><ele>1569.0</ele><time>2026-04-25T13:24:37.959Z</time></trkpt><trkpt lat="46.5994905" lon="12.510161"><ele>1569.0</ele><time>2026-04-25T13:24:39.958Z</time></trkpt><trkpt lat="46.5993882" lon="12.5101384"><ele>1565.2</ele><time>2026-04-25T13:24:41.959Z</time></trkpt><trkpt lat="46.5992901" lon="12.5101712"><ele>1561.4</ele><time>2026-04-25T13:24:43.959Z</time></trkpt><trkpt lat="46.5991841" lon="12.510244"><ele>1557.6</ele><time>2026-04-25T13:24:45.958Z</time></trkpt><trkpt lat="46.5991256" lon="12.5102915"><ele>1553.8</ele><time>2026-04-25T13:24:46.959Z</time></trkpt><trkpt lat="46.5990033" lon="12.5103888"><ele>1550.0</ele><time>2026-04-25T13:24:48.959Z</time></trkpt><trkpt lat="46.5989435" lon="12.5104291"><ele>1550.0</ele><time>2026-04-25T13:24:49.959Z</time></trkpt><trkpt lat="46.5988462" lon="12.5104834"><ele>1550.0</ele><time>2026-04-25T13:24:51.957Z</time></trkpt><trkpt lat="46.5987387" lon="12.5104587"><ele>1550.0</ele><time>2026-04-25T13:24:53.959Z</time></trkpt><trkpt lat="46.5986549" lon="12.5104507"><ele>1550.0</ele><time>2026-04-25T13:24:55.959Z</time></trkpt><trkpt lat="46.5985902" lon="12.510427"><ele>1550.0</ele><time>2026-04-25T13:24:57.959Z</time></trkpt><trkpt lat="46.5984778" lon="12.5103977"><ele>1544.8</ele><time>2026-04-25T13:24:59.959Z</time></trkpt><trkpt lat="46.5983812" lon="12.5103642"><ele>1539.6</ele><time>2026-04-25T13:25:01.958Z</time></trkpt><trkpt lat="46.5982812" lon="12.5103187"><ele>1534.4</ele><time>2026-04-25T13:25:03.959Z</time></trkpt><trkpt lat="46.5981756" lon="12.5103151"><ele>1529.2</ele><time>2026-04-25T13:25:05.959Z</time></trkpt><trkpt lat="46.5980383" lon="12.5103511"><ele>1524.0</ele><time>2026-04-25T13:25:07.959Z</time></trkpt><trkpt lat="46.5979725" lon="12.5103907"><ele>1527.25</ele><time>2026-04-25T13:25:08.959Z</time></trkpt><trkpt lat="46.597858" lon="12.5104317"><ele>1530.5</ele><time>2026-04-25T13:25:10.959Z</time></trkpt><trkpt lat="46.5977461" lon="12.5104669"><ele>1533.75</ele><time>2026-04-25T13:25:12.957Z</time></trkpt><trkpt lat="46.5976483" lon="12.5105443"><ele>1537.0</ele><time>2026-04-25T13:25:14.958Z</time></trkpt><trkpt lat="46.5975506" lon="12.5106375"><ele>1531.6</ele><time>2026-04-25T13:25:16.959Z</time></trkpt><trkpt lat="46.5974613" lon="12.5107348"><ele>1526.1999999999998</ele><time>2026-04-25T13:25:18.958Z</time></trkpt><trkpt lat="46.5973833" lon="12.5108177"><ele>1520.8</ele><time>2026-04-25T13:25:20.958Z</time></trkpt><trkpt lat="46.5972928" lon="12.5108918"><ele>1515.4</ele><time>2026-04-25T13:25:22.959Z</time></trkpt><trkpt lat="46.597202" lon="12.510935"><ele>1510.0</ele><time>2026-04-25T13:25:24.958Z</time></trkpt><trkpt lat="46.5971415" lon="12.5109627"><ele>1510.0</ele><time>2026-04-25T13:25:26.959Z</time></trkpt><trkpt lat="46.5970715" lon="12.5110038"><ele>1510.0</ele><time>2026-04-25T13:25:30.959Z</time></trkpt><trkpt lat="46.5970503" lon="12.5110955"><ele>1510.0</ele><time>2026-04-25T13:25:32.958Z</time></trkpt><trkpt lat="46.5970294" lon="12.5112223"><ele>1510.0</ele><time>2026-04-25T13:25:34.958Z</time></trkpt><trkpt lat="46.5970223" lon="12.5113491"><ele>1510.0</ele><time>2026-04-25T13:25:36.959Z</time></trkpt><trkpt lat="46.5970381" lon="12.5114724"><ele>1510.0</ele><time>2026-04-25T13:25:38.958Z</time></trkpt><trkpt lat="46.5970517" lon="12.5115811"><ele>1509.2857142857142</ele><time>2026-04-25T13:25:40.959Z</time></trkpt><trkpt lat="46.5970651" lon="12.5116821"><ele>1508.5714285714287</ele><time>2026-04-25T13:25:42.959Z</time></trkpt><trkpt lat="46.5970533" lon="12.5117979"><ele>1507.857142857143</ele><time>2026-04-25T13:25:44.959Z</time></trkpt><trkpt lat="46.597044" lon="12.5118909"><ele>1507.142857142857</ele><time>2026-04-25T13:25:58.959Z</time></trkpt><trkpt lat="46.5970495" lon="12.5119969"><ele>1506.4285714285716</ele><time>2026-04-25T13:26:01.959Z</time></trkpt><trkpt lat="46.5970733" lon="12.5120936"><ele>1505.7142857142858</ele><time>2026-04-25T13:26:03.958Z</time></trkpt><trkpt lat="46.5971065" lon="12.5121742"><ele>1505.0</ele><time>2026-04-25T13:26:05.959Z</time></trkpt><trkpt lat="46.5971339" lon="12.5122568"><ele>1502.1666666666667</ele><time>2026-04-25T13:26:10.958Z</time></trkpt><trkpt lat="46.5971472" lon="12.5123722"><ele>1499.3333333333335</ele><time>2026-04-25T13:26:26.959Z</time></trkpt><trkpt lat="46.59714" lon="12.512484"><ele>1496.5</ele><time>2026-04-25T13:26:29.958Z</time></trkpt><trkpt lat="46.597129" lon="12.5125867"><ele>1493.6666666666667</ele><time>2026-04-25T13:26:33.958Z</time></trkpt><trkpt lat="46.5970849" lon="12.5126826"><ele>1490.8333333333333</ele><time>2026-04-25T13:26:35.959Z</time></trkpt><trkpt lat="46.5970378" lon="12.5127813"><ele>1488.0</ele><time>2026-04-25T13:26:37.957Z</time></trkpt><trkpt lat="46.5969877" lon="12.5128734"><ele>1484.8333333333333</ele><time>2026-04-25T13:26:39.959Z</time></trkpt><trkpt lat="46.5969052" lon="12.5128985"><ele>1481.6666666666667</ele><time>2026-04-25T13:26:41.959Z</time></trkpt><trkpt lat="46.5968281" lon="12.5129063"><ele>1478.5</ele><time>2026-04-25T13:26:43.959Z</time></trkpt><trkpt lat="46.5967511" lon="12.5129771"><ele>1475.3333333333335</ele><time>2026-04-25T13:26:45.958Z</time></trkpt><trkpt lat="46.5966938" lon="12.5130243"><ele>1472.1666666666667</ele><time>2026-04-25T13:26:47.957Z</time></trkpt><trkpt lat="46.5966102" lon="12.5130733"><ele>1469.0</ele><time>2026-04-25T13:26:50.959Z</time></trkpt><trkpt lat="46.5965306" lon="12.5131511"><ele>1466.3333333333335</ele><time>2026-04-25T13:26:53.958Z</time></trkpt><trkpt lat="46.5964477" lon="12.5131775"><ele>1463.6666666666667</ele><time>2026-04-25T13:26:55.958Z</time></trkpt><trkpt lat="46.5963674" lon="12.5132324"><ele>1461.0</ele><time>2026-04-25T13:26:57.959Z</time></trkpt><trkpt lat="46.5962918" lon="12.5133124"><ele>1458.3333333333333</ele><time>2026-04-25T13:27:00.958Z</time></trkpt><trkpt lat="46.5962241" lon="12.5133661"><ele>1455.6666666666665</ele><time>2026-04-25T13:27:02.958Z</time></trkpt><trkpt lat="46.5961458" lon="12.5134358"><ele>1453.0</ele><time>2026-04-25T13:27:04.958Z</time></trkpt><trkpt lat="46.5960582" lon="12.5135105"><ele>1449.0</ele><time>2026-04-25T13:27:06.958Z</time></trkpt><trkpt lat="46.5959758" lon="12.5135623"><ele>1445.0</ele><time>2026-04-25T13:27:08.959Z</time></trkpt><trkpt lat="46.5959165" lon="12.5136373"><ele>1441.0</ele><time>2026-04-25T13:27:11.959Z</time></trkpt><trkpt lat="46.5958586" lon="12.5137175"><ele>1437.0</ele><time>2026-04-25T13:27:13.959Z</time></trkpt><trkpt lat="46.5957994" lon="12.5137896"><ele>1433.0</ele><time>2026-04-25T13:27:15.958Z</time></trkpt><trkpt lat="46.5957477" lon="12.5138426"><ele>1429.0</ele><time>2026-04-25T13:27:17.957Z</time></trkpt><trkpt lat="46.5956644" lon="12.5139"><ele>1426.8333333333333</ele><time>2026-04-25T13:27:20.958Z</time></trkpt><trkpt lat="46.5955973" lon="12.5139071"><ele>1424.6666666666665</ele><time>2026-04-25T13:27:22.958Z</time></trkpt><trkpt lat="46.5955356" lon="12.5139375"><ele>1422.5</ele><time>2026-04-25T13:27:24.958Z</time></trkpt><trkpt lat="46.5954641" lon="12.5140218"><ele>1420.3333333333333</ele><time>2026-04-25T13:27:27.959Z</time></trkpt><trkpt lat="46.5954209" lon="12.5141136"><ele>1418.1666666666667</ele><time>2026-04-25T13:27:30.958Z</time></trkpt><trkpt lat="46.5953374" lon="12.514141"><ele>1416.0</ele><time>2026-04-25T13:27:33.959Z</time></trkpt><trkpt lat="46.5952654" lon="12.5140721"><ele>1412.6666666666667</ele><time>2026-04-25T13:27:36.959Z</time></trkpt><trkpt lat="46.5951743" lon="12.5141241"><ele>1409.3333333333333</ele><time>2026-04-25T13:27:39.957Z</time></trkpt><trkpt lat="46.5950917" lon="12.5141701"><ele>1406.0</ele><time>2026-04-25T13:27:41.958Z</time></trkpt><trkpt lat="46.5950069" lon="12.5142056"><ele>1402.6666666666665</ele><time>2026-04-25T13:27:43.958Z</time></trkpt><trkpt lat="46.5949213" lon="12.5142511"><ele>1399.3333333333333</ele><time>2026-04-25T13:27:45.958Z</time></trkpt><trkpt lat="46.5948432" lon="12.5142881"><ele>1396.0</ele><time>2026-04-25T13:27:47.958Z</time></trkpt><trkpt lat="46.5947653" lon="12.5143226"><ele>1396.0</ele><time>2026-04-25T13:27:49.959Z</time></trkpt><trkpt lat="46.5946813" lon="12.5143712"><ele>1396.0</ele><time>2026-04-25T13:27:52.958Z</time></trkpt><trkpt lat="46.5946008" lon="12.5143922"><ele>1396.0</ele><time>2026-04-25T13:27:54.958Z</time></trkpt><trkpt lat="46.5945274" lon="12.514408"><ele>1396.0</ele><time>2026-04-25T13:27:56.958Z</time></trkpt><trkpt lat="46.5944387" lon="12.514412"><ele>1396.0</ele><time>2026-04-25T13:27:58.959Z</time></trkpt><trkpt lat="46.5943207" lon="12.5144155"><ele>1393.5714285714284</ele><time>2026-04-25T13:28:00.958Z</time></trkpt><trkpt lat="46.5942564" lon="12.5144045"><ele>1391.142857142857</ele><time>2026-04-25T13:28:01.958Z</time></trkpt><trkpt lat="46.5941904" lon="12.5143897"><ele>1388.7142857142858</ele><time>2026-04-25T13:28:02.959Z</time></trkpt><trkpt lat="46.5941216" lon="12.5143726"><ele>1386.2857142857142</ele><time>2026-04-25T13:28:03.958Z</time></trkpt><trkpt lat="46.5940482" lon="12.5143468"><ele>1383.857142857143</ele><time>2026-04-25T13:28:04.959Z</time></trkpt><trkpt lat="46.5939713" lon="12.5143185"><ele>1381.4285714285713</ele><time>2026-04-25T13:28:05.959Z</time></trkpt><trkpt lat="46.5938993" lon="12.5143"><ele>1379.0</ele><time>2026-04-25T13:28:06.958Z</time></trkpt><trkpt lat="46.5938212" lon="12.5142978"><ele>1379.0</ele><time>2026-04-25T13:28:07.959Z</time></trkpt><trkpt lat="46.5937416" lon="12.5143059"><ele>1379.0</ele><time>2026-04-25T13:28:08.958Z</time></trkpt><trkpt lat="46.5936626" lon="12.5143117"><ele>1379.0</ele><time>2026-04-25T13:28:09.958Z</time></trkpt><trkpt lat="46.5935789" lon="12.5143128"><ele>1379.0</ele><time>2026-04-25T13:28:10.958Z</time></trkpt><trkpt lat="46.593492" lon="12.5142919"><ele>1379.0</ele><time>2026-04-25T13:28:11.958Z</time></trkpt><trkpt lat="46.5934106" lon="12.5142703"><ele>1379.0</ele><time>2026-04-25T13:28:12.957Z</time></trkpt><trkpt lat="46.5933407" lon="12.5142515"><ele>1373.8000000000002</ele><time>2026-04-25T13:28:13.958Z</time></trkpt><trkpt lat="46.5932293" lon="12.5142282"><ele>1368.6000000000001</ele><time>2026-04-25T13:28:15.958Z</time></trkpt><trkpt lat="46.5931473" lon="12.5142062"><ele>1363.4</ele><time>2026-04-25T13:28:17.959Z</time></trkpt><trkpt lat="46.5930834" lon="12.514244"><ele>1358.2</ele><time>2026-04-25T13:28:19.957Z</time></trkpt><trkpt lat="46.5930688" lon="12.5143678"><ele>1353.0</ele><time>2026-04-25T13:28:22.958Z</time></trkpt><trkpt lat="46.5931575" lon="12.5144488"><ele>1353.0</ele><time>2026-04-25T13:28:24.958Z</time></trkpt><trkpt lat="46.5932247" lon="12.5144918"><ele>1353.0</ele><time>2026-04-25T13:28:25.958Z</time></trkpt><trkpt lat="46.5933022" lon="12.5145241"><ele>1353.0</ele><time>2026-04-25T13:28:26.958Z</time></trkpt><trkpt lat="46.5933714" lon="12.5145763"><ele>1353.0</ele><time>2026-04-25T13:28:27.958Z</time></trkpt><trkpt lat="46.5934441" lon="12.5146285"><ele>1353.0</ele><time>2026-04-25T13:28:28.957Z</time></trkpt><trkpt lat="46.5935108" lon="12.5146774"><ele>1353.0</ele><time>2026-04-25T13:28:29.958Z</time></trkpt><trkpt lat="46.5935716" lon="12.5147376"><ele>1354.0</ele><time>2026-04-25T13:28:30.957Z</time></trkpt><trkpt lat="46.59363" lon="12.5148179"><ele>1355.0</ele><time>2026-04-25T13:28:31.958Z</time></trkpt><trkpt lat="46.5936763" lon="12.5149099"><ele>1356.0</ele><time>2026-04-25T13:28:32.958Z</time></trkpt><trkpt lat="46.5937165" lon="12.5150153"><ele>1357.0</ele><time>2026-04-25T13:28:33.958Z</time></trkpt><trkpt lat="46.5937502" lon="12.5151186"><ele>1358.0</ele><time>2026-04-25T13:28:34.959Z</time></trkpt><trkpt lat="46.5937802" lon="12.5152219"><ele>1359.0</ele><time>2026-04-25T13:28:35.959Z</time></trkpt><trkpt lat="46.5938134" lon="12.5153176"><ele>1356.0</ele><time>2026-04-25T13:28:36.959Z</time></trkpt><trkpt lat="46.5938536" lon="12.5154076"><ele>1353.0</ele><time>2026-04-25T13:28:37.958Z</time></trkpt><trkpt lat="46.5939035" lon="12.5154875"><ele>1350.0</ele><time>2026-04-25T13:28:38.959Z</time></trkpt><trkpt lat="46.5939591" lon="12.5155605"><ele>1347.0</ele><time>2026-04-25T13:28:39.958Z</time></trkpt><trkpt lat="46.5940258" lon="12.5156295"><ele>1344.0</ele><time>2026-04-25T13:28:40.957Z</time></trkpt><trkpt lat="46.5940961" lon="12.5157014"><ele>1341.0</ele><time>2026-04-25T13:28:41.958Z</time></trkpt><trkpt lat="46.5941751" lon="12.5157589"><ele>1341.0</ele><time>2026-04-25T13:28:42.958Z</time></trkpt><trkpt lat="46.5942519" lon="12.5158221"><ele>1341.0</ele><time>2026-04-25T13:28:43.958Z</time></trkpt><trkpt lat="46.5943292" lon="12.5158731"><ele>1341.0</ele><time>2026-04-25T13:28:44.958Z</time></trkpt><trkpt lat="46.5944117" lon="12.5159164"><ele>1341.0</ele><time>2026-04-25T13:28:45.958Z</time></trkpt><trkpt lat="46.5944993" lon="12.5159531"><ele>1341.0</ele><time>2026-04-25T13:28:46.958Z</time></trkpt><trkpt lat="46.5945833" lon="12.5159925"><ele>1341.0</ele><time>2026-04-25T13:28:47.959Z</time></trkpt><trkpt lat="46.5946667" lon="12.5160285"><ele>1339.3333333333333</ele><time>2026-04-25T13:28:48.958Z</time></trkpt><trkpt lat="46.5947487" lon="12.5160657"><ele>1337.6666666666667</ele><time>2026-04-25T13:28:49.958Z</time></trkpt><trkpt lat="46.594831" lon="12.5161017"><ele>1336.0</ele><time>2026-04-25T13:28:50.959Z</time></trkpt><trkpt lat="46.5949139" lon="12.5161459"><ele>1334.3333333333335</ele><time>2026-04-25T13:28:51.959Z</time></trkpt><trkpt lat="46.5949889" lon="12.516195"><ele>1332.6666666666667</ele><time>2026-04-25T13:28:52.958Z</time></trkpt><trkpt lat="46.5950626" lon="12.5162511"><ele>1331.0</ele><time>2026-04-25T13:28:53.957Z</time></trkpt><trkpt lat="46.5951348" lon="12.5163081"><ele>1331.0</ele><time>2026-04-25T13:28:54.958Z</time></trkpt><trkpt lat="46.5952022" lon="12.5163656"><ele>1331.0</ele><time>2026-04-25T13:28:55.959Z</time></trkpt><trkpt lat="46.5952746" lon="12.5164278"><ele>1331.0</ele><time>2026-04-25T13:28:56.958Z</time></trkpt><trkpt lat="46.5953392" lon="12.516472"><ele>1331.0</ele><time>2026-04-25T13:28:57.958Z</time></trkpt><trkpt lat="46.5954015" lon="12.5165124"><ele>1331.0</ele><time>2026-04-25T13:28:58.958Z</time></trkpt><trkpt lat="46.5954603" lon="12.516549"><ele>1331.0</ele><time>2026-04-25T13:28:59.959Z</time></trkpt><trkpt lat="46.5955636" lon="12.5165687"><ele>1334.6</ele><time>2026-04-25T13:29:01.958Z</time></trkpt><trkpt lat="46.595631" lon="12.5165284"><ele>1338.1999999999998</ele><time>2026-04-25T13:29:03.959Z</time></trkpt><trkpt lat="46.5957035" lon="12.5164114"><ele>1341.8000000000002</ele><time>2026-04-25T13:29:05.958Z</time></trkpt><trkpt lat="46.5957854" lon="12.5163018"><ele>1345.4</ele><time>2026-04-25T13:29:07.957Z</time></trkpt><trkpt lat="46.5958799" lon="12.5163228"><ele>1349.0</ele><time>2026-04-25T13:29:09.958Z</time></trkpt><trkpt lat="46.595938" lon="12.5164284"><ele>1349.0</ele><time>2026-04-25T13:29:11.958Z</time></trkpt><trkpt lat="46.5959988" lon="12.516564"><ele>1349.0</ele><time>2026-04-25T13:29:13.958Z</time></trkpt><trkpt lat="46.5960857" lon="12.5166859"><ele>1349.0</ele><time>2026-04-25T13:29:15.959Z</time></trkpt><trkpt lat="46.5961741" lon="12.5167633"><ele>1349.0</ele><time>2026-04-25T13:29:17.958Z</time></trkpt><trkpt lat="46.5962881" lon="12.5167633"><ele>1349.0</ele><time>2026-04-25T13:29:19.958Z</time></trkpt><trkpt lat="46.5963521" lon="12.516774"><ele>1350.0</ele><time>2026-04-25T13:29:20.957Z</time></trkpt><trkpt lat="46.596422" lon="12.5167895"><ele>1351.0</ele><time>2026-04-25T13:29:21.957Z</time></trkpt><trkpt lat="46.5964868" lon="12.5167998"><ele>1352.0</ele><time>2026-04-25T13:29:22.957Z</time></trkpt><trkpt lat="46.5965552" lon="12.5167963"><ele>1353.0</ele><time>2026-04-25T13:29:23.957Z</time></trkpt><trkpt lat="46.5966831" lon="12.5167908"><ele>1354.0</ele><time>2026-04-25T13:29:25.958Z</time></trkpt><trkpt lat="46.5967506" lon="12.5167808"><ele>1355.0</ele><time>2026-04-25T13:29:26.957Z</time></trkpt><trkpt lat="46.5968184" lon="12.5167664"><ele>1355.0000000000002</ele><time>2026-04-25T13:29:27.958Z</time></trkpt><trkpt lat="46.596885" lon="12.5167338"><ele>1355.0</ele><time>2026-04-25T13:29:28.958Z</time></trkpt><trkpt lat="46.5969511" lon="12.5166992"><ele>1355.0</ele><time>2026-04-25T13:29:29.958Z</time></trkpt><trkpt lat="46.5970156" lon="12.5166562"><ele>1355.0</ele><time>2026-04-25T13:29:30.958Z</time></trkpt><trkpt lat="46.5970749" lon="12.5166046"><ele>1355.0</ele><time>2026-04-25T13:29:31.957Z</time></trkpt><trkpt lat="46.5971393" lon="12.5165694"><ele>1355.0000000000002</ele><time>2026-04-25T13:29:58.958Z</time></trkpt><trkpt lat="46.5972152" lon="12.5165124"><ele>1355.0</ele><time>2026-04-25T13:30:00.958Z</time></trkpt><trkpt lat="46.5972805" lon="12.5164929"><ele>1353.6666666666667</ele><time>2026-04-25T13:30:01.958Z</time></trkpt><trkpt lat="46.5973599" lon="12.5164801"><ele>1352.3333333333335</ele><time>2026-04-25T13:30:02.958Z</time></trkpt><trkpt lat="46.5974436" lon="12.516463"><ele>1351.0</ele><time>2026-04-25T13:30:03.958Z</time></trkpt><trkpt lat="46.5975333" lon="12.5164393"><ele>1349.6666666666667</ele><time>2026-04-25T13:30:04.958Z</time></trkpt><trkpt lat="46.5976174" lon="12.5164053"><ele>1348.3333333333333</ele><time>2026-04-25T13:30:05.958Z</time></trkpt><trkpt lat="46.5977038" lon="12.5163538"><ele>1347.0</ele><time>2026-04-25T13:30:06.958Z</time></trkpt><trkpt lat="46.5977957" lon="12.5163011"><ele>1347.3999999999999</ele><time>2026-04-25T13:30:07.958Z</time></trkpt><trkpt lat="46.5978875" lon="12.5162618"><ele>1347.8</ele><time>2026-04-25T13:30:08.958Z</time></trkpt><trkpt lat="46.5979896" lon="12.5162422"><ele>1348.2</ele><time>2026-04-25T13:30:09.957Z</time></trkpt><trkpt lat="46.5980953" lon="12.5162476"><ele>1348.6</ele><time>2026-04-25T13:30:10.958Z</time></trkpt><trkpt lat="46.5981909" lon="12.516246"><ele>1349.0</ele><time>2026-04-25T13:30:11.958Z</time></trkpt><trkpt lat="46.5982847" lon="12.5162429"><ele>1349.0</ele><time>2026-04-25T13:30:12.958Z</time></trkpt><trkpt lat="46.5983772" lon="12.516261"><ele>1349.0</ele><time>2026-04-25T13:30:13.958Z</time></trkpt><trkpt lat="46.5984626" lon="12.5162887"><ele>1349.0</ele><time>2026-04-25T13:30:14.957Z</time></trkpt><trkpt lat="46.598537" lon="12.5163372"><ele>1349.0</ele><time>2026-04-25T13:30:15.958Z</time></trkpt><trkpt lat="46.5986" lon="12.5163958"><ele>1349.0</ele><time>2026-04-25T13:30:16.958Z</time></trkpt><trkpt lat="46.5986617" lon="12.5164426"><ele>1349.0</ele><time>2026-04-25T13:30:17.958Z</time></trkpt><trkpt lat="46.5987304" lon="12.5164844"><ele>1349.1666666666667</ele><time>2026-04-25T13:30:18.958Z</time></trkpt><trkpt lat="46.5988066" lon="12.5165"><ele>1349.3333333333335</ele><time>2026-04-25T13:30:19.957Z</time></trkpt><trkpt lat="46.5988745" lon="12.5165159"><ele>1349.5</ele><time>2026-04-25T13:30:20.957Z</time></trkpt><trkpt lat="46.5989393" lon="12.5165293"><ele>1349.6666666666667</ele><time>2026-04-25T13:30:21.958Z</time></trkpt><trkpt lat="46.599047" lon="12.5165183"><ele>1349.8333333333333</ele><time>2026-04-25T13:30:23.958Z</time></trkpt><trkpt lat="46.599143" lon="12.5164839"><ele>1350.0</ele><time>2026-04-25T13:30:25.958Z</time></trkpt><trkpt lat="46.5992447" lon="12.5164219"><ele>1350.0</ele><time>2026-04-25T13:30:27.958Z</time></trkpt><trkpt lat="46.5993153" lon="12.5163792"><ele>1350.0</ele><time>2026-04-25T13:30:28.958Z</time></trkpt><trkpt lat="46.5993964" lon="12.5163367"><ele>1350.0</ele><time>2026-04-25T13:30:29.958Z</time></trkpt><trkpt lat="46.5994831" lon="12.5163037"><ele>1350.0</ele><time>2026-04-25T13:30:30.958Z</time></trkpt><trkpt lat="46.5995782" lon="12.5162983"><ele>1350.0</ele><time>2026-04-25T13:30:31.958Z</time></trkpt><trkpt lat="46.5996793" lon="12.5162951"><ele>1350.0</ele><time>2026-04-25T13:30:32.958Z</time></trkpt><trkpt lat="46.5997844" lon="12.5162941"><ele>1349.8</ele><time>2026-04-25T13:30:33.958Z</time></trkpt><trkpt lat="46.5998919" lon="12.5162892"><ele>1349.6</ele><time>2026-04-25T13:30:34.958Z</time></trkpt><trkpt lat="46.5999953" lon="12.5162903"><ele>1349.4</ele><time>2026-04-25T13:30:35.958Z</time></trkpt><trkpt lat="46.6000824" lon="12.5162924"><ele>1349.2</ele><time>2026-04-25T13:30:36.958Z</time></trkpt><trkpt lat="46.6001586" lon="12.5163222"><ele>1349.0</ele><time>2026-04-25T13:30:37.958Z</time></trkpt><trkpt lat="46.6002423" lon="12.5163709"><ele>1349.0</ele><time>2026-04-25T13:30:38.957Z</time></trkpt><trkpt lat="46.600331" lon="12.5164301"><ele>1349.0</ele><time>2026-04-25T13:30:39.958Z</time></trkpt><trkpt lat="46.6004167" lon="12.5164893"><ele>1349.0</ele><time>2026-04-25T13:30:40.958Z</time></trkpt><trkpt lat="46.600496" lon="12.5165232"><ele>1349.0</ele><time>2026-04-25T13:30:41.958Z</time></trkpt><trkpt lat="46.6005748" lon="12.5165397"><ele>1349.0</ele><time>2026-04-25T13:30:42.959Z</time></trkpt><trkpt lat="46.600652" lon="12.516534"><ele>1349.0</ele><time>2026-04-25T13:30:43.958Z</time></trkpt><trkpt lat="46.6007306" lon="12.5164862"><ele>1351.0</ele><time>2026-04-25T13:30:44.958Z</time></trkpt><trkpt lat="46.600815" lon="12.5164427"><ele>1353.0</ele><time>2026-04-25T13:30:45.957Z</time></trkpt><trkpt lat="46.6009006" lon="12.5164187"><ele>1355.0</ele><time>2026-04-25T13:30:46.958Z</time></trkpt><trkpt lat="46.6009874" lon="12.5164213"><ele>1357.0</ele><time>2026-04-25T13:30:47.958Z</time></trkpt><trkpt lat="46.6010653" lon="12.5164449"><ele>1359.0</ele><time>2026-04-25T13:30:48.957Z</time></trkpt><trkpt lat="46.6011372" lon="12.5164841"><ele>1361.0</ele><time>2026-04-25T13:30:49.958Z</time></trkpt><trkpt lat="46.6012087" lon="12.516529"><ele>1362.0</ele><time>2026-04-25T13:30:50.957Z</time></trkpt><trkpt lat="46.6012785" lon="12.5165942"><ele>1363.0</ele><time>2026-04-25T13:30:51.958Z</time></trkpt><trkpt lat="46.6013422" lon="12.5166563"><ele>1364.0</ele><time>2026-04-25T13:30:52.956Z</time></trkpt><trkpt lat="46.6013885" lon="12.5167534"><ele>1365.0</ele><time>2026-04-25T13:30:53.958Z</time></trkpt><trkpt lat="46.6014341" lon="12.5168435"><ele>1366.0</ele><time>2026-04-25T13:30:54.958Z</time></trkpt><trkpt lat="46.6014698" lon="12.5169299"><ele>1367.0</ele><time>2026-04-25T13:30:55.957Z</time></trkpt><trkpt lat="46.6015121" lon="12.5170006"><ele>1367.0</ele><time>2026-04-25T13:30:56.958Z</time></trkpt><trkpt lat="46.6015633" lon="12.5170615"><ele>1367.0</ele><time>2026-04-25T13:30:57.957Z</time></trkpt><trkpt lat="46.6016228" lon="12.5171117"><ele>1367.0</ele><time>2026-04-25T13:30:58.958Z</time></trkpt><trkpt lat="46.6016856" lon="12.5171413"><ele>1367.0</ele><time>2026-04-25T13:30:59.957Z</time></trkpt><trkpt lat="46.6017972" lon="12.5171385"><ele>1367.0</ele><time>2026-04-25T13:31:01.957Z</time></trkpt><trkpt lat="46.6019162" lon="12.5170579"><ele>1367.0</ele><time>2026-04-25T13:31:03.957Z</time></trkpt><trkpt lat="46.6019944" lon="12.5170495"><ele>1365.3333333333335</ele><time>2026-04-25T13:31:04.958Z</time></trkpt><trkpt lat="46.6020716" lon="12.5170756"><ele>1363.6666666666667</ele><time>2026-04-25T13:31:05.957Z</time></trkpt><trkpt lat="46.6021599" lon="12.517166"><ele>1362.0</ele><time>2026-04-25T13:31:07.958Z</time></trkpt><trkpt lat="46.6022203" lon="12.5172514"><ele>1360.3333333333333</ele><time>2026-04-25T13:31:10.958Z</time></trkpt><trkpt lat="46.6022777" lon="12.517303"><ele>1358.6666666666665</ele><time>2026-04-25T13:31:24.958Z</time></trkpt><trkpt lat="46.6023412" lon="12.5173763"><ele>1357.0</ele><time>2026-04-25T13:31:28.957Z</time></trkpt><trkpt lat="46.6023837" lon="12.517457"><ele>1357.0</ele><time>2026-04-25T13:31:31.958Z</time></trkpt><trkpt lat="46.6024297" lon="12.5175841"><ele>1357.0</ele><time>2026-04-25T13:31:34.958Z</time></trkpt><trkpt lat="46.6024778" lon="12.5176834"><ele>1357.0</ele><time>2026-04-25T13:31:36.957Z</time></trkpt><trkpt lat="46.6025391" lon="12.5177586"><ele>1357.0</ele><time>2026-04-25T13:31:38.957Z</time></trkpt><trkpt lat="46.6026016" lon="12.5178306"><ele>1357.0</ele><time>2026-04-25T13:31:40.957Z</time></trkpt><trkpt lat="46.6026662" lon="12.5178884"><ele>1357.0</ele><time>2026-04-25T13:31:42.957Z</time></trkpt><trkpt lat="46.6027373" lon="12.5179151"><ele>1359.1999999999998</ele><time>2026-04-25T13:31:44.958Z</time></trkpt><trkpt lat="46.6028443" lon="12.5179126"><ele>1361.4</ele><time>2026-04-25T13:31:46.957Z</time></trkpt><trkpt lat="46.6029132" lon="12.5178881"><ele>1363.6</ele><time>2026-04-25T13:31:47.956Z</time></trkpt><trkpt lat="46.6029974" lon="12.5178211"><ele>1365.8000000000002</ele><time>2026-04-25T13:31:48.958Z</time></trkpt><trkpt lat="46.603079" lon="12.5177717"><ele>1368.0</ele><time>2026-04-25T13:31:49.957Z</time></trkpt><trkpt lat="46.6031663" lon="12.5177404"><ele>1368.0</ele><time>2026-04-25T13:31:50.958Z</time></trkpt><trkpt lat="46.6032541" lon="12.5177288"><ele>1368.0</ele><time>2026-04-25T13:31:51.958Z</time></trkpt><trkpt lat="46.6033548" lon="12.5177144"><ele>1368.0</ele><time>2026-04-25T13:31:52.958Z</time></trkpt><trkpt lat="46.6034602" lon="12.5176982"><ele>1368.0</ele><time>2026-04-25T13:31:53.957Z</time></trkpt><trkpt lat="46.6035679" lon="12.5176772"><ele>1368.0</ele><time>2026-04-25T13:31:54.957Z</time></trkpt><trkpt lat="46.6036766" lon="12.5176665"><ele>1368.0</ele><time>2026-04-25T13:31:55.957Z</time></trkpt><trkpt lat="46.6037795" lon="12.5176829"><ele>1368.0</ele><time>2026-04-25T13:31:56.958Z</time></trkpt><trkpt lat="46.603887" lon="12.5176437"><ele>1368.0</ele><time>2026-04-25T13:31:57.957Z</time></trkpt><trkpt lat="46.6039951" lon="12.5176458"><ele>1368.0</ele><time>2026-04-25T13:31:58.958Z</time></trkpt><trkpt lat="46.6041095" lon="12.5176628"><ele>1368.0</ele><time>2026-04-25T13:31:59.958Z</time></trkpt><trkpt lat="46.6042183" lon="12.5176735"><ele>1368.0</ele><time>2026-04-25T13:32:00.957Z</time></trkpt><trkpt lat="46.604332" lon="12.5176713"><ele>1368.0</ele><time>2026-04-25T13:32:01.957Z</time></trkpt><trkpt lat="46.6044479" lon="12.5176857"><ele>1368.0</ele><time>2026-04-25T13:32:02.959Z</time></trkpt><trkpt lat="46.6045647" lon="12.5177036"><ele>1368.0</ele><time>2026-04-25T13:32:03.957Z</time></trkpt><trkpt lat="46.6046786" lon="12.5177325"><ele>1369.6000000000001</ele><time>2026-04-25T13:32:04.957Z</time></trkpt><trkpt lat="46.6047885" lon="12.5177571"><ele>1371.2</ele><time>2026-04-25T13:32:05.958Z</time></trkpt><trkpt lat="46.6048932" lon="12.517768"><ele>1372.8</ele><time>2026-04-25T13:32:06.958Z</time></trkpt><trkpt lat="46.6049884" lon="12.5177899"><ele>1374.4</ele><time>2026-04-25T13:32:07.957Z</time></trkpt><trkpt lat="46.6050875" lon="12.5178455"><ele>1376.0</ele><time>2026-04-25T13:32:08.958Z</time></trkpt><trkpt lat="46.6051883" lon="12.5179136"><ele>1372.0</ele><time>2026-04-25T13:32:09.958Z</time></trkpt><trkpt lat="46.6052909" lon="12.5179899"><ele>1368.0</ele><time>2026-04-25T13:32:10.956Z</time></trkpt><trkpt lat="46.6054123" lon="12.5180879"><ele>1364.0</ele><time>2026-04-25T13:32:11.958Z</time></trkpt><trkpt lat="46.6055251" lon="12.5181805"><ele>1360.0</ele><time>2026-04-25T13:32:12.958Z</time></trkpt><trkpt lat="46.6056381" lon="12.5182594"><ele>1360.0</ele><time>2026-04-25T13:32:13.957Z</time></trkpt><trkpt lat="46.6057307" lon="12.5183392"><ele>1360.0</ele><time>2026-04-25T13:32:14.957Z</time></trkpt><trkpt lat="46.605803" lon="12.5184138"><ele>1360.0</ele><time>2026-04-25T13:32:15.958Z</time></trkpt><trkpt lat="46.6058672" lon="12.5184656"><ele>1360.0</ele><time>2026-04-25T13:32:16.958Z</time></trkpt><trkpt lat="46.6059352" lon="12.5184822"><ele>1360.0</ele><time>2026-04-25T13:32:17.958Z</time></trkpt><trkpt lat="46.6060116" lon="12.5184751"><ele>1360.0</ele><time>2026-04-25T13:32:18.957Z</time></trkpt><trkpt lat="46.606094" lon="12.5184355"><ele>1361.0</ele><time>2026-04-25T13:32:19.958Z</time></trkpt><trkpt lat="46.606185" lon="12.5183855"><ele>1362.0</ele><time>2026-04-25T13:32:20.957Z</time></trkpt><trkpt lat="46.6062675" lon="12.51832"><ele>1363.0</ele><time>2026-04-25T13:32:21.958Z</time></trkpt><trkpt lat="46.6063388" lon="12.5182521"><ele>1364.0</ele><time>2026-04-25T13:32:22.958Z</time></trkpt><trkpt lat="46.6063937" lon="12.5181895"><ele>1365.0</ele><time>2026-04-25T13:32:23.958Z</time></trkpt><trkpt lat="46.6064871" lon="12.5180973"><ele>1365.0</ele><time>2026-04-25T13:32:25.958Z</time></trkpt><trkpt lat="46.606576" lon="12.5181537"><ele>1365.0</ele><time>2026-04-25T13:32:27.957Z</time></trkpt><trkpt lat="46.6066178" lon="12.5182238"><ele>1365.0</ele><time>2026-04-25T13:32:28.958Z</time></trkpt><trkpt lat="46.6067234" lon="12.5183257"><ele>1365.0</ele><time>2026-04-25T13:32:30.958Z</time></trkpt><trkpt lat="46.6068006" lon="12.5183652"><ele>1365.0</ele><time>2026-04-25T13:32:31.957Z</time></trkpt><trkpt lat="46.6068745" lon="12.5184099"><ele>1365.0</ele><time>2026-04-25T13:32:32.958Z</time></trkpt><trkpt lat="46.606936" lon="12.518469"><ele>1365.0</ele><time>2026-04-25T13:32:33.956Z</time></trkpt><trkpt lat="46.6069788" lon="12.5185468"><ele>1365.0</ele><time>2026-04-25T13:32:34.957Z</time></trkpt><trkpt lat="46.6070235" lon="12.5187031"><ele>1365.0</ele><time>2026-04-25T13:32:36.957Z</time></trkpt><trkpt lat="46.6070516" lon="12.518786"><ele>1365.0</ele><time>2026-04-25T13:32:37.958Z</time></trkpt><trkpt lat="46.6070892" lon="12.5188666"><ele>1365.0</ele><time>2026-04-25T13:32:38.958Z</time></trkpt><trkpt lat="46.607136" lon="12.5189602"><ele>1365.0</ele><time>2026-04-25T13:32:39.957Z</time></trkpt><trkpt lat="46.6071816" lon="12.5190748"><ele>1367.6666666666667</ele><time>2026-04-25T13:32:40.957Z</time></trkpt><trkpt lat="46.607206" lon="12.5191807"><ele>1370.3333333333333</ele><time>2026-04-25T13:32:41.958Z</time></trkpt><trkpt lat="46.6072493" lon="12.5192517"><ele>1373.0</ele><time>2026-04-25T13:32:42.956Z</time></trkpt><trkpt lat="46.6073618" lon="12.5193242"><ele>1375.6666666666665</ele><time>2026-04-25T13:32:44.957Z</time></trkpt><trkpt lat="46.6074281" lon="12.5193014"><ele>1378.3333333333333</ele><time>2026-04-25T13:32:45.958Z</time></trkpt><trkpt lat="46.6074844" lon="12.519254"><ele>1381.0</ele><time>2026-04-25T13:32:46.958Z</time></trkpt><trkpt lat="46.6075422" lon="12.5192088"><ele>1381.0</ele><time>2026-04-25T13:32:47.958Z</time></trkpt><trkpt lat="46.6076069" lon="12.5191839"><ele>1381.0</ele><time>2026-04-25T13:32:48.957Z</time></trkpt><trkpt lat="46.6076728" lon="12.5191602"><ele>1381.0</ele><time>2026-04-25T13:32:49.956Z</time></trkpt><trkpt lat="46.6077427" lon="12.5191652"><ele>1381.0</ele><time>2026-04-25T13:32:50.958Z</time></trkpt><trkpt lat="46.6078139" lon="12.5191825"><ele>1381.0</ele><time>2026-04-25T13:32:51.957Z</time></trkpt><trkpt lat="46.6078871" lon="12.51919"><ele>1381.0</ele><time>2026-04-25T13:32:52.958Z</time></trkpt><trkpt lat="46.607963" lon="12.5191693"><ele>1381.0</ele><time>2026-04-25T13:32:53.956Z</time></trkpt><trkpt lat="46.6080322" lon="12.519111"><ele>1383.0</ele><time>2026-04-25T13:32:54.958Z</time></trkpt><trkpt lat="46.6081051" lon="12.5190575"><ele>1385.0</ele><time>2026-04-25T13:32:55.957Z</time></trkpt><trkpt lat="46.6081984" lon="12.5190023"><ele>1387.0</ele><time>2026-04-25T13:32:56.957Z</time></trkpt><trkpt lat="46.6083006" lon="12.5189526"><ele>1389.0</ele><time>2026-04-25T13:32:57.958Z</time></trkpt><trkpt lat="46.6084031" lon="12.5189027"><ele>1391.0</ele><time>2026-04-25T13:32:58.956Z</time></trkpt><trkpt lat="46.6085313" lon="12.5188429"><ele>1391.0</ele><time>2026-04-25T13:32:59.957Z</time></trkpt><trkpt lat="46.6086357" lon="12.5187786"><ele>1391.0</ele><time>2026-04-25T13:33:00.958Z</time></trkpt><trkpt lat="46.6087549" lon="12.5186926"><ele>1391.0</ele><time>2026-04-25T13:33:02.957Z</time></trkpt><trkpt lat="46.6088132" lon="12.5185201"><ele>1391.0</ele><time>2026-04-25T13:33:04.957Z</time></trkpt><trkpt lat="46.6088308" lon="12.5184138"><ele>1397.4</ele><time>2026-04-25T13:33:05.958Z</time></trkpt><trkpt lat="46.6088496" lon="12.5183104"><ele>1403.8</ele><time>2026-04-25T13:33:06.957Z</time></trkpt><trkpt lat="46.6089504" lon="12.5182624"><ele>1410.2</ele><time>2026-04-25T13:33:08.956Z</time></trkpt><trkpt lat="46.6090867" lon="12.5182688"><ele>1416.6000000000001</ele><time>2026-04-25T13:33:10.958Z</time></trkpt><trkpt lat="46.6091738" lon="12.518284"><ele>1423.0</ele><time>2026-04-25T13:33:11.958Z</time></trkpt><trkpt lat="46.6092675" lon="12.5183052"><ele>1423.0</ele><time>2026-04-25T13:33:12.958Z</time></trkpt><trkpt lat="46.6093593" lon="12.5183174"><ele>1423.0</ele><time>2026-04-25T13:33:13.958Z</time></trkpt><trkpt lat="46.6094275" lon="12.5183185"><ele>1423.0</ele><time>2026-04-25T13:33:14.958Z</time></trkpt><trkpt lat="46.6094985" lon="12.5182932"><ele>1423.0</ele><time>2026-04-25T13:33:15.956Z</time></trkpt><trkpt lat="46.6095645" lon="12.5182447"><ele>1423.0</ele><time>2026-04-25T13:33:16.958Z</time></trkpt><trkpt lat="46.6096368" lon="12.5181659"><ele>1423.0</ele><time>2026-04-25T13:33:17.958Z</time></trkpt><trkpt lat="46.6097087" lon="12.5180827"><ele>1424.4</ele><time>2026-04-25T13:33:18.957Z</time></trkpt><trkpt lat="46.6097917" lon="12.5180129"><ele>1425.8000000000002</ele><time>2026-04-25T13:33:19.957Z</time></trkpt><trkpt lat="46.6098816" lon="12.5179507"><ele>1427.2</ele><time>2026-04-25T13:33:20.957Z</time></trkpt><trkpt lat="46.6099706" lon="12.5178942"><ele>1428.6</ele><time>2026-04-25T13:33:21.956Z</time></trkpt><trkpt lat="46.6100491" lon="12.5178472"><ele>1430.0</ele><time>2026-04-25T13:33:22.957Z</time></trkpt><trkpt lat="46.6101305" lon="12.5178105"><ele>1437.4</ele><time>2026-04-25T13:33:23.958Z</time></trkpt><trkpt lat="46.6102144" lon="12.5177765"><ele>1444.8</ele><time>2026-04-25T13:33:24.956Z</time></trkpt><trkpt lat="46.6103298" lon="12.5178142"><ele>1452.1999999999998</ele><time>2026-04-25T13:33:25.957Z</time></trkpt><trkpt lat="46.6104441" lon="12.5178189"><ele>1459.6</ele><time>2026-04-25T13:33:26.957Z</time></trkpt><trkpt lat="46.6105634" lon="12.5178263"><ele>1467.0</ele><time>2026-04-25T13:33:27.957Z</time></trkpt><trkpt lat="46.6106526" lon="12.5178213"><ele>1468.1666666666667</ele><time>2026-04-25T13:33:28.957Z</time></trkpt><trkpt lat="46.610731" lon="12.5178483"><ele>1469.3333333333333</ele><time>2026-04-25T13:33:29.957Z</time></trkpt><trkpt lat="46.6107909" lon="12.5179034"><ele>1470.5</ele><time>2026-04-25T13:33:30.957Z</time></trkpt><trkpt lat="46.6108238" lon="12.5180115"><ele>1471.6666666666665</ele><time>2026-04-25T13:33:31.957Z</time></trkpt><trkpt lat="46.6108516" lon="12.5181405"><ele>1472.8333333333333</ele><time>2026-04-25T13:33:32.958Z</time></trkpt><trkpt lat="46.6108751" lon="12.5182745"><ele>1474.0</ele><time>2026-04-25T13:33:33.957Z</time></trkpt><trkpt lat="46.6109057" lon="12.5184078"><ele>1471.0</ele><time>2026-04-25T13:33:34.957Z</time></trkpt><trkpt lat="46.6109405" lon="12.5185306"><ele>1468.0</ele><time>2026-04-25T13:33:35.958Z</time></trkpt><trkpt lat="46.6109669" lon="12.5186534"><ele>1465.0</ele><time>2026-04-25T13:33:36.957Z</time></trkpt><trkpt lat="46.6109895" lon="12.5187687"><ele>1462.0</ele><time>2026-04-25T13:33:37.958Z</time></trkpt><trkpt lat="46.6110108" lon="12.5188739"><ele>1459.0</ele><time>2026-04-25T13:33:38.956Z</time></trkpt><trkpt lat="46.6110383" lon="12.5189898"><ele>1456.0</ele><time>2026-04-25T13:33:39.957Z</time></trkpt><trkpt lat="46.6110747" lon="12.5190935"><ele>1457.4</ele><time>2026-04-25T13:33:40.958Z</time></trkpt><trkpt lat="46.6111137" lon="12.5191973"><ele>1458.8</ele><time>2026-04-25T13:33:41.957Z</time></trkpt><trkpt lat="46.6111668" lon="12.5192993"><ele>1460.2</ele><time>2026-04-25T13:33:42.957Z</time></trkpt><trkpt lat="46.6112287" lon="12.5194024"><ele>1461.6000000000001</ele><time>2026-04-25T13:33:43.958Z</time></trkpt><trkpt lat="46.611294" lon="12.5195098"><ele>1463.0</ele><time>2026-04-25T13:33:44.958Z</time></trkpt><trkpt lat="46.611355" lon="12.5196093"><ele>1460.6666666666667</ele><time>2026-04-25T13:33:45.958Z</time></trkpt><trkpt lat="46.6114129" lon="12.5197114"><ele>1458.3333333333335</ele><time>2026-04-25T13:33:46.958Z</time></trkpt><trkpt lat="46.6114624" lon="12.5197999"><ele>1456.0</ele><time>2026-04-25T13:33:47.957Z</time></trkpt><trkpt lat="46.6115141" lon="12.5198872"><ele>1453.6666666666667</ele><time>2026-04-25T13:33:48.957Z</time></trkpt><trkpt lat="46.611575" lon="12.5199584"><ele>1451.3333333333333</ele><time>2026-04-25T13:33:49.957Z</time></trkpt><trkpt lat="46.6116514" lon="12.5200251"><ele>1449.0</ele><time>2026-04-25T13:33:50.957Z</time></trkpt><trkpt lat="46.611731" lon="12.5200852"><ele>1449.0</ele><time>2026-04-25T13:33:51.956Z</time></trkpt><trkpt lat="46.6118059" lon="12.5201374"><ele>1449.0</ele><time>2026-04-25T13:33:52.957Z</time></trkpt><trkpt lat="46.6118661" lon="12.5202071"><ele>1449.0</ele><time>2026-04-25T13:33:53.957Z</time></trkpt><trkpt lat="46.611914" lon="12.5203002"><ele>1449.0</ele><time>2026-04-25T13:33:54.956Z</time></trkpt><trkpt lat="46.6119463" lon="12.5204191"><ele>1449.0</ele><time>2026-04-25T13:33:55.957Z</time></trkpt><trkpt lat="46.6119745" lon="12.5205505"><ele>1449.0</ele><time>2026-04-25T13:33:56.957Z</time></trkpt><trkpt lat="46.6120056" lon="12.5206836"><ele>1449.0</ele><time>2026-04-25T13:33:57.956Z</time></trkpt><trkpt lat="46.6120453" lon="12.5208087"><ele>1449.0</ele><time>2026-04-25T13:33:58.958Z</time></trkpt><trkpt lat="46.6120737" lon="12.5209331"><ele>1449.0</ele><time>2026-04-25T13:33:59.957Z</time></trkpt><trkpt lat="46.6120996" lon="12.5210746"><ele>1449.0</ele><time>2026-04-25T13:34:00.957Z</time></trkpt><trkpt lat="46.6121187" lon="12.5212128"><ele>1449.0</ele><time>2026-04-25T13:34:01.958Z</time></trkpt><trkpt lat="46.6121451" lon="12.521357"><ele>1452.6</ele><time>2026-04-25T13:34:02.956Z</time></trkpt><trkpt lat="46.6121845" lon="12.5215103"><ele>1456.2</ele><time>2026-04-25T13:34:03.957Z</time></trkpt><trkpt lat="46.6122294" lon="12.5216649"><ele>1459.8</ele><time>2026-04-25T13:34:04.958Z</time></trkpt><trkpt lat="46.6122758" lon="12.5218081"><ele>1463.3999999999999</ele><time>2026-04-25T13:34:05.957Z</time></trkpt><trkpt lat="46.6123095" lon="12.5219439"><ele>1467.0</ele><time>2026-04-25T13:34:06.957Z</time></trkpt><trkpt lat="46.6123212" lon="12.5220803"><ele>1467.0</ele><time>2026-04-25T13:34:07.957Z</time></trkpt><trkpt lat="46.6123117" lon="12.5222032"><ele>1467.0</ele><time>2026-04-25T13:34:08.958Z</time></trkpt><trkpt lat="46.6123023" lon="12.5223223"><ele>1467.0</ele><time>2026-04-25T13:34:09.957Z</time></trkpt><trkpt lat="46.6123037" lon="12.5224423"><ele>1467.0</ele><time>2026-04-25T13:34:10.957Z</time></trkpt><trkpt lat="46.612322" lon="12.5225656"><ele>1467.0</ele><time>2026-04-25T13:34:11.957Z</time></trkpt><trkpt lat="46.6123423" lon="12.5226891"><ele>1467.0</ele><time>2026-04-25T13:34:12.958Z</time></trkpt><trkpt lat="46.612382" lon="12.5228168"><ele>1467.8</ele><time>2026-04-25T13:34:13.957Z</time></trkpt><trkpt lat="46.6124176" lon="12.5229312"><ele>1468.6</ele><time>2026-04-25T13:34:14.958Z</time></trkpt><trkpt lat="46.6124635" lon="12.5230548"><ele>1469.3999999999999</ele><time>2026-04-25T13:34:15.958Z</time></trkpt><trkpt lat="46.6125076" lon="12.5231754"><ele>1470.1999999999998</ele><time>2026-04-25T13:34:16.957Z</time></trkpt><trkpt lat="46.6125655" lon="12.5232936"><ele>1471.0</ele><time>2026-04-25T13:34:17.957Z</time></trkpt><trkpt lat="46.6126119" lon="12.5233958"><ele>1471.0</ele><time>2026-04-25T13:34:18.958Z</time></trkpt><trkpt lat="46.6126457" lon="12.5235027"><ele>1471.0</ele><time>2026-04-25T13:34:19.957Z</time></trkpt><trkpt lat="46.6126808" lon="12.5236007"><ele>1471.0</ele><time>2026-04-25T13:34:20.957Z</time></trkpt><trkpt lat="46.6127155" lon="12.5237269"><ele>1471.0</ele><time>2026-04-25T13:34:22.957Z</time></trkpt><trkpt lat="46.6127536" lon="12.5238198"><ele>1471.0</ele><time>2026-04-25T13:34:24.958Z</time></trkpt><trkpt lat="46.612799" lon="12.5239079"><ele>1471.0</ele><time>2026-04-25T13:34:26.958Z</time></trkpt><trkpt lat="46.6128376" lon="12.5239969"><ele>1476.3333333333333</ele><time>2026-04-25T13:34:28.957Z</time></trkpt><trkpt lat="46.6129079" lon="12.5240897"><ele>1481.6666666666665</ele><time>2026-04-25T13:34:31.957Z</time></trkpt><trkpt lat="46.6129809" lon="12.5241638"><ele>1487.0</ele><time>2026-04-25T13:34:36.958Z</time></trkpt><trkpt lat="46.6130395" lon="12.5242164"><ele>1492.3333333333333</ele><time>2026-04-25T13:34:38.958Z</time></trkpt><trkpt lat="46.6131072" lon="12.5242521"><ele>1497.6666666666667</ele><time>2026-04-25T13:34:40.957Z</time></trkpt><trkpt lat="46.6131832" lon="12.5242597"><ele>1503.0</ele><time>2026-04-25T13:34:42.957Z</time></trkpt><trkpt lat="46.6132462" lon="12.5242456"><ele>1503.0</ele><time>2026-04-25T13:34:44.957Z</time></trkpt><trkpt lat="46.6133369" lon="12.5242089"><ele>1503.0</ele><time>2026-04-25T13:34:47.957Z</time></trkpt><trkpt lat="46.6134184" lon="12.5241692"><ele>1503.0</ele><time>2026-04-25T13:34:50.956Z</time></trkpt><trkpt lat="46.6134698" lon="12.5240672"><ele>1503.0</ele><time>2026-04-25T13:34:53.956Z</time></trkpt><trkpt lat="46.6135109" lon="12.5239629"><ele>1503.0</ele><time>2026-04-25T13:34:56.956Z</time></trkpt><trkpt lat="46.6135556" lon="12.5238583"><ele>1503.0</ele><time>2026-04-25T13:34:59.957Z</time></trkpt><trkpt lat="46.6136268" lon="12.5237603"><ele>1506.8333333333333</ele><time>2026-04-25T13:35:02.956Z</time></trkpt><trkpt lat="46.6137003" lon="12.5237129"><ele>1510.6666666666667</ele><time>2026-04-25T13:35:04.958Z</time></trkpt><trkpt lat="46.6137816" lon="12.523723"><ele>1514.5</ele><time>2026-04-25T13:35:06.957Z</time></trkpt><trkpt lat="46.6138529" lon="12.5237645"><ele>1518.3333333333335</ele><time>2026-04-25T13:35:07.957Z</time></trkpt><trkpt lat="46.6139179" lon="12.5237896"><ele>1522.1666666666667</ele><time>2026-04-25T13:35:08.957Z</time></trkpt><trkpt lat="46.6139878" lon="12.5238644"><ele>1526.0</ele><time>2026-04-25T13:35:09.957Z</time></trkpt><trkpt lat="46.6140624" lon="12.5239526"><ele>1526.0</ele><time>2026-04-25T13:35:10.957Z</time></trkpt><trkpt lat="46.6141474" lon="12.5240519"><ele>1526.0</ele><time>2026-04-25T13:35:11.957Z</time></trkpt><trkpt lat="46.6142398" lon="12.5241645"><ele>1526.0</ele><time>2026-04-25T13:35:12.958Z</time></trkpt><trkpt lat="46.6143332" lon="12.5242808"><ele>1526.0</ele><time>2026-04-25T13:35:13.957Z</time></trkpt><trkpt lat="46.6144231" lon="12.5243844"><ele>1527.25</ele><time>2026-04-25T13:35:14.958Z</time></trkpt><trkpt lat="46.6145233" lon="12.5244719"><ele>1528.5</ele><time>2026-04-25T13:35:15.958Z</time></trkpt><trkpt lat="46.6146477" lon="12.5245455"><ele>1529.75</ele><time>2026-04-25T13:35:16.957Z</time></trkpt><trkpt lat="46.6147715" lon="12.5245912"><ele>1531.0</ele><time>2026-04-25T13:35:17.958Z</time></trkpt><trkpt lat="46.6148888" lon="12.5246332"><ele>1531.0</ele><time>2026-04-25T13:35:18.956Z</time></trkpt><trkpt lat="46.6149981" lon="12.5246764"><ele>1531.0</ele><time>2026-04-25T13:35:19.957Z</time></trkpt><trkpt lat="46.6151002" lon="12.5247196"><ele>1531.0</ele><time>2026-04-25T13:35:20.957Z</time></trkpt><trkpt lat="46.6152044" lon="12.5247529"><ele>1531.0</ele><time>2026-04-25T13:35:21.957Z</time></trkpt><trkpt lat="46.6153137" lon="12.5247703"><ele>1531.0</ele><time>2026-04-25T13:35:22.958Z</time></trkpt><trkpt lat="46.6154218" lon="12.5247575"><ele>1531.1999999999998</ele><time>2026-04-25T13:35:23.957Z</time></trkpt><trkpt lat="46.6155305" lon="12.5247299"><ele>1531.3999999999999</ele><time>2026-04-25T13:35:24.957Z</time></trkpt><trkpt lat="46.6156349" lon="12.5246939"><ele>1531.6</ele><time>2026-04-25T13:35:25.957Z</time></trkpt><trkpt lat="46.6157383" lon="12.5246596"><ele>1531.8</ele><time>2026-04-25T13:35:26.957Z</time></trkpt><trkpt lat="46.6158357" lon="12.5246403"><ele>1532.0</ele><time>2026-04-25T13:35:27.958Z</time></trkpt><trkpt lat="46.6159413" lon="12.5246364"><ele>1532.0</ele><time>2026-04-25T13:35:28.957Z</time></trkpt><trkpt lat="46.6160487" lon="12.5246315"><ele>1532.0</ele><time>2026-04-25T13:35:29.957Z</time></trkpt><trkpt lat="46.61615" lon="12.5246442"><ele>1532.0</ele><time>2026-04-25T13:35:30.958Z</time></trkpt><trkpt lat="46.6162639" lon="12.5246779"><ele>1532.0</ele><time>2026-04-25T13:35:31.957Z</time></trkpt><trkpt lat="46.6163848" lon="12.5247322"><ele>1533.1999999999998</ele><time>2026-04-25T13:35:32.957Z</time></trkpt><trkpt lat="46.6164968" lon="12.524783"><ele>1534.4</ele><time>2026-04-25T13:35:33.957Z</time></trkpt><trkpt lat="46.616593" lon="12.5248241"><ele>1535.6</ele><time>2026-04-25T13:35:34.956Z</time></trkpt><trkpt lat="46.6166816" lon="12.5248533"><ele>1536.8000000000002</ele><time>2026-04-25T13:35:35.957Z</time></trkpt><trkpt lat="46.616777" lon="12.5248312"><ele>1538.0</ele><time>2026-04-25T13:35:36.958Z</time></trkpt><trkpt lat="46.6168741" lon="12.5248043"><ele>1538.0</ele><time>2026-04-25T13:35:37.957Z</time></trkpt><trkpt lat="46.6169621" lon="12.5247611"><ele>1538.0</ele><time>2026-04-25T13:35:38.957Z</time></trkpt><trkpt lat="46.6170634" lon="12.5247443"><ele>1538.0</ele><time>2026-04-25T13:35:39.957Z</time></trkpt><trkpt lat="46.6171578" lon="12.5247124"><ele>1538.0</ele><time>2026-04-25T13:35:40.957Z</time></trkpt><trkpt lat="46.6172397" lon="12.5246727"><ele>1538.0</ele><time>2026-04-25T13:35:41.957Z</time></trkpt><trkpt lat="46.6173148" lon="12.5246397"><ele>1537.6666666666665</ele><time>2026-04-25T13:35:42.957Z</time></trkpt><trkpt lat="46.6173861" lon="12.5246024"><ele>1537.3333333333333</ele><time>2026-04-25T13:35:43.956Z</time></trkpt><trkpt lat="46.6174567" lon="12.5245878"><ele>1537.0</ele><time>2026-04-25T13:35:44.956Z</time></trkpt><trkpt lat="46.6175285" lon="12.5245542"><ele>1536.6666666666665</ele><time>2026-04-25T13:35:45.958Z</time></trkpt><trkpt lat="46.6175932" lon="12.5245021"><ele>1536.3333333333333</ele><time>2026-04-25T13:35:46.957Z</time></trkpt><trkpt lat="46.6176577" lon="12.5244373"><ele>1536.0</ele><time>2026-04-25T13:35:47.957Z</time></trkpt><trkpt lat="46.6177294" lon="12.5243693"><ele>1539.6</ele><time>2026-04-25T13:35:48.957Z</time></trkpt><trkpt lat="46.6178186" lon="12.5243127"><ele>1543.1999999999998</ele><time>2026-04-25T13:35:49.958Z</time></trkpt><trkpt lat="46.6179107" lon="12.5242719"><ele>1546.8000000000002</ele><time>2026-04-25T13:35:50.957Z</time></trkpt><trkpt lat="46.6180085" lon="12.524269"><ele>1550.4</ele><time>2026-04-25T13:35:51.958Z</time></trkpt><trkpt lat="46.6180873" lon="12.524292"><ele>1554.0</ele><time>2026-04-25T13:35:52.957Z</time></trkpt><trkpt lat="46.6181669" lon="12.5242951"><ele>1554.0</ele><time>2026-04-25T13:35:53.957Z</time></trkpt><trkpt lat="46.6182426" lon="12.5242755"><ele>1554.0</ele><time>2026-04-25T13:35:54.958Z</time></trkpt><trkpt lat="46.618328" lon="12.5242148"><ele>1554.0</ele><time>2026-04-25T13:35:55.957Z</time></trkpt><trkpt lat="46.6184139" lon="12.5241736"><ele>1554.0</ele><time>2026-04-25T13:35:56.956Z</time></trkpt><trkpt lat="46.6185033" lon="12.5241342"><ele>1554.0</ele><time>2026-04-25T13:35:57.957Z</time></trkpt><trkpt lat="46.6185857" lon="12.5240959"><ele>1554.0</ele><time>2026-04-25T13:35:58.957Z</time></trkpt><trkpt lat="46.6186669" lon="12.5240586"><ele>1550.6666666666667</ele><time>2026-04-25T13:35:59.958Z</time></trkpt><trkpt lat="46.6187436" lon="12.5240258"><ele>1547.3333333333333</ele><time>2026-04-25T13:36:00.957Z</time></trkpt><trkpt lat="46.6188136" lon="12.5239977"><ele>1544.0</ele><time>2026-04-25T13:36:01.958Z</time></trkpt><trkpt lat="46.6188769" lon="12.5239677"><ele>1540.6666666666665</ele><time>2026-04-25T13:36:02.958Z</time></trkpt><trkpt lat="46.6189962" lon="12.5238887"><ele>1537.3333333333333</ele><time>2026-04-25T13:36:04.957Z</time></trkpt><trkpt lat="46.6190523" lon="12.5238222"><ele>1534.0</ele><time>2026-04-25T13:36:05.957Z</time></trkpt><trkpt lat="46.6190946" lon="12.5237407"><ele>1536.2857142857142</ele><time>2026-04-25T13:36:06.958Z</time></trkpt><trkpt lat="46.6191161" lon="12.5236371"><ele>1538.5714285714287</ele><time>2026-04-25T13:36:07.957Z</time></trkpt><trkpt lat="46.6191306" lon="12.5235289"><ele>1540.8571428571427</ele><time>2026-04-25T13:36:08.957Z</time></trkpt><trkpt lat="46.6191292" lon="12.5234143"><ele>1543.142857142857</ele><time>2026-04-25T13:36:09.957Z</time></trkpt><trkpt lat="46.6191358" lon="12.523316"><ele>1545.4285714285713</ele><time>2026-04-25T13:36:10.957Z</time></trkpt><trkpt lat="46.6191501" lon="12.5232202"><ele>1547.7142857142856</ele><time>2026-04-25T13:36:11.957Z</time></trkpt><trkpt lat="46.6191804" lon="12.523125"><ele>1550.0</ele><time>2026-04-25T13:36:12.957Z</time></trkpt><trkpt lat="46.6192165" lon="12.5230423"><ele>1549.9999999999998</ele><time>2026-04-25T13:36:13.957Z</time></trkpt><trkpt lat="46.6192585" lon="12.5229677"><ele>1550.0</ele><time>2026-04-25T13:36:14.957Z</time></trkpt><trkpt lat="46.6193118" lon="12.5228867"><ele>1550.0</ele><time>2026-04-25T13:36:15.957Z</time></trkpt><trkpt lat="46.6193707" lon="12.5228105"><ele>1550.0</ele><time>2026-04-25T13:36:16.957Z</time></trkpt><trkpt lat="46.6194371" lon="12.5227441"><ele>1549.9999999999998</ele><time>2026-04-25T13:36:17.956Z</time></trkpt><trkpt lat="46.6195089" lon="12.5226877"><ele>1550.0</ele><time>2026-04-25T13:36:18.957Z</time></trkpt><trkpt lat="46.6195922" lon="12.5226701"><ele>1550.3333333333333</ele><time>2026-04-25T13:36:19.956Z</time></trkpt><trkpt lat="46.6196667" lon="12.5226414"><ele>1550.6666666666665</ele><time>2026-04-25T13:36:20.957Z</time></trkpt><trkpt lat="46.6197384" lon="12.5226109"><ele>1551.0</ele><time>2026-04-25T13:36:21.957Z</time></trkpt><trkpt lat="46.6198105" lon="12.5225341"><ele>1551.3333333333335</ele><time>2026-04-25T13:36:22.957Z</time></trkpt><trkpt lat="46.6198887" lon="12.5224736"><ele>1551.6666666666667</ele><time>2026-04-25T13:36:23.957Z</time></trkpt><trkpt lat="46.6199673" lon="12.5224156"><ele>1552.0</ele><time>2026-04-25T13:36:24.957Z</time></trkpt><trkpt lat="46.6200525" lon="12.5223636"><ele>1552.0</ele><time>2026-04-25T13:36:25.958Z</time></trkpt><trkpt lat="46.620142" lon="12.5223134"><ele>1552.0</ele><time>2026-04-25T13:36:26.957Z</time></trkpt><trkpt lat="46.6202393" lon="12.522278"><ele>1552.0</ele><time>2026-04-25T13:36:27.957Z</time></trkpt><trkpt lat="46.6203364" lon="12.5222513"><ele>1552.0</ele><time>2026-04-25T13:36:28.957Z</time></trkpt><trkpt lat="46.6204356" lon="12.5222339"><ele>1552.0</ele><time>2026-04-25T13:36:29.956Z</time></trkpt><trkpt lat="46.6205311" lon="12.5222219"><ele>1550.8</ele><time>2026-04-25T13:36:30.957Z</time></trkpt><trkpt lat="46.6206311" lon="12.5222094"><ele>1549.6</ele><time>2026-04-25T13:36:31.957Z</time></trkpt><trkpt lat="46.6207308" lon="12.5222118"><ele>1548.3999999999999</ele><time>2026-04-25T13:36:32.957Z</time></trkpt><trkpt lat="46.6208251" lon="12.5221926"><ele>1547.1999999999998</ele><time>2026-04-25T13:36:33.957Z</time></trkpt><trkpt lat="46.6209055" lon="12.5221798"><ele>1546.0</ele><time>2026-04-25T13:36:34.957Z</time></trkpt><trkpt lat="46.6209872" lon="12.5221535"><ele>1546.0</ele><time>2026-04-25T13:36:35.957Z</time></trkpt><trkpt lat="46.6210781" lon="12.5220866"><ele>1546.0</ele><time>2026-04-25T13:36:36.957Z</time></trkpt><trkpt lat="46.6211622" lon="12.5220138"><ele>1546.0</ele><time>2026-04-25T13:36:37.957Z</time></trkpt><trkpt lat="46.6212403" lon="12.5219354"><ele>1546.0</ele><time>2026-04-25T13:36:38.957Z</time></trkpt><trkpt lat="46.6213129" lon="12.5218594"><ele>1546.0</ele><time>2026-04-25T13:36:39.956Z</time></trkpt><trkpt lat="46.6213745" lon="12.5217529"><ele>1548.1999999999998</ele><time>2026-04-25T13:36:40.957Z</time></trkpt><trkpt lat="46.6214257" lon="12.5216114"><ele>1550.3999999999999</ele><time>2026-04-25T13:36:41.957Z</time></trkpt><trkpt lat="46.6214668" lon="12.5214735"><ele>1552.6</ele><time>2026-04-25T13:36:42.957Z</time></trkpt><trkpt lat="46.62152" lon="12.5213315"><ele>1554.8</ele><time>2026-04-25T13:36:43.957Z</time></trkpt><trkpt lat="46.6215829" lon="12.5211967"><ele>1557.0</ele><time>2026-04-25T13:36:44.957Z</time></trkpt><trkpt lat="46.6216535" lon="12.5210787"><ele>1556.6</ele><time>2026-04-25T13:36:45.957Z</time></trkpt><trkpt lat="46.6217266" lon="12.520969"><ele>1556.1999999999998</ele><time>2026-04-25T13:36:46.956Z</time></trkpt><trkpt lat="46.6218007" lon="12.5208544"><ele>1555.8</ele><time>2026-04-25T13:36:47.956Z</time></trkpt><trkpt lat="46.6218689" lon="12.5207298"><ele>1555.4</ele><time>2026-04-25T13:36:48.957Z</time></trkpt><trkpt lat="46.6219274" lon="12.5205942"><ele>1555.0</ele><time>2026-04-25T13:36:49.957Z</time></trkpt><trkpt lat="46.6219887" lon="12.5204628"><ele>1560.0</ele><time>2026-04-25T13:36:50.956Z</time></trkpt><trkpt lat="46.6220888" lon="12.5203548"><ele>1565.0</ele><time>2026-04-25T13:36:51.957Z</time></trkpt><trkpt lat="46.6221873" lon="12.5202533"><ele>1570.0</ele><time>2026-04-25T13:36:52.956Z</time></trkpt><trkpt lat="46.6222829" lon="12.5201727"><ele>1575.0</ele><time>2026-04-25T13:36:53.957Z</time></trkpt><trkpt lat="46.6223739" lon="12.5200972"><ele>1575.0</ele><time>2026-04-25T13:36:54.957Z</time></trkpt><trkpt lat="46.6224542" lon="12.5200205"><ele>1575.0</ele><time>2026-04-25T13:36:55.956Z</time></trkpt><trkpt lat="46.6225276" lon="12.5199258"><ele>1575.0</ele><time>2026-04-25T13:36:56.957Z</time></trkpt><trkpt lat="46.6225922" lon="12.5198336"><ele>1575.0</ele><time>2026-04-25T13:36:57.957Z</time></trkpt><trkpt lat="46.6226679" lon="12.5197451"><ele>1575.0</ele><time>2026-04-25T13:36:58.957Z</time></trkpt><trkpt lat="46.6227565" lon="12.5196724"><ele>1572.2</ele><time>2026-04-25T13:36:59.957Z</time></trkpt><trkpt lat="46.6228425" lon="12.5196085"><ele>1569.4</ele><time>2026-04-25T13:37:00.957Z</time></trkpt><trkpt lat="46.6229327" lon="12.5195736"><ele>1566.6</ele><time>2026-04-25T13:37:01.957Z</time></trkpt><trkpt lat="46.6230278" lon="12.5195348"><ele>1563.8</ele><time>2026-04-25T13:37:02.957Z</time></trkpt><trkpt lat="46.6231202" lon="12.519513"><ele>1561.0</ele><time>2026-04-25T13:37:03.956Z</time></trkpt><trkpt lat="46.6232211" lon="12.5195348"><ele>1565.5</ele><time>2026-04-25T13:37:04.956Z</time></trkpt><trkpt lat="46.6233183" lon="12.5195457"><ele>1570.0</ele><time>2026-04-25T13:37:05.956Z</time></trkpt><trkpt lat="46.6234263" lon="12.5195424"><ele>1574.5</ele><time>2026-04-25T13:37:06.957Z</time></trkpt><trkpt lat="46.6235539" lon="12.5195137"><ele>1579.0</ele><time>2026-04-25T13:37:07.957Z</time></trkpt><trkpt lat="46.6236743" lon="12.5194864"><ele>1579.0</ele><time>2026-04-25T13:37:08.956Z</time></trkpt><trkpt lat="46.6237886" lon="12.51946"><ele>1579.0</ele><time>2026-04-25T13:37:09.957Z</time></trkpt><trkpt lat="46.6238934" lon="12.5194314"><ele>1579.0</ele><time>2026-04-25T13:37:10.957Z</time></trkpt><trkpt lat="46.6239843" lon="12.5193971"><ele>1579.0</ele><time>2026-04-25T13:37:11.956Z</time></trkpt><trkpt lat="46.6240664" lon="12.5193467"><ele>1579.0</ele><time>2026-04-25T13:37:12.957Z</time></trkpt><trkpt lat="46.6241363" lon="12.5192673"><ele>1579.0000000000002</ele><time>2026-04-25T13:37:13.957Z</time></trkpt><trkpt lat="46.6241938" lon="12.5191674"><ele>1579.0</ele><time>2026-04-25T13:37:14.957Z</time></trkpt><trkpt lat="46.6242454" lon="12.519082"><ele>1579.0</ele><time>2026-04-25T13:37:15.956Z</time></trkpt><trkpt lat="46.624304" lon="12.5190177"><ele>1579.0</ele><time>2026-04-25T13:37:16.956Z</time></trkpt><trkpt lat="46.6243713" lon="12.5189738"><ele>1579.0000000000002</ele><time>2026-04-25T13:37:17.956Z</time></trkpt><trkpt lat="46.6244505" lon="12.5190103"><ele>1579.0</ele><time>2026-04-25T13:37:18.956Z</time></trkpt><trkpt lat="46.6245273" lon="12.5190304"><ele>1576.6666666666667</ele><time>2026-04-25T13:37:19.957Z</time></trkpt><trkpt lat="46.6246179" lon="12.519058"><ele>1574.3333333333335</ele><time>2026-04-25T13:37:20.957Z</time></trkpt><trkpt lat="46.6246975" lon="12.5190862"><ele>1572.0</ele><time>2026-04-25T13:37:21.956Z</time></trkpt><trkpt lat="46.6247767" lon="12.5191011"><ele>1569.6666666666665</ele><time>2026-04-25T13:37:22.957Z</time></trkpt><trkpt lat="46.6248602" lon="12.5190913"><ele>1567.3333333333333</ele><time>2026-04-25T13:37:23.957Z</time></trkpt><trkpt lat="46.6249269" lon="12.519038"><ele>1565.0</ele><time>2026-04-25T13:37:24.957Z</time></trkpt><trkpt lat="46.6249824" lon="12.5189394"><ele>1564.9999999999998</ele><time>2026-04-25T13:37:25.956Z</time></trkpt><trkpt lat="46.6250233" lon="12.5188143"><ele>1565.0</ele><time>2026-04-25T13:37:26.957Z</time></trkpt><trkpt lat="46.6250508" lon="12.5186685"><ele>1565.0</ele><time>2026-04-25T13:37:27.957Z</time></trkpt><trkpt lat="46.625071" lon="12.518536"><ele>1565.0</ele><time>2026-04-25T13:37:28.957Z</time></trkpt><trkpt lat="46.6251024" lon="12.5184411"><ele>1564.9999999999998</ele><time>2026-04-25T13:37:29.957Z</time></trkpt><trkpt lat="46.6251332" lon="12.5183518"><ele>1565.0</ele><time>2026-04-25T13:37:30.957Z</time></trkpt><trkpt lat="46.6251996" lon="12.5182431"><ele>1570.4</ele><time>2026-04-25T13:37:32.956Z</time></trkpt><trkpt lat="46.6252926" lon="12.5182049"><ele>1575.8</ele><time>2026-04-25T13:37:34.957Z</time></trkpt><trkpt lat="46.6253755" lon="12.5182939"><ele>1581.1999999999998</ele><time>2026-04-25T13:37:36.957Z</time></trkpt><trkpt lat="46.6254859" lon="12.5183682"><ele>1586.6</ele><time>2026-04-25T13:37:38.956Z</time></trkpt><trkpt lat="46.6255557" lon="12.5183612"><ele>1592.0</ele><time>2026-04-25T13:37:39.957Z</time></trkpt><trkpt lat="46.6256226" lon="12.5183402"><ele>1591.9999999999998</ele><time>2026-04-25T13:37:40.956Z</time></trkpt><trkpt lat="46.6256932" lon="12.5183319"><ele>1592.0</ele><time>2026-04-25T13:37:41.955Z</time></trkpt><trkpt lat="46.6257607" lon="12.5183296"><ele>1592.0</ele><time>2026-04-25T13:37:42.957Z</time></trkpt><trkpt lat="46.6258306" lon="12.5183185"><ele>1592.0</ele><time>2026-04-25T13:37:43.957Z</time></trkpt><trkpt lat="46.6259085" lon="12.5183089"><ele>1592.0</ele><time>2026-04-25T13:37:44.957Z</time></trkpt><trkpt lat="46.6259824" lon="12.5182886"><ele>1591.9999999999998</ele><time>2026-04-25T13:37:45.957Z</time></trkpt><trkpt lat="46.6260646" lon="12.5182848"><ele>1592.0</ele><time>2026-04-25T13:37:46.957Z</time></trkpt><trkpt lat="46.6261374" lon="12.5183029"><ele>1593.3333333333333</ele><time>2026-04-25T13:37:47.957Z</time></trkpt><trkpt lat="46.6262061" lon="12.5183311"><ele>1594.6666666666665</ele><time>2026-04-25T13:37:48.956Z</time></trkpt><trkpt lat="46.6262666" lon="12.5183717"><ele>1596.0</ele><time>2026-04-25T13:37:49.957Z</time></trkpt><trkpt lat="46.6263265" lon="12.5184143"><ele>1597.3333333333335</ele><time>2026-04-25T13:37:50.957Z</time></trkpt><trkpt lat="46.6263587" lon="12.5185699"><ele>1598.6666666666667</ele><time>2026-04-25T13:37:52.956Z</time></trkpt><trkpt lat="46.6262931" lon="12.518729"><ele>1600.0</ele><time>2026-04-25T13:37:54.957Z</time></trkpt><trkpt lat="46.6262357" lon="12.5187838"><ele>1600.0000000000002</ele><time>2026-04-25T13:37:55.957Z</time></trkpt><trkpt lat="46.6261996" lon="12.5188624"><ele>1600.0</ele><time>2026-04-25T13:37:56.957Z</time></trkpt><trkpt lat="46.6261925" lon="12.5190112"><ele>1600.0</ele><time>2026-04-25T13:37:58.956Z</time></trkpt><trkpt lat="46.6262732" lon="12.5191354"><ele>1600.0</ele><time>2026-04-25T13:38:00.957Z</time></trkpt><trkpt lat="46.6263284" lon="12.5191983"><ele>1600.0000000000002</ele><time>2026-04-25T13:38:01.957Z</time></trkpt><trkpt lat="46.626384" lon="12.519261"><ele>1600.0</ele><time>2026-04-25T13:38:02.957Z</time></trkpt><trkpt lat="46.6264412" lon="12.519341"><ele>1600.0000000000002</ele><time>2026-04-25T13:38:03.957Z</time></trkpt><trkpt lat="46.6264966" lon="12.5194393"><ele>1600.0</ele><time>2026-04-25T13:38:04.957Z</time></trkpt><trkpt lat="46.6265523" lon="12.5195311"><ele>1600.0</ele><time>2026-04-25T13:38:05.956Z</time></trkpt><trkpt lat="46.6266145" lon="12.5196128"><ele>1600.0</ele><time>2026-04-25T13:38:06.957Z</time></trkpt><trkpt lat="46.6266879" lon="12.5196808"><ele>1600.0000000000002</ele><time>2026-04-25T13:38:07.956Z</time></trkpt><trkpt lat="46.6267632" lon="12.5197527"><ele>1600.0</ele><time>2026-04-25T13:38:08.957Z</time></trkpt><trkpt lat="46.6268508" lon="12.5198094"><ele>1599.8333333333335</ele><time>2026-04-25T13:38:09.956Z</time></trkpt><trkpt lat="46.6269394" lon="12.5198611"><ele>1599.6666666666667</ele><time>2026-04-25T13:38:10.957Z</time></trkpt><trkpt lat="46.6270221" lon="12.5199099"><ele>1599.5</ele><time>2026-04-25T13:38:11.956Z</time></trkpt><trkpt lat="46.6271027" lon="12.5199548"><ele>1599.3333333333335</ele><time>2026-04-25T13:38:12.957Z</time></trkpt><trkpt lat="46.627178" lon="12.5199962"><ele>1599.1666666666667</ele><time>2026-04-25T13:38:13.956Z</time></trkpt><trkpt lat="46.6272411" lon="12.5200571"><ele>1599.0</ele><time>2026-04-25T13:38:14.957Z</time></trkpt><trkpt lat="46.6272989" lon="12.5201048"><ele>1599.0</ele><time>2026-04-25T13:38:15.957Z</time></trkpt><trkpt lat="46.6273623" lon="12.5201597"><ele>1599.0</ele><time>2026-04-25T13:38:16.957Z</time></trkpt><trkpt lat="46.6274429" lon="12.520201"><ele>1599.0</ele><time>2026-04-25T13:38:17.956Z</time></trkpt><trkpt lat="46.6275234" lon="12.5202335"><ele>1599.0</ele><time>2026-04-25T13:38:18.956Z</time></trkpt><trkpt lat="46.6276098" lon="12.5202827"><ele>1599.0</ele><time>2026-04-25T13:38:19.957Z</time></trkpt><trkpt lat="46.6276914" lon="12.5203358"><ele>1599.0</ele><time>2026-04-25T13:38:20.957Z</time></trkpt><trkpt lat="46.6277661" lon="12.5203854"><ele>1596.5</ele><time>2026-04-25T13:38:21.957Z</time></trkpt><trkpt lat="46.6278443" lon="12.5204418"><ele>1594.0</ele><time>2026-04-25T13:38:22.956Z</time></trkpt><trkpt lat="46.6279182" lon="12.5204744"><ele>1591.5</ele><time>2026-04-25T13:38:23.957Z</time></trkpt><trkpt lat="46.6280056" lon="12.520487"><ele>1589.0</ele><time>2026-04-25T13:38:24.957Z</time></trkpt><trkpt lat="46.6281023" lon="12.520498"><ele>1586.5</ele><time>2026-04-25T13:38:25.957Z</time></trkpt><trkpt lat="46.6282023" lon="12.5205046"><ele>1584.0</ele><time>2026-04-25T13:38:26.957Z</time></trkpt><trkpt lat="46.6282951" lon="12.5205227"><ele>1584.0</ele><time>2026-04-25T13:38:27.956Z</time></trkpt><trkpt lat="46.6283862" lon="12.5205295"><ele>1584.0</ele><time>2026-04-25T13:38:28.957Z</time></trkpt><trkpt lat="46.6284692" lon="12.5205166"><ele>1584.0</ele><time>2026-04-25T13:38:29.957Z</time></trkpt><trkpt lat="46.6285482" lon="12.5204652"><ele>1584.0</ele><time>2026-04-25T13:38:30.957Z</time></trkpt><trkpt lat="46.6286174" lon="12.5204097"><ele>1584.0</ele><time>2026-04-25T13:38:31.957Z</time></trkpt><trkpt lat="46.6286832" lon="12.5203357"><ele>1584.0</ele><time>2026-04-25T13:38:32.957Z</time></trkpt><trkpt lat="46.6287489" lon="12.5202299"><ele>1586.8333333333333</ele><time>2026-04-25T13:38:33.957Z</time></trkpt><trkpt lat="46.6288059" lon="12.5201315"><ele>1589.6666666666665</ele><time>2026-04-25T13:38:34.956Z</time></trkpt><trkpt lat="46.6288678" lon="12.5200575"><ele>1592.5</ele><time>2026-04-25T13:38:35.955Z</time></trkpt><trkpt lat="46.6289415" lon="12.5200023"><ele>1595.3333333333333</ele><time>2026-04-25T13:38:36.956Z</time></trkpt><trkpt lat="46.6290421" lon="12.5200274"><ele>1598.1666666666665</ele><time>2026-04-25T13:38:37.956Z</time></trkpt><trkpt lat="46.6291307" lon="12.5200309"><ele>1601.0</ele><time>2026-04-25T13:38:38.956Z</time></trkpt><trkpt lat="46.6291939" lon="12.5200612"><ele>1600.9999999999998</ele><time>2026-04-25T13:38:39.957Z</time></trkpt><trkpt lat="46.6292613" lon="12.520058"><ele>1601.0</ele><time>2026-04-25T13:38:40.956Z</time></trkpt><trkpt lat="46.6293392" lon="12.5200419"><ele>1601.0</ele><time>2026-04-25T13:38:41.957Z</time></trkpt><trkpt lat="46.6294069" lon="12.5200144"><ele>1601.0</ele><time>2026-04-25T13:38:42.957Z</time></trkpt><trkpt lat="46.6295142" lon="12.5199253"><ele>1600.9999999999998</ele><time>2026-04-25T13:38:44.955Z</time></trkpt><trkpt lat="46.6295734" lon="12.5198829"><ele>1601.0</ele><time>2026-04-25T13:38:45.957Z</time></trkpt><trkpt lat="46.6296926" lon="12.5198144"><ele>1601.9999999999998</ele><time>2026-04-25T13:38:47.956Z</time></trkpt><trkpt lat="46.6297565" lon="12.5197783"><ele>1603.0</ele><time>2026-04-25T13:38:48.956Z</time></trkpt><trkpt lat="46.6298232" lon="12.519746"><ele>1604.0</ele><time>2026-04-25T13:38:49.956Z</time></trkpt><trkpt lat="46.6298977" lon="12.5197042"><ele>1605.0</ele><time>2026-04-25T13:38:50.956Z</time></trkpt><trkpt lat="46.6299799" lon="12.5196544"><ele>1605.9999999999998</ele><time>2026-04-25T13:38:51.956Z</time></trkpt><trkpt lat="46.6300721" lon="12.5196108"><ele>1607.0</ele><time>2026-04-25T13:38:52.957Z</time></trkpt><trkpt lat="46.6301604" lon="12.5195687"><ele>1610.8333333333333</ele><time>2026-04-25T13:38:53.956Z</time></trkpt><trkpt lat="46.6302527" lon="12.5195283"><ele>1614.6666666666665</ele><time>2026-04-25T13:38:54.957Z</time></trkpt><trkpt lat="46.6303334" lon="12.5194934"><ele>1618.5</ele><time>2026-04-25T13:38:55.957Z</time></trkpt><trkpt lat="46.6304156" lon="12.5194571"><ele>1622.3333333333335</ele><time>2026-04-25T13:38:56.956Z</time></trkpt><trkpt lat="46.6304933" lon="12.5194225"><ele>1626.1666666666667</ele><time>2026-04-25T13:38:57.956Z</time></trkpt><trkpt lat="46.630557" lon="12.5194414"><ele>1630.0</ele><time>2026-04-25T13:38:58.956Z</time></trkpt><trkpt lat="46.6306195" lon="12.5194729"><ele>1631.2857142857142</ele><time>2026-04-25T13:38:59.956Z</time></trkpt><trkpt lat="46.6306781" lon="12.5195154"><ele>1632.5714285714284</ele><time>2026-04-25T13:39:00.956Z</time></trkpt><trkpt lat="46.6307189" lon="12.5196215"><ele>1633.857142857143</ele><time>2026-04-25T13:39:01.957Z</time></trkpt><trkpt lat="46.6307646" lon="12.519699"><ele>1635.142857142857</ele><time>2026-04-25T13:39:02.957Z</time></trkpt><trkpt lat="46.6308146" lon="12.5197794"><ele>1636.4285714285716</ele><time>2026-04-25T13:39:03.957Z</time></trkpt><trkpt lat="46.630862" lon="12.5198594"><ele>1637.7142857142858</ele><time>2026-04-25T13:39:04.957Z</time></trkpt><trkpt lat="46.6309247" lon="12.5199086"><ele>1639.0</ele><time>2026-04-25T13:39:05.957Z</time></trkpt><trkpt lat="46.6309895" lon="12.519952"><ele>1636.8333333333335</ele><time>2026-04-25T13:39:06.956Z</time></trkpt><trkpt lat="46.6310549" lon="12.519974"><ele>1634.6666666666667</ele><time>2026-04-25T13:39:07.957Z</time></trkpt><trkpt lat="46.6311309" lon="12.5199613"><ele>1632.5</ele><time>2026-04-25T13:39:08.956Z</time></trkpt><trkpt lat="46.6312125" lon="12.5199363"><ele>1630.3333333333335</ele><time>2026-04-25T13:39:09.956Z</time></trkpt><trkpt lat="46.6312989" lon="12.5199056"><ele>1628.1666666666667</ele><time>2026-04-25T13:39:10.957Z</time></trkpt><trkpt lat="46.6313837" lon="12.5198857"><ele>1626.0</ele><time>2026-04-25T13:39:11.956Z</time></trkpt><trkpt lat="46.6314686" lon="12.5198673"><ele>1626.0</ele><time>2026-04-25T13:39:12.957Z</time></trkpt><trkpt lat="46.631541" lon="12.5198553"><ele>1626.0</ele><time>2026-04-25T13:39:13.956Z</time></trkpt><trkpt lat="46.6316589" lon="12.5198392"><ele>1626.0</ele><time>2026-04-25T13:39:15.957Z</time></trkpt><trkpt lat="46.6317303" lon="12.5198032"><ele>1626.0</ele><time>2026-04-25T13:39:16.957Z</time></trkpt><trkpt lat="46.6317939" lon="12.5197766"><ele>1626.0</ele><time>2026-04-25T13:39:17.955Z</time></trkpt><trkpt lat="46.6318702" lon="12.5197642"><ele>1626.0</ele><time>2026-04-25T13:39:18.956Z</time></trkpt><trkpt lat="46.6319412" lon="12.5197784"><ele>1624.8333333333333</ele><time>2026-04-25T13:39:19.956Z</time></trkpt><trkpt lat="46.6320188" lon="12.5198219"><ele>1623.6666666666665</ele><time>2026-04-25T13:39:20.956Z</time></trkpt><trkpt lat="46.6320824" lon="12.5198793"><ele>1622.5</ele><time>2026-04-25T13:39:21.956Z</time></trkpt><trkpt lat="46.632142" lon="12.5199205"><ele>1621.3333333333333</ele><time>2026-04-25T13:39:22.956Z</time></trkpt><trkpt lat="46.6322062" lon="12.5199225"><ele>1620.1666666666665</ele><time>2026-04-25T13:39:23.957Z</time></trkpt><trkpt lat="46.6323062" lon="12.5198969"><ele>1619.0</ele><time>2026-04-25T13:39:25.955Z</time></trkpt><trkpt lat="46.6324049" lon="12.5198121"><ele>1619.0</ele><time>2026-04-25T13:39:27.957Z</time></trkpt><trkpt lat="46.6324654" lon="12.5197379"><ele>1619.0</ele><time>2026-04-25T13:39:28.957Z</time></trkpt><trkpt lat="46.6325268" lon="12.5196508"><ele>1619.0</ele><time>2026-04-25T13:39:29.956Z</time></trkpt><trkpt lat="46.6326032" lon="12.5195544"><ele>1619.0</ele><time>2026-04-25T13:39:30.956Z</time></trkpt><trkpt lat="46.6326867" lon="12.5194627"><ele>1619.0</ele><time>2026-04-25T13:39:31.956Z</time></trkpt><trkpt lat="46.6327692" lon="12.5193887"><ele>1622.3333333333333</ele><time>2026-04-25T13:39:32.956Z</time></trkpt><trkpt lat="46.6328406" lon="12.5193075"><ele>1625.6666666666665</ele><time>2026-04-25T13:39:33.956Z</time></trkpt><trkpt lat="46.6329027" lon="12.5192307"><ele>1629.0</ele><time>2026-04-25T13:39:34.957Z</time></trkpt><trkpt lat="46.6329503" lon="12.5191509"><ele>1632.3333333333335</ele><time>2026-04-25T13:39:35.956Z</time></trkpt><trkpt lat="46.6329951" lon="12.5190632"><ele>1635.6666666666667</ele><time>2026-04-25T13:39:36.956Z</time></trkpt><trkpt lat="46.6330431" lon="12.5189742"><ele>1639.0</ele><time>2026-04-25T13:39:37.956Z</time></trkpt><trkpt lat="46.6330921" lon="12.5188978"><ele>1639.0000000000002</ele><time>2026-04-25T13:39:38.957Z</time></trkpt><trkpt lat="46.633138" lon="12.51883"><ele>1639.0</ele><time>2026-04-25T13:39:39.957Z</time></trkpt><trkpt lat="46.633219" lon="12.51875"><ele>1639.0</ele><time>2026-04-25T13:39:41.955Z</time></trkpt><trkpt lat="46.633268" lon="12.5186899"><ele>1639.0</ele><time>2026-04-25T13:39:44.956Z</time></trkpt><trkpt lat="46.6333653" lon="12.5186124"><ele>1639.0000000000002</ele><time>2026-04-25T13:39:51.957Z</time></trkpt><trkpt lat="46.6334655" lon="12.5185702"><ele>1639.0</ele><time>2026-04-25T13:39:53.957Z</time></trkpt><trkpt lat="46.6335749" lon="12.5185455"><ele>1645.5000000000002</ele><time>2026-04-25T13:39:55.957Z</time></trkpt><trkpt lat="46.633656" lon="12.518577"><ele>1652.0</ele><time>2026-04-25T13:39:57.957Z</time></trkpt><trkpt lat="46.6336902" lon="12.5187031"><ele>1658.5</ele><time>2026-04-25T13:39:59.956Z</time></trkpt><trkpt lat="46.6337003" lon="12.5188726"><ele>1665.0</ele><time>2026-04-25T13:40:01.957Z</time></trkpt><trkpt lat="46.6337097" lon="12.5189753"><ele>1671.5000000000002</ele><time>2026-04-25T13:40:02.958Z</time></trkpt><trkpt lat="46.6337125" lon="12.5190819"><ele>1678.0</ele><time>2026-04-25T13:40:03.956Z</time></trkpt><trkpt lat="46.6337141" lon="12.5191918"><ele>1678.0</ele><time>2026-04-25T13:40:04.956Z</time></trkpt><trkpt lat="46.6337143" lon="12.5193092"><ele>1678.0</ele><time>2026-04-25T13:40:05.955Z</time></trkpt><trkpt lat="46.6337129" lon="12.5194324"><ele>1678.0</ele><time>2026-04-25T13:40:06.956Z</time></trkpt><trkpt lat="46.6337088" lon="12.5195319"><ele>1678.0</ele><time>2026-04-25T13:40:07.957Z</time></trkpt><trkpt lat="46.6337049" lon="12.5196814"><ele>1678.0</ele><time>2026-04-25T13:40:09.956Z</time></trkpt><trkpt lat="46.6337779" lon="12.5198122"><ele>1678.0000000000002</ele><time>2026-04-25T13:40:11.956Z</time></trkpt><trkpt lat="46.6338247" lon="12.5198781"><ele>1678.0</ele><time>2026-04-25T13:40:12.955Z</time></trkpt><trkpt lat="46.6338871" lon="12.5199495"><ele>1678.0</ele><time>2026-04-25T13:40:13.956Z</time></trkpt><trkpt lat="46.6339535" lon="12.520016"><ele>1678.0</ele><time>2026-04-25T13:40:14.956Z</time></trkpt><trkpt lat="46.6340271" lon="12.5200849"><ele>1678.0000000000002</ele><time>2026-04-25T13:40:15.958Z</time></trkpt><trkpt lat="46.6341005" lon="12.5201469"><ele>1678.0</ele><time>2026-04-25T13:40:16.956Z</time></trkpt><trkpt lat="46.634181" lon="12.5202116"><ele>1673.25</ele><time>2026-04-25T13:40:17.957Z</time></trkpt><trkpt lat="46.6342839" lon="12.520286"><ele>1668.5</ele><time>2026-04-25T13:40:18.956Z</time></trkpt><trkpt lat="46.6344049" lon="12.5203553"><ele>1663.75</ele><time>2026-04-25T13:40:19.955Z</time></trkpt><trkpt lat="46.6345134" lon="12.5204167"><ele>1659.0</ele><time>2026-04-25T13:40:20.956Z</time></trkpt><trkpt lat="46.6346118" lon="12.5204672"><ele>1659.0</ele><time>2026-04-25T13:40:21.956Z</time></trkpt><trkpt lat="46.6346863" lon="12.5205037"><ele>1659.0</ele><time>2026-04-25T13:40:22.956Z</time></trkpt><trkpt lat="46.6347948" lon="12.5205363"><ele>1659.0</ele><time>2026-04-25T13:40:24.956Z</time></trkpt><trkpt lat="46.6349179" lon="12.5205397"><ele>1659.0</ele><time>2026-04-25T13:40:26.955Z</time></trkpt><trkpt lat="46.6349959" lon="12.5205394"><ele>1659.0</ele><time>2026-04-25T13:40:27.956Z</time></trkpt><trkpt lat="46.6350763" lon="12.5205431"><ele>1659.0</ele><time>2026-04-25T13:40:28.956Z</time></trkpt><trkpt lat="46.6351594" lon="12.5205731"><ele>1659.0</ele><time>2026-04-25T13:40:29.956Z</time></trkpt><trkpt lat="46.6352445" lon="12.5205833"><ele>1659.0</ele><time>2026-04-25T13:40:30.957Z</time></trkpt><trkpt lat="46.635327" lon="12.520599"><ele>1659.0</ele><time>2026-04-25T13:40:31.956Z</time></trkpt><trkpt lat="46.635412" lon="12.520614"><ele>1659.0</ele><time>2026-04-25T13:40:32.956Z</time></trkpt><trkpt lat="46.6354887" lon="12.520631"><ele>1659.0</ele><time>2026-04-25T13:40:33.956Z</time></trkpt><trkpt lat="46.6355703" lon="12.5206409"><ele>1659.8000000000002</ele><time>2026-04-25T13:40:34.956Z</time></trkpt><trkpt lat="46.635638" lon="12.5206374"><ele>1660.6000000000001</ele><time>2026-04-25T13:40:35.956Z</time></trkpt><trkpt lat="46.6357068" lon="12.520624"><ele>1661.4</ele><time>2026-04-25T13:40:36.956Z</time></trkpt><trkpt lat="46.6358233" lon="12.5205874"><ele>1662.2</ele><time>2026-04-25T13:40:38.957Z</time></trkpt><trkpt lat="46.6359482" lon="12.5205541"><ele>1663.0</ele><time>2026-04-25T13:40:40.956Z</time></trkpt><trkpt lat="46.6360594" lon="12.5205488"><ele>1663.0</ele><time>2026-04-25T13:40:42.956Z</time></trkpt><trkpt lat="46.6361457" lon="12.5205421"><ele>1663.0</ele><time>2026-04-25T13:40:44.956Z</time></trkpt><trkpt lat="46.6362413" lon="12.5205363"><ele>1663.0</ele><time>2026-04-25T13:40:46.956Z</time></trkpt><trkpt lat="46.636349" lon="12.5205595"><ele>1663.0</ele><time>2026-04-25T13:40:48.956Z</time></trkpt><trkpt lat="46.6364637" lon="12.5205743"><ele>1663.0</ele><time>2026-04-25T13:40:50.956Z</time></trkpt><trkpt lat="46.6365896" lon="12.5206453"><ele>1663.0000000000002</ele><time>2026-04-25T13:40:52.956Z</time></trkpt><trkpt lat="46.636662" lon="12.5206834"><ele>1663.0</ele><time>2026-04-25T13:40:53.956Z</time></trkpt><trkpt lat="46.6367473" lon="12.5207358"><ele>1663.0</ele><time>2026-04-25T13:40:54.956Z</time></trkpt><trkpt lat="46.6368264" lon="12.5207654"><ele>1663.0</ele><time>2026-04-25T13:40:55.956Z</time></trkpt><trkpt lat="46.6369041" lon="12.5208007"><ele>1663.0000000000002</ele><time>2026-04-25T13:40:56.956Z</time></trkpt><trkpt lat="46.6369701" lon="12.520859"><ele>1663.0</ele><time>2026-04-25T13:40:57.957Z</time></trkpt><trkpt lat="46.6370383" lon="12.5209304"><ele>1663.5000000000002</ele><time>2026-04-25T13:40:58.957Z</time></trkpt><trkpt lat="46.6371028" lon="12.5209952"><ele>1664.0</ele><time>2026-04-25T13:40:59.956Z</time></trkpt><trkpt lat="46.6371721" lon="12.5210637"><ele>1664.5</ele><time>2026-04-25T13:41:00.955Z</time></trkpt><trkpt lat="46.6372449" lon="12.5211185"><ele>1665.0</ele><time>2026-04-25T13:41:01.956Z</time></trkpt><trkpt lat="46.6373164" lon="12.5211699"><ele>1665.5000000000002</ele><time>2026-04-25T13:41:02.956Z</time></trkpt><trkpt lat="46.6373944" lon="12.5212131"><ele>1666.0</ele><time>2026-04-25T13:41:03.957Z</time></trkpt><trkpt lat="46.6374721" lon="12.5212475"><ele>1666.0000000000002</ele><time>2026-04-25T13:41:04.957Z</time></trkpt><trkpt lat="46.6375457" lon="12.521292"><ele>1666.0</ele><time>2026-04-25T13:41:05.956Z</time></trkpt><trkpt lat="46.6376124" lon="12.5213221"><ele>1666.0</ele><time>2026-04-25T13:41:06.956Z</time></trkpt><trkpt lat="46.6376795" lon="12.5213317"><ele>1666.0</ele><time>2026-04-25T13:41:07.956Z</time></trkpt><trkpt lat="46.6377926" lon="12.5213311"><ele>1666.0000000000002</ele><time>2026-04-25T13:41:09.955Z</time></trkpt><trkpt lat="46.6378853" lon="12.5212564"><ele>1666.0</ele><time>2026-04-25T13:41:11.956Z</time></trkpt><trkpt lat="46.6379414" lon="12.5212078"><ele>1670.6666666666667</ele><time>2026-04-25T13:41:12.955Z</time></trkpt><trkpt lat="46.6380004" lon="12.5211613"><ele>1675.3333333333335</ele><time>2026-04-25T13:41:13.957Z</time></trkpt><trkpt lat="46.6380715" lon="12.5211265"><ele>1680.0</ele><time>2026-04-25T13:41:14.956Z</time></trkpt><trkpt lat="46.6381394" lon="12.5210957"><ele>1684.6666666666665</ele><time>2026-04-25T13:41:15.955Z</time></trkpt><trkpt lat="46.6382176" lon="12.5210724"><ele>1689.3333333333333</ele><time>2026-04-25T13:41:16.956Z</time></trkpt><trkpt lat="46.6382991" lon="12.521067"><ele>1694.0</ele><time>2026-04-25T13:41:17.956Z</time></trkpt><trkpt lat="46.638385" lon="12.5210798"><ele>1693.9999999999998</ele><time>2026-04-25T13:41:18.956Z</time></trkpt><trkpt lat="46.6384708" lon="12.5211072"><ele>1694.0</ele><time>2026-04-25T13:41:19.956Z</time></trkpt><trkpt lat="46.6385538" lon="12.5211399"><ele>1694.0</ele><time>2026-04-25T13:41:20.956Z</time></trkpt><trkpt lat="46.6386392" lon="12.5211708"><ele>1694.0</ele><time>2026-04-25T13:41:21.956Z</time></trkpt><trkpt lat="46.638711" lon="12.5211976"><ele>1693.9999999999998</ele><time>2026-04-25T13:41:22.955Z</time></trkpt><trkpt lat="46.6387751" lon="12.5212393"><ele>1694.0</ele><time>2026-04-25T13:41:23.956Z</time></trkpt><trkpt lat="46.6388763" lon="12.5213228"><ele>1691.6</ele><time>2026-04-25T13:41:25.956Z</time></trkpt><trkpt lat="46.6389312" lon="12.5213683"><ele>1689.2</ele><time>2026-04-25T13:41:26.956Z</time></trkpt><trkpt lat="46.6390481" lon="12.521472"><ele>1686.8</ele><time>2026-04-25T13:41:28.956Z</time></trkpt><trkpt lat="46.6391066" lon="12.5215242"><ele>1684.3999999999999</ele><time>2026-04-25T13:41:29.956Z</time></trkpt><trkpt lat="46.639217" lon="12.5215761"><ele>1682.0</ele><time>2026-04-25T13:41:31.956Z</time></trkpt><trkpt lat="46.6393417" lon="12.5215503"><ele>1682.0</ele><time>2026-04-25T13:41:33.957Z</time></trkpt><trkpt lat="46.6394046" lon="12.5215074"><ele>1682.0</ele><time>2026-04-25T13:41:34.956Z</time></trkpt><trkpt lat="46.6394732" lon="12.5214801"><ele>1682.0</ele><time>2026-04-25T13:41:35.956Z</time></trkpt><trkpt lat="46.6395447" lon="12.5214679"><ele>1682.0</ele><time>2026-04-25T13:41:36.957Z</time></trkpt><trkpt lat="46.6396223" lon="12.5214832"><ele>1682.0</ele><time>2026-04-25T13:41:37.955Z</time></trkpt><trkpt lat="46.6396997" lon="12.5215194"><ele>1682.0</ele><time>2026-04-25T13:41:38.956Z</time></trkpt><trkpt lat="46.6397656" lon="12.5215441"><ele>1682.0</ele><time>2026-04-25T13:41:39.956Z</time></trkpt><trkpt lat="46.6398317" lon="12.5215372"><ele>1682.8333333333333</ele><time>2026-04-25T13:41:40.956Z</time></trkpt><trkpt lat="46.6399062" lon="12.521513"><ele>1683.6666666666665</ele><time>2026-04-25T13:41:41.956Z</time></trkpt><trkpt lat="46.6399881" lon="12.521487"><ele>1684.5</ele><time>2026-04-25T13:41:42.955Z</time></trkpt><trkpt lat="46.6400656" lon="12.5214999"><ele>1685.3333333333335</ele><time>2026-04-25T13:41:43.956Z</time></trkpt><trkpt lat="46.640155" lon="12.5215306"><ele>1686.1666666666667</ele><time>2026-04-25T13:41:44.955Z</time></trkpt><trkpt lat="46.6402454" lon="12.5215675"><ele>1687.0</ele><time>2026-04-25T13:41:45.956Z</time></trkpt><trkpt lat="46.6403351" lon="12.5215955"><ele>1687.0000000000002</ele><time>2026-04-25T13:41:46.956Z</time></trkpt><trkpt lat="46.640419" lon="12.521616"><ele>1687.0</ele><time>2026-04-25T13:41:47.956Z</time></trkpt><trkpt lat="46.640501" lon="12.5216312"><ele>1687.0</ele><time>2026-04-25T13:41:48.956Z</time></trkpt><trkpt lat="46.6405814" lon="12.5216401"><ele>1687.0</ele><time>2026-04-25T13:41:49.956Z</time></trkpt><trkpt lat="46.6406612" lon="12.52162"><ele>1687.0000000000002</ele><time>2026-04-25T13:41:50.956Z</time></trkpt><trkpt lat="46.6407447" lon="12.521578"><ele>1687.0</ele><time>2026-04-25T13:41:51.956Z</time></trkpt><trkpt lat="46.6408227" lon="12.5215424"><ele>1687.0</ele><time>2026-04-25T13:41:52.956Z</time></trkpt><trkpt lat="46.6409035" lon="12.5215204"><ele>1687.0</ele><time>2026-04-25T13:41:53.956Z</time></trkpt><trkpt lat="46.6409773" lon="12.521504"><ele>1687.0</ele><time>2026-04-25T13:41:54.956Z</time></trkpt><trkpt lat="46.6410456" lon="12.5214852"><ele>1687.0</ele><time>2026-04-25T13:41:55.956Z</time></trkpt><trkpt lat="46.6411143" lon="12.521445"><ele>1687.0</ele><time>2026-04-25T13:41:56.956Z</time></trkpt><trkpt lat="46.6411769" lon="12.5213978"><ele>1687.0</ele><time>2026-04-25T13:41:57.956Z</time></trkpt><trkpt lat="46.6412364" lon="12.5213469"><ele>1687.0</ele><time>2026-04-25T13:41:58.956Z</time></trkpt><trkpt lat="46.6412958" lon="12.5213009"><ele>1690.3333333333335</ele><time>2026-04-25T13:41:59.956Z</time></trkpt><trkpt lat="46.6413544" lon="12.5212554"><ele>1693.6666666666667</ele><time>2026-04-25T13:42:00.955Z</time></trkpt><trkpt lat="46.6414679" lon="12.5212141"><ele>1697.0</ele><time>2026-04-25T13:42:02.956Z</time></trkpt><trkpt lat="46.6415664" lon="12.5212832"><ele>1700.3333333333335</ele><time>2026-04-25T13:42:04.955Z</time></trkpt><trkpt lat="46.6415887" lon="12.5213701"><ele>1703.6666666666667</ele><time>2026-04-25T13:42:05.956Z</time></trkpt><trkpt lat="46.6416039" lon="12.5214675"><ele>1707.0</ele><time>2026-04-25T13:42:06.956Z</time></trkpt><trkpt lat="46.6416186" lon="12.521589"><ele>1707.0</ele><time>2026-04-25T13:42:07.956Z</time></trkpt><trkpt lat="46.6416192" lon="12.5216973"><ele>1707.0</ele><time>2026-04-25T13:42:08.956Z</time></trkpt><trkpt lat="46.6416096" lon="12.5218022"><ele>1707.0</ele><time>2026-04-25T13:42:09.956Z</time></trkpt><trkpt lat="46.6415984" lon="12.5218986"><ele>1707.0</ele><time>2026-04-25T13:42:10.956Z</time></trkpt><trkpt lat="46.6416152" lon="12.5220592"><ele>1707.0</ele><time>2026-04-25T13:42:12.955Z</time></trkpt><trkpt lat="46.6416519" lon="12.5222224"><ele>1707.0</ele><time>2026-04-25T13:42:14.956Z</time></trkpt><trkpt lat="46.6416654" lon="12.5223232"><ele>1703.8</ele><time>2026-04-25T13:42:15.956Z</time></trkpt><trkpt lat="46.6416683" lon="12.5224219"><ele>1700.6</ele><time>2026-04-25T13:42:16.955Z</time></trkpt><trkpt lat="46.6416782" lon="12.5225208"><ele>1697.3999999999999</ele><time>2026-04-25T13:42:17.956Z</time></trkpt><trkpt lat="46.6416983" lon="12.5226843"><ele>1694.1999999999998</ele><time>2026-04-25T13:42:19.956Z</time></trkpt><trkpt lat="46.6417212" lon="12.5228388"><ele>1691.0</ele><time>2026-04-25T13:42:21.956Z</time></trkpt><trkpt lat="46.6417604" lon="12.5230011"><ele>1689.7142857142858</ele><time>2026-04-25T13:42:23.955Z</time></trkpt><trkpt lat="46.6417971" lon="12.5230801"><ele>1688.4285714285716</ele><time>2026-04-25T13:42:24.956Z</time></trkpt><trkpt lat="46.6418524" lon="12.5231431"><ele>1687.1428571428573</ele><time>2026-04-25T13:42:25.956Z</time></trkpt><trkpt lat="46.6419179" lon="12.5231821"><ele>1685.857142857143</ele><time>2026-04-25T13:42:26.956Z</time></trkpt><trkpt lat="46.6419859" lon="12.5232288"><ele>1684.5714285714284</ele><time>2026-04-25T13:42:27.956Z</time></trkpt><trkpt lat="46.6420547" lon="12.5232903"><ele>1683.2857142857144</ele><time>2026-04-25T13:42:28.956Z</time></trkpt><trkpt lat="46.6421188" lon="12.523365"><ele>1682.0</ele><time>2026-04-25T13:42:29.956Z</time></trkpt><trkpt lat="46.642185" lon="12.5234447"><ele>1681.9999999999998</ele><time>2026-04-25T13:42:30.955Z</time></trkpt><trkpt lat="46.6422549" lon="12.5235166"><ele>1682.0</ele><time>2026-04-25T13:42:31.956Z</time></trkpt><trkpt lat="46.6423236" lon="12.5235864"><ele>1682.0</ele><time>2026-04-25T13:42:32.956Z</time></trkpt><trkpt lat="46.642397" lon="12.5236557"><ele>1682.0</ele><time>2026-04-25T13:42:33.956Z</time></trkpt><trkpt lat="46.6424683" lon="12.5237317"><ele>1681.9999999999998</ele><time>2026-04-25T13:42:34.956Z</time></trkpt><trkpt lat="46.642536" lon="12.5238149"><ele>1682.0</ele><time>2026-04-25T13:42:35.956Z</time></trkpt><trkpt lat="46.6425869" lon="12.5239136"><ele>1680.4999999999998</ele><time>2026-04-25T13:42:36.956Z</time></trkpt><trkpt lat="46.6426407" lon="12.5240215"><ele>1679.0</ele><time>2026-04-25T13:42:37.956Z</time></trkpt><trkpt lat="46.6426877" lon="12.5241163"><ele>1677.5</ele><time>2026-04-25T13:42:38.956Z</time></trkpt><trkpt lat="46.6427351" lon="12.5242159"><ele>1676.0</ele><time>2026-04-25T13:42:39.955Z</time></trkpt><trkpt lat="46.6427762" lon="12.5242919"><ele>1674.4999999999998</ele><time>2026-04-25T13:42:40.956Z</time></trkpt><trkpt lat="46.6428562" lon="12.5243734"><ele>1673.0</ele><time>2026-04-25T13:42:42.956Z</time></trkpt><trkpt lat="46.6429513" lon="12.5243998"><ele>1673.0</ele><time>2026-04-25T13:42:44.956Z</time></trkpt><trkpt lat="46.643071" lon="12.5244194"><ele>1673.0</ele><time>2026-04-25T13:42:46.956Z</time></trkpt><trkpt lat="46.643135" lon="12.5244007"><ele>1673.0</ele><time>2026-04-25T13:42:47.956Z</time></trkpt><trkpt lat="46.6432534" lon="12.524316"><ele>1673.0</ele><time>2026-04-25T13:42:49.956Z</time></trkpt><trkpt lat="46.6433707" lon="12.5243175"><ele>1673.0</ele><time>2026-04-25T13:42:51.955Z</time></trkpt><trkpt lat="46.6434327" lon="12.5243469"><ele>1673.0</ele><time>2026-04-25T13:42:52.955Z</time></trkpt><trkpt lat="46.6434614" lon="12.5244619"><ele>1673.0</ele><time>2026-04-25T13:42:53.956Z</time></trkpt><trkpt lat="46.643485" lon="12.5245603"><ele>1673.0</ele><time>2026-04-25T13:42:54.956Z</time></trkpt><trkpt lat="46.6435125" lon="12.5246681"><ele>1673.0</ele><time>2026-04-25T13:42:55.955Z</time></trkpt><trkpt lat="46.6435343" lon="12.5247641"><ele>1673.0</ele><time>2026-04-25T13:42:56.955Z</time></trkpt><trkpt lat="46.6435592" lon="12.5248639"><ele>1673.0</ele><time>2026-04-25T13:42:57.956Z</time></trkpt><trkpt lat="46.6435947" lon="12.5249495"><ele>1673.0</ele><time>2026-04-25T13:42:58.955Z</time></trkpt><trkpt lat="46.6436326" lon="12.5250359"><ele>1669.6666666666665</ele><time>2026-04-25T13:42:59.956Z</time></trkpt><trkpt lat="46.6436848" lon="12.5251174"><ele>1666.3333333333333</ele><time>2026-04-25T13:43:00.956Z</time></trkpt><trkpt lat="46.6437477" lon="12.5252005"><ele>1663.0</ele><time>2026-04-25T13:43:01.956Z</time></trkpt><trkpt lat="46.6438111" lon="12.5252839"><ele>1659.6666666666665</ele><time>2026-04-25T13:43:02.956Z</time></trkpt><trkpt lat="46.6438733" lon="12.5253654"><ele>1656.3333333333333</ele><time>2026-04-25T13:43:03.956Z</time></trkpt><trkpt lat="46.6439276" lon="12.5254452"><ele>1653.0</ele><time>2026-04-25T13:43:04.956Z</time></trkpt><trkpt lat="46.6439807" lon="12.5255014"><ele>1649.5714285714287</ele><time>2026-04-25T13:43:05.956Z</time></trkpt><trkpt lat="46.6440422" lon="12.5255486"><ele>1646.1428571428573</ele><time>2026-04-25T13:43:06.955Z</time></trkpt><trkpt lat="46.6441088" lon="12.5255756"><ele>1642.7142857142858</ele><time>2026-04-25T13:43:07.955Z</time></trkpt><trkpt lat="46.6441847" lon="12.5255835"><ele>1639.2857142857142</ele><time>2026-04-25T13:43:08.956Z</time></trkpt><trkpt lat="46.6442527" lon="12.525596"><ele>1635.857142857143</ele><time>2026-04-25T13:43:09.956Z</time></trkpt><trkpt lat="46.644324" lon="12.5255833"><ele>1632.4285714285713</ele><time>2026-04-25T13:43:10.955Z</time></trkpt><trkpt lat="46.644397" lon="12.5255674"><ele>1629.0</ele><time>2026-04-25T13:43:11.956Z</time></trkpt><trkpt lat="46.6444681" lon="12.5255758"><ele>1628.3333333333333</ele><time>2026-04-25T13:43:12.956Z</time></trkpt><trkpt lat="46.644535" lon="12.5256074"><ele>1627.6666666666665</ele><time>2026-04-25T13:43:13.956Z</time></trkpt><trkpt lat="46.6445882" lon="12.5256623"><ele>1627.0</ele><time>2026-04-25T13:43:14.954Z</time></trkpt><trkpt lat="46.6446461" lon="12.5257143"><ele>1626.3333333333333</ele><time>2026-04-25T13:43:15.955Z</time></trkpt><trkpt lat="46.6447768" lon="12.5257568"><ele>1625.6666666666665</ele><time>2026-04-25T13:43:17.956Z</time></trkpt><trkpt lat="46.6448531" lon="12.5257639"><ele>1625.0</ele><time>2026-04-25T13:43:18.956Z</time></trkpt><trkpt lat="46.6449326" lon="12.5257676"><ele>1624.9999999999998</ele><time>2026-04-25T13:43:19.956Z</time></trkpt><trkpt lat="46.6450164" lon="12.5257752"><ele>1625.0</ele><time>2026-04-25T13:43:20.956Z</time></trkpt><trkpt lat="46.6451015" lon="12.5257938"><ele>1625.0</ele><time>2026-04-25T13:43:21.955Z</time></trkpt><trkpt lat="46.6451846" lon="12.5258151"><ele>1625.0</ele><time>2026-04-25T13:43:22.955Z</time></trkpt><trkpt lat="46.6452665" lon="12.525834"><ele>1624.9999999999998</ele><time>2026-04-25T13:43:23.956Z</time></trkpt><trkpt lat="46.6453418" lon="12.5258407"><ele>1625.0</ele><time>2026-04-25T13:43:24.954Z</time></trkpt><trkpt lat="46.6454191" lon="12.5258323"><ele>1625.3333333333333</ele><time>2026-04-25T13:43:25.954Z</time></trkpt><trkpt lat="46.6454963" lon="12.5258435"><ele>1625.6666666666665</ele><time>2026-04-25T13:43:26.955Z</time></trkpt><trkpt lat="46.6455747" lon="12.525828"><ele>1626.0</ele><time>2026-04-25T13:43:27.955Z</time></trkpt><trkpt lat="46.6456571" lon="12.5258121"><ele>1626.3333333333335</ele><time>2026-04-25T13:43:28.956Z</time></trkpt><trkpt lat="46.6457346" lon="12.5257901"><ele>1626.6666666666667</ele><time>2026-04-25T13:43:29.955Z</time></trkpt><trkpt lat="46.645811" lon="12.5257548"><ele>1627.0</ele><time>2026-04-25T13:43:30.956Z</time></trkpt><trkpt lat="46.6458886" lon="12.5257101"><ele>1627.0</ele><time>2026-04-25T13:43:31.956Z</time></trkpt><trkpt lat="46.6459614" lon="12.5256506"><ele>1627.0</ele><time>2026-04-25T13:43:32.956Z</time></trkpt><trkpt lat="46.6460437" lon="12.5255808"><ele>1627.0</ele><time>2026-04-25T13:43:33.955Z</time></trkpt><trkpt lat="46.6461332" lon="12.5254972"><ele>1627.0</ele><time>2026-04-25T13:43:34.955Z</time></trkpt><trkpt lat="46.6462191" lon="12.5254378"><ele>1627.0</ele><time>2026-04-25T13:43:35.956Z</time></trkpt><trkpt lat="46.6463129" lon="12.5254063"><ele>1628.8333333333335</ele><time>2026-04-25T13:43:36.956Z</time></trkpt><trkpt lat="46.6463966" lon="12.5253649"><ele>1630.6666666666667</ele><time>2026-04-25T13:43:37.956Z</time></trkpt><trkpt lat="46.6464703" lon="12.5253153"><ele>1632.5</ele><time>2026-04-25T13:43:38.956Z</time></trkpt><trkpt lat="46.646545" lon="12.5252902"><ele>1634.3333333333335</ele><time>2026-04-25T13:43:39.955Z</time></trkpt><trkpt lat="46.6466122" lon="12.5253017"><ele>1636.1666666666667</ele><time>2026-04-25T13:43:40.956Z</time></trkpt><trkpt lat="46.6466823" lon="12.5253443"><ele>1638.0</ele><time>2026-04-25T13:43:41.956Z</time></trkpt><trkpt lat="46.6467424" lon="12.5254071"><ele>1634.857142857143</ele><time>2026-04-25T13:43:42.955Z</time></trkpt><trkpt lat="46.6467993" lon="12.5254708"><ele>1631.7142857142858</ele><time>2026-04-25T13:43:43.955Z</time></trkpt><trkpt lat="46.646859" lon="12.5255152"><ele>1628.5714285714284</ele><time>2026-04-25T13:43:44.955Z</time></trkpt><trkpt lat="46.6469174" lon="12.525558"><ele>1625.4285714285716</ele><time>2026-04-25T13:43:45.956Z</time></trkpt><trkpt lat="46.646977" lon="12.5255918"><ele>1622.2857142857142</ele><time>2026-04-25T13:43:46.956Z</time></trkpt><trkpt lat="46.6470422" lon="12.5256073"><ele>1619.142857142857</ele><time>2026-04-25T13:43:47.956Z</time></trkpt><trkpt lat="46.6471135" lon="12.5256067"><ele>1616.0</ele><time>2026-04-25T13:43:48.955Z</time></trkpt><trkpt lat="46.6471819" lon="12.5256075"><ele>1615.9999999999998</ele><time>2026-04-25T13:43:49.955Z</time></trkpt><trkpt lat="46.6472462" lon="12.5255984"><ele>1616.0</ele><time>2026-04-25T13:43:50.956Z</time></trkpt><trkpt lat="46.6473342" lon="12.5255675"><ele>1616.0</ele><time>2026-04-25T13:43:52.956Z</time></trkpt><trkpt lat="46.6473977" lon="12.5255365"><ele>1616.0</ele><time>2026-04-25T13:43:54.955Z</time></trkpt><trkpt lat="46.6474526" lon="12.5254873"><ele>1615.9999999999998</ele><time>2026-04-25T13:43:56.956Z</time></trkpt><trkpt lat="46.6475129" lon="12.5254358"><ele>1616.0</ele><time>2026-04-25T13:43:58.954Z</time></trkpt><trkpt lat="46.6476043" lon="12.5253758"><ele>1618.0</ele><time>2026-04-25T13:44:00.955Z</time></trkpt><trkpt lat="46.6477126" lon="12.5253487"><ele>1620.0</ele><time>2026-04-25T13:44:02.956Z</time></trkpt><trkpt lat="46.6478193" lon="12.5253213"><ele>1622.0</ele><time>2026-04-25T13:44:04.956Z</time></trkpt><trkpt lat="46.6479349" lon="12.5252676"><ele>1624.0</ele><time>2026-04-25T13:44:06.956Z</time></trkpt><trkpt lat="46.6479992" lon="12.5252458"><ele>1626.0</ele><time>2026-04-25T13:44:07.956Z</time></trkpt><trkpt lat="46.6480644" lon="12.5252459"><ele>1626.0</ele><time>2026-04-25T13:44:08.956Z</time></trkpt><trkpt lat="46.6481766" lon="12.5252901"><ele>1626.0</ele><time>2026-04-25T13:44:10.954Z</time></trkpt><trkpt lat="46.6482895" lon="12.5253402"><ele>1626.0</ele><time>2026-04-25T13:44:12.956Z</time></trkpt><trkpt lat="46.6483571" lon="12.5253326"><ele>1626.0</ele><time>2026-04-25T13:44:13.957Z</time></trkpt><trkpt lat="46.6484288" lon="12.5253429"><ele>1626.0</ele><time>2026-04-25T13:44:14.956Z</time></trkpt><trkpt lat="46.648498" lon="12.5253408"><ele>1626.0</ele><time>2026-04-25T13:44:15.956Z</time></trkpt><trkpt lat="46.6485776" lon="12.5253338"><ele>1626.1666666666667</ele><time>2026-04-25T13:44:16.955Z</time></trkpt><trkpt lat="46.6486632" lon="12.5253399"><ele>1626.3333333333335</ele><time>2026-04-25T13:44:17.955Z</time></trkpt><trkpt lat="46.6487458" lon="12.5253478"><ele>1626.5</ele><time>2026-04-25T13:44:18.957Z</time></trkpt><trkpt lat="46.6488309" lon="12.5253602"><ele>1626.6666666666667</ele><time>2026-04-25T13:44:19.955Z</time></trkpt><trkpt lat="46.6489132" lon="12.5253696"><ele>1626.8333333333335</ele><time>2026-04-25T13:44:20.956Z</time></trkpt><trkpt lat="46.6489963" lon="12.5253933"><ele>1627.0</ele><time>2026-04-25T13:44:21.957Z</time></trkpt><trkpt lat="46.6490732" lon="12.525423"><ele>1623.6</ele><time>2026-04-25T13:44:22.956Z</time></trkpt><trkpt lat="46.6491534" lon="12.5254497"><ele>1620.1999999999998</ele><time>2026-04-25T13:44:23.956Z</time></trkpt><trkpt lat="46.6492277" lon="12.5254684"><ele>1616.8</ele><time>2026-04-25T13:44:24.955Z</time></trkpt><trkpt lat="46.6492938" lon="12.5254782"><ele>1613.4</ele><time>2026-04-25T13:44:25.956Z</time></trkpt><trkpt lat="46.6494133" lon="12.5254224"><ele>1610.0</ele><time>2026-04-25T13:44:27.955Z</time></trkpt><trkpt lat="46.649523" lon="12.5253255"><ele>1609.9999999999998</ele><time>2026-04-25T13:44:29.956Z</time></trkpt><trkpt lat="46.6495951" lon="12.5252687"><ele>1610.0</ele><time>2026-04-25T13:44:30.956Z</time></trkpt><trkpt lat="46.6496587" lon="12.5252122"><ele>1610.0</ele><time>2026-04-25T13:44:31.956Z</time></trkpt><trkpt lat="46.6496985" lon="12.5251212"><ele>1610.0</ele><time>2026-04-25T13:44:32.955Z</time></trkpt><trkpt lat="46.6497527" lon="12.525028"><ele>1609.9999999999998</ele><time>2026-04-25T13:44:33.955Z</time></trkpt><trkpt lat="46.6497999" lon="12.5249452"><ele>1610.0</ele><time>2026-04-25T13:44:34.954Z</time></trkpt><trkpt lat="46.6498472" lon="12.5248768"><ele>1610.0</ele><time>2026-04-25T13:44:35.956Z</time></trkpt><trkpt lat="46.6498983" lon="12.5248208"><ele>1610.0</ele><time>2026-04-25T13:44:36.956Z</time></trkpt><trkpt lat="46.6499562" lon="12.5247811"><ele>1610.0</ele><time>2026-04-25T13:44:37.955Z</time></trkpt><trkpt lat="46.6500715" lon="12.5248013"><ele>1610.0</ele><time>2026-04-25T13:44:39.955Z</time></trkpt><trkpt lat="46.6501838" lon="12.5248339"><ele>1610.0</ele><time>2026-04-25T13:44:41.955Z</time></trkpt><trkpt lat="46.6503017" lon="12.5248651"><ele>1606.4</ele><time>2026-04-25T13:44:43.956Z</time></trkpt><trkpt lat="46.6504194" lon="12.5248946"><ele>1602.8</ele><time>2026-04-25T13:44:45.955Z</time></trkpt><trkpt lat="46.6504807" lon="12.5249188"><ele>1599.1999999999998</ele><time>2026-04-25T13:44:46.954Z</time></trkpt><trkpt lat="46.6505963" lon="12.524985"><ele>1595.6</ele><time>2026-04-25T13:44:48.956Z</time></trkpt><trkpt lat="46.6506969" lon="12.5250309"><ele>1592.0</ele><time>2026-04-25T13:44:50.955Z</time></trkpt><trkpt lat="46.650808" lon="12.52499"><ele>1591.9999999999998</ele><time>2026-04-25T13:44:52.955Z</time></trkpt><trkpt lat="46.650867" lon="12.5249533"><ele>1592.0</ele><time>2026-04-25T13:44:53.955Z</time></trkpt><trkpt lat="46.6509279" lon="12.5248838"><ele>1592.0</ele><time>2026-04-25T13:44:54.956Z</time></trkpt><trkpt lat="46.6509954" lon="12.5248193"><ele>1592.0</ele><time>2026-04-25T13:44:55.956Z</time></trkpt><trkpt lat="46.6510691" lon="12.524742"><ele>1591.9999999999998</ele><time>2026-04-25T13:44:56.954Z</time></trkpt><trkpt lat="46.651139" lon="12.524665"><ele>1592.0</ele><time>2026-04-25T13:44:57.956Z</time></trkpt><trkpt lat="46.6512102" lon="12.5245914"><ele>1590.9999999999998</ele><time>2026-04-25T13:44:58.956Z</time></trkpt><trkpt lat="46.6512938" lon="12.5245241"><ele>1590.0</ele><time>2026-04-25T13:44:59.955Z</time></trkpt><trkpt lat="46.651367" lon="12.5244577"><ele>1589.0</ele><time>2026-04-25T13:45:00.955Z</time></trkpt><trkpt lat="46.6514364" lon="12.5244129"><ele>1588.0</ele><time>2026-04-25T13:45:01.956Z</time></trkpt><trkpt lat="46.6515076" lon="12.5243834"><ele>1586.9999999999998</ele><time>2026-04-25T13:45:02.956Z</time></trkpt><trkpt lat="46.6515769" lon="12.5244098"><ele>1586.0</ele><time>2026-04-25T13:45:03.956Z</time></trkpt><trkpt lat="46.6516457" lon="12.5244221"><ele>1585.9999999999998</ele><time>2026-04-25T13:45:04.955Z</time></trkpt><trkpt lat="46.6517125" lon="12.5244179"><ele>1586.0</ele><time>2026-04-25T13:45:05.955Z</time></trkpt><trkpt lat="46.6517806" lon="12.52438"><ele>1586.0</ele><time>2026-04-25T13:45:06.955Z</time></trkpt><trkpt lat="46.6518486" lon="12.5243384"><ele>1586.0</ele><time>2026-04-25T13:45:07.956Z</time></trkpt><trkpt lat="46.6519196" lon="12.524281"><ele>1585.9999999999998</ele><time>2026-04-25T13:45:08.956Z</time></trkpt><trkpt lat="46.6519937" lon="12.5242288"><ele>1586.0</ele><time>2026-04-25T13:45:09.955Z</time></trkpt><trkpt lat="46.6520703" lon="12.524165"><ele>1584.4999999999998</ele><time>2026-04-25T13:45:10.955Z</time></trkpt><trkpt lat="46.6521458" lon="12.5240916"><ele>1583.0</ele><time>2026-04-25T13:45:11.955Z</time></trkpt><trkpt lat="46.6522231" lon="12.5240276"><ele>1581.5</ele><time>2026-04-25T13:45:12.954Z</time></trkpt><trkpt lat="46.65231" lon="12.5239701"><ele>1580.0</ele><time>2026-04-25T13:45:13.956Z</time></trkpt><trkpt lat="46.6523856" lon="12.5239399"><ele>1578.4999999999998</ele><time>2026-04-25T13:45:14.956Z</time></trkpt><trkpt lat="46.6524465" lon="12.5239093"><ele>1577.0</ele><time>2026-04-25T13:45:15.956Z</time></trkpt><trkpt lat="46.6525165" lon="12.5238839"><ele>1576.9999999999998</ele><time>2026-04-25T13:45:17.956Z</time></trkpt><trkpt lat="46.6525396" lon="12.5240125"><ele>1577.0</ele><time>2026-04-25T13:45:20.956Z</time></trkpt><trkpt lat="46.6524653" lon="12.5241158"><ele>1577.0</ele><time>2026-04-25T13:45:22.956Z</time></trkpt><trkpt lat="46.6524158" lon="12.5241859"><ele>1577.0</ele><time>2026-04-25T13:45:23.955Z</time></trkpt><trkpt lat="46.6523736" lon="12.5242635"><ele>1576.9999999999998</ele><time>2026-04-25T13:45:24.956Z</time></trkpt><trkpt lat="46.6523249" lon="12.5243388"><ele>1577.0</ele><time>2026-04-25T13:45:25.956Z</time></trkpt><trkpt lat="46.6522808" lon="12.5244176"><ele>1576.9999999999998</ele><time>2026-04-25T13:45:26.955Z</time></trkpt><trkpt lat="46.6522313" lon="12.5244956"><ele>1577.0</ele><time>2026-04-25T13:45:27.955Z</time></trkpt><trkpt lat="46.6521726" lon="12.5245739"><ele>1577.0</ele><time>2026-04-25T13:45:59.955Z</time></trkpt><trkpt lat="46.6521062" lon="12.5246809"><ele>1577.0</ele><time>2026-04-25T13:46:01.955Z</time></trkpt><trkpt lat="46.6520541" lon="12.5247541"><ele>1576.9999999999998</ele><time>2026-04-25T13:46:02.956Z</time></trkpt><trkpt lat="46.6520014" lon="12.5248191"><ele>1577.0</ele><time>2026-04-25T13:46:03.955Z</time></trkpt><trkpt lat="46.6519512" lon="12.5248815"><ele>1575.9999999999998</ele><time>2026-04-25T13:46:04.954Z</time></trkpt><trkpt lat="46.6518828" lon="12.5249368"><ele>1575.0</ele><time>2026-04-25T13:46:12.954Z</time></trkpt><trkpt lat="46.6517962" lon="12.5249964"><ele>1574.0</ele><time>2026-04-25T13:46:14.956Z</time></trkpt><trkpt lat="46.6517349" lon="12.5250398"><ele>1573.0</ele><time>2026-04-25T13:46:15.956Z</time></trkpt><trkpt lat="46.6516726" lon="12.5251383"><ele>1571.9999999999998</ele><time>2026-04-25T13:46:16.956Z</time></trkpt><trkpt lat="46.6516203" lon="12.5252476"><ele>1571.0</ele><time>2026-04-25T13:46:17.956Z</time></trkpt><trkpt lat="46.6515728" lon="12.5253731"><ele>1571.1999999999998</ele><time>2026-04-25T13:46:18.956Z</time></trkpt><trkpt lat="46.6515274" lon="12.5255135"><ele>1571.3999999999999</ele><time>2026-04-25T13:46:19.954Z</time></trkpt><trkpt lat="46.6514924" lon="12.5256569"><ele>1571.6</ele><time>2026-04-25T13:46:20.955Z</time></trkpt><trkpt lat="46.6514461" lon="12.5257935"><ele>1571.8</ele><time>2026-04-25T13:46:21.955Z</time></trkpt><trkpt lat="46.651394" lon="12.5259168"><ele>1572.0</ele><time>2026-04-25T13:46:22.954Z</time></trkpt><trkpt lat="46.6513346" lon="12.526019"><ele>1572.0</ele><time>2026-04-25T13:46:23.955Z</time></trkpt><trkpt lat="46.6512685" lon="12.5261136"><ele>1572.0</ele><time>2026-04-25T13:46:24.955Z</time></trkpt><trkpt lat="46.651201" lon="12.5261928"><ele>1572.0</ele><time>2026-04-25T13:46:25.955Z</time></trkpt><trkpt lat="46.6511391" lon="12.5262706"><ele>1572.0</ele><time>2026-04-25T13:46:26.956Z</time></trkpt><trkpt lat="46.6510736" lon="12.5263443"><ele>1572.0</ele><time>2026-04-25T13:46:27.955Z</time></trkpt><trkpt lat="46.6510037" lon="12.5264242"><ele>1572.0</ele><time>2026-04-25T13:46:28.955Z</time></trkpt><trkpt lat="46.6509338" lon="12.5265079"><ele>1567.8</ele><time>2026-04-25T13:46:29.956Z</time></trkpt><trkpt lat="46.6508616" lon="12.526592"><ele>1563.6</ele><time>2026-04-25T13:46:30.956Z</time></trkpt><trkpt lat="46.6507876" lon="12.5266845"><ele>1559.3999999999999</ele><time>2026-04-25T13:46:31.954Z</time></trkpt><trkpt lat="46.6507144" lon="12.5267818"><ele>1555.1999999999998</ele><time>2026-04-25T13:46:32.955Z</time></trkpt><trkpt lat="46.6506387" lon="12.5268766"><ele>1551.0</ele><time>2026-04-25T13:46:33.956Z</time></trkpt><trkpt lat="46.6505649" lon="12.5269573"><ele>1551.0</ele><time>2026-04-25T13:46:34.956Z</time></trkpt><trkpt lat="46.6504909" lon="12.5270238"><ele>1551.0</ele><time>2026-04-25T13:46:35.955Z</time></trkpt><trkpt lat="46.650408" lon="12.5270759"><ele>1551.0</ele><time>2026-04-25T13:46:36.955Z</time></trkpt><trkpt lat="46.65032" lon="12.5271259"><ele>1551.0</ele><time>2026-04-25T13:46:37.955Z</time></trkpt><trkpt lat="46.6502465" lon="12.5271865"><ele>1551.0</ele><time>2026-04-25T13:46:38.956Z</time></trkpt><trkpt lat="46.6501827" lon="12.5272674"><ele>1551.0</ele><time>2026-04-25T13:46:39.956Z</time></trkpt><trkpt lat="46.6501294" lon="12.5273687"><ele>1551.0</ele><time>2026-04-25T13:46:40.957Z</time></trkpt><trkpt lat="46.6500771" lon="12.5274791"><ele>1551.0</ele><time>2026-04-25T13:46:41.955Z</time></trkpt><trkpt lat="46.6500168" lon="12.527586"><ele>1551.0</ele><time>2026-04-25T13:46:42.956Z</time></trkpt><trkpt lat="46.6499564" lon="12.5277001"><ele>1551.0</ele><time>2026-04-25T13:46:43.955Z</time></trkpt><trkpt lat="46.6498941" lon="12.5278111"><ele>1551.0</ele><time>2026-04-25T13:46:44.955Z</time></trkpt><trkpt lat="46.6498287" lon="12.5279136"><ele>1551.0</ele><time>2026-04-25T13:46:45.956Z</time></trkpt><trkpt lat="46.6497625" lon="12.5280102"><ele>1551.0</ele><time>2026-04-25T13:46:46.955Z</time></trkpt><trkpt lat="46.6497078" lon="12.5281078"><ele>1551.0</ele><time>2026-04-25T13:46:47.955Z</time></trkpt><trkpt lat="46.6496618" lon="12.5281822"><ele>1551.0</ele><time>2026-04-25T13:46:48.956Z</time></trkpt><trkpt lat="46.6496049" lon="12.5282422"><ele>1551.0</ele><time>2026-04-25T13:46:49.955Z</time></trkpt><trkpt lat="46.6495367" lon="12.5282881"><ele>1551.0</ele><time>2026-04-25T13:46:50.955Z</time></trkpt><trkpt lat="46.6494587" lon="12.528318"><ele>1546.6</ele><time>2026-04-25T13:46:51.954Z</time></trkpt><trkpt lat="46.6493703" lon="12.5283445"><ele>1542.1999999999998</ele><time>2026-04-25T13:46:52.955Z</time></trkpt><trkpt lat="46.6492791" lon="12.5283703"><ele>1537.8000000000002</ele><time>2026-04-25T13:46:53.954Z</time></trkpt><trkpt lat="46.6491841" lon="12.5283969"><ele>1533.4</ele><time>2026-04-25T13:46:54.955Z</time></trkpt><trkpt lat="46.6490928" lon="12.5284326"><ele>1529.0</ele><time>2026-04-25T13:46:55.955Z</time></trkpt><trkpt lat="46.648995" lon="12.5284659"><ele>1529.0</ele><time>2026-04-25T13:46:56.956Z</time></trkpt><trkpt lat="46.6488942" lon="12.5285049"><ele>1529.0</ele><time>2026-04-25T13:46:57.954Z</time></trkpt><trkpt lat="46.6487892" lon="12.5285586"><ele>1529.0</ele><time>2026-04-25T13:46:58.956Z</time></trkpt><trkpt lat="46.648691" lon="12.5286155"><ele>1529.0</ele><time>2026-04-25T13:46:59.955Z</time></trkpt><trkpt lat="46.6485864" lon="12.5286638"><ele>1529.0</ele><time>2026-04-25T13:47:00.956Z</time></trkpt><trkpt lat="46.648479" lon="12.5287053"><ele>1528.8000000000002</ele><time>2026-04-25T13:47:01.956Z</time></trkpt><trkpt lat="46.6483745" lon="12.5287308"><ele>1528.6000000000001</ele><time>2026-04-25T13:47:02.955Z</time></trkpt><trkpt lat="46.6482892" lon="12.5287278"><ele>1528.4</ele><time>2026-04-25T13:47:03.955Z</time></trkpt><trkpt lat="46.6481971" lon="12.5287168"><ele>1528.2</ele><time>2026-04-25T13:47:04.954Z</time></trkpt><trkpt lat="46.6481045" lon="12.5286865"><ele>1528.0</ele><time>2026-04-25T13:47:05.956Z</time></trkpt><trkpt lat="46.6480122" lon="12.5286487"><ele>1528.0</ele><time>2026-04-25T13:47:06.955Z</time></trkpt><trkpt lat="46.6479221" lon="12.5286104"><ele>1528.0</ele><time>2026-04-25T13:47:07.955Z</time></trkpt><trkpt lat="46.647825" lon="12.5286001"><ele>1528.0</ele><time>2026-04-25T13:47:08.956Z</time></trkpt><trkpt lat="46.647725" lon="12.528595"><ele>1528.0</ele><time>2026-04-25T13:47:09.955Z</time></trkpt><trkpt lat="46.6476293" lon="12.5286173"><ele>1528.0</ele><time>2026-04-25T13:47:10.955Z</time></trkpt><trkpt lat="46.6475357" lon="12.5286558"><ele>1526.6000000000001</ele><time>2026-04-25T13:47:11.956Z</time></trkpt><trkpt lat="46.6474529" lon="12.5287103"><ele>1525.2</ele><time>2026-04-25T13:47:12.955Z</time></trkpt><trkpt lat="46.6473737" lon="12.5287848"><ele>1523.8</ele><time>2026-04-25T13:47:13.956Z</time></trkpt><trkpt lat="46.6473105" lon="12.5288746"><ele>1522.4</ele><time>2026-04-25T13:47:14.956Z</time></trkpt><trkpt lat="46.6472541" lon="12.5289849"><ele>1521.0</ele><time>2026-04-25T13:47:15.955Z</time></trkpt><trkpt lat="46.6471841" lon="12.5290968"><ele>1520.6</ele><time>2026-04-25T13:47:16.956Z</time></trkpt><trkpt lat="46.6470935" lon="12.5291864"><ele>1520.1999999999998</ele><time>2026-04-25T13:47:17.955Z</time></trkpt><trkpt lat="46.6469974" lon="12.5292507"><ele>1519.8000000000002</ele><time>2026-04-25T13:47:18.954Z</time></trkpt><trkpt lat="46.6468996" lon="12.5293043"><ele>1519.4</ele><time>2026-04-25T13:47:19.954Z</time></trkpt><trkpt lat="46.6468016" lon="12.5293613"><ele>1519.0</ele><time>2026-04-25T13:47:20.956Z</time></trkpt><trkpt lat="46.6467098" lon="12.5294327"><ele>1518.4</ele><time>2026-04-25T13:47:21.955Z</time></trkpt><trkpt lat="46.646624" lon="12.5295264"><ele>1517.8000000000002</ele><time>2026-04-25T13:47:22.955Z</time></trkpt><trkpt lat="46.6465453" lon="12.5296483"><ele>1517.1999999999998</ele><time>2026-04-25T13:47:23.955Z</time></trkpt><trkpt lat="46.6464667" lon="12.5297641"><ele>1516.6</ele><time>2026-04-25T13:47:24.955Z</time></trkpt><trkpt lat="46.6463795" lon="12.5298632"><ele>1516.0</ele><time>2026-04-25T13:47:25.955Z</time></trkpt><trkpt lat="46.6462838" lon="12.5299432"><ele>1516.0</ele><time>2026-04-25T13:47:26.955Z</time></trkpt><trkpt lat="46.6461845" lon="12.53"><ele>1516.0</ele><time>2026-04-25T13:47:27.954Z</time></trkpt><trkpt lat="46.6460773" lon="12.5300355"><ele>1516.0</ele><time>2026-04-25T13:47:28.955Z</time></trkpt><trkpt lat="46.6459662" lon="12.5300599"><ele>1516.0</ele><time>2026-04-25T13:47:29.955Z</time></trkpt><trkpt lat="46.6458521" lon="12.5300785"><ele>1516.0</ele><time>2026-04-25T13:47:30.955Z</time></trkpt><trkpt lat="46.64574" lon="12.5300862"><ele>1513.0</ele><time>2026-04-25T13:47:31.955Z</time></trkpt><trkpt lat="46.6456318" lon="12.5301025"><ele>1510.0</ele><time>2026-04-25T13:47:32.955Z</time></trkpt><trkpt lat="46.6455306" lon="12.530126"><ele>1507.0</ele><time>2026-04-25T13:47:33.956Z</time></trkpt><trkpt lat="46.6454375" lon="12.5301392"><ele>1504.0</ele><time>2026-04-25T13:47:34.955Z</time></trkpt><trkpt lat="46.6453463" lon="12.5301305"><ele>1501.0</ele><time>2026-04-25T13:47:35.955Z</time></trkpt><trkpt lat="46.6452655" lon="12.5300832"><ele>1498.8</ele><time>2026-04-25T13:47:36.955Z</time></trkpt><trkpt lat="46.645189" lon="12.5300145"><ele>1496.6</ele><time>2026-04-25T13:47:37.956Z</time></trkpt><trkpt lat="46.6451051" lon="12.5299471"><ele>1494.4</ele><time>2026-04-25T13:47:38.956Z</time></trkpt><trkpt lat="46.6450081" lon="12.5298873"><ele>1492.2</ele><time>2026-04-25T13:47:39.954Z</time></trkpt><trkpt lat="46.6449015" lon="12.5298302"><ele>1490.0</ele><time>2026-04-25T13:47:40.956Z</time></trkpt><trkpt lat="46.6447896" lon="12.5297793"><ele>1490.0</ele><time>2026-04-25T13:47:41.955Z</time></trkpt><trkpt lat="46.6446772" lon="12.5297347"><ele>1490.0</ele><time>2026-04-25T13:47:42.956Z</time></trkpt><trkpt lat="46.6445634" lon="12.529692"><ele>1490.0</ele><time>2026-04-25T13:47:43.955Z</time></trkpt><trkpt lat="46.6444498" lon="12.5296538"><ele>1490.0</ele><time>2026-04-25T13:47:44.955Z</time></trkpt><trkpt lat="46.6443383" lon="12.5296129"><ele>1489.2</ele><time>2026-04-25T13:47:45.955Z</time></trkpt><trkpt lat="46.6442307" lon="12.529585"><ele>1488.4</ele><time>2026-04-25T13:47:46.955Z</time></trkpt><trkpt lat="46.644124" lon="12.5295757"><ele>1487.6</ele><time>2026-04-25T13:47:47.956Z</time></trkpt><trkpt lat="46.6440212" lon="12.5295818"><ele>1486.8</ele><time>2026-04-25T13:47:48.956Z</time></trkpt><trkpt lat="46.6439226" lon="12.5296036"><ele>1486.0</ele><time>2026-04-25T13:47:49.955Z</time></trkpt><trkpt lat="46.6438279" lon="12.5296229"><ele>1486.0</ele><time>2026-04-25T13:47:50.955Z</time></trkpt><trkpt lat="46.6437335" lon="12.5296199"><ele>1486.0</ele><time>2026-04-25T13:47:51.955Z</time></trkpt><trkpt lat="46.6436368" lon="12.5295921"><ele>1486.0</ele><time>2026-04-25T13:47:52.955Z</time></trkpt><trkpt lat="46.6435364" lon="12.5295429"><ele>1486.0</ele><time>2026-04-25T13:47:53.956Z</time></trkpt><trkpt lat="46.6434337" lon="12.5294822"><ele>1486.0</ele><time>2026-04-25T13:47:54.954Z</time></trkpt><trkpt lat="46.6433271" lon="12.5294211"><ele>1487.0</ele><time>2026-04-25T13:47:55.955Z</time></trkpt><trkpt lat="46.6432158" lon="12.5293701"><ele>1488.0</ele><time>2026-04-25T13:47:56.955Z</time></trkpt><trkpt lat="46.6431063" lon="12.5293231"><ele>1489.0</ele><time>2026-04-25T13:47:57.954Z</time></trkpt><trkpt lat="46.6429979" lon="12.5292773"><ele>1490.0</ele><time>2026-04-25T13:47:58.955Z</time></trkpt><trkpt lat="46.6428926" lon="12.5292384"><ele>1486.8</ele><time>2026-04-25T13:47:59.955Z</time></trkpt><trkpt lat="46.6427876" lon="12.5292144"><ele>1483.6</ele><time>2026-04-25T13:48:00.956Z</time></trkpt><trkpt lat="46.6426868" lon="12.5291936"><ele>1480.4</ele><time>2026-04-25T13:48:01.956Z</time></trkpt><trkpt lat="46.6425883" lon="12.5291756"><ele>1477.2</ele><time>2026-04-25T13:48:02.954Z</time></trkpt><trkpt lat="46.6424939" lon="12.5291606"><ele>1474.0</ele><time>2026-04-25T13:48:03.955Z</time></trkpt><trkpt lat="46.6424033" lon="12.5291562"><ele>1474.0</ele><time>2026-04-25T13:48:04.956Z</time></trkpt><trkpt lat="46.6423303" lon="12.5291615"><ele>1474.0</ele><time>2026-04-25T13:48:05.955Z</time></trkpt><trkpt lat="46.6422462" lon="12.5291928"><ele>1474.0</ele><time>2026-04-25T13:48:07.956Z</time></trkpt><trkpt lat="46.642258" lon="12.5293017"><ele>1474.0</ele><time>2026-04-25T13:48:10.955Z</time></trkpt><trkpt lat="46.6423481" lon="12.5294297"><ele>1474.0</ele><time>2026-04-25T13:48:12.956Z</time></trkpt><trkpt lat="46.642407" lon="12.5295123"><ele>1474.0</ele><time>2026-04-25T13:48:13.956Z</time></trkpt><trkpt lat="46.6424861" lon="12.5296094"><ele>1474.3333333333333</ele><time>2026-04-25T13:48:14.955Z</time></trkpt><trkpt lat="46.6425592" lon="12.5296989"><ele>1474.6666666666665</ele><time>2026-04-25T13:48:15.955Z</time></trkpt><trkpt lat="46.6426289" lon="12.5297754"><ele>1475.0</ele><time>2026-04-25T13:48:16.956Z</time></trkpt><trkpt lat="46.6426926" lon="12.5298327"><ele>1475.3333333333333</ele><time>2026-04-25T13:48:17.954Z</time></trkpt><trkpt lat="46.6427808" lon="12.5298882"><ele>1475.6666666666667</ele><time>2026-04-25T13:48:19.955Z</time></trkpt><trkpt lat="46.6428519" lon="12.5299215"><ele>1476.0</ele><time>2026-04-25T13:48:22.954Z</time></trkpt><trkpt lat="46.6429246" lon="12.5299704"><ele>1477.1999999999998</ele><time>2026-04-25T13:49:22.955Z</time></trkpt><trkpt lat="46.6430154" lon="12.5300818"><ele>1478.3999999999999</ele><time>2026-04-25T13:49:24.955Z</time></trkpt><trkpt lat="46.643074" lon="12.5301683"><ele>1479.6</ele><time>2026-04-25T13:49:25.955Z</time></trkpt><trkpt lat="46.6431468" lon="12.5302824"><ele>1480.8</ele><time>2026-04-25T13:49:26.955Z</time></trkpt><trkpt lat="46.6432266" lon="12.5303946"><ele>1482.0</ele><time>2026-04-25T13:49:27.955Z</time></trkpt><trkpt lat="46.6433149" lon="12.5305319"><ele>1482.5</ele><time>2026-04-25T13:49:28.955Z</time></trkpt><trkpt lat="46.6434036" lon="12.5306904"><ele>1483.0</ele><time>2026-04-25T13:49:29.955Z</time></trkpt><trkpt lat="46.643486" lon="12.5308534"><ele>1483.5</ele><time>2026-04-25T13:49:30.955Z</time></trkpt><trkpt lat="46.6435401" lon="12.5309991"><ele>1484.0</ele><time>2026-04-25T13:49:31.954Z</time></trkpt><trkpt lat="46.6435959" lon="12.5311233"><ele>1486.0</ele><time>2026-04-25T13:49:32.955Z</time></trkpt><trkpt lat="46.6436496" lon="12.5312068"><ele>1488.0</ele><time>2026-04-25T13:49:33.956Z</time></trkpt><trkpt lat="46.6437129" lon="12.5312566"><ele>1490.0</ele><time>2026-04-25T13:49:34.955Z</time></trkpt><trkpt lat="46.6437777" lon="12.5312571"><ele>1492.0</ele><time>2026-04-25T13:49:35.954Z</time></trkpt><trkpt lat="46.6438347" lon="12.5312134"><ele>1494.0</ele><time>2026-04-25T13:49:36.955Z</time></trkpt><trkpt lat="46.643884" lon="12.5311465"><ele>1496.0</ele><time>2026-04-25T13:49:37.955Z</time></trkpt><trkpt lat="46.643938" lon="12.5310638"><ele>1498.0</ele><time>2026-04-25T13:49:38.955Z</time></trkpt><trkpt lat="46.6440016" lon="12.5309375"><ele>1498.0</ele><time>2026-04-25T13:49:39.955Z</time></trkpt><trkpt lat="46.6440661" lon="12.5308319"><ele>1498.0</ele><time>2026-04-25T13:49:40.955Z</time></trkpt><trkpt lat="46.6441204" lon="12.5307367"><ele>1498.0</ele><time>2026-04-25T13:49:41.954Z</time></trkpt><trkpt lat="46.644198" lon="12.5306323"><ele>1498.0</ele><time>2026-04-25T13:49:43.955Z</time></trkpt><trkpt lat="46.6442541" lon="12.530731"><ele>1498.0</ele><time>2026-04-25T13:49:45.954Z</time></trkpt><trkpt lat="46.6442414" lon="12.5309315"><ele>1498.0</ele><time>2026-04-25T13:49:47.955Z</time></trkpt><trkpt lat="46.6442253" lon="12.5310805"><ele>1498.0</ele><time>2026-04-25T13:49:48.955Z</time></trkpt><trkpt lat="46.6442043" lon="12.5312486"><ele>1498.0</ele><time>2026-04-25T13:49:49.955Z</time></trkpt><trkpt lat="46.6441904" lon="12.5314202"><ele>1498.0</ele><time>2026-04-25T13:49:50.955Z</time></trkpt><trkpt lat="46.6441754" lon="12.5315842"><ele>1498.8000000000002</ele><time>2026-04-25T13:49:51.955Z</time></trkpt><trkpt lat="46.6441567" lon="12.5317425"><ele>1499.6</ele><time>2026-04-25T13:49:52.955Z</time></trkpt><trkpt lat="46.6441303" lon="12.5319037"><ele>1500.4</ele><time>2026-04-25T13:49:53.955Z</time></trkpt><trkpt lat="46.6441076" lon="12.532065"><ele>1501.1999999999998</ele><time>2026-04-25T13:49:54.955Z</time></trkpt><trkpt lat="46.6440956" lon="12.5322122"><ele>1502.0</ele><time>2026-04-25T13:49:55.955Z</time></trkpt><trkpt lat="46.64409" lon="12.5323552"><ele>1503.5</ele><time>2026-04-25T13:49:56.955Z</time></trkpt><trkpt lat="46.6440977" lon="12.5324784"><ele>1505.0</ele><time>2026-04-25T13:49:57.955Z</time></trkpt><trkpt lat="46.6441224" lon="12.5325914"><ele>1506.5</ele><time>2026-04-25T13:49:58.955Z</time></trkpt><trkpt lat="46.6441529" lon="12.5326871"><ele>1508.0</ele><time>2026-04-25T13:49:59.955Z</time></trkpt><trkpt lat="46.6442156" lon="12.5327422"><ele>1509.5</ele><time>2026-04-25T13:50:00.955Z</time></trkpt><trkpt lat="46.644284" lon="12.5328036"><ele>1511.0</ele><time>2026-04-25T13:50:01.955Z</time></trkpt><trkpt lat="46.6443493" lon="12.5328729"><ele>1514.0</ele><time>2026-04-25T13:50:02.955Z</time></trkpt><trkpt lat="46.6443917" lon="12.5329573"><ele>1517.0</ele><time>2026-04-25T13:50:03.955Z</time></trkpt><trkpt lat="46.6444284" lon="12.5330548"><ele>1520.0</ele><time>2026-04-25T13:50:04.955Z</time></trkpt><trkpt lat="46.6444503" lon="12.5331743"><ele>1523.0</ele><time>2026-04-25T13:50:05.954Z</time></trkpt><trkpt lat="46.644465" lon="12.5333055"><ele>1526.0</ele><time>2026-04-25T13:50:06.955Z</time></trkpt><trkpt lat="46.644477" lon="12.5334329"><ele>1529.0</ele><time>2026-04-25T13:50:07.955Z</time></trkpt><trkpt lat="46.6444907" lon="12.5335453"><ele>1534.5</ele><time>2026-04-25T13:50:08.955Z</time></trkpt><trkpt lat="46.6445302" lon="12.5336474"><ele>1540.0</ele><time>2026-04-25T13:50:09.955Z</time></trkpt><trkpt lat="46.6445739" lon="12.5337415"><ele>1545.5</ele><time>2026-04-25T13:50:10.955Z</time></trkpt><trkpt lat="46.644605" lon="12.5338453"><ele>1551.0</ele><time>2026-04-25T13:50:11.955Z</time></trkpt><trkpt lat="46.6446203" lon="12.5339534"><ele>1556.4999999999998</ele><time>2026-04-25T13:50:12.954Z</time></trkpt><trkpt lat="46.6446281" lon="12.5340619"><ele>1562.0</ele><time>2026-04-25T13:50:13.955Z</time></trkpt><trkpt lat="46.6446314" lon="12.5341874"><ele>1564.1999999999998</ele><time>2026-04-25T13:50:14.955Z</time></trkpt><trkpt lat="46.6446318" lon="12.5343236"><ele>1566.4</ele><time>2026-04-25T13:50:15.956Z</time></trkpt><trkpt lat="46.6446339" lon="12.5344785"><ele>1568.6</ele><time>2026-04-25T13:50:16.954Z</time></trkpt><trkpt lat="46.6446289" lon="12.534645"><ele>1570.8000000000002</ele><time>2026-04-25T13:50:17.955Z</time></trkpt><trkpt lat="46.6446367" lon="12.5348221"><ele>1573.0</ele><time>2026-04-25T13:50:18.955Z</time></trkpt><trkpt lat="46.644642" lon="12.5349912"><ele>1573.6000000000001</ele><time>2026-04-25T13:50:19.955Z</time></trkpt><trkpt lat="46.6446424" lon="12.5351414"><ele>1574.2</ele><time>2026-04-25T13:50:20.955Z</time></trkpt><trkpt lat="46.6446454" lon="12.5352828"><ele>1574.8</ele><time>2026-04-25T13:50:21.955Z</time></trkpt><trkpt lat="46.6446321" lon="12.5354192"><ele>1575.4</ele><time>2026-04-25T13:50:22.955Z</time></trkpt><trkpt lat="46.6446117" lon="12.5355659"><ele>1576.0</ele><time>2026-04-25T13:50:23.955Z</time></trkpt><trkpt lat="46.6445865" lon="12.5357226"><ele>1576.75</ele><time>2026-04-25T13:50:24.954Z</time></trkpt><trkpt lat="46.6445584" lon="12.5358756"><ele>1577.5</ele><time>2026-04-25T13:50:25.955Z</time></trkpt><trkpt lat="46.6445472" lon="12.5360403"><ele>1578.25</ele><time>2026-04-25T13:50:26.955Z</time></trkpt><trkpt lat="46.6445469" lon="12.5362174"><ele>1579.0</ele><time>2026-04-25T13:50:27.955Z</time></trkpt><trkpt lat="46.6445591" lon="12.5364094"><ele>1580.0</ele><time>2026-04-25T13:50:28.955Z</time></trkpt><trkpt lat="46.6445769" lon="12.5366071"><ele>1581.0</ele><time>2026-04-25T13:50:29.954Z</time></trkpt><trkpt lat="46.6445879" lon="12.5367908"><ele>1582.0</ele><time>2026-04-25T13:50:30.955Z</time></trkpt><trkpt lat="46.6445887" lon="12.5369702"><ele>1583.0</ele><time>2026-04-25T13:50:31.954Z</time></trkpt><trkpt lat="46.6445578" lon="12.5371274"><ele>1582.8000000000002</ele><time>2026-04-25T13:50:32.955Z</time></trkpt><trkpt lat="46.6445148" lon="12.5372823"><ele>1582.6</ele><time>2026-04-25T13:50:33.954Z</time></trkpt><trkpt lat="46.644468" lon="12.5374415"><ele>1582.4</ele><time>2026-04-25T13:50:34.955Z</time></trkpt><trkpt lat="46.6444331" lon="12.537605"><ele>1582.1999999999998</ele><time>2026-04-25T13:50:35.955Z</time></trkpt><trkpt lat="46.6444213" lon="12.5377452"><ele>1582.0</ele><time>2026-04-25T13:50:36.956Z</time></trkpt><trkpt lat="46.6444308" lon="12.5378527"><ele>1583.0</ele><time>2026-04-25T13:50:37.955Z</time></trkpt><trkpt lat="46.6444355" lon="12.5379778"><ele>1584.0</ele><time>2026-04-25T13:50:38.956Z</time></trkpt><trkpt lat="46.6444707" lon="12.5381107"><ele>1585.0</ele><time>2026-04-25T13:50:39.955Z</time></trkpt><trkpt lat="46.6444964" lon="12.5382394"><ele>1586.0</ele><time>2026-04-25T13:50:40.955Z</time></trkpt><trkpt lat="46.6445425" lon="12.5383734"><ele>1587.0</ele><time>2026-04-25T13:50:41.954Z</time></trkpt><trkpt lat="46.6445933" lon="12.538507"><ele>1590.3333333333333</ele><time>2026-04-25T13:50:42.955Z</time></trkpt><trkpt lat="46.6446295" lon="12.5386429"><ele>1593.6666666666665</ele><time>2026-04-25T13:50:43.955Z</time></trkpt><trkpt lat="46.6446405" lon="12.5387748"><ele>1597.0</ele><time>2026-04-25T13:50:44.955Z</time></trkpt><trkpt lat="46.6446416" lon="12.5388975"><ele>1600.3333333333333</ele><time>2026-04-25T13:50:45.955Z</time></trkpt><trkpt lat="46.6446334" lon="12.538995"><ele>1603.6666666666665</ele><time>2026-04-25T13:50:46.954Z</time></trkpt><trkpt lat="46.6446121" lon="12.5391157"><ele>1607.0</ele><time>2026-04-25T13:50:48.955Z</time></trkpt><trkpt lat="46.6445719" lon="12.5392527"><ele>1608.3999999999999</ele><time>2026-04-25T13:51:33.955Z</time></trkpt><trkpt lat="46.6445262" lon="12.5394011"><ele>1609.8</ele><time>2026-04-25T13:51:35.955Z</time></trkpt><trkpt lat="46.6444784" lon="12.5395057"><ele>1611.2</ele><time>2026-04-25T13:51:36.955Z</time></trkpt><trkpt lat="46.644418" lon="12.539623"><ele>1612.6</ele><time>2026-04-25T13:51:37.955Z</time></trkpt><trkpt lat="46.6443524" lon="12.5397227"><ele>1614.0</ele><time>2026-04-25T13:51:38.955Z</time></trkpt><trkpt lat="46.6443001" lon="12.5398106"><ele>1611.0</ele><time>2026-04-25T13:51:39.955Z</time></trkpt><trkpt lat="46.6442464" lon="12.5398959"><ele>1608.0</ele><time>2026-04-25T13:51:40.955Z</time></trkpt><trkpt lat="46.6442147" lon="12.5400138"><ele>1605.0</ele><time>2026-04-25T13:51:41.954Z</time></trkpt><trkpt lat="46.6441931" lon="12.5401538"><ele>1602.0</ele><time>2026-04-25T13:51:42.954Z</time></trkpt><trkpt lat="46.6441884" lon="12.5403084"><ele>1599.0</ele><time>2026-04-25T13:51:43.955Z</time></trkpt><trkpt lat="46.6441831" lon="12.5404772"><ele>1599.0</ele><time>2026-04-25T13:51:44.955Z</time></trkpt><trkpt lat="46.6441691" lon="12.5406723"><ele>1599.0</ele><time>2026-04-25T13:51:45.955Z</time></trkpt><trkpt lat="46.6441523" lon="12.540865"><ele>1599.0</ele><time>2026-04-25T13:51:46.955Z</time></trkpt><trkpt lat="46.6441363" lon="12.5410475"><ele>1599.0</ele><time>2026-04-25T13:51:47.954Z</time></trkpt><trkpt lat="46.6441379" lon="12.5412233"><ele>1601.5</ele><time>2026-04-25T13:51:48.955Z</time></trkpt><trkpt lat="46.6441586" lon="12.5414026"><ele>1604.0</ele><time>2026-04-25T13:51:49.954Z</time></trkpt><trkpt lat="46.6441885" lon="12.5415864"><ele>1606.5</ele><time>2026-04-25T13:51:50.955Z</time></trkpt><trkpt lat="46.6442242" lon="12.5417734"><ele>1609.0</ele><time>2026-04-25T13:51:51.955Z</time></trkpt><trkpt lat="46.6442654" lon="12.5419629"><ele>1608.75</ele><time>2026-04-25T13:51:52.954Z</time></trkpt><trkpt lat="46.6443049" lon="12.5421541"><ele>1608.5</ele><time>2026-04-25T13:51:53.955Z</time></trkpt><trkpt lat="46.6443332" lon="12.5423372"><ele>1608.25</ele><time>2026-04-25T13:51:54.955Z</time></trkpt><trkpt lat="46.644347" lon="12.5425249"><ele>1608.0</ele><time>2026-04-25T13:51:55.955Z</time></trkpt><trkpt lat="46.6443469" lon="12.5427125"><ele>1610.25</ele><time>2026-04-25T13:51:56.955Z</time></trkpt><trkpt lat="46.6443285" lon="12.5428939"><ele>1612.5</ele><time>2026-04-25T13:51:57.954Z</time></trkpt><trkpt lat="46.6442973" lon="12.5430754"><ele>1614.75</ele><time>2026-04-25T13:51:58.955Z</time></trkpt><trkpt lat="46.6442614" lon="12.5432645"><ele>1617.0</ele><time>2026-04-25T13:51:59.955Z</time></trkpt><trkpt lat="46.6442253" lon="12.5434585"><ele>1617.0</ele><time>2026-04-25T13:52:00.955Z</time></trkpt><trkpt lat="46.6441921" lon="12.5436552"><ele>1617.0</ele><time>2026-04-25T13:52:01.954Z</time></trkpt><trkpt lat="46.6441555" lon="12.5438357"><ele>1617.0</ele><time>2026-04-25T13:52:02.955Z</time></trkpt><trkpt lat="46.6441092" lon="12.5439849"><ele>1617.0</ele><time>2026-04-25T13:52:03.954Z</time></trkpt><trkpt lat="46.6440651" lon="12.5441371"><ele>1620.5</ele><time>2026-04-25T13:52:04.955Z</time></trkpt><trkpt lat="46.6440104" lon="12.5442569"><ele>1624.0</ele><time>2026-04-25T13:52:05.955Z</time></trkpt><trkpt lat="46.6439576" lon="12.5443859"><ele>1627.5</ele><time>2026-04-25T13:52:06.954Z</time></trkpt><trkpt lat="46.6439188" lon="12.5445504"><ele>1631.0</ele><time>2026-04-25T13:52:07.955Z</time></trkpt><trkpt lat="46.6438916" lon="12.5447424"><ele>1635.0</ele><time>2026-04-25T13:52:08.955Z</time></trkpt><trkpt lat="46.6438699" lon="12.5449484"><ele>1639.0</ele><time>2026-04-25T13:52:09.954Z</time></trkpt><trkpt lat="46.643848" lon="12.5451531"><ele>1643.0</ele><time>2026-04-25T13:52:10.955Z</time></trkpt><trkpt lat="46.6438158" lon="12.5453569"><ele>1647.0</ele><time>2026-04-25T13:52:11.955Z</time></trkpt><trkpt lat="46.6437916" lon="12.5455541"><ele>1649.75</ele><time>2026-04-25T13:52:12.955Z</time></trkpt><trkpt lat="46.6437647" lon="12.545744"><ele>1652.5</ele><time>2026-04-25T13:52:13.955Z</time></trkpt><trkpt lat="46.64374" lon="12.5459287"><ele>1655.25</ele><time>2026-04-25T13:52:14.955Z</time></trkpt><trkpt lat="46.643716" lon="12.5461008"><ele>1658.0</ele><time>2026-04-25T13:52:15.955Z</time></trkpt><trkpt lat="46.6437018" lon="12.5462766"><ele>1660.25</ele><time>2026-04-25T13:52:16.954Z</time></trkpt><trkpt lat="46.6437018" lon="12.5464558"><ele>1662.5</ele><time>2026-04-25T13:52:17.954Z</time></trkpt><trkpt lat="46.6437039" lon="12.546631"><ele>1664.75</ele><time>2026-04-25T13:52:18.954Z</time></trkpt><trkpt lat="46.6436886" lon="12.5467939"><ele>1667.0</ele><time>2026-04-25T13:52:19.955Z</time></trkpt><trkpt lat="46.6436586" lon="12.5469558"><ele>1669.4999999999998</ele><time>2026-04-25T13:52:20.955Z</time></trkpt><trkpt lat="46.6436279" lon="12.5471032"><ele>1672.0</ele><time>2026-04-25T13:52:21.955Z</time></trkpt><trkpt lat="46.6436168" lon="12.5472349"><ele>1674.5</ele><time>2026-04-25T13:52:22.955Z</time></trkpt><trkpt lat="46.6436139" lon="12.5473611"><ele>1677.0</ele><time>2026-04-25T13:52:23.953Z</time></trkpt><trkpt lat="46.6436235" lon="12.5474802"><ele>1679.4999999999998</ele><time>2026-04-25T13:52:24.954Z</time></trkpt><trkpt lat="46.643636" lon="12.5475919"><ele>1682.0</ele><time>2026-04-25T13:52:25.954Z</time></trkpt><trkpt lat="46.6436407" lon="12.5476974"><ele>1680.4999999999998</ele><time>2026-04-25T13:52:26.954Z</time></trkpt><trkpt lat="46.6435999" lon="12.5477796"><ele>1679.0</ele><time>2026-04-25T13:52:27.955Z</time></trkpt><trkpt lat="46.6435464" lon="12.5478317"><ele>1677.5</ele><time>2026-04-25T13:52:28.955Z</time></trkpt><trkpt lat="46.6434957" lon="12.547895"><ele>1676.0</ele><time>2026-04-25T13:52:29.953Z</time></trkpt><trkpt lat="46.643462" lon="12.5479838"><ele>1674.4999999999998</ele><time>2026-04-25T13:52:30.954Z</time></trkpt><trkpt lat="46.6434241" lon="12.5481475"><ele>1673.0</ele><time>2026-04-25T13:52:32.955Z</time></trkpt><trkpt lat="46.6433358" lon="12.5481972"><ele>1673.0</ele><time>2026-04-25T13:52:34.955Z</time></trkpt><trkpt lat="46.6432251" lon="12.5482117"><ele>1673.0</ele><time>2026-04-25T13:52:36.955Z</time></trkpt><trkpt lat="46.6431413" lon="12.5483232"><ele>1673.0</ele><time>2026-04-25T13:52:38.954Z</time></trkpt><trkpt lat="46.6430998" lon="12.548421"><ele>1673.0</ele><time>2026-04-25T13:52:39.954Z</time></trkpt><trkpt lat="46.643042" lon="12.5485269"><ele>1673.0</ele><time>2026-04-25T13:52:40.953Z</time></trkpt><trkpt lat="46.6429741" lon="12.5486133"><ele>1672.9999999999998</ele><time>2026-04-25T13:52:41.953Z</time></trkpt><trkpt lat="46.6428962" lon="12.548684"><ele>1673.0</ele><time>2026-04-25T13:52:42.955Z</time></trkpt><trkpt lat="46.6428306" lon="12.5487648"><ele>1673.0</ele><time>2026-04-25T13:52:43.956Z</time></trkpt><trkpt lat="46.6427743" lon="12.5488605"><ele>1673.0</ele><time>2026-04-25T13:52:44.954Z</time></trkpt><trkpt lat="46.6427295" lon="12.5489618"><ele>1672.9999999999998</ele><time>2026-04-25T13:52:45.954Z</time></trkpt><trkpt lat="46.642693" lon="12.5490631"><ele>1673.0</ele><time>2026-04-25T13:52:46.954Z</time></trkpt><trkpt lat="46.642659" lon="12.549172"><ele>1673.1666666666665</ele><time>2026-04-25T13:52:47.955Z</time></trkpt><trkpt lat="46.6426174" lon="12.5492715"><ele>1673.3333333333333</ele><time>2026-04-25T13:52:48.955Z</time></trkpt><trkpt lat="46.6425602" lon="12.5493504"><ele>1673.5</ele><time>2026-04-25T13:52:49.953Z</time></trkpt><trkpt lat="46.6424915" lon="12.5494192"><ele>1673.6666666666665</ele><time>2026-04-25T13:52:50.954Z</time></trkpt><trkpt lat="46.6424326" lon="12.5494923"><ele>1673.8333333333333</ele><time>2026-04-25T13:52:51.955Z</time></trkpt><trkpt lat="46.6423773" lon="12.5495692"><ele>1674.0</ele><time>2026-04-25T13:52:52.955Z</time></trkpt><trkpt lat="46.6423617" lon="12.5496693"><ele>1674.0</ele><time>2026-04-25T13:52:53.955Z</time></trkpt><trkpt lat="46.6423542" lon="12.5497787"><ele>1674.0</ele><time>2026-04-25T13:52:54.954Z</time></trkpt><trkpt lat="46.6423496" lon="12.5498995"><ele>1674.0</ele><time>2026-04-25T13:52:55.955Z</time></trkpt><trkpt lat="46.6423467" lon="12.5500239"><ele>1674.0</ele><time>2026-04-25T13:52:56.955Z</time></trkpt><trkpt lat="46.642338" lon="12.5501538"><ele>1674.0</ele><time>2026-04-25T13:52:57.955Z</time></trkpt><trkpt lat="46.6423241" lon="12.5502846"><ele>1674.0</ele><time>2026-04-25T13:52:58.954Z</time></trkpt><trkpt lat="46.6423043" lon="12.5504063"><ele>1676.1666666666667</ele><time>2026-04-25T13:52:59.954Z</time></trkpt><trkpt lat="46.6422757" lon="12.5505325"><ele>1678.3333333333335</ele><time>2026-04-25T13:53:00.955Z</time></trkpt><trkpt lat="46.6422562" lon="12.5506466"><ele>1680.5</ele><time>2026-04-25T13:53:01.955Z</time></trkpt><trkpt lat="46.6422368" lon="12.5507724"><ele>1682.6666666666667</ele><time>2026-04-25T13:53:02.954Z</time></trkpt><trkpt lat="46.6422202" lon="12.5508886"><ele>1684.8333333333335</ele><time>2026-04-25T13:53:03.953Z</time></trkpt><trkpt lat="46.6422209" lon="12.5509934"><ele>1687.0</ele><time>2026-04-25T13:53:04.955Z</time></trkpt><trkpt lat="46.6422164" lon="12.5510905"><ele>1687.0</ele><time>2026-04-25T13:53:05.954Z</time></trkpt><trkpt lat="46.6422044" lon="12.5511823"><ele>1687.0</ele><time>2026-04-25T13:53:06.954Z</time></trkpt><trkpt lat="46.64214" lon="12.5512927"><ele>1687.0</ele><time>2026-04-25T13:53:08.954Z</time></trkpt><trkpt lat="46.6420383" lon="12.5513006"><ele>1687.0</ele><time>2026-04-25T13:53:10.955Z</time></trkpt><trkpt lat="46.6419311" lon="12.5513015"><ele>1687.0</ele><time>2026-04-25T13:53:12.955Z</time></trkpt><trkpt lat="46.6417933" lon="12.5512838"><ele>1685.1666666666667</ele><time>2026-04-25T13:53:14.954Z</time></trkpt><trkpt lat="46.6417172" lon="12.5512759"><ele>1683.3333333333335</ele><time>2026-04-25T13:53:15.954Z</time></trkpt><trkpt lat="46.6416391" lon="12.5512748"><ele>1681.5</ele><time>2026-04-25T13:53:16.955Z</time></trkpt><trkpt lat="46.6415558" lon="12.5512772"><ele>1679.6666666666665</ele><time>2026-04-25T13:53:17.954Z</time></trkpt><trkpt lat="46.6414745" lon="12.5512896"><ele>1677.8333333333333</ele><time>2026-04-25T13:53:18.955Z</time></trkpt><trkpt lat="46.6413975" lon="12.5513067"><ele>1676.0</ele><time>2026-04-25T13:53:19.954Z</time></trkpt><trkpt lat="46.6413187" lon="12.5513374"><ele>1675.9999999999998</ele><time>2026-04-25T13:53:20.955Z</time></trkpt><trkpt lat="46.6412485" lon="12.5513814"><ele>1676.0</ele><time>2026-04-25T13:53:21.954Z</time></trkpt><trkpt lat="46.6411948" lon="12.5514388"><ele>1676.0</ele><time>2026-04-25T13:53:22.955Z</time></trkpt><trkpt lat="46.6411551" lon="12.5515184"><ele>1676.0</ele><time>2026-04-25T13:53:23.955Z</time></trkpt><trkpt lat="46.6411372" lon="12.5516179"><ele>1676.0</ele><time>2026-04-25T13:53:24.954Z</time></trkpt><trkpt lat="46.6411158" lon="12.5517064"><ele>1675.9999999999998</ele><time>2026-04-25T13:53:25.955Z</time></trkpt><trkpt lat="46.6410462" lon="12.5518082"><ele>1676.0</ele><time>2026-04-25T13:53:27.955Z</time></trkpt><trkpt lat="46.6409464" lon="12.5518177"><ele>1676.1666666666665</ele><time>2026-04-25T13:53:29.954Z</time></trkpt><trkpt lat="46.6408366" lon="12.551836"><ele>1676.3333333333333</ele><time>2026-04-25T13:53:31.954Z</time></trkpt><trkpt lat="46.6407707" lon="12.5518707"><ele>1676.5</ele><time>2026-04-25T13:53:32.955Z</time></trkpt><trkpt lat="46.6407115" lon="12.5519084"><ele>1676.6666666666665</ele><time>2026-04-25T13:53:33.954Z</time></trkpt><trkpt lat="46.6406529" lon="12.5519488"><ele>1676.8333333333333</ele><time>2026-04-25T13:53:34.955Z</time></trkpt><trkpt lat="46.6405833" lon="12.5520512"><ele>1677.0</ele><time>2026-04-25T13:53:36.955Z</time></trkpt><trkpt lat="46.6405738" lon="12.552199"><ele>1678.0</ele><time>2026-04-25T13:53:38.955Z</time></trkpt><trkpt lat="46.6405817" lon="12.5523611"><ele>1679.0</ele><time>2026-04-25T13:53:40.955Z</time></trkpt><trkpt lat="46.6405199" lon="12.5524729"><ele>1680.0</ele><time>2026-04-25T13:53:42.955Z</time></trkpt><trkpt lat="46.6404211" lon="12.5524861"><ele>1681.0</ele><time>2026-04-25T13:53:44.953Z</time></trkpt><trkpt lat="46.6403102" lon="12.5524349"><ele>1682.0</ele><time>2026-04-25T13:53:46.955Z</time></trkpt><trkpt lat="46.6402566" lon="12.5523787"><ele>1685.3999999999999</ele><time>2026-04-25T13:53:47.955Z</time></trkpt><trkpt lat="46.6401901" lon="12.5522469"><ele>1688.8</ele><time>2026-04-25T13:53:49.954Z</time></trkpt><trkpt lat="46.6401744" lon="12.5520929"><ele>1692.2</ele><time>2026-04-25T13:53:51.953Z</time></trkpt><trkpt lat="46.6401473" lon="12.5519456"><ele>1695.6</ele><time>2026-04-25T13:53:53.954Z</time></trkpt><trkpt lat="46.6400936" lon="12.551867"><ele>1699.0</ele><time>2026-04-25T13:53:55.955Z</time></trkpt><trkpt lat="46.6400302" lon="12.5519339"><ele>1699.0</ele><time>2026-04-25T13:53:57.954Z</time></trkpt><trkpt lat="46.6399542" lon="12.5520249"><ele>1699.0</ele><time>2026-04-25T13:53:59.954Z</time></trkpt><trkpt lat="46.6398614" lon="12.552056"><ele>1699.0</ele><time>2026-04-25T13:54:01.954Z</time></trkpt><trkpt lat="46.6397505" lon="12.5520659"><ele>1699.0</ele><time>2026-04-25T13:54:03.955Z</time></trkpt><trkpt lat="46.6396487" lon="12.5520132"><ele>1699.0</ele><time>2026-04-25T13:54:05.955Z</time></trkpt><trkpt lat="46.6395653" lon="12.5519403"><ele>1699.0000000000002</ele><time>2026-04-25T13:54:07.955Z</time></trkpt><trkpt lat="46.6395013" lon="12.5519621"><ele>1699.0</ele><time>2026-04-25T13:54:09.955Z</time></trkpt><trkpt lat="46.6394895" lon="12.5520544"><ele>1699.0</ele><time>2026-04-25T13:54:11.955Z</time></trkpt><trkpt lat="46.6394469" lon="12.5521613"><ele>1699.0</ele><time>2026-04-25T13:54:13.953Z</time></trkpt><trkpt lat="46.6393711" lon="12.5521836"><ele>1699.0000000000002</ele><time>2026-04-25T13:54:15.954Z</time></trkpt><trkpt lat="46.6392798" lon="12.5521809"><ele>1699.0</ele><time>2026-04-25T13:54:17.955Z</time></trkpt><trkpt lat="46.6391821" lon="12.5520947"><ele>1707.6</ele><time>2026-04-25T13:54:19.955Z</time></trkpt><trkpt lat="46.6390965" lon="12.5519766"><ele>1716.2</ele><time>2026-04-25T13:54:21.954Z</time></trkpt><trkpt lat="46.6390189" lon="12.5518926"><ele>1724.7999999999997</ele><time>2026-04-25T13:54:23.955Z</time></trkpt><trkpt lat="46.6389955" lon="12.5517848"><ele>1733.3999999999999</ele><time>2026-04-25T13:54:25.954Z</time></trkpt><trkpt lat="46.6389702" lon="12.5516708"><ele>1742.0</ele><time>2026-04-25T13:54:27.955Z</time></trkpt><trkpt lat="46.638883" lon="12.55158"><ele>1742.0</ele><time>2026-04-25T13:54:29.954Z</time></trkpt><trkpt lat="46.6388219" lon="12.5514563"><ele>1741.9999999999998</ele><time>2026-04-25T13:54:31.955Z</time></trkpt><trkpt lat="46.6388095" lon="12.5513422"><ele>1741.9999999999998</ele><time>2026-04-25T13:54:33.955Z</time></trkpt><trkpt lat="46.6388346" lon="12.5511858"><ele>1742.0</ele><time>2026-04-25T13:54:35.954Z</time></trkpt><trkpt lat="46.6388696" lon="12.5510116"><ele>1742.0</ele><time>2026-04-25T13:54:37.955Z</time></trkpt><trkpt lat="46.6389038" lon="12.5509099"><ele>1743.6</ele><time>2026-04-25T13:54:38.954Z</time></trkpt><trkpt lat="46.6389354" lon="12.5508156"><ele>1745.1999999999998</ele><time>2026-04-25T13:54:39.955Z</time></trkpt><trkpt lat="46.6389689" lon="12.5507206"><ele>1746.8</ele><time>2026-04-25T13:54:40.955Z</time></trkpt><trkpt lat="46.6390313" lon="12.5505846"><ele>1748.4</ele><time>2026-04-25T13:54:42.955Z</time></trkpt><trkpt lat="46.6390348" lon="12.5504435"><ele>1750.0</ele><time>2026-04-25T13:54:44.954Z</time></trkpt><trkpt lat="46.6389654" lon="12.5503082"><ele>1752.142857142857</ele><time>2026-04-25T13:54:46.954Z</time></trkpt><trkpt lat="46.6389327" lon="12.5502157"><ele>1754.2857142857142</ele><time>2026-04-25T13:54:47.955Z</time></trkpt><trkpt lat="46.6389098" lon="12.5501146"><ele>1756.4285714285716</ele><time>2026-04-25T13:54:48.955Z</time></trkpt><trkpt lat="46.6388895" lon="12.5500231"><ele>1758.5714285714284</ele><time>2026-04-25T13:54:49.954Z</time></trkpt><trkpt lat="46.6388698" lon="12.5499319"><ele>1760.7142857142858</ele><time>2026-04-25T13:54:50.954Z</time></trkpt><trkpt lat="46.6388633" lon="12.5498333"><ele>1762.857142857143</ele><time>2026-04-25T13:54:51.954Z</time></trkpt><trkpt lat="46.6388663" lon="12.5497286"><ele>1765.0</ele><time>2026-04-25T13:54:52.955Z</time></trkpt><trkpt lat="46.6388641" lon="12.5496244"><ele>1768.1666666666667</ele><time>2026-04-25T13:54:53.954Z</time></trkpt><trkpt lat="46.638872" lon="12.5495245"><ele>1771.3333333333335</ele><time>2026-04-25T13:54:54.955Z</time></trkpt><trkpt lat="46.6388858" lon="12.5494341"><ele>1774.5</ele><time>2026-04-25T13:54:55.954Z</time></trkpt><trkpt lat="46.6388674" lon="12.5492936"><ele>1777.6666666666665</ele><time>2026-04-25T13:54:57.955Z</time></trkpt><trkpt lat="46.6387762" lon="12.549219"><ele>1780.8333333333333</ele><time>2026-04-25T13:54:59.955Z</time></trkpt><trkpt lat="46.6386928" lon="12.5492499"><ele>1784.0</ele><time>2026-04-25T13:55:01.955Z</time></trkpt><trkpt lat="46.6386043" lon="12.5493353"><ele>1789.8333333333333</ele><time>2026-04-25T13:55:03.954Z</time></trkpt><trkpt lat="46.6384923" lon="12.5494138"><ele>1795.6666666666665</ele><time>2026-04-25T13:55:05.954Z</time></trkpt><trkpt lat="46.6384031" lon="12.5494195"><ele>1801.5</ele><time>2026-04-25T13:55:07.955Z</time></trkpt><trkpt lat="46.6383777" lon="12.5493257"><ele>1807.3333333333335</ele><time>2026-04-25T13:55:09.954Z</time></trkpt><trkpt lat="46.6383884" lon="12.5492205"><ele>1813.1666666666667</ele><time>2026-04-25T13:55:11.954Z</time></trkpt><trkpt lat="46.6383941" lon="12.5491276"><ele>1819.0</ele><time>2026-04-25T13:56:19.953Z</time></trkpt><trkpt lat="46.6383858" lon="12.5489651"><ele>1819.0</ele><time>2026-04-25T13:58:13.953Z</time></trkpt><trkpt lat="46.6383527" lon="12.5488128"><ele>1819.0</ele><time>2026-04-25T13:58:14.955Z</time></trkpt><trkpt lat="46.6383249" lon="12.5486729"><ele>1819.0</ele><time>2026-04-25T13:58:15.954Z</time></trkpt><trkpt lat="46.6382875" lon="12.548537"><ele>1819.0</ele><time>2026-04-25T13:58:17.954Z</time></trkpt><trkpt lat="46.6382508" lon="12.5484558"><ele>1819.0</ele><time>2026-04-25T13:58:19.954Z</time></trkpt><trkpt lat="46.6381736" lon="12.5483804"><ele>1822.4</ele><time>2026-04-25T13:58:23.953Z</time></trkpt><trkpt lat="46.638106" lon="12.5482723"><ele>1825.8000000000002</ele><time>2026-04-25T13:58:26.954Z</time></trkpt><trkpt lat="46.6380421" lon="12.5482052"><ele>1829.1999999999998</ele><time>2026-04-25T13:58:27.953Z</time></trkpt><trkpt lat="46.6379441" lon="12.5481244"><ele>1832.6</ele><time>2026-04-25T13:58:29.954Z</time></trkpt><trkpt lat="46.6378802" lon="12.5480889"><ele>1836.0</ele><time>2026-04-25T13:58:30.954Z</time></trkpt><trkpt lat="46.6377645" lon="12.5480316"><ele>1840.4</ele><time>2026-04-25T13:58:32.955Z</time></trkpt><trkpt lat="46.6376702" lon="12.5479712"><ele>1844.8</ele><time>2026-04-25T13:58:34.954Z</time></trkpt><trkpt lat="46.6375836" lon="12.5479045"><ele>1849.2000000000003</ele><time>2026-04-25T13:58:36.954Z</time></trkpt><trkpt lat="46.6374894" lon="12.5478336"><ele>1853.6000000000001</ele><time>2026-04-25T13:58:38.954Z</time></trkpt><trkpt lat="46.6374264" lon="12.5477748"><ele>1858.0</ele><time>2026-04-25T13:58:40.955Z</time></trkpt><trkpt lat="46.6374264" lon="12.5476607"><ele>1858.0</ele><time>2026-04-25T13:58:43.954Z</time></trkpt><trkpt lat="46.6374895" lon="12.5475578"><ele>1858.0000000000002</ele><time>2026-04-25T13:58:45.953Z</time></trkpt><trkpt lat="46.6375084" lon="12.5474142"><ele>1858.0000000000002</ele><time>2026-04-25T13:58:47.954Z</time></trkpt><trkpt lat="46.6375044" lon="12.5472705"><ele>1858.0</ele><time>2026-04-25T13:58:49.954Z</time></trkpt><trkpt lat="46.6375172" lon="12.5471433"><ele>1858.0</ele><time>2026-04-25T13:58:51.954Z</time></trkpt><trkpt lat="46.6375578" lon="12.54698"><ele>1860.5000000000002</ele><time>2026-04-25T13:58:53.953Z</time></trkpt><trkpt lat="46.6375909" lon="12.546878"><ele>1863.0</ele><time>2026-04-25T13:58:54.954Z</time></trkpt><trkpt lat="46.6376175" lon="12.5467408"><ele>1865.5</ele><time>2026-04-25T13:58:55.954Z</time></trkpt><trkpt lat="46.6376466" lon="12.5466341"><ele>1868.0</ele><time>2026-04-25T13:58:56.954Z</time></trkpt><trkpt lat="46.6376831" lon="12.5465327"><ele>1870.5000000000002</ele><time>2026-04-25T13:58:57.954Z</time></trkpt><trkpt lat="46.6377194" lon="12.5464445"><ele>1873.0</ele><time>2026-04-25T13:58:58.954Z</time></trkpt><trkpt lat="46.6377525" lon="12.5463641"><ele>1873.0000000000002</ele><time>2026-04-25T13:58:59.954Z</time></trkpt><trkpt lat="46.6377775" lon="12.5462794"><ele>1873.0</ele><time>2026-04-25T13:59:00.954Z</time></trkpt><trkpt lat="46.6378274" lon="12.5461364"><ele>1873.0</ele><time>2026-04-25T13:59:02.954Z</time></trkpt><trkpt lat="46.637866" lon="12.5460475"><ele>1873.0</ele><time>2026-04-25T14:00:58.954Z</time></trkpt><trkpt lat="46.6378921" lon="12.5459539"><ele>1873.0000000000002</ele><time>2026-04-25T14:02:24.953Z</time></trkpt><trkpt lat="46.6378991" lon="12.5458619"><ele>1873.0</ele><time>2026-04-25T14:02:26.954Z</time></trkpt><trkpt lat="46.6378181" lon="12.5457582"><ele>1875.8000000000002</ele><time>2026-04-25T14:02:28.955Z</time></trkpt><trkpt lat="46.6377136" lon="12.5456921"><ele>1878.6000000000001</ele><time>2026-04-25T14:02:30.954Z</time></trkpt><trkpt lat="46.6376317" lon="12.5456053"><ele>1881.3999999999999</ele><time>2026-04-25T14:02:32.954Z</time></trkpt><trkpt lat="46.6375478" lon="12.5455228"><ele>1884.1999999999998</ele><time>2026-04-25T14:02:34.954Z</time></trkpt><trkpt lat="46.6374887" lon="12.5454513"><ele>1887.0</ele><time>2026-04-25T14:02:35.953Z</time></trkpt><trkpt lat="46.6374277" lon="12.5453842"><ele>1886.0</ele><time>2026-04-25T14:02:36.954Z</time></trkpt><trkpt lat="46.6373703" lon="12.5453138"><ele>1885.0</ele><time>2026-04-25T14:02:37.954Z</time></trkpt><trkpt lat="46.6373104" lon="12.5452448"><ele>1884.0</ele><time>2026-04-25T14:02:38.955Z</time></trkpt><trkpt lat="46.6372541" lon="12.5451923"><ele>1883.0</ele><time>2026-04-25T14:02:39.954Z</time></trkpt><trkpt lat="46.6371981" lon="12.5451468"><ele>1882.0</ele><time>2026-04-25T14:02:40.954Z</time></trkpt><trkpt lat="46.6370764" lon="12.545076"><ele>1881.0</ele><time>2026-04-25T14:02:42.953Z</time></trkpt><trkpt lat="46.6370167" lon="12.5450386"><ele>1881.1999999999998</ele><time>2026-04-25T14:02:43.954Z</time></trkpt><trkpt lat="46.6369524" lon="12.5450182"><ele>1881.3999999999999</ele><time>2026-04-25T14:02:44.954Z</time></trkpt><trkpt lat="46.6368909" lon="12.5449817"><ele>1881.6</ele><time>2026-04-25T14:02:45.954Z</time></trkpt><trkpt lat="46.6367949" lon="12.5448898"><ele>1881.8</ele><time>2026-04-25T14:02:47.953Z</time></trkpt><trkpt lat="46.6367648" lon="12.544742"><ele>1882.0</ele><time>2026-04-25T14:02:49.954Z</time></trkpt><trkpt lat="46.6367739" lon="12.5445932"><ele>1877.8</ele><time>2026-04-25T14:02:51.954Z</time></trkpt><trkpt lat="46.6368091" lon="12.5444282"><ele>1873.6</ele><time>2026-04-25T14:02:53.954Z</time></trkpt><trkpt lat="46.6368243" lon="12.5443258"><ele>1869.3999999999999</ele><time>2026-04-25T14:02:54.954Z</time></trkpt><trkpt lat="46.6368429" lon="12.5441443"><ele>1865.1999999999998</ele><time>2026-04-25T14:02:56.954Z</time></trkpt><trkpt lat="46.6368528" lon="12.5440398"><ele>1861.0</ele><time>2026-04-25T14:02:57.954Z</time></trkpt><trkpt lat="46.6368681" lon="12.5439182"><ele>1861.0</ele><time>2026-04-25T14:02:58.954Z</time></trkpt><trkpt lat="46.6368766" lon="12.5437883"><ele>1861.0</ele><time>2026-04-25T14:02:59.954Z</time></trkpt><trkpt lat="46.6368896" lon="12.5436501"><ele>1861.0</ele><time>2026-04-25T14:03:00.954Z</time></trkpt><trkpt lat="46.6369077" lon="12.5435134"><ele>1861.0</ele><time>2026-04-25T14:03:01.954Z</time></trkpt><trkpt lat="46.6369249" lon="12.5433791"><ele>1861.0</ele><time>2026-04-25T14:03:02.954Z</time></trkpt><trkpt lat="46.6369323" lon="12.5432628"><ele>1859.8</ele><time>2026-04-25T14:03:03.953Z</time></trkpt><trkpt lat="46.6369329" lon="12.5430803"><ele>1858.6</ele><time>2026-04-25T14:03:05.954Z</time></trkpt><trkpt lat="46.6369291" lon="12.542985"><ele>1857.4</ele><time>2026-04-25T14:03:06.954Z</time></trkpt><trkpt lat="46.6369008" lon="12.5428869"><ele>1856.2</ele><time>2026-04-25T14:03:07.954Z</time></trkpt><trkpt lat="46.636872" lon="12.5427954"><ele>1855.0</ele><time>2026-04-25T14:03:08.954Z</time></trkpt><trkpt lat="46.6368053" lon="12.5426547"><ele>1854.3333333333335</ele><time>2026-04-25T14:03:10.955Z</time></trkpt><trkpt lat="46.6367533" lon="12.5425279"><ele>1853.6666666666667</ele><time>2026-04-25T14:03:12.954Z</time></trkpt><trkpt lat="46.6366995" lon="12.5424242"><ele>1853.0</ele><time>2026-04-25T14:03:14.953Z</time></trkpt><trkpt lat="46.6366552" lon="12.54227"><ele>1852.3333333333335</ele><time>2026-04-25T14:03:16.954Z</time></trkpt><trkpt lat="46.6366223" lon="12.5421879"><ele>1851.6666666666667</ele><time>2026-04-25T14:03:17.953Z</time></trkpt><trkpt lat="46.6365782" lon="12.5421017"><ele>1851.0</ele><time>2026-04-25T14:03:18.954Z</time></trkpt><trkpt lat="46.6365215" lon="12.5420115"><ele>1851.0</ele><time>2026-04-25T14:03:19.954Z</time></trkpt><trkpt lat="46.6364617" lon="12.5419126"><ele>1851.0</ele><time>2026-04-25T14:03:20.953Z</time></trkpt><trkpt lat="46.6363966" lon="12.5418207"><ele>1851.0</ele><time>2026-04-25T14:03:21.954Z</time></trkpt><trkpt lat="46.6363427" lon="12.5417254"><ele>1851.0</ele><time>2026-04-25T14:03:22.953Z</time></trkpt><trkpt lat="46.6362716" lon="12.5415758"><ele>1851.0</ele><time>2026-04-25T14:03:24.954Z</time></trkpt><trkpt lat="46.6362392" lon="12.541493"><ele>1851.0</ele><time>2026-04-25T14:03:25.954Z</time></trkpt><trkpt lat="46.6361798" lon="12.5414078"><ele>1851.0</ele><time>2026-04-25T14:03:27.954Z</time></trkpt><trkpt lat="46.636152" lon="12.5415224"><ele>1851.0</ele><time>2026-04-25T14:03:30.953Z</time></trkpt><trkpt lat="46.6361872" lon="12.5416598"><ele>1851.0</ele><time>2026-04-25T14:03:32.954Z</time></trkpt><trkpt lat="46.6362203" lon="12.5418253"><ele>1851.0</ele><time>2026-04-25T14:03:34.953Z</time></trkpt><trkpt lat="46.6362065" lon="12.5420075"><ele>1851.0</ele><time>2026-04-25T14:03:36.954Z</time></trkpt><trkpt lat="46.6361838" lon="12.5420937"><ele>1851.0</ele><time>2026-04-25T14:03:37.953Z</time></trkpt><trkpt lat="46.6361403" lon="12.5422126"><ele>1851.0</ele><time>2026-04-25T14:03:39.954Z</time></trkpt><trkpt lat="46.6360656" lon="12.5422518"><ele>1851.0</ele><time>2026-04-25T14:03:42.953Z</time></trkpt><trkpt lat="46.6359991" lon="12.5421748"><ele>1851.0</ele><time>2026-04-25T14:03:44.954Z</time></trkpt><trkpt lat="46.635934" lon="12.5420519"><ele>1851.0</ele><time>2026-04-25T14:03:46.954Z</time></trkpt><trkpt lat="46.6358716" lon="12.5419035"><ele>1846.857142857143</ele><time>2026-04-25T14:03:48.954Z</time></trkpt><trkpt lat="46.6358602" lon="12.5418131"><ele>1842.7142857142858</ele><time>2026-04-25T14:03:49.955Z</time></trkpt><trkpt lat="46.6358512" lon="12.5417149"><ele>1838.5714285714287</ele><time>2026-04-25T14:03:50.954Z</time></trkpt><trkpt lat="46.63584" lon="12.5416151"><ele>1834.4285714285716</ele><time>2026-04-25T14:03:51.954Z</time></trkpt><trkpt lat="46.6358131" lon="12.5415155"><ele>1830.2857142857142</ele><time>2026-04-25T14:03:52.954Z</time></trkpt><trkpt lat="46.6357766" lon="12.5414187"><ele>1826.1428571428573</ele><time>2026-04-25T14:03:53.953Z</time></trkpt><trkpt lat="46.6357314" lon="12.5413225"><ele>1822.0</ele><time>2026-04-25T14:03:54.953Z</time></trkpt><trkpt lat="46.6356815" lon="12.5412344"><ele>1820.3333333333335</ele><time>2026-04-25T14:03:55.954Z</time></trkpt><trkpt lat="46.6356243" lon="12.5411362"><ele>1818.6666666666667</ele><time>2026-04-25T14:03:56.954Z</time></trkpt><trkpt lat="46.6355751" lon="12.5410349"><ele>1817.0</ele><time>2026-04-25T14:03:57.954Z</time></trkpt><trkpt lat="46.6355308" lon="12.5409231"><ele>1815.3333333333335</ele><time>2026-04-25T14:03:58.954Z</time></trkpt><trkpt lat="46.6354839" lon="12.540806"><ele>1813.6666666666667</ele><time>2026-04-25T14:03:59.953Z</time></trkpt><trkpt lat="46.6354264" lon="12.5407079"><ele>1812.0</ele><time>2026-04-25T14:04:00.954Z</time></trkpt><trkpt lat="46.635356" lon="12.5406121"><ele>1810.6666666666667</ele><time>2026-04-25T14:04:01.954Z</time></trkpt><trkpt lat="46.6352866" lon="12.5405288"><ele>1809.3333333333335</ele><time>2026-04-25T14:04:02.954Z</time></trkpt><trkpt lat="46.6352197" lon="12.5404666"><ele>1808.0</ele><time>2026-04-25T14:04:03.952Z</time></trkpt><trkpt lat="46.6351641" lon="12.5404084"><ele>1806.6666666666667</ele><time>2026-04-25T14:04:04.954Z</time></trkpt><trkpt lat="46.6350993" lon="12.5403793"><ele>1805.3333333333335</ele><time>2026-04-25T14:04:05.954Z</time></trkpt><trkpt lat="46.6350295" lon="12.5403839"><ele>1804.0</ele><time>2026-04-25T14:04:06.954Z</time></trkpt><trkpt lat="46.6349536" lon="12.540389"><ele>1804.0000000000002</ele><time>2026-04-25T14:04:07.954Z</time></trkpt><trkpt lat="46.6348719" lon="12.5403862"><ele>1804.0</ele><time>2026-04-25T14:04:08.954Z</time></trkpt><trkpt lat="46.6347943" lon="12.5403728"><ele>1804.0</ele><time>2026-04-25T14:04:09.954Z</time></trkpt><trkpt lat="46.6347136" lon="12.5403539"><ele>1804.0</ele><time>2026-04-25T14:04:10.953Z</time></trkpt><trkpt lat="46.634641" lon="12.5403338"><ele>1804.0000000000002</ele><time>2026-04-25T14:04:11.954Z</time></trkpt><trkpt lat="46.6345444" lon="12.5403079"><ele>1804.0</ele><time>2026-04-25T14:04:12.953Z</time></trkpt><trkpt lat="46.6344653" lon="12.5402878"><ele>1801.5000000000002</ele><time>2026-04-25T14:04:13.954Z</time></trkpt><trkpt lat="46.6343909" lon="12.540277"><ele>1799.0</ele><time>2026-04-25T14:04:14.953Z</time></trkpt><trkpt lat="46.6343141" lon="12.5402326"><ele>1796.5</ele><time>2026-04-25T14:04:15.954Z</time></trkpt><trkpt lat="46.6342544" lon="12.5401474"><ele>1794.0</ele><time>2026-04-25T14:04:16.953Z</time></trkpt><trkpt lat="46.6341961" lon="12.5400688"><ele>1791.5000000000002</ele><time>2026-04-25T14:04:17.954Z</time></trkpt><trkpt lat="46.6341346" lon="12.5399845"><ele>1789.0</ele><time>2026-04-25T14:04:18.954Z</time></trkpt><trkpt lat="46.6340668" lon="12.5399054"><ele>1789.0000000000002</ele><time>2026-04-25T14:04:19.955Z</time></trkpt><trkpt lat="46.6340052" lon="12.5398254"><ele>1789.0</ele><time>2026-04-25T14:04:20.954Z</time></trkpt><trkpt lat="46.6339568" lon="12.5397405"><ele>1789.0</ele><time>2026-04-25T14:04:21.954Z</time></trkpt><trkpt lat="46.6339035" lon="12.5396715"><ele>1789.0</ele><time>2026-04-25T14:04:22.954Z</time></trkpt><trkpt lat="46.6338342" lon="12.5396271"><ele>1789.0</ele><time>2026-04-25T14:04:23.954Z</time></trkpt><trkpt lat="46.6337679" lon="12.5396151"><ele>1789.0000000000002</ele><time>2026-04-25T14:04:24.954Z</time></trkpt><trkpt lat="46.6336979" lon="12.5396621"><ele>1789.0</ele><time>2026-04-25T14:04:25.954Z</time></trkpt><trkpt lat="46.6336076" lon="12.5396283"><ele>1785.1666666666667</ele><time>2026-04-25T14:04:27.954Z</time></trkpt><trkpt lat="46.6335404" lon="12.539526"><ele>1781.3333333333335</ele><time>2026-04-25T14:04:29.954Z</time></trkpt><trkpt lat="46.6335103" lon="12.5394226"><ele>1777.5</ele><time>2026-04-25T14:04:31.954Z</time></trkpt><trkpt lat="46.6334892" lon="12.5392951"><ele>1773.6666666666665</ele><time>2026-04-25T14:04:34.954Z</time></trkpt><trkpt lat="46.6334588" lon="12.5392146"><ele>1769.8333333333333</ele><time>2026-04-25T14:04:45.954Z</time></trkpt><trkpt lat="46.6334028" lon="12.5391177"><ele>1766.0</ele><time>2026-04-25T14:04:51.954Z</time></trkpt><trkpt lat="46.6333455" lon="12.5390403"><ele>1765.9999999999998</ele><time>2026-04-25T14:04:53.953Z</time></trkpt><trkpt lat="46.6333136" lon="12.5389014"><ele>1766.0</ele><time>2026-04-25T14:04:55.954Z</time></trkpt><trkpt lat="46.633257" lon="12.5388518"><ele>1766.0</ele><time>2026-04-25T14:04:57.953Z</time></trkpt><trkpt lat="46.633234" lon="12.5389415"><ele>1766.0</ele><time>2026-04-25T14:05:00.954Z</time></trkpt><trkpt lat="46.6332633" lon="12.5390764"><ele>1765.9999999999998</ele><time>2026-04-25T14:05:02.954Z</time></trkpt><trkpt lat="46.6332654" lon="12.5391993"><ele>1766.0</ele><time>2026-04-25T14:05:04.954Z</time></trkpt><trkpt lat="46.6332692" lon="12.5392967"><ele>1765.9999999999998</ele><time>2026-04-25T14:05:07.954Z</time></trkpt><trkpt lat="46.6332878" lon="12.539407"><ele>1766.0</ele><time>2026-04-25T14:05:12.952Z</time></trkpt><trkpt lat="46.6333145" lon="12.5394913"><ele>1766.0</ele><time>2026-04-25T14:05:14.954Z</time></trkpt><trkpt lat="46.6333205" lon="12.5395924"><ele>1766.0</ele><time>2026-04-25T14:05:16.954Z</time></trkpt><trkpt lat="46.6332884" lon="12.539716"><ele>1765.9999999999998</ele><time>2026-04-25T14:05:18.954Z</time></trkpt><trkpt lat="46.6332619" lon="12.5398363"><ele>1766.0</ele><time>2026-04-25T14:05:20.954Z</time></trkpt><trkpt lat="46.6332646" lon="12.5399649"><ele>1764.4</ele><time>2026-04-25T14:05:22.953Z</time></trkpt><trkpt lat="46.6332976" lon="12.5401091"><ele>1762.8</ele><time>2026-04-25T14:05:24.954Z</time></trkpt><trkpt lat="46.63334" lon="12.5401817"><ele>1761.2000000000003</ele><time>2026-04-25T14:05:25.954Z</time></trkpt><trkpt lat="46.6334219" lon="12.5403215"><ele>1759.6000000000001</ele><time>2026-04-25T14:05:27.954Z</time></trkpt><trkpt lat="46.6334992" lon="12.5404802"><ele>1758.0</ele><time>2026-04-25T14:05:29.953Z</time></trkpt><trkpt lat="46.6335387" lon="12.5405582"><ele>1761.4</ele><time>2026-04-25T14:05:30.954Z</time></trkpt><trkpt lat="46.6336472" lon="12.5406548"><ele>1764.8000000000002</ele><time>2026-04-25T14:05:32.953Z</time></trkpt><trkpt lat="46.6337096" lon="12.540686"><ele>1768.2</ele><time>2026-04-25T14:05:33.953Z</time></trkpt><trkpt lat="46.6337671" lon="12.5407303"><ele>1771.6</ele><time>2026-04-25T14:05:34.954Z</time></trkpt><trkpt lat="46.6338384" lon="12.5408768"><ele>1775.0</ele><time>2026-04-25T14:05:36.954Z</time></trkpt><trkpt lat="46.6338584" lon="12.5409737"><ele>1775.0000000000002</ele><time>2026-04-25T14:05:37.954Z</time></trkpt><trkpt lat="46.6338552" lon="12.5410777"><ele>1775.0</ele><time>2026-04-25T14:05:38.954Z</time></trkpt><trkpt lat="46.6338606" lon="12.5411755"><ele>1775.0</ele><time>2026-04-25T14:05:39.953Z</time></trkpt><trkpt lat="46.6338693" lon="12.5412684"><ele>1775.0</ele><time>2026-04-25T14:05:40.953Z</time></trkpt><trkpt lat="46.6338987" lon="12.5413508"><ele>1775.0</ele><time>2026-04-25T14:05:41.955Z</time></trkpt><trkpt lat="46.6339266" lon="12.5414659"><ele>1775.0000000000002</ele><time>2026-04-25T14:05:43.954Z</time></trkpt><trkpt lat="46.6339553" lon="12.5415507"><ele>1775.0</ele><time>2026-04-25T14:05:55.954Z</time></trkpt><trkpt lat="46.6339757" lon="12.5416451"><ele>1773.1666666666665</ele><time>2026-04-25T14:05:58.954Z</time></trkpt><trkpt lat="46.6340288" lon="12.5417541"><ele>1771.3333333333333</ele><time>2026-04-25T14:06:01.954Z</time></trkpt><trkpt lat="46.6340995" lon="12.5418333"><ele>1769.5</ele><time>2026-04-25T14:06:04.954Z</time></trkpt><trkpt lat="46.6341439" lon="12.5419124"><ele>1767.6666666666665</ele><time>2026-04-25T14:06:06.954Z</time></trkpt><trkpt lat="46.63418" lon="12.5419938"><ele>1765.8333333333333</ele><time>2026-04-25T14:06:08.954Z</time></trkpt><trkpt lat="46.6342306" lon="12.542108"><ele>1764.0</ele><time>2026-04-25T14:06:11.954Z</time></trkpt><trkpt lat="46.6342921" lon="12.5421882"><ele>1760.8333333333333</ele><time>2026-04-25T14:06:14.954Z</time></trkpt><trkpt lat="46.6343469" lon="12.542244"><ele>1757.6666666666665</ele><time>2026-04-25T14:06:16.954Z</time></trkpt><trkpt lat="46.6343289" lon="12.5423343"><ele>1754.5</ele><time>2026-04-25T14:06:19.954Z</time></trkpt><trkpt lat="46.6342694" lon="12.5422849"><ele>1751.3333333333333</ele><time>2026-04-25T14:06:20.954Z</time></trkpt><trkpt lat="46.6341979" lon="12.5422254"><ele>1748.1666666666665</ele><time>2026-04-25T14:06:22.954Z</time></trkpt><trkpt lat="46.6341207" lon="12.5421453"><ele>1745.0</ele><time>2026-04-25T14:06:24.954Z</time></trkpt><trkpt lat="46.6340166" lon="12.542085"><ele>1745.0</ele><time>2026-04-25T14:06:26.954Z</time></trkpt><trkpt lat="46.6339539" lon="12.542071"><ele>1745.0</ele><time>2026-04-25T14:06:27.954Z</time></trkpt><trkpt lat="46.6338956" lon="12.5420317"><ele>1745.0</ele><time>2026-04-25T14:06:28.954Z</time></trkpt><trkpt lat="46.6338383" lon="12.5419873"><ele>1745.0</ele><time>2026-04-25T14:06:29.954Z</time></trkpt><trkpt lat="46.6337897" lon="12.5419242"><ele>1745.0</ele><time>2026-04-25T14:06:30.953Z</time></trkpt><trkpt lat="46.6337575" lon="12.5418389"><ele>1745.0</ele><time>2026-04-25T14:06:31.954Z</time></trkpt><trkpt lat="46.633718" lon="12.5416904"><ele>1745.0</ele><time>2026-04-25T14:06:33.953Z</time></trkpt><trkpt lat="46.6336919" lon="12.5415549"><ele>1739.8333333333333</ele><time>2026-04-25T14:06:35.953Z</time></trkpt><trkpt lat="46.6336242" lon="12.5414755"><ele>1734.6666666666665</ele><time>2026-04-25T14:06:37.954Z</time></trkpt><trkpt lat="46.6335618" lon="12.541439"><ele>1729.5</ele><time>2026-04-25T14:06:40.954Z</time></trkpt><trkpt lat="46.6334999" lon="12.5413878"><ele>1724.3333333333335</ele><time>2026-04-25T14:06:52.954Z</time></trkpt><trkpt lat="46.6334215" lon="12.5413537"><ele>1719.1666666666667</ele><time>2026-04-25T14:06:54.954Z</time></trkpt><trkpt lat="46.6333476" lon="12.5413263"><ele>1714.0</ele><time>2026-04-25T14:06:56.954Z</time></trkpt><trkpt lat="46.6332837" lon="12.5412733"><ele>1721.4</ele><time>2026-04-25T14:06:58.954Z</time></trkpt><trkpt lat="46.6332248" lon="12.5412008"><ele>1728.8000000000002</ele><time>2026-04-25T14:07:00.953Z</time></trkpt><trkpt lat="46.6331639" lon="12.5411217"><ele>1736.1999999999998</ele><time>2026-04-25T14:07:02.953Z</time></trkpt><trkpt lat="46.6330975" lon="12.5409969"><ele>1743.6</ele><time>2026-04-25T14:07:04.954Z</time></trkpt><trkpt lat="46.6329828" lon="12.54094"><ele>1751.0</ele><time>2026-04-25T14:07:06.953Z</time></trkpt><trkpt lat="46.6328671" lon="12.5408896"><ele>1746.8</ele><time>2026-04-25T14:07:08.953Z</time></trkpt><trkpt lat="46.6327912" lon="12.5408257"><ele>1742.6</ele><time>2026-04-25T14:07:10.954Z</time></trkpt><trkpt lat="46.6327588" lon="12.5407132"><ele>1738.4</ele><time>2026-04-25T14:07:12.954Z</time></trkpt><trkpt lat="46.6327168" lon="12.5405731"><ele>1734.2</ele><time>2026-04-25T14:07:14.954Z</time></trkpt><trkpt lat="46.6326917" lon="12.5404432"><ele>1730.0</ele><time>2026-04-25T14:07:16.953Z</time></trkpt><trkpt lat="46.6326653" lon="12.5402793"><ele>1729.9999999999998</ele><time>2026-04-25T14:07:18.954Z</time></trkpt><trkpt lat="46.6326448" lon="12.5401899"><ele>1730.0</ele><time>2026-04-25T14:07:19.954Z</time></trkpt><trkpt lat="46.6325976" lon="12.5400537"><ele>1730.0</ele><time>2026-04-25T14:07:21.953Z</time></trkpt><trkpt lat="46.6325732" lon="12.5399665"><ele>1730.0</ele><time>2026-04-25T14:07:25.953Z</time></trkpt><trkpt lat="46.6325131" lon="12.5398832"><ele>1729.9999999999998</ele><time>2026-04-25T14:07:30.952Z</time></trkpt><trkpt lat="46.6324425" lon="12.5398067"><ele>1730.0</ele><time>2026-04-25T14:07:33.953Z</time></trkpt><trkpt lat="46.6323757" lon="12.5397286"><ele>1729.9999999999998</ele><time>2026-04-25T14:07:35.954Z</time></trkpt><trkpt lat="46.6322911" lon="12.5396928"><ele>1730.0</ele><time>2026-04-25T14:07:37.954Z</time></trkpt><trkpt lat="46.6321873" lon="12.5397233"><ele>1730.0</ele><time>2026-04-25T14:07:39.953Z</time></trkpt><trkpt lat="46.6321242" lon="12.5397095"><ele>1730.0</ele><time>2026-04-25T14:07:40.954Z</time></trkpt><trkpt lat="46.6320622" lon="12.5396827"><ele>1729.9999999999998</ele><time>2026-04-25T14:07:41.954Z</time></trkpt><trkpt lat="46.6319922" lon="12.539648"><ele>1730.0</ele><time>2026-04-25T14:07:42.954Z</time></trkpt><trkpt lat="46.6319234" lon="12.5396061"><ele>1722.8333333333333</ele><time>2026-04-25T14:07:43.953Z</time></trkpt><trkpt lat="46.6318481" lon="12.5395751"><ele>1715.6666666666665</ele><time>2026-04-25T14:07:44.955Z</time></trkpt><trkpt lat="46.6317813" lon="12.5395802"><ele>1708.5</ele><time>2026-04-25T14:07:45.953Z</time></trkpt><trkpt lat="46.6317035" lon="12.5395609"><ele>1701.3333333333335</ele><time>2026-04-25T14:07:47.954Z</time></trkpt><trkpt lat="46.6316902" lon="12.5394566"><ele>1694.1666666666667</ele><time>2026-04-25T14:07:49.954Z</time></trkpt><trkpt lat="46.631686" lon="12.5393288"><ele>1687.0</ele><time>2026-04-25T14:07:51.953Z</time></trkpt><trkpt lat="46.6316742" lon="12.5391684"><ele>1687.0000000000002</ele><time>2026-04-25T14:07:53.954Z</time></trkpt><trkpt lat="46.6316737" lon="12.5390044"><ele>1687.0</ele><time>2026-04-25T14:07:55.954Z</time></trkpt><trkpt lat="46.6316741" lon="12.538909"><ele>1687.0</ele><time>2026-04-25T14:07:56.954Z</time></trkpt><trkpt lat="46.6316672" lon="12.538811"><ele>1687.0</ele><time>2026-04-25T14:07:57.953Z</time></trkpt><trkpt lat="46.6316557" lon="12.5386997"><ele>1687.0000000000002</ele><time>2026-04-25T14:07:58.955Z</time></trkpt><trkpt lat="46.6316313" lon="12.5385894"><ele>1687.0</ele><time>2026-04-25T14:07:59.954Z</time></trkpt><trkpt lat="46.631602" lon="12.538485"><ele>1688.5000000000002</ele><time>2026-04-25T14:08:00.953Z</time></trkpt><trkpt lat="46.6315792" lon="12.5383824"><ele>1690.0</ele><time>2026-04-25T14:08:01.954Z</time></trkpt><trkpt lat="46.6315586" lon="12.538277"><ele>1691.5</ele><time>2026-04-25T14:08:02.953Z</time></trkpt><trkpt lat="46.6315386" lon="12.5381542"><ele>1693.0</ele><time>2026-04-25T14:08:03.954Z</time></trkpt><trkpt lat="46.6315099" lon="12.5380391"><ele>1694.5000000000002</ele><time>2026-04-25T14:08:04.953Z</time></trkpt><trkpt lat="46.6314908" lon="12.5379035"><ele>1696.0</ele><time>2026-04-25T14:08:05.954Z</time></trkpt><trkpt lat="46.6314649" lon="12.5377913"><ele>1698.0000000000002</ele><time>2026-04-25T14:08:06.954Z</time></trkpt><trkpt lat="46.6314409" lon="12.5376982"><ele>1700.0</ele><time>2026-04-25T14:08:07.954Z</time></trkpt><trkpt lat="46.631415" lon="12.5376039"><ele>1702.0</ele><time>2026-04-25T14:08:08.953Z</time></trkpt><trkpt lat="46.6313237" lon="12.5374942"><ele>1704.0</ele><time>2026-04-25T14:08:10.954Z</time></trkpt><trkpt lat="46.6312669" lon="12.5374458"><ele>1706.0000000000002</ele><time>2026-04-25T14:08:11.953Z</time></trkpt><trkpt lat="46.6312039" lon="12.5373912"><ele>1708.0</ele><time>2026-04-25T14:08:12.954Z</time></trkpt><trkpt lat="46.6311382" lon="12.5373385"><ele>1704.6666666666667</ele><time>2026-04-25T14:08:13.953Z</time></trkpt><trkpt lat="46.6310663" lon="12.537299"><ele>1701.3333333333335</ele><time>2026-04-25T14:08:14.954Z</time></trkpt><trkpt lat="46.6309855" lon="12.5372667"><ele>1698.0</ele><time>2026-04-25T14:08:15.955Z</time></trkpt><trkpt lat="46.6309102" lon="12.5372059"><ele>1694.6666666666665</ele><time>2026-04-25T14:08:16.954Z</time></trkpt><trkpt lat="46.6308417" lon="12.5371361"><ele>1691.3333333333333</ele><time>2026-04-25T14:08:17.954Z</time></trkpt><trkpt lat="46.6307702" lon="12.5370612"><ele>1688.0</ele><time>2026-04-25T14:08:18.954Z</time></trkpt><trkpt lat="46.6307014" lon="12.5369779"><ele>1687.9999999999998</ele><time>2026-04-25T14:08:19.954Z</time></trkpt><trkpt lat="46.630633" lon="12.5368869"><ele>1688.0</ele><time>2026-04-25T14:08:20.954Z</time></trkpt><trkpt lat="46.630572" lon="12.536781"><ele>1688.0</ele><time>2026-04-25T14:08:21.954Z</time></trkpt><trkpt lat="46.6305095" lon="12.5366937"><ele>1688.0</ele><time>2026-04-25T14:08:22.954Z</time></trkpt><trkpt lat="46.6304616" lon="12.5366051"><ele>1687.9999999999998</ele><time>2026-04-25T14:08:23.954Z</time></trkpt><trkpt lat="46.6304393" lon="12.5365073"><ele>1688.0</ele><time>2026-04-25T14:08:24.954Z</time></trkpt><trkpt lat="46.6304054" lon="12.5363603"><ele>1687.9999999999998</ele><time>2026-04-25T14:08:26.954Z</time></trkpt><trkpt lat="46.6303494" lon="12.5363114"><ele>1688.0</ele><time>2026-04-25T14:08:28.953Z</time></trkpt><trkpt lat="46.6302956" lon="12.5364123"><ele>1688.0</ele><time>2026-04-25T14:08:30.954Z</time></trkpt><trkpt lat="46.6302775" lon="12.5365933"><ele>1688.0</ele><time>2026-04-25T14:08:32.953Z</time></trkpt><trkpt lat="46.6302916" lon="12.5367009"><ele>1687.9999999999998</ele><time>2026-04-25T14:08:33.954Z</time></trkpt><trkpt lat="46.6303109" lon="12.5368136"><ele>1688.0</ele><time>2026-04-25T14:08:34.954Z</time></trkpt><trkpt lat="46.6303489" lon="12.5369371"><ele>1685.4</ele><time>2026-04-25T14:08:35.954Z</time></trkpt><trkpt lat="46.6303923" lon="12.5370626"><ele>1682.8000000000002</ele><time>2026-04-25T14:08:36.954Z</time></trkpt><trkpt lat="46.6304323" lon="12.5371866"><ele>1680.2</ele><time>2026-04-25T14:08:37.953Z</time></trkpt><trkpt lat="46.6304574" lon="12.5373213"><ele>1677.6</ele><time>2026-04-25T14:08:38.954Z</time></trkpt><trkpt lat="46.6304741" lon="12.5374629"><ele>1675.0</ele><time>2026-04-25T14:08:39.954Z</time></trkpt><trkpt lat="46.630486" lon="12.5376061"><ele>1675.0000000000002</ele><time>2026-04-25T14:08:40.954Z</time></trkpt><trkpt lat="46.6304958" lon="12.5377336"><ele>1675.0</ele><time>2026-04-25T14:08:41.954Z</time></trkpt><trkpt lat="46.6305127" lon="12.5378478"><ele>1675.0</ele><time>2026-04-25T14:08:42.953Z</time></trkpt><trkpt lat="46.630521" lon="12.5379487"><ele>1675.0</ele><time>2026-04-25T14:08:43.953Z</time></trkpt><trkpt lat="46.6305272" lon="12.5380465"><ele>1675.0000000000002</ele><time>2026-04-25T14:08:44.954Z</time></trkpt><trkpt lat="46.6305091" lon="12.5381519"><ele>1675.0</ele><time>2026-04-25T14:08:45.955Z</time></trkpt><trkpt lat="46.6304904" lon="12.5382613"><ele>1671.6666666666667</ele><time>2026-04-25T14:08:46.954Z</time></trkpt><trkpt lat="46.6305002" lon="12.5383839"><ele>1668.3333333333335</ele><time>2026-04-25T14:08:47.953Z</time></trkpt><trkpt lat="46.6305229" lon="12.5384977"><ele>1665.0</ele><time>2026-04-25T14:08:48.954Z</time></trkpt><trkpt lat="46.6305577" lon="12.5386093"><ele>1661.6666666666665</ele><time>2026-04-25T14:08:49.953Z</time></trkpt><trkpt lat="46.6305924" lon="12.5387225"><ele>1658.3333333333333</ele><time>2026-04-25T14:08:50.954Z</time></trkpt><trkpt lat="46.6306162" lon="12.5388381"><ele>1655.0</ele><time>2026-04-25T14:08:51.953Z</time></trkpt><trkpt lat="46.630622" lon="12.538951"><ele>1653.4999999999998</ele><time>2026-04-25T14:08:52.953Z</time></trkpt><trkpt lat="46.6306108" lon="12.5390557"><ele>1652.0</ele><time>2026-04-25T14:08:53.954Z</time></trkpt><trkpt lat="46.6306171" lon="12.5392463"><ele>1650.5</ele><time>2026-04-25T14:08:55.954Z</time></trkpt><trkpt lat="46.6306504" lon="12.5393301"><ele>1649.0</ele><time>2026-04-25T14:08:56.954Z</time></trkpt><trkpt lat="46.6306837" lon="12.5394261"><ele>1647.4999999999998</ele><time>2026-04-25T14:08:57.954Z</time></trkpt><trkpt lat="46.6306978" lon="12.5395276"><ele>1646.0</ele><time>2026-04-25T14:08:58.954Z</time></trkpt><trkpt lat="46.6307041" lon="12.5396341"><ele>1644.1999999999998</ele><time>2026-04-25T14:08:59.954Z</time></trkpt><trkpt lat="46.6307056" lon="12.5397286"><ele>1642.3999999999999</ele><time>2026-04-25T14:09:00.955Z</time></trkpt><trkpt lat="46.6307593" lon="12.5398663"><ele>1640.6</ele><time>2026-04-25T14:09:02.954Z</time></trkpt><trkpt lat="46.6308511" lon="12.5399757"><ele>1638.8</ele><time>2026-04-25T14:09:04.954Z</time></trkpt><trkpt lat="46.6309155" lon="12.5401248"><ele>1637.0</ele><time>2026-04-25T14:09:06.954Z</time></trkpt><trkpt lat="46.6309491" lon="12.5402827"><ele>1635.0</ele><time>2026-04-25T14:09:08.954Z</time></trkpt><trkpt lat="46.6309718" lon="12.5404413"><ele>1633.0</ele><time>2026-04-25T14:09:10.952Z</time></trkpt><trkpt lat="46.6309928" lon="12.5405998"><ele>1631.0</ele><time>2026-04-25T14:09:12.953Z</time></trkpt><trkpt lat="46.6310151" lon="12.5407419"><ele>1629.0</ele><time>2026-04-25T14:09:14.954Z</time></trkpt><trkpt lat="46.631025" lon="12.5408639"><ele>1627.0</ele><time>2026-04-25T14:09:16.954Z</time></trkpt><trkpt lat="46.6310238" lon="12.5409949"><ele>1627.0000000000002</ele><time>2026-04-25T14:09:18.954Z</time></trkpt><trkpt lat="46.6310443" lon="12.5410839"><ele>1627.0</ele><time>2026-04-25T14:09:19.954Z</time></trkpt><trkpt lat="46.6310816" lon="12.5411722"><ele>1627.0</ele><time>2026-04-25T14:09:20.953Z</time></trkpt><trkpt lat="46.6311393" lon="12.5412577"><ele>1627.0</ele><time>2026-04-25T14:09:21.954Z</time></trkpt><trkpt lat="46.6311906" lon="12.5413604"><ele>1627.0000000000002</ele><time>2026-04-25T14:09:22.955Z</time></trkpt><trkpt lat="46.631237" lon="12.5414748"><ele>1627.0</ele><time>2026-04-25T14:09:23.954Z</time></trkpt><trkpt lat="46.6312845" lon="12.5415756"><ele>1629.1666666666667</ele><time>2026-04-25T14:09:24.955Z</time></trkpt><trkpt lat="46.6313328" lon="12.5416661"><ele>1631.3333333333335</ele><time>2026-04-25T14:09:25.953Z</time></trkpt><trkpt lat="46.6313848" lon="12.5417467"><ele>1633.5</ele><time>2026-04-25T14:09:26.953Z</time></trkpt><trkpt lat="46.6314288" lon="12.5418271"><ele>1635.6666666666665</ele><time>2026-04-25T14:09:27.953Z</time></trkpt><trkpt lat="46.6314702" lon="12.5419156"><ele>1637.8333333333333</ele><time>2026-04-25T14:09:28.954Z</time></trkpt><trkpt lat="46.6314858" lon="12.5420295"><ele>1640.0</ele><time>2026-04-25T14:09:29.953Z</time></trkpt><trkpt lat="46.6314906" lon="12.5421416"><ele>1639.9999999999998</ele><time>2026-04-25T14:09:30.954Z</time></trkpt><trkpt lat="46.6314841" lon="12.5422566"><ele>1640.0</ele><time>2026-04-25T14:09:31.955Z</time></trkpt><trkpt lat="46.6314688" lon="12.5423549"><ele>1640.0</ele><time>2026-04-25T14:09:32.953Z</time></trkpt><trkpt lat="46.6313865" lon="12.5424661"><ele>1640.0</ele><time>2026-04-25T14:09:34.953Z</time></trkpt><trkpt lat="46.6313208" lon="12.5424602"><ele>1639.9999999999998</ele><time>2026-04-25T14:09:35.954Z</time></trkpt><trkpt lat="46.6312493" lon="12.5424156"><ele>1640.0</ele><time>2026-04-25T14:09:36.952Z</time></trkpt><trkpt lat="46.6311728" lon="12.5423461"><ele>1637.6</ele><time>2026-04-25T14:09:37.954Z</time></trkpt><trkpt lat="46.6310918" lon="12.5422706"><ele>1635.2</ele><time>2026-04-25T14:09:38.954Z</time></trkpt><trkpt lat="46.6310105" lon="12.5421924"><ele>1632.8000000000002</ele><time>2026-04-25T14:09:39.954Z</time></trkpt><trkpt lat="46.6309261" lon="12.5421128"><ele>1630.4</ele><time>2026-04-25T14:09:40.953Z</time></trkpt><trkpt lat="46.6308387" lon="12.5420385"><ele>1628.0</ele><time>2026-04-25T14:09:41.954Z</time></trkpt><trkpt lat="46.6307535" lon="12.5419723"><ele>1625.9999999999998</ele><time>2026-04-25T14:09:42.954Z</time></trkpt><trkpt lat="46.6306781" lon="12.5419247"><ele>1624.0</ele><time>2026-04-25T14:09:43.953Z</time></trkpt><trkpt lat="46.6306086" lon="12.5418907"><ele>1622.0</ele><time>2026-04-25T14:09:44.954Z</time></trkpt><trkpt lat="46.6305344" lon="12.5418727"><ele>1620.0</ele><time>2026-04-25T14:09:45.953Z</time></trkpt><trkpt lat="46.6304643" lon="12.5418839"><ele>1617.9999999999998</ele><time>2026-04-25T14:09:46.954Z</time></trkpt><trkpt lat="46.630388" lon="12.5419013"><ele>1616.0</ele><time>2026-04-25T14:09:47.952Z</time></trkpt><trkpt lat="46.6303092" lon="12.5419277"><ele>1613.6</ele><time>2026-04-25T14:09:48.954Z</time></trkpt><trkpt lat="46.6302163" lon="12.5419895"><ele>1611.1999999999998</ele><time>2026-04-25T14:09:49.954Z</time></trkpt><trkpt lat="46.6301243" lon="12.5420239"><ele>1608.8000000000002</ele><time>2026-04-25T14:09:50.953Z</time></trkpt><trkpt lat="46.6300331" lon="12.5420357"><ele>1606.4</ele><time>2026-04-25T14:09:51.953Z</time></trkpt><trkpt lat="46.6299452" lon="12.5420298"><ele>1604.0</ele><time>2026-04-25T14:09:52.954Z</time></trkpt><trkpt lat="46.6298716" lon="12.5419754"><ele>1604.0</ele><time>2026-04-25T14:09:53.954Z</time></trkpt><trkpt lat="46.6297918" lon="12.5418985"><ele>1604.0</ele><time>2026-04-25T14:09:54.953Z</time></trkpt><trkpt lat="46.6297087" lon="12.5418318"><ele>1604.0</ele><time>2026-04-25T14:09:55.954Z</time></trkpt><trkpt lat="46.629615" lon="12.5417797"><ele>1604.0</ele><time>2026-04-25T14:09:56.953Z</time></trkpt><trkpt lat="46.62953" lon="12.5417184"><ele>1604.0</ele><time>2026-04-25T14:09:57.954Z</time></trkpt><trkpt lat="46.6294464" lon="12.54164"><ele>1610.8000000000002</ele><time>2026-04-25T14:09:58.955Z</time></trkpt><trkpt lat="46.6293917" lon="12.5415353"><ele>1617.6000000000001</ele><time>2026-04-25T14:09:59.952Z</time></trkpt><trkpt lat="46.629337" lon="12.5414398"><ele>1624.4</ele><time>2026-04-25T14:10:00.954Z</time></trkpt><trkpt lat="46.6292695" lon="12.5413469"><ele>1631.2</ele><time>2026-04-25T14:10:01.955Z</time></trkpt><trkpt lat="46.6291901" lon="12.5412797"><ele>1638.0</ele><time>2026-04-25T14:10:02.953Z</time></trkpt><trkpt lat="46.6291057" lon="12.5412192"><ele>1633.1666666666667</ele><time>2026-04-25T14:10:03.954Z</time></trkpt><trkpt lat="46.6290271" lon="12.5411665"><ele>1628.3333333333335</ele><time>2026-04-25T14:10:04.952Z</time></trkpt><trkpt lat="46.6289584" lon="12.5410989"><ele>1623.5</ele><time>2026-04-25T14:10:05.954Z</time></trkpt><trkpt lat="46.6288891" lon="12.5410283"><ele>1618.6666666666667</ele><time>2026-04-25T14:10:06.954Z</time></trkpt><trkpt lat="46.6288194" lon="12.5409453"><ele>1613.8333333333335</ele><time>2026-04-25T14:10:07.954Z</time></trkpt><trkpt lat="46.6287448" lon="12.5408583"><ele>1609.0</ele><time>2026-04-25T14:10:08.954Z</time></trkpt><trkpt lat="46.6286699" lon="12.5407578"><ele>1613.6</ele><time>2026-04-25T14:10:09.953Z</time></trkpt><trkpt lat="46.6286108" lon="12.5406626"><ele>1618.2</ele><time>2026-04-25T14:10:10.953Z</time></trkpt><trkpt lat="46.6285717" lon="12.540553"><ele>1622.8</ele><time>2026-04-25T14:10:11.953Z</time></trkpt><trkpt lat="46.6285156" lon="12.5404132"><ele>1627.3999999999999</ele><time>2026-04-25T14:10:13.953Z</time></trkpt><trkpt lat="46.6283987" lon="12.540302"><ele>1632.0</ele><time>2026-04-25T14:10:15.954Z</time></trkpt><trkpt lat="46.6283243" lon="12.5402666"><ele>1632.0</ele><time>2026-04-25T14:10:16.954Z</time></trkpt><trkpt lat="46.6282394" lon="12.5402599"><ele>1632.0</ele><time>2026-04-25T14:10:17.954Z</time></trkpt><trkpt lat="46.6281481" lon="12.5402025"><ele>1632.0</ele><time>2026-04-25T14:10:18.954Z</time></trkpt><trkpt lat="46.6280655" lon="12.5401562"><ele>1632.0</ele><time>2026-04-25T14:10:19.952Z</time></trkpt><trkpt lat="46.6279831" lon="12.5401116"><ele>1632.0</ele><time>2026-04-25T14:10:20.954Z</time></trkpt><trkpt lat="46.6279017" lon="12.5400676"><ele>1632.0</ele><time>2026-04-25T14:10:21.954Z</time></trkpt><trkpt lat="46.6278108" lon="12.5400504"><ele>1638.3999999999999</ele><time>2026-04-25T14:10:22.954Z</time></trkpt><trkpt lat="46.6277116" lon="12.5400293"><ele>1644.8</ele><time>2026-04-25T14:10:23.953Z</time></trkpt><trkpt lat="46.6276229" lon="12.5400037"><ele>1651.2</ele><time>2026-04-25T14:10:24.954Z</time></trkpt><trkpt lat="46.6275365" lon="12.5399933"><ele>1657.6</ele><time>2026-04-25T14:10:25.954Z</time></trkpt><trkpt lat="46.6274386" lon="12.5400027"><ele>1664.0</ele><time>2026-04-25T14:10:26.955Z</time></trkpt><trkpt lat="46.6273398" lon="12.5400207"><ele>1663.9999999999998</ele><time>2026-04-25T14:10:27.953Z</time></trkpt><trkpt lat="46.6272489" lon="12.540034"><ele>1664.0</ele><time>2026-04-25T14:10:28.953Z</time></trkpt><trkpt lat="46.6271719" lon="12.5400188"><ele>1664.0</ele><time>2026-04-25T14:10:29.954Z</time></trkpt><trkpt lat="46.6271023" lon="12.5399727"><ele>1664.0</ele><time>2026-04-25T14:10:30.953Z</time></trkpt><trkpt lat="46.6270451" lon="12.5399124"><ele>1663.9999999999998</ele><time>2026-04-25T14:10:31.953Z</time></trkpt><trkpt lat="46.6269399" lon="12.5398325"><ele>1664.0</ele><time>2026-04-25T14:10:33.953Z</time></trkpt><trkpt lat="46.626831" lon="12.5397624"><ele>1664.4999999999998</ele><time>2026-04-25T14:10:35.953Z</time></trkpt><trkpt lat="46.6267331" lon="12.5396602"><ele>1665.0</ele><time>2026-04-25T14:10:37.953Z</time></trkpt><trkpt lat="46.6266676" lon="12.5396271"><ele>1665.5</ele><time>2026-04-25T14:10:38.954Z</time></trkpt><trkpt lat="46.6265997" lon="12.5395971"><ele>1666.0</ele><time>2026-04-25T14:10:39.953Z</time></trkpt><trkpt lat="46.6265372" lon="12.5395749"><ele>1666.4999999999998</ele><time>2026-04-25T14:10:40.954Z</time></trkpt><trkpt lat="46.6264185" lon="12.5395209"><ele>1667.0</ele><time>2026-04-25T14:10:42.953Z</time></trkpt><trkpt lat="46.6263111" lon="12.5394453"><ele>1666.8</ele><time>2026-04-25T14:10:44.954Z</time></trkpt><trkpt lat="46.6262148" lon="12.539354"><ele>1666.6</ele><time>2026-04-25T14:10:46.955Z</time></trkpt><trkpt lat="46.6261305" lon="12.5392439"><ele>1666.3999999999999</ele><time>2026-04-25T14:10:48.954Z</time></trkpt><trkpt lat="46.6260866" lon="12.5391667"><ele>1666.1999999999998</ele><time>2026-04-25T14:10:49.953Z</time></trkpt><trkpt lat="46.6259957" lon="12.5390845"><ele>1666.0</ele><time>2026-04-25T14:10:51.953Z</time></trkpt><trkpt lat="46.6259153" lon="12.5389992"><ele>1666.0</ele><time>2026-04-25T14:10:53.954Z</time></trkpt><trkpt lat="46.6258413" lon="12.538898"><ele>1666.0</ele><time>2026-04-25T14:10:55.955Z</time></trkpt><trkpt lat="46.6258119" lon="12.5387456"><ele>1666.0</ele><time>2026-04-25T14:10:57.955Z</time></trkpt><trkpt lat="46.6257735" lon="12.5386043"><ele>1666.0</ele><time>2026-04-25T14:10:59.953Z</time></trkpt><trkpt lat="46.6257024" lon="12.5385062"><ele>1666.0</ele><time>2026-04-25T14:11:01.954Z</time></trkpt><trkpt lat="46.6255988" lon="12.5384643"><ele>1662.3333333333335</ele><time>2026-04-25T14:11:03.955Z</time></trkpt><trkpt lat="46.6254951" lon="12.5384814"><ele>1658.6666666666667</ele><time>2026-04-25T14:11:05.955Z</time></trkpt><trkpt lat="46.6254267" lon="12.5384905"><ele>1655.0</ele><time>2026-04-25T14:11:07.954Z</time></trkpt><trkpt lat="46.6253604" lon="12.5384805"><ele>1651.3333333333335</ele><time>2026-04-25T14:11:09.952Z</time></trkpt><trkpt lat="46.6252731" lon="12.5384737"><ele>1647.6666666666667</ele><time>2026-04-25T14:11:11.954Z</time></trkpt><trkpt lat="46.6252388" lon="12.5383879"><ele>1644.0</ele><time>2026-04-25T14:11:14.953Z</time></trkpt><trkpt lat="46.6252921" lon="12.5383161"><ele>1644.0</ele><time>2026-04-25T14:11:17.954Z</time></trkpt><trkpt lat="46.6253575" lon="12.5382505"><ele>1644.0</ele><time>2026-04-25T14:11:20.954Z</time></trkpt><trkpt lat="46.6254061" lon="12.5381723"><ele>1644.0</ele><time>2026-04-25T14:11:32.954Z</time></trkpt><trkpt lat="46.6254483" lon="12.5380982"><ele>1644.0</ele><time>2026-04-25T14:11:36.954Z</time></trkpt><trkpt lat="46.6254204" lon="12.5380109"><ele>1644.0</ele><time>2026-04-25T14:11:40.954Z</time></trkpt><trkpt lat="46.6253598" lon="12.5379824"><ele>1644.0</ele><time>2026-04-25T14:11:59.954Z</time></trkpt><trkpt lat="46.6252705" lon="12.5380285"><ele>1644.0</ele><time>2026-04-25T14:12:04.954Z</time></trkpt><trkpt lat="46.6251915" lon="12.5380499"><ele>1643.3333333333333</ele><time>2026-04-25T14:12:07.954Z</time></trkpt><trkpt lat="46.6251185" lon="12.5380694"><ele>1642.6666666666665</ele><time>2026-04-25T14:12:15.954Z</time></trkpt><trkpt lat="46.6250487" lon="12.5380684"><ele>1642.0</ele><time>2026-04-25T14:12:17.953Z</time></trkpt><trkpt lat="46.6249499" lon="12.5380236"><ele>1641.3333333333333</ele><time>2026-04-25T14:12:19.954Z</time></trkpt><trkpt lat="46.6248252" lon="12.5379867"><ele>1640.6666666666665</ele><time>2026-04-25T14:12:21.954Z</time></trkpt><trkpt lat="46.6247596" lon="12.5379604"><ele>1640.0</ele><time>2026-04-25T14:12:22.953Z</time></trkpt><trkpt lat="46.6246933" lon="12.5379106"><ele>1633.6666666666665</ele><time>2026-04-25T14:12:23.954Z</time></trkpt><trkpt lat="46.6246253" lon="12.5378684"><ele>1627.3333333333333</ele><time>2026-04-25T14:12:24.953Z</time></trkpt><trkpt lat="46.6245542" lon="12.5378506"><ele>1621.0</ele><time>2026-04-25T14:12:25.954Z</time></trkpt><trkpt lat="46.6244725" lon="12.53784"><ele>1614.6666666666665</ele><time>2026-04-25T14:12:26.954Z</time></trkpt><trkpt lat="46.6243898" lon="12.5378289"><ele>1608.3333333333333</ele><time>2026-04-25T14:12:27.952Z</time></trkpt><trkpt lat="46.6243072" lon="12.5378096"><ele>1602.0</ele><time>2026-04-25T14:12:28.954Z</time></trkpt><trkpt lat="46.6242257" lon="12.5377918"><ele>1602.0</ele><time>2026-04-25T14:12:29.954Z</time></trkpt><trkpt lat="46.624137" lon="12.5377761"><ele>1602.0</ele><time>2026-04-25T14:12:30.954Z</time></trkpt><trkpt lat="46.6240457" lon="12.5377408"><ele>1602.0</ele><time>2026-04-25T14:12:31.953Z</time></trkpt><trkpt lat="46.6239633" lon="12.5376941"><ele>1602.0</ele><time>2026-04-25T14:12:32.953Z</time></trkpt><trkpt lat="46.6238877" lon="12.5376376"><ele>1602.0</ele><time>2026-04-25T14:12:33.953Z</time></trkpt><trkpt lat="46.6238165" lon="12.5375918"><ele>1602.0</ele><time>2026-04-25T14:12:34.954Z</time></trkpt><trkpt lat="46.6237431" lon="12.537543"><ele>1602.0</ele><time>2026-04-25T14:12:35.953Z</time></trkpt><trkpt lat="46.6236762" lon="12.5374998"><ele>1602.0</ele><time>2026-04-25T14:12:36.954Z</time></trkpt><trkpt lat="46.623565" lon="12.5375475"><ele>1602.0</ele><time>2026-04-25T14:12:38.953Z</time></trkpt><trkpt lat="46.6234516" lon="12.5376196"><ele>1602.0</ele><time>2026-04-25T14:12:40.953Z</time></trkpt><trkpt lat="46.6233637" lon="12.5377015"><ele>1602.0</ele><time>2026-04-25T14:12:42.953Z</time></trkpt><trkpt lat="46.6232875" lon="12.5377707"><ele>1600.3333333333333</ele><time>2026-04-25T14:12:44.954Z</time></trkpt><trkpt lat="46.6232245" lon="12.5378546"><ele>1598.6666666666665</ele><time>2026-04-25T14:12:46.954Z</time></trkpt><trkpt lat="46.6231907" lon="12.5379403"><ele>1597.0</ele><time>2026-04-25T14:12:47.954Z</time></trkpt><trkpt lat="46.6231673" lon="12.5380493"><ele>1595.3333333333333</ele><time>2026-04-25T14:12:48.954Z</time></trkpt><trkpt lat="46.6231403" lon="12.5381565"><ele>1593.6666666666665</ele><time>2026-04-25T14:12:49.954Z</time></trkpt><trkpt lat="46.6231068" lon="12.5382537"><ele>1592.0</ele><time>2026-04-25T14:12:50.954Z</time></trkpt><trkpt lat="46.6230526" lon="12.5383281"><ele>1590.6666666666665</ele><time>2026-04-25T14:12:51.954Z</time></trkpt><trkpt lat="46.622979" lon="12.5383851"><ele>1589.3333333333333</ele><time>2026-04-25T14:12:52.954Z</time></trkpt><trkpt lat="46.6228956" lon="12.5384389"><ele>1588.0</ele><time>2026-04-25T14:12:53.953Z</time></trkpt><trkpt lat="46.6228027" lon="12.538492"><ele>1586.6666666666665</ele><time>2026-04-25T14:12:54.954Z</time></trkpt><trkpt lat="46.6227214" lon="12.5385553"><ele>1585.3333333333333</ele><time>2026-04-25T14:12:55.953Z</time></trkpt><trkpt lat="46.6226699" lon="12.5386402"><ele>1584.0</ele><time>2026-04-25T14:12:56.954Z</time></trkpt><trkpt lat="46.6226243" lon="12.5387271"><ele>1587.0</ele><time>2026-04-25T14:12:57.954Z</time></trkpt><trkpt lat="46.6225885" lon="12.5388145"><ele>1590.0</ele><time>2026-04-25T14:12:58.954Z</time></trkpt><trkpt lat="46.6225114" lon="12.5389372"><ele>1593.0</ele><time>2026-04-25T14:13:00.954Z</time></trkpt><trkpt lat="46.6223951" lon="12.5388855"><ele>1596.0</ele><time>2026-04-25T14:13:02.954Z</time></trkpt><trkpt lat="46.6223334" lon="12.53885"><ele>1599.0</ele><time>2026-04-25T14:13:03.954Z</time></trkpt><trkpt lat="46.6222677" lon="12.5388237"><ele>1602.0</ele><time>2026-04-25T14:13:04.954Z</time></trkpt><trkpt lat="46.6221627" lon="12.5388636"><ele>1602.0</ele><time>2026-04-25T14:13:06.955Z</time></trkpt><trkpt lat="46.6221065" lon="12.5389233"><ele>1602.0</ele><time>2026-04-25T14:13:07.954Z</time></trkpt><trkpt lat="46.6220628" lon="12.5390739"><ele>1602.0</ele><time>2026-04-25T14:13:08.953Z</time></trkpt><trkpt lat="46.6220128" lon="12.5392212"><ele>1602.0</ele><time>2026-04-25T14:13:09.953Z</time></trkpt><trkpt lat="46.6219741" lon="12.5393645"><ele>1602.0</ele><time>2026-04-25T14:13:10.954Z</time></trkpt><trkpt lat="46.6219354" lon="12.539508"><ele>1599.8</ele><time>2026-04-25T14:13:11.954Z</time></trkpt><trkpt lat="46.6219169" lon="12.5396569"><ele>1597.6</ele><time>2026-04-25T14:13:12.953Z</time></trkpt><trkpt lat="46.6219031" lon="12.5397978"><ele>1595.3999999999999</ele><time>2026-04-25T14:13:13.954Z</time></trkpt><trkpt lat="46.6218828" lon="12.53995"><ele>1593.1999999999998</ele><time>2026-04-25T14:13:14.954Z</time></trkpt><trkpt lat="46.6218603" lon="12.5400955"><ele>1591.0</ele><time>2026-04-25T14:13:15.954Z</time></trkpt><trkpt lat="46.6218327" lon="12.5402327"><ele>1591.0000000000002</ele><time>2026-04-25T14:13:16.954Z</time></trkpt><trkpt lat="46.6218081" lon="12.5403634"><ele>1591.0</ele><time>2026-04-25T14:13:17.954Z</time></trkpt><trkpt lat="46.6217788" lon="12.5404845"><ele>1591.0</ele><time>2026-04-25T14:13:18.952Z</time></trkpt><trkpt lat="46.6217401" lon="12.5405944"><ele>1591.0</ele><time>2026-04-25T14:13:19.953Z</time></trkpt><trkpt lat="46.6216822" lon="12.5406892"><ele>1591.0000000000002</ele><time>2026-04-25T14:13:20.954Z</time></trkpt><trkpt lat="46.6216334" lon="12.5407745"><ele>1591.0</ele><time>2026-04-25T14:13:21.953Z</time></trkpt><trkpt lat="46.6215856" lon="12.5408555"><ele>1591.6666666666667</ele><time>2026-04-25T14:13:22.954Z</time></trkpt><trkpt lat="46.6215317" lon="12.5409286"><ele>1592.3333333333335</ele><time>2026-04-25T14:13:23.953Z</time></trkpt><trkpt lat="46.6214688" lon="12.540992"><ele>1593.0</ele><time>2026-04-25T14:13:24.955Z</time></trkpt><trkpt lat="46.6213943" lon="12.541039"><ele>1593.6666666666665</ele><time>2026-04-25T14:13:25.953Z</time></trkpt><trkpt lat="46.6213124" lon="12.5410741"><ele>1594.3333333333333</ele><time>2026-04-25T14:13:26.954Z</time></trkpt><trkpt lat="46.6212322" lon="12.5410895"><ele>1595.0</ele><time>2026-04-25T14:13:27.954Z</time></trkpt><trkpt lat="46.621163" lon="12.5411213"><ele>1594.6666666666665</ele><time>2026-04-25T14:13:28.954Z</time></trkpt><trkpt lat="46.621108" lon="12.5411783"><ele>1594.3333333333333</ele><time>2026-04-25T14:13:29.953Z</time></trkpt><trkpt lat="46.621071" lon="12.5413278"><ele>1594.0</ele><time>2026-04-25T14:13:31.955Z</time></trkpt><trkpt lat="46.6211212" lon="12.5414402"><ele>1593.6666666666665</ele><time>2026-04-25T14:13:33.954Z</time></trkpt><trkpt lat="46.6211467" lon="12.5415251"><ele>1593.3333333333333</ele><time>2026-04-25T14:13:34.952Z</time></trkpt><trkpt lat="46.6211614" lon="12.5416311"><ele>1593.0</ele><time>2026-04-25T14:13:35.955Z</time></trkpt><trkpt lat="46.6211609" lon="12.5417371"><ele>1593.0</ele><time>2026-04-25T14:13:36.955Z</time></trkpt><trkpt lat="46.6211506" lon="12.5418524"><ele>1593.0</ele><time>2026-04-25T14:13:37.954Z</time></trkpt><trkpt lat="46.6211253" lon="12.5419611"><ele>1593.0</ele><time>2026-04-25T14:13:38.954Z</time></trkpt><trkpt lat="46.6210807" lon="12.5420723"><ele>1593.0</ele><time>2026-04-25T14:13:39.954Z</time></trkpt><trkpt lat="46.6210405" lon="12.5421779"><ele>1593.0</ele><time>2026-04-25T14:13:40.953Z</time></trkpt><trkpt lat="46.6209989" lon="12.5422821"><ele>1593.0</ele><time>2026-04-25T14:13:41.953Z</time></trkpt><trkpt lat="46.6209526" lon="12.542386"><ele>1594.8000000000002</ele><time>2026-04-25T14:13:42.954Z</time></trkpt><trkpt lat="46.620899" lon="12.5424923"><ele>1596.6</ele><time>2026-04-25T14:13:43.953Z</time></trkpt><trkpt lat="46.6208367" lon="12.5426029"><ele>1598.4</ele><time>2026-04-25T14:13:44.953Z</time></trkpt><trkpt lat="46.6207608" lon="12.542704"><ele>1600.1999999999998</ele><time>2026-04-25T14:13:45.954Z</time></trkpt><trkpt lat="46.6206796" lon="12.5427956"><ele>1602.0</ele><time>2026-04-25T14:13:46.953Z</time></trkpt><trkpt lat="46.6206027" lon="12.5428855"><ele>1604.1999999999998</ele><time>2026-04-25T14:13:47.954Z</time></trkpt><trkpt lat="46.620526" lon="12.5429901"><ele>1606.4</ele><time>2026-04-25T14:13:48.954Z</time></trkpt><trkpt lat="46.6204523" lon="12.5430979"><ele>1608.6</ele><time>2026-04-25T14:13:49.953Z</time></trkpt><trkpt lat="46.6203606" lon="12.5431848"><ele>1610.8000000000002</ele><time>2026-04-25T14:13:50.954Z</time></trkpt><trkpt lat="46.620274" lon="12.5432641"><ele>1613.0</ele><time>2026-04-25T14:13:51.953Z</time></trkpt><trkpt lat="46.6201864" lon="12.5433402"><ele>1613.0</ele><time>2026-04-25T14:13:52.955Z</time></trkpt><trkpt lat="46.6201048" lon="12.5434347"><ele>1613.0</ele><time>2026-04-25T14:13:53.953Z</time></trkpt><trkpt lat="46.6200339" lon="12.543538"><ele>1613.0</ele><time>2026-04-25T14:13:54.954Z</time></trkpt><trkpt lat="46.6199685" lon="12.5436543"><ele>1613.0</ele><time>2026-04-25T14:13:55.954Z</time></trkpt><trkpt lat="46.6199322" lon="12.5437979"><ele>1613.0</ele><time>2026-04-25T14:13:56.954Z</time></trkpt><trkpt lat="46.6198884" lon="12.5439294"><ele>1616.1666666666665</ele><time>2026-04-25T14:13:57.954Z</time></trkpt><trkpt lat="46.6198632" lon="12.5440727"><ele>1619.3333333333333</ele><time>2026-04-25T14:13:58.954Z</time></trkpt><trkpt lat="46.6198245" lon="12.5441955"><ele>1622.5</ele><time>2026-04-25T14:13:59.954Z</time></trkpt><trkpt lat="46.619785" lon="12.5443105"><ele>1625.6666666666665</ele><time>2026-04-25T14:14:00.955Z</time></trkpt><trkpt lat="46.6197369" lon="12.5444045"><ele>1628.8333333333333</ele><time>2026-04-25T14:14:01.955Z</time></trkpt><trkpt lat="46.6196751" lon="12.5444763"><ele>1632.0</ele><time>2026-04-25T14:14:02.954Z</time></trkpt><trkpt lat="46.6196145" lon="12.5445508"><ele>1633.8333333333333</ele><time>2026-04-25T14:14:03.954Z</time></trkpt><trkpt lat="46.6195785" lon="12.5446638"><ele>1635.6666666666665</ele><time>2026-04-25T14:14:04.953Z</time></trkpt><trkpt lat="46.6195349" lon="12.5447779"><ele>1637.5</ele><time>2026-04-25T14:14:05.953Z</time></trkpt><trkpt lat="46.6194939" lon="12.5448624"><ele>1639.3333333333333</ele><time>2026-04-25T14:14:06.953Z</time></trkpt><trkpt lat="46.6194294" lon="12.5449349"><ele>1641.1666666666665</ele><time>2026-04-25T14:14:07.955Z</time></trkpt><trkpt lat="46.6193591" lon="12.5449921"><ele>1643.0</ele><time>2026-04-25T14:14:08.954Z</time></trkpt><trkpt lat="46.6192809" lon="12.5450569"><ele>1643.0</ele><time>2026-04-25T14:14:09.953Z</time></trkpt><trkpt lat="46.6191741" lon="12.5451387"><ele>1643.0</ele><time>2026-04-25T14:14:10.954Z</time></trkpt><trkpt lat="46.6190845" lon="12.5452196"><ele>1643.0</ele><time>2026-04-25T14:14:11.954Z</time></trkpt><trkpt lat="46.6190015" lon="12.545298"><ele>1643.0</ele><time>2026-04-25T14:14:12.955Z</time></trkpt><trkpt lat="46.6189276" lon="12.5453872"><ele>1643.0</ele><time>2026-04-25T14:14:13.955Z</time></trkpt><trkpt lat="46.6188654" lon="12.5455094"><ele>1645.0</ele><time>2026-04-25T14:14:14.953Z</time></trkpt><trkpt lat="46.6187899" lon="12.5456439"><ele>1647.0</ele><time>2026-04-25T14:14:15.954Z</time></trkpt><trkpt lat="46.6187079" lon="12.5457703"><ele>1649.0</ele><time>2026-04-25T14:14:16.953Z</time></trkpt><trkpt lat="46.6186307" lon="12.5458967"><ele>1651.0</ele><time>2026-04-25T14:14:17.955Z</time></trkpt><trkpt lat="46.618548" lon="12.545962"><ele>1653.0</ele><time>2026-04-25T14:14:18.954Z</time></trkpt><trkpt lat="46.6184637" lon="12.5460402"><ele>1653.0</ele><time>2026-04-25T14:14:19.954Z</time></trkpt><trkpt lat="46.6183754" lon="12.5461172"><ele>1653.0</ele><time>2026-04-25T14:14:20.954Z</time></trkpt><trkpt lat="46.6182961" lon="12.5462033"><ele>1653.0</ele><time>2026-04-25T14:14:21.954Z</time></trkpt><trkpt lat="46.618205" lon="12.5462826"><ele>1653.0</ele><time>2026-04-25T14:14:22.953Z</time></trkpt><trkpt lat="46.6181081" lon="12.5462983"><ele>1653.0</ele><time>2026-04-25T14:14:23.953Z</time></trkpt><trkpt lat="46.6180375" lon="12.5463357"><ele>1657.3333333333333</ele><time>2026-04-25T14:14:24.954Z</time></trkpt><trkpt lat="46.6179574" lon="12.5463642"><ele>1661.6666666666665</ele><time>2026-04-25T14:14:25.952Z</time></trkpt><trkpt lat="46.6178859" lon="12.5463827"><ele>1666.0</ele><time>2026-04-25T14:14:26.955Z</time></trkpt><trkpt lat="46.6178285" lon="12.5464869"><ele>1670.3333333333333</ele><time>2026-04-25T14:14:28.954Z</time></trkpt><trkpt lat="46.6178974" lon="12.5465714"><ele>1674.6666666666665</ele><time>2026-04-25T14:14:30.954Z</time></trkpt><trkpt lat="46.6180003" lon="12.5466281"><ele>1679.0</ele><time>2026-04-25T14:14:32.954Z</time></trkpt><trkpt lat="46.618022" lon="12.5467517"><ele>1678.9999999999998</ele><time>2026-04-25T14:14:34.954Z</time></trkpt><trkpt lat="46.6179478" lon="12.5468311"><ele>1679.0</ele><time>2026-04-25T14:14:36.953Z</time></trkpt><trkpt lat="46.6178759" lon="12.5468584"><ele>1679.0</ele><time>2026-04-25T14:14:37.953Z</time></trkpt><trkpt lat="46.6177971" lon="12.5468777"><ele>1679.0</ele><time>2026-04-25T14:14:38.953Z</time></trkpt><trkpt lat="46.6177107" lon="12.5468973"><ele>1678.9999999999998</ele><time>2026-04-25T14:14:39.954Z</time></trkpt><trkpt lat="46.617624" lon="12.5469125"><ele>1679.0</ele><time>2026-04-25T14:14:40.954Z</time></trkpt><trkpt lat="46.6175298" lon="12.5469285"><ele>1677.9999999999998</ele><time>2026-04-25T14:14:41.953Z</time></trkpt><trkpt lat="46.6174474" lon="12.5469455"><ele>1677.0</ele><time>2026-04-25T14:14:42.954Z</time></trkpt><trkpt lat="46.6173654" lon="12.5469701"><ele>1676.0</ele><time>2026-04-25T14:14:43.953Z</time></trkpt><trkpt lat="46.6172855" lon="12.5470068"><ele>1675.0</ele><time>2026-04-25T14:14:44.954Z</time></trkpt><trkpt lat="46.6172115" lon="12.5470431"><ele>1673.9999999999998</ele><time>2026-04-25T14:14:45.954Z</time></trkpt><trkpt lat="46.6171493" lon="12.5471202"><ele>1673.0</ele><time>2026-04-25T14:14:46.953Z</time></trkpt><trkpt lat="46.6170961" lon="12.5472075"><ele>1671.4999999999998</ele><time>2026-04-25T14:14:47.955Z</time></trkpt><trkpt lat="46.6170593" lon="12.5473008"><ele>1670.0</ele><time>2026-04-25T14:14:48.953Z</time></trkpt><trkpt lat="46.6170342" lon="12.5474151"><ele>1668.5</ele><time>2026-04-25T14:14:49.953Z</time></trkpt><trkpt lat="46.6170112" lon="12.5475324"><ele>1667.0</ele><time>2026-04-25T14:14:50.955Z</time></trkpt><trkpt lat="46.6169917" lon="12.5476549"><ele>1665.4999999999998</ele><time>2026-04-25T14:14:51.954Z</time></trkpt><trkpt lat="46.616974" lon="12.5477794"><ele>1664.0</ele><time>2026-04-25T14:14:52.953Z</time></trkpt><trkpt lat="46.6169522" lon="12.5478976"><ele>1667.4999999999998</ele><time>2026-04-25T14:14:53.953Z</time></trkpt><trkpt lat="46.6169145" lon="12.547995"><ele>1671.0</ele><time>2026-04-25T14:14:54.953Z</time></trkpt><trkpt lat="46.6168808" lon="12.5480929"><ele>1674.5</ele><time>2026-04-25T14:14:55.955Z</time></trkpt><trkpt lat="46.6168522" lon="12.5481944"><ele>1678.0</ele><time>2026-04-25T14:14:56.955Z</time></trkpt><trkpt lat="46.6168204" lon="12.5483039"><ele>1681.4999999999998</ele><time>2026-04-25T14:14:57.954Z</time></trkpt><trkpt lat="46.6167841" lon="12.548413"><ele>1685.0</ele><time>2026-04-25T14:14:58.955Z</time></trkpt><trkpt lat="46.616735" lon="12.5485198"><ele>1685.0</ele><time>2026-04-25T14:14:59.954Z</time></trkpt><trkpt lat="46.6166732" lon="12.5486182"><ele>1685.0</ele><time>2026-04-25T14:15:00.954Z</time></trkpt><trkpt lat="46.6166185" lon="12.5487247"><ele>1685.0</ele><time>2026-04-25T14:15:01.954Z</time></trkpt><trkpt lat="46.6165575" lon="12.5488403"><ele>1685.0</ele><time>2026-04-25T14:15:02.954Z</time></trkpt><trkpt lat="46.616505" lon="12.548964"><ele>1685.0</ele><time>2026-04-25T14:15:03.954Z</time></trkpt><trkpt lat="46.6164459" lon="12.5491009"><ele>1688.75</ele><time>2026-04-25T14:15:04.954Z</time></trkpt><trkpt lat="46.6163846" lon="12.5492503"><ele>1692.5</ele><time>2026-04-25T14:15:05.954Z</time></trkpt><trkpt lat="46.616323" lon="12.5493918"><ele>1696.25</ele><time>2026-04-25T14:15:06.955Z</time></trkpt><trkpt lat="46.6162561" lon="12.5495317"><ele>1700.0</ele><time>2026-04-25T14:15:07.954Z</time></trkpt><trkpt lat="46.6161856" lon="12.5496708"><ele>1694.0</ele><time>2026-04-25T14:15:08.952Z</time></trkpt><trkpt lat="46.6161226" lon="12.5498126"><ele>1688.0</ele><time>2026-04-25T14:15:09.954Z</time></trkpt><trkpt lat="46.616058" lon="12.5499492"><ele>1682.0</ele><time>2026-04-25T14:15:10.954Z</time></trkpt><trkpt lat="46.6159946" lon="12.5500801"><ele>1676.0</ele><time>2026-04-25T14:15:11.954Z</time></trkpt><trkpt lat="46.6159371" lon="12.5502063"><ele>1670.0</ele><time>2026-04-25T14:15:12.954Z</time></trkpt><trkpt lat="46.6158787" lon="12.5503285"><ele>1675.0</ele><time>2026-04-25T14:15:13.954Z</time></trkpt><trkpt lat="46.6158237" lon="12.5504515"><ele>1680.0</ele><time>2026-04-25T14:15:14.953Z</time></trkpt><trkpt lat="46.6157627" lon="12.5505693"><ele>1685.0</ele><time>2026-04-25T14:15:15.953Z</time></trkpt><trkpt lat="46.6157065" lon="12.5506846"><ele>1690.0</ele><time>2026-04-25T14:15:16.954Z</time></trkpt><trkpt lat="46.6156404" lon="12.5507773"><ele>1695.0</ele><time>2026-04-25T14:15:17.953Z</time></trkpt><trkpt lat="46.6155752" lon="12.5508708"><ele>1695.0</ele><time>2026-04-25T14:15:18.954Z</time></trkpt><trkpt lat="46.6155146" lon="12.5509438"><ele>1695.0</ele><time>2026-04-25T14:15:19.954Z</time></trkpt><trkpt lat="46.61546" lon="12.5510102"><ele>1695.0</ele><time>2026-04-25T14:15:20.954Z</time></trkpt><trkpt lat="46.6154017" lon="12.5510763"><ele>1695.0</ele><time>2026-04-25T14:15:21.954Z</time></trkpt><trkpt lat="46.6153487" lon="12.5511449"><ele>1695.0</ele><time>2026-04-25T14:15:22.953Z</time></trkpt><trkpt lat="46.6152905" lon="12.5512197"><ele>1695.0</ele><time>2026-04-25T14:15:23.954Z</time></trkpt><trkpt lat="46.6152357" lon="12.5512983"><ele>1695.0</ele><time>2026-04-25T14:15:24.954Z</time></trkpt><trkpt lat="46.6151749" lon="12.5513828"><ele>1690.4</ele><time>2026-04-25T14:15:25.953Z</time></trkpt><trkpt lat="46.6151161" lon="12.551469"><ele>1685.8</ele><time>2026-04-25T14:15:26.954Z</time></trkpt><trkpt lat="46.6150519" lon="12.5515578"><ele>1681.1999999999998</ele><time>2026-04-25T14:15:27.954Z</time></trkpt><trkpt lat="46.6149832" lon="12.5516433"><ele>1676.6</ele><time>2026-04-25T14:15:28.954Z</time></trkpt><trkpt lat="46.6149016" lon="12.5517241"><ele>1672.0</ele><time>2026-04-25T14:15:29.954Z</time></trkpt><trkpt lat="46.6148054" lon="12.5517893"><ele>1672.0</ele><time>2026-04-25T14:15:30.954Z</time></trkpt><trkpt lat="46.614705" lon="12.5518536"><ele>1672.0</ele><time>2026-04-25T14:15:31.954Z</time></trkpt><trkpt lat="46.6145997" lon="12.5519171"><ele>1672.0</ele><time>2026-04-25T14:15:32.953Z</time></trkpt><trkpt lat="46.6145003" lon="12.5520021"><ele>1672.0</ele><time>2026-04-25T14:15:33.954Z</time></trkpt><trkpt lat="46.6143996" lon="12.5520972"><ele>1668.5000000000002</ele><time>2026-04-25T14:15:34.954Z</time></trkpt><trkpt lat="46.6143086" lon="12.5521858"><ele>1665.0</ele><time>2026-04-25T14:15:35.952Z</time></trkpt><trkpt lat="46.6142223" lon="12.5522648"><ele>1661.5</ele><time>2026-04-25T14:15:36.953Z</time></trkpt><trkpt lat="46.6141606" lon="12.5523388"><ele>1658.0</ele><time>2026-04-25T14:15:37.954Z</time></trkpt><trkpt lat="46.6141101" lon="12.5524183"><ele>1654.5000000000002</ele><time>2026-04-25T14:15:38.954Z</time></trkpt><trkpt lat="46.6140654" lon="12.5524956"><ele>1651.0</ele><time>2026-04-25T14:15:39.955Z</time></trkpt><trkpt lat="46.6140301" lon="12.5525845"><ele>1651.0000000000002</ele><time>2026-04-25T14:15:40.952Z</time></trkpt><trkpt lat="46.6140238" lon="12.5526948"><ele>1651.0</ele><time>2026-04-25T14:15:41.954Z</time></trkpt><trkpt lat="46.6140221" lon="12.5528036"><ele>1651.0</ele><time>2026-04-25T14:15:42.953Z</time></trkpt><trkpt lat="46.6140229" lon="12.5529159"><ele>1651.0</ele><time>2026-04-25T14:15:43.954Z</time></trkpt><trkpt lat="46.6140408" lon="12.5530316"><ele>1651.0000000000002</ele><time>2026-04-25T14:15:44.954Z</time></trkpt><trkpt lat="46.6140686" lon="12.5531513"><ele>1651.0</ele><time>2026-04-25T14:15:45.953Z</time></trkpt><trkpt lat="46.6141003" lon="12.5532579"><ele>1650.8</ele><time>2026-04-25T14:15:46.954Z</time></trkpt><trkpt lat="46.6141331" lon="12.5533666"><ele>1650.6</ele><time>2026-04-25T14:15:47.954Z</time></trkpt><trkpt lat="46.6141616" lon="12.5534731"><ele>1650.4</ele><time>2026-04-25T14:15:48.954Z</time></trkpt><trkpt lat="46.6141957" lon="12.5536001"><ele>1650.2</ele><time>2026-04-25T14:15:49.954Z</time></trkpt><trkpt lat="46.6142333" lon="12.5537427"><ele>1650.0</ele><time>2026-04-25T14:15:50.953Z</time></trkpt><trkpt lat="46.6142664" lon="12.5538931"><ele>1650.0</ele><time>2026-04-25T14:15:51.954Z</time></trkpt><trkpt lat="46.6142956" lon="12.5540525"><ele>1650.0</ele><time>2026-04-25T14:15:52.954Z</time></trkpt><trkpt lat="46.6143178" lon="12.5542113"><ele>1650.0</ele><time>2026-04-25T14:15:53.954Z</time></trkpt><trkpt lat="46.6143369" lon="12.5543605"><ele>1650.0</ele><time>2026-04-25T14:15:54.953Z</time></trkpt><trkpt lat="46.6143623" lon="12.5545005"><ele>1650.0</ele><time>2026-04-25T14:15:55.953Z</time></trkpt><trkpt lat="46.6143927" lon="12.5546339"><ele>1650.0</ele><time>2026-04-25T14:15:56.953Z</time></trkpt><trkpt lat="46.6144115" lon="12.5547598"><ele>1650.0</ele><time>2026-04-25T14:15:57.953Z</time></trkpt><trkpt lat="46.6144106" lon="12.5548798"><ele>1650.0</ele><time>2026-04-25T14:15:58.954Z</time></trkpt><trkpt lat="46.614392" lon="12.5549822"><ele>1650.0</ele><time>2026-04-25T14:15:59.954Z</time></trkpt><trkpt lat="46.6143588" lon="12.5550852"><ele>1650.0</ele><time>2026-04-25T14:16:00.953Z</time></trkpt><trkpt lat="46.6143257" lon="12.5551958"><ele>1650.0</ele><time>2026-04-25T14:16:01.954Z</time></trkpt><trkpt lat="46.6142942" lon="12.5553032"><ele>1651.142857142857</ele><time>2026-04-25T14:16:02.953Z</time></trkpt><trkpt lat="46.6142694" lon="12.5553984"><ele>1652.2857142857144</ele><time>2026-04-25T14:16:03.954Z</time></trkpt><trkpt lat="46.6142609" lon="12.555494"><ele>1653.4285714285716</ele><time>2026-04-25T14:16:04.953Z</time></trkpt><trkpt lat="46.6142736" lon="12.5555947"><ele>1654.5714285714284</ele><time>2026-04-25T14:16:05.953Z</time></trkpt><trkpt lat="46.6143011" lon="12.555705"><ele>1655.7142857142858</ele><time>2026-04-25T14:16:06.952Z</time></trkpt><trkpt lat="46.6143066" lon="12.555822"><ele>1656.857142857143</ele><time>2026-04-25T14:16:07.954Z</time></trkpt><trkpt lat="46.6143133" lon="12.5559315"><ele>1658.0</ele><time>2026-04-25T14:16:08.954Z</time></trkpt><trkpt lat="46.6142633" lon="12.5560324"><ele>1657.9999999999998</ele><time>2026-04-25T14:16:09.954Z</time></trkpt><trkpt lat="46.6142374" lon="12.5561311"><ele>1658.0</ele><time>2026-04-25T14:16:10.954Z</time></trkpt><trkpt lat="46.6142257" lon="12.5562294"><ele>1658.0</ele><time>2026-04-25T14:16:11.953Z</time></trkpt><trkpt lat="46.6142483" lon="12.5563577"><ele>1658.0</ele><time>2026-04-25T14:16:13.953Z</time></trkpt><trkpt lat="46.6143218" lon="12.5564191"><ele>1657.9999999999998</ele><time>2026-04-25T14:16:15.952Z</time></trkpt><trkpt lat="46.6144319" lon="12.5565108"><ele>1658.0</ele><time>2026-04-25T14:16:17.952Z</time></trkpt><trkpt lat="46.6144696" lon="12.5566631"><ele>1657.8000000000002</ele><time>2026-04-25T14:16:19.953Z</time></trkpt><trkpt lat="46.6144083" lon="12.5567984"><ele>1657.6</ele><time>2026-04-25T14:16:21.954Z</time></trkpt><trkpt lat="46.6143067" lon="12.5569009"><ele>1657.4</ele><time>2026-04-25T14:16:23.953Z</time></trkpt><trkpt lat="46.6142611" lon="12.5570002"><ele>1657.1999999999998</ele><time>2026-04-25T14:16:25.953Z</time></trkpt><trkpt lat="46.614278" lon="12.5571232"><ele>1657.0</ele><time>2026-04-25T14:16:27.954Z</time></trkpt><trkpt lat="46.6143414" lon="12.5572739"><ele>1657.0000000000002</ele><time>2026-04-25T14:16:29.952Z</time></trkpt><trkpt lat="46.6143807" lon="12.5573628"><ele>1657.0</ele><time>2026-04-25T14:16:30.953Z</time></trkpt><trkpt lat="46.6144251" lon="12.5574574"><ele>1657.0</ele><time>2026-04-25T14:16:31.954Z</time></trkpt><trkpt lat="46.6144693" lon="12.557554"><ele>1657.0</ele><time>2026-04-25T14:16:32.954Z</time></trkpt><trkpt lat="46.6144966" lon="12.5576375"><ele>1657.0000000000002</ele><time>2026-04-25T14:16:33.954Z</time></trkpt><trkpt lat="46.6145092" lon="12.55778"><ele>1657.0</ele><time>2026-04-25T14:16:35.954Z</time></trkpt><trkpt lat="46.6144066" lon="12.5578689"><ele>1659.3333333333335</ele><time>2026-04-25T14:16:37.953Z</time></trkpt><trkpt lat="46.6143349" lon="12.5579007"><ele>1661.6666666666667</ele><time>2026-04-25T14:16:38.952Z</time></trkpt><trkpt lat="46.6142407" lon="12.5578837"><ele>1664.0</ele><time>2026-04-25T14:16:39.953Z</time></trkpt><trkpt lat="46.6141556" lon="12.5578846"><ele>1666.3333333333335</ele><time>2026-04-25T14:16:40.954Z</time></trkpt><trkpt lat="46.6140754" lon="12.5578994"><ele>1668.6666666666667</ele><time>2026-04-25T14:16:41.953Z</time></trkpt><trkpt lat="46.6140066" lon="12.557917"><ele>1671.0</ele><time>2026-04-25T14:16:42.954Z</time></trkpt><trkpt lat="46.6139302" lon="12.5579433"><ele>1671.0</ele><time>2026-04-25T14:16:43.954Z</time></trkpt><trkpt lat="46.6138638" lon="12.5579499"><ele>1671.0</ele><time>2026-04-25T14:16:44.954Z</time></trkpt><trkpt lat="46.6137936" lon="12.5579424"><ele>1671.0</ele><time>2026-04-25T14:16:45.954Z</time></trkpt><trkpt lat="46.6137262" lon="12.557916"><ele>1671.0</ele><time>2026-04-25T14:16:46.954Z</time></trkpt><trkpt lat="46.6136629" lon="12.5578794"><ele>1671.0</ele><time>2026-04-25T14:16:47.954Z</time></trkpt><trkpt lat="46.6136016" lon="12.5578393"><ele>1671.0</ele><time>2026-04-25T14:16:48.953Z</time></trkpt><trkpt lat="46.6135408" lon="12.557793"><ele>1671.0</ele><time>2026-04-25T14:16:49.953Z</time></trkpt><trkpt lat="46.6134436" lon="12.5577466"><ele>1665.3333333333333</ele><time>2026-04-25T14:16:51.953Z</time></trkpt><trkpt lat="46.6133726" lon="12.5577866"><ele>1659.6666666666665</ele><time>2026-04-25T14:16:53.953Z</time></trkpt><trkpt lat="46.6133411" lon="12.5579283"><ele>1654.0</ele><time>2026-04-25T14:16:55.954Z</time></trkpt><trkpt lat="46.6133336" lon="12.5580294"><ele>1648.3333333333333</ele><time>2026-04-25T14:16:56.954Z</time></trkpt><trkpt lat="46.6133331" lon="12.5581292"><ele>1642.6666666666665</ele><time>2026-04-25T14:16:57.953Z</time></trkpt><trkpt lat="46.6133466" lon="12.5582422"><ele>1637.0</ele><time>2026-04-25T14:16:58.954Z</time></trkpt><trkpt lat="46.6133602" lon="12.5583471"><ele>1636.9999999999998</ele><time>2026-04-25T14:16:59.953Z</time></trkpt><trkpt lat="46.6133865" lon="12.5584668"><ele>1637.0</ele><time>2026-04-25T14:17:00.954Z</time></trkpt><trkpt lat="46.6134004" lon="12.5585825"><ele>1637.0</ele><time>2026-04-25T14:17:01.953Z</time></trkpt><trkpt lat="46.6134208" lon="12.5587067"><ele>1637.0</ele><time>2026-04-25T14:17:02.953Z</time></trkpt><trkpt lat="46.6134259" lon="12.5588226"><ele>1636.9999999999998</ele><time>2026-04-25T14:17:03.954Z</time></trkpt><trkpt lat="46.6134289" lon="12.5589301"><ele>1637.0</ele><time>2026-04-25T14:17:04.954Z</time></trkpt><trkpt lat="46.6134125" lon="12.5590284"><ele>1639.0</ele><time>2026-04-25T14:17:05.954Z</time></trkpt><trkpt lat="46.6132967" lon="12.559117"><ele>1641.0</ele><time>2026-04-25T14:17:07.953Z</time></trkpt><trkpt lat="46.6132059" lon="12.5591013"><ele>1643.0</ele><time>2026-04-25T14:17:08.954Z</time></trkpt><trkpt lat="46.6131089" lon="12.5590671"><ele>1645.0</ele><time>2026-04-25T14:17:09.953Z</time></trkpt><trkpt lat="46.6130176" lon="12.5590288"><ele>1647.0</ele><time>2026-04-25T14:17:10.954Z</time></trkpt><trkpt lat="46.6129397" lon="12.5589944"><ele>1647.0</ele><time>2026-04-25T14:17:11.954Z</time></trkpt><trkpt lat="46.6128371" lon="12.5590747"><ele>1647.0</ele><time>2026-04-25T14:17:13.953Z</time></trkpt><trkpt lat="46.612787" lon="12.5591568"><ele>1647.0</ele><time>2026-04-25T14:17:14.953Z</time></trkpt><trkpt lat="46.6127169" lon="12.5592323"><ele>1647.0</ele><time>2026-04-25T14:17:15.954Z</time></trkpt><trkpt lat="46.6126312" lon="12.559265"><ele>1647.0</ele><time>2026-04-25T14:17:16.954Z</time></trkpt><trkpt lat="46.6125598" lon="12.5592658"><ele>1647.0</ele><time>2026-04-25T14:17:17.953Z</time></trkpt><trkpt lat="46.6124889" lon="12.5592757"><ele>1648.3333333333333</ele><time>2026-04-25T14:17:18.953Z</time></trkpt><trkpt lat="46.6124067" lon="12.5592945"><ele>1649.6666666666665</ele><time>2026-04-25T14:17:19.954Z</time></trkpt><trkpt lat="46.6123309" lon="12.5593352"><ele>1651.0</ele><time>2026-04-25T14:17:20.953Z</time></trkpt><trkpt lat="46.6122633" lon="12.5593933"><ele>1652.3333333333333</ele><time>2026-04-25T14:17:21.954Z</time></trkpt><trkpt lat="46.6121923" lon="12.5594498"><ele>1653.6666666666665</ele><time>2026-04-25T14:17:22.953Z</time></trkpt><trkpt lat="46.6121314" lon="12.5595105"><ele>1655.0</ele><time>2026-04-25T14:17:23.953Z</time></trkpt><trkpt lat="46.6120449" lon="12.5595965"><ele>1647.2</ele><time>2026-04-25T14:17:25.953Z</time></trkpt><trkpt lat="46.6119699" lon="12.5596912"><ele>1639.4</ele><time>2026-04-25T14:17:27.953Z</time></trkpt><trkpt lat="46.6118954" lon="12.5598074"><ele>1631.6</ele><time>2026-04-25T14:17:29.954Z</time></trkpt><trkpt lat="46.6118377" lon="12.5599222"><ele>1623.8</ele><time>2026-04-25T14:17:31.953Z</time></trkpt><trkpt lat="46.6118524" lon="12.5600699"><ele>1616.0</ele><time>2026-04-25T14:17:33.954Z</time></trkpt><trkpt lat="46.6118916" lon="12.5601505"><ele>1616.0</ele><time>2026-04-25T14:17:34.953Z</time></trkpt><trkpt lat="46.6119412" lon="12.5602348"><ele>1616.0</ele><time>2026-04-25T14:17:35.954Z</time></trkpt><trkpt lat="46.6119831" lon="12.5603078"><ele>1616.0</ele><time>2026-04-25T14:17:36.954Z</time></trkpt><trkpt lat="46.6120325" lon="12.560378"><ele>1616.0</ele><time>2026-04-25T14:17:37.954Z</time></trkpt><trkpt lat="46.6120831" lon="12.5604534"><ele>1616.0</ele><time>2026-04-25T14:17:38.953Z</time></trkpt><trkpt lat="46.6121285" lon="12.5605487"><ele>1616.0</ele><time>2026-04-25T14:17:39.954Z</time></trkpt><trkpt lat="46.612166" lon="12.5606615"><ele>1616.0</ele><time>2026-04-25T14:17:40.954Z</time></trkpt><trkpt lat="46.6121961" lon="12.5607736"><ele>1619.3333333333333</ele><time>2026-04-25T14:17:41.953Z</time></trkpt><trkpt lat="46.6122346" lon="12.5608889"><ele>1622.6666666666665</ele><time>2026-04-25T14:17:42.954Z</time></trkpt><trkpt lat="46.6122685" lon="12.5610067"><ele>1626.0</ele><time>2026-04-25T14:17:43.954Z</time></trkpt><trkpt lat="46.6123125" lon="12.561128"><ele>1629.3333333333335</ele><time>2026-04-25T14:17:44.954Z</time></trkpt><trkpt lat="46.6123465" lon="12.5612553"><ele>1632.6666666666667</ele><time>2026-04-25T14:17:45.952Z</time></trkpt><trkpt lat="46.6123723" lon="12.5613728"><ele>1636.0</ele><time>2026-04-25T14:17:46.954Z</time></trkpt><trkpt lat="46.612374" lon="12.5614959"><ele>1636.0000000000002</ele><time>2026-04-25T14:17:47.953Z</time></trkpt><trkpt lat="46.6123658" lon="12.5616112"><ele>1636.0</ele><time>2026-04-25T14:17:48.954Z</time></trkpt><trkpt lat="46.6123699" lon="12.5617259"><ele>1636.0</ele><time>2026-04-25T14:17:49.953Z</time></trkpt><trkpt lat="46.61239" lon="12.5618426"><ele>1636.0</ele><time>2026-04-25T14:17:50.955Z</time></trkpt><trkpt lat="46.6124304" lon="12.561951"><ele>1636.0000000000002</ele><time>2026-04-25T14:17:51.953Z</time></trkpt><trkpt lat="46.6124664" lon="12.5620447"><ele>1636.0</ele><time>2026-04-25T14:17:52.952Z</time></trkpt><trkpt lat="46.6125038" lon="12.5621647"><ele>1636.0000000000002</ele><time>2026-04-25T14:17:54.954Z</time></trkpt><trkpt lat="46.6124425" lon="12.5622438"><ele>1636.0</ele><time>2026-04-25T14:17:57.953Z</time></trkpt><trkpt lat="46.6123727" lon="12.5621461"><ele>1636.0</ele><time>2026-04-25T14:17:59.954Z</time></trkpt><trkpt lat="46.6122598" lon="12.5620618"><ele>1636.0</ele><time>2026-04-25T14:18:01.953Z</time></trkpt><trkpt lat="46.6121942" lon="12.5620389"><ele>1636.0000000000002</ele><time>2026-04-25T14:18:02.953Z</time></trkpt><trkpt lat="46.6121283" lon="12.5620276"><ele>1636.0</ele><time>2026-04-25T14:18:03.953Z</time></trkpt><trkpt lat="46.6120585" lon="12.5620244"><ele>1636.0000000000002</ele><time>2026-04-25T14:18:04.953Z</time></trkpt><trkpt lat="46.6119938" lon="12.5620209"><ele>1636.0</ele><time>2026-04-25T14:18:05.952Z</time></trkpt><trkpt lat="46.6119255" lon="12.5620056"><ele>1636.0</ele><time>2026-04-25T14:18:06.953Z</time></trkpt><trkpt lat="46.6118541" lon="12.5619642"><ele>1636.0</ele><time>2026-04-25T14:18:07.954Z</time></trkpt><trkpt lat="46.6117867" lon="12.5618988"><ele>1636.0000000000002</ele><time>2026-04-25T14:18:08.953Z</time></trkpt><trkpt lat="46.6117166" lon="12.5618291"><ele>1636.0</ele><time>2026-04-25T14:18:09.953Z</time></trkpt><trkpt lat="46.611652" lon="12.561753"><ele>1632.3333333333335</ele><time>2026-04-25T14:18:10.954Z</time></trkpt><trkpt lat="46.6115863" lon="12.5616713"><ele>1628.6666666666667</ele><time>2026-04-25T14:18:11.953Z</time></trkpt><trkpt lat="46.6115306" lon="12.5615705"><ele>1625.0</ele><time>2026-04-25T14:18:12.954Z</time></trkpt><trkpt lat="46.6114868" lon="12.561462"><ele>1621.3333333333335</ele><time>2026-04-25T14:18:13.953Z</time></trkpt><trkpt lat="46.6114442" lon="12.5613519"><ele>1617.6666666666667</ele><time>2026-04-25T14:18:14.954Z</time></trkpt><trkpt lat="46.6113977" lon="12.5612541"><ele>1614.0</ele><time>2026-04-25T14:18:15.954Z</time></trkpt><trkpt lat="46.6113562" lon="12.56118"><ele>1614.0</ele><time>2026-04-25T14:18:16.954Z</time></trkpt><trkpt lat="46.6113036" lon="12.5611116"><ele>1614.0</ele><time>2026-04-25T14:18:17.954Z</time></trkpt><trkpt lat="46.6112453" lon="12.5610683"><ele>1614.0</ele><time>2026-04-25T14:18:18.953Z</time></trkpt><trkpt lat="46.6111434" lon="12.5610635"><ele>1614.0</ele><time>2026-04-25T14:18:20.953Z</time></trkpt><trkpt lat="46.6110715" lon="12.5611558"><ele>1614.0</ele><time>2026-04-25T14:18:22.954Z</time></trkpt><trkpt lat="46.6110548" lon="12.5613148"><ele>1614.0</ele><time>2026-04-25T14:18:24.954Z</time></trkpt><trkpt lat="46.6111029" lon="12.5614442"><ele>1610.3333333333333</ele><time>2026-04-25T14:18:26.953Z</time></trkpt><trkpt lat="46.6111269" lon="12.561548"><ele>1606.6666666666665</ele><time>2026-04-25T14:18:28.954Z</time></trkpt><trkpt lat="46.6110747" lon="12.5616573"><ele>1603.0</ele><time>2026-04-25T14:18:30.954Z</time></trkpt><trkpt lat="46.6110382" lon="12.5617353"><ele>1599.3333333333333</ele><time>2026-04-25T14:18:31.953Z</time></trkpt><trkpt lat="46.6110126" lon="12.5618465"><ele>1595.6666666666665</ele><time>2026-04-25T14:18:32.953Z</time></trkpt><trkpt lat="46.6110073" lon="12.5619587"><ele>1592.0</ele><time>2026-04-25T14:18:33.952Z</time></trkpt><trkpt lat="46.6110024" lon="12.5620682"><ele>1591.9999999999998</ele><time>2026-04-25T14:18:34.953Z</time></trkpt><trkpt lat="46.6109951" lon="12.5621614"><ele>1592.0</ele><time>2026-04-25T14:18:35.953Z</time></trkpt><trkpt lat="46.6109573" lon="12.5622834"><ele>1592.0</ele><time>2026-04-25T14:18:37.954Z</time></trkpt><trkpt lat="46.6108903" lon="12.5623056"><ele>1592.0</ele><time>2026-04-25T14:18:39.953Z</time></trkpt><trkpt lat="46.6108162" lon="12.562205"><ele>1591.9999999999998</ele><time>2026-04-25T14:18:41.954Z</time></trkpt><trkpt lat="46.6107062" lon="12.562152"><ele>1592.0</ele><time>2026-04-25T14:18:43.954Z</time></trkpt><trkpt lat="46.6106319" lon="12.5621577"><ele>1591.9999999999998</ele><time>2026-04-25T14:18:44.953Z</time></trkpt><trkpt lat="46.6105565" lon="12.562169"><ele>1592.0</ele><time>2026-04-25T14:18:45.953Z</time></trkpt><trkpt lat="46.6104722" lon="12.5621915"><ele>1592.0</ele><time>2026-04-25T14:18:46.953Z</time></trkpt><trkpt lat="46.6103916" lon="12.5622143"><ele>1592.0</ele><time>2026-04-25T14:18:47.952Z</time></trkpt><trkpt lat="46.6103021" lon="12.5622395"><ele>1591.9999999999998</ele><time>2026-04-25T14:18:48.953Z</time></trkpt><trkpt lat="46.6102199" lon="12.5622676"><ele>1592.0</ele><time>2026-04-25T14:18:49.954Z</time></trkpt><trkpt lat="46.6101348" lon="12.5622902"><ele>1594.8571428571427</ele><time>2026-04-25T14:18:50.955Z</time></trkpt><trkpt lat="46.6100591" lon="12.5623023"><ele>1597.7142857142858</ele><time>2026-04-25T14:18:51.954Z</time></trkpt><trkpt lat="46.609995" lon="12.5623025"><ele>1600.5714285714284</ele><time>2026-04-25T14:18:52.953Z</time></trkpt><trkpt lat="46.6099829" lon="12.5624131"><ele>1603.4285714285713</ele><time>2026-04-25T14:18:55.954Z</time></trkpt><trkpt lat="46.6100544" lon="12.5624897"><ele>1606.2857142857142</ele><time>2026-04-25T14:18:57.953Z</time></trkpt><trkpt lat="46.6101234" lon="12.562513"><ele>1609.142857142857</ele><time>2026-04-25T14:18:58.954Z</time></trkpt><trkpt lat="46.6101849" lon="12.5625468"><ele>1612.0</ele><time>2026-04-25T14:18:59.953Z</time></trkpt><trkpt lat="46.6102497" lon="12.5625601"><ele>1612.0</ele><time>2026-04-25T14:19:00.953Z</time></trkpt><trkpt lat="46.6103624" lon="12.5625778"><ele>1612.0</ele><time>2026-04-25T14:19:02.954Z</time></trkpt><trkpt lat="46.6104448" lon="12.5626129"><ele>1612.0</ele><time>2026-04-25T14:19:04.954Z</time></trkpt><trkpt lat="46.6103762" lon="12.5627096"><ele>1612.0</ele><time>2026-04-25T14:19:09.952Z</time></trkpt><trkpt lat="46.6102623" lon="12.5627273"><ele>1612.0</ele><time>2026-04-25T14:19:11.953Z</time></trkpt><trkpt lat="46.6101496" lon="12.5627762"><ele>1612.0000000000002</ele><time>2026-04-25T14:19:13.953Z</time></trkpt><trkpt lat="46.6100273" lon="12.5628076"><ele>1612.0</ele><time>2026-04-25T14:19:15.954Z</time></trkpt><trkpt lat="46.6099642" lon="12.5628173"><ele>1612.0</ele><time>2026-04-25T14:19:16.955Z</time></trkpt><trkpt lat="46.6098978" lon="12.5628242"><ele>1612.0</ele><time>2026-04-25T14:19:17.952Z</time></trkpt><trkpt lat="46.6098243" lon="12.5628268"><ele>1612.0000000000002</ele><time>2026-04-25T14:19:18.954Z</time></trkpt><trkpt lat="46.6097471" lon="12.5628144"><ele>1612.0</ele><time>2026-04-25T14:19:19.953Z</time></trkpt><trkpt lat="46.6096626" lon="12.5627733"><ele>1612.0000000000002</ele><time>2026-04-25T14:19:20.954Z</time></trkpt><trkpt lat="46.6095902" lon="12.5627174"><ele>1612.0</ele><time>2026-04-25T14:19:21.953Z</time></trkpt><trkpt lat="46.6095183" lon="12.5626597"><ele>1612.0</ele><time>2026-04-25T14:19:22.954Z</time></trkpt><trkpt lat="46.609443" lon="12.5626097"><ele>1612.0</ele><time>2026-04-25T14:19:23.954Z</time></trkpt><trkpt lat="46.6093563" lon="12.5625796"><ele>1612.0000000000002</ele><time>2026-04-25T14:19:24.954Z</time></trkpt><trkpt lat="46.6092692" lon="12.5625517"><ele>1612.0</ele><time>2026-04-25T14:19:25.952Z</time></trkpt><trkpt lat="46.6091724" lon="12.5625303"><ele>1616.25</ele><time>2026-04-25T14:19:26.952Z</time></trkpt><trkpt lat="46.6090602" lon="12.5625195"><ele>1620.5</ele><time>2026-04-25T14:19:27.953Z</time></trkpt><trkpt lat="46.6089435" lon="12.5625104"><ele>1624.75</ele><time>2026-04-25T14:19:28.952Z</time></trkpt><trkpt lat="46.6088249" lon="12.5625084"><ele>1629.0</ele><time>2026-04-25T14:19:29.953Z</time></trkpt><trkpt lat="46.60872" lon="12.5624622"><ele>1632.0</ele><time>2026-04-25T14:19:30.953Z</time></trkpt><trkpt lat="46.6086145" lon="12.5624172"><ele>1635.0</ele><time>2026-04-25T14:19:31.953Z</time></trkpt><trkpt lat="46.6085387" lon="12.5623783"><ele>1638.0</ele><time>2026-04-25T14:19:32.953Z</time></trkpt><trkpt lat="46.6084687" lon="12.5623594"><ele>1641.0</ele><time>2026-04-25T14:19:33.954Z</time></trkpt><trkpt lat="46.608377" lon="12.5623639"><ele>1644.0</ele><time>2026-04-25T14:19:35.953Z</time></trkpt><trkpt lat="46.6083363" lon="12.5624434"><ele>1647.0</ele><time>2026-04-25T14:22:53.953Z</time></trkpt><trkpt lat="46.6083589" lon="12.5625509"><ele>1647.0</ele><time>2026-04-25T14:23:00.953Z</time></trkpt><trkpt lat="46.6084304" lon="12.5626111"><ele>1647.0</ele><time>2026-04-25T14:23:02.953Z</time></trkpt><trkpt lat="46.6085084" lon="12.5626899"><ele>1647.0</ele><time>2026-04-25T14:23:04.954Z</time></trkpt><trkpt lat="46.6086043" lon="12.562801"><ele>1647.0</ele><time>2026-04-25T14:23:06.953Z</time></trkpt><trkpt lat="46.6086774" lon="12.5628541"><ele>1647.0</ele><time>2026-04-25T14:23:07.954Z</time></trkpt><trkpt lat="46.6087384" lon="12.5629093"><ele>1648.857142857143</ele><time>2026-04-25T14:23:08.954Z</time></trkpt><trkpt lat="46.6088146" lon="12.5629648"><ele>1650.7142857142856</ele><time>2026-04-25T14:23:09.954Z</time></trkpt><trkpt lat="46.6088838" lon="12.5629989"><ele>1652.5714285714284</ele><time>2026-04-25T14:23:10.953Z</time></trkpt><trkpt lat="46.6089545" lon="12.563033"><ele>1654.4285714285716</ele><time>2026-04-25T14:23:11.953Z</time></trkpt><trkpt lat="46.6090234" lon="12.5630759"><ele>1656.2857142857142</ele><time>2026-04-25T14:23:12.953Z</time></trkpt><trkpt lat="46.609075" lon="12.5631286"><ele>1658.142857142857</ele><time>2026-04-25T14:23:13.954Z</time></trkpt><trkpt lat="46.609126" lon="12.563196"><ele>1660.0</ele><time>2026-04-25T14:23:14.954Z</time></trkpt><trkpt lat="46.6091822" lon="12.5632839"><ele>1660.0</ele><time>2026-04-25T14:23:15.954Z</time></trkpt><trkpt lat="46.6092369" lon="12.5633842"><ele>1660.0</ele><time>2026-04-25T14:23:16.953Z</time></trkpt><trkpt lat="46.6092974" lon="12.5634966"><ele>1660.0</ele><time>2026-04-25T14:23:17.953Z</time></trkpt><trkpt lat="46.6093632" lon="12.5635996"><ele>1660.0</ele><time>2026-04-25T14:23:18.953Z</time></trkpt><trkpt lat="46.6094408" lon="12.563695"><ele>1660.0</ele><time>2026-04-25T14:23:19.954Z</time></trkpt><trkpt lat="46.6095139" lon="12.5637877"><ele>1662.0000000000002</ele><time>2026-04-25T14:23:20.952Z</time></trkpt><trkpt lat="46.609591" lon="12.5638457"><ele>1664.0</ele><time>2026-04-25T14:23:21.953Z</time></trkpt><trkpt lat="46.6096645" lon="12.5638901"><ele>1666.0</ele><time>2026-04-25T14:23:22.954Z</time></trkpt><trkpt lat="46.6097262" lon="12.5639349"><ele>1668.0</ele><time>2026-04-25T14:23:23.954Z</time></trkpt><trkpt lat="46.609798" lon="12.5640395"><ele>1670.0000000000002</ele><time>2026-04-25T14:23:25.953Z</time></trkpt><trkpt lat="46.609747" lon="12.5641059"><ele>1672.0</ele><time>2026-04-25T14:23:27.954Z</time></trkpt><trkpt lat="46.6096505" lon="12.5640861"><ele>1672.0</ele><time>2026-04-25T14:23:29.952Z</time></trkpt><trkpt lat="46.6095347" lon="12.5640388"><ele>1672.0</ele><time>2026-04-25T14:23:31.953Z</time></trkpt><trkpt lat="46.6094274" lon="12.5639852"><ele>1672.0</ele><time>2026-04-25T14:23:33.953Z</time></trkpt><trkpt lat="46.6093673" lon="12.5639557"><ele>1672.0</ele><time>2026-04-25T14:23:34.953Z</time></trkpt><trkpt lat="46.6092651" lon="12.5639048"><ele>1672.0</ele><time>2026-04-25T14:23:36.954Z</time></trkpt><trkpt lat="46.609168" lon="12.5638666"><ele>1670.0000000000002</ele><time>2026-04-25T14:23:38.954Z</time></trkpt><trkpt lat="46.6090856" lon="12.5638388"><ele>1668.0</ele><time>2026-04-25T14:23:40.954Z</time></trkpt><trkpt lat="46.6090189" lon="12.563802"><ele>1666.0</ele><time>2026-04-25T14:23:42.952Z</time></trkpt><trkpt lat="46.6089507" lon="12.5637603"><ele>1664.0</ele><time>2026-04-25T14:23:44.953Z</time></trkpt><trkpt lat="46.6088699" lon="12.563692"><ele>1662.0000000000002</ele><time>2026-04-25T14:23:46.953Z</time></trkpt><trkpt lat="46.6088092" lon="12.5636598"><ele>1660.0</ele><time>2026-04-25T14:23:47.952Z</time></trkpt><trkpt lat="46.6086916" lon="12.5636278"><ele>1662.2</ele><time>2026-04-25T14:23:49.953Z</time></trkpt><trkpt lat="46.6086172" lon="12.5636301"><ele>1664.4</ele><time>2026-04-25T14:23:50.953Z</time></trkpt><trkpt lat="46.6085377" lon="12.5636308"><ele>1666.6</ele><time>2026-04-25T14:23:51.952Z</time></trkpt><trkpt lat="46.6084348" lon="12.5636295"><ele>1668.8</ele><time>2026-04-25T14:23:52.952Z</time></trkpt><trkpt lat="46.608338" lon="12.5636171"><ele>1671.0</ele><time>2026-04-25T14:23:53.954Z</time></trkpt><trkpt lat="46.6082391" lon="12.5635527"><ele>1671.0</ele><time>2026-04-25T14:23:54.952Z</time></trkpt><trkpt lat="46.6081431" lon="12.5634908"><ele>1671.0</ele><time>2026-04-25T14:23:55.953Z</time></trkpt><trkpt lat="46.6080311" lon="12.5634315"><ele>1671.0</ele><time>2026-04-25T14:23:56.953Z</time></trkpt><trkpt lat="46.6079243" lon="12.5633635"><ele>1671.0</ele><time>2026-04-25T14:23:57.953Z</time></trkpt><trkpt lat="46.6078264" lon="12.5632982"><ele>1671.0</ele><time>2026-04-25T14:23:58.953Z</time></trkpt><trkpt lat="46.6077271" lon="12.563228"><ele>1674.4</ele><time>2026-04-25T14:23:59.953Z</time></trkpt><trkpt lat="46.6076358" lon="12.5631645"><ele>1677.8</ele><time>2026-04-25T14:24:00.953Z</time></trkpt><trkpt lat="46.6075483" lon="12.5630831"><ele>1681.2</ele><time>2026-04-25T14:24:01.953Z</time></trkpt><trkpt lat="46.6074634" lon="12.5629928"><ele>1684.6000000000001</ele><time>2026-04-25T14:24:02.953Z</time></trkpt><trkpt lat="46.6073877" lon="12.5628923"><ele>1688.0</ele><time>2026-04-25T14:24:03.953Z</time></trkpt><trkpt lat="46.6073218" lon="12.5627855"><ele>1687.9999999999998</ele><time>2026-04-25T14:24:04.954Z</time></trkpt><trkpt lat="46.6072615" lon="12.5626873"><ele>1688.0</ele><time>2026-04-25T14:24:05.953Z</time></trkpt><trkpt lat="46.6072139" lon="12.5625873"><ele>1688.0</ele><time>2026-04-25T14:24:06.954Z</time></trkpt><trkpt lat="46.607183" lon="12.5624914"><ele>1688.0</ele><time>2026-04-25T14:24:07.955Z</time></trkpt><trkpt lat="46.6071709" lon="12.562387"><ele>1687.9999999999998</ele><time>2026-04-25T14:24:08.953Z</time></trkpt><trkpt lat="46.6071884" lon="12.5622751"><ele>1688.0</ele><time>2026-04-25T14:24:09.953Z</time></trkpt><trkpt lat="46.6072074" lon="12.5621745"><ele>1688.0</ele><time>2026-04-25T14:24:10.954Z</time></trkpt><trkpt lat="46.6072099" lon="12.5620703"><ele>1688.0</ele><time>2026-04-25T14:24:11.953Z</time></trkpt><trkpt lat="46.6072001" lon="12.5619775"><ele>1688.0</ele><time>2026-04-25T14:24:12.954Z</time></trkpt><trkpt lat="46.6071567" lon="12.5619101"><ele>1688.0</ele><time>2026-04-25T14:24:13.954Z</time></trkpt><trkpt lat="46.6071045" lon="12.5618396"><ele>1688.0</ele><time>2026-04-25T14:24:14.954Z</time></trkpt><trkpt lat="46.6070604" lon="12.561731"><ele>1688.0</ele><time>2026-04-25T14:24:15.953Z</time></trkpt><trkpt lat="46.607043" lon="12.5616021"><ele>1688.0</ele><time>2026-04-25T14:24:16.953Z</time></trkpt><trkpt lat="46.6070238" lon="12.5614532"><ele>1687.0</ele><time>2026-04-25T14:24:17.953Z</time></trkpt><trkpt lat="46.6070134" lon="12.5612829"><ele>1686.0</ele><time>2026-04-25T14:24:18.955Z</time></trkpt><trkpt lat="46.6070105" lon="12.5611114"><ele>1685.0</ele><time>2026-04-25T14:24:19.953Z</time></trkpt><trkpt lat="46.6070176" lon="12.560934"><ele>1684.0</ele><time>2026-04-25T14:24:20.955Z</time></trkpt><trkpt lat="46.6070146" lon="12.5607658"><ele>1686.0</ele><time>2026-04-25T14:24:21.954Z</time></trkpt><trkpt lat="46.6069946" lon="12.5605987"><ele>1688.0</ele><time>2026-04-25T14:24:22.953Z</time></trkpt><trkpt lat="46.6069788" lon="12.5604317"><ele>1690.0</ele><time>2026-04-25T14:24:23.953Z</time></trkpt><trkpt lat="46.6069683" lon="12.5602737"><ele>1692.0</ele><time>2026-04-25T14:24:24.953Z</time></trkpt><trkpt lat="46.6069495" lon="12.5601169"><ele>1698.3333333333333</ele><time>2026-04-25T14:24:25.954Z</time></trkpt><trkpt lat="46.6069296" lon="12.5599655"><ele>1704.6666666666665</ele><time>2026-04-25T14:24:26.954Z</time></trkpt><trkpt lat="46.6069008" lon="12.5598388"><ele>1711.0</ele><time>2026-04-25T14:24:27.952Z</time></trkpt><trkpt lat="46.6068636" lon="12.5597553"><ele>1717.3333333333333</ele><time>2026-04-25T14:24:28.954Z</time></trkpt><trkpt lat="46.6067595" lon="12.5596932"><ele>1723.6666666666665</ele><time>2026-04-25T14:24:30.954Z</time></trkpt><trkpt lat="46.6066936" lon="12.559712"><ele>1730.0</ele><time>2026-04-25T14:24:31.954Z</time></trkpt><trkpt lat="46.6066273" lon="12.5597345"><ele>1729.9999999999998</ele><time>2026-04-25T14:24:32.954Z</time></trkpt><trkpt lat="46.606554" lon="12.559752"><ele>1730.0</ele><time>2026-04-25T14:24:33.954Z</time></trkpt><trkpt lat="46.6064604" lon="12.5598268"><ele>1730.0</ele><time>2026-04-25T14:24:35.953Z</time></trkpt><trkpt lat="46.6064504" lon="12.5599844"><ele>1730.0</ele><time>2026-04-25T14:24:37.954Z</time></trkpt><trkpt lat="46.6064542" lon="12.5600931"><ele>1729.9999999999998</ele><time>2026-04-25T14:24:38.953Z</time></trkpt><trkpt lat="46.6064391" lon="12.5602014"><ele>1730.0</ele><time>2026-04-25T14:24:39.954Z</time></trkpt><trkpt lat="46.606414" lon="12.5603186"><ele>1729.8</ele><time>2026-04-25T14:24:40.954Z</time></trkpt><trkpt lat="46.6063776" lon="12.560445"><ele>1729.6</ele><time>2026-04-25T14:24:41.954Z</time></trkpt><trkpt lat="46.6063307" lon="12.5605822"><ele>1729.4</ele><time>2026-04-25T14:24:42.954Z</time></trkpt><trkpt lat="46.606284" lon="12.5607198"><ele>1729.2</ele><time>2026-04-25T14:24:43.954Z</time></trkpt><trkpt lat="46.6062305" lon="12.5608675"><ele>1729.0</ele><time>2026-04-25T14:24:44.953Z</time></trkpt><trkpt lat="46.6061742" lon="12.5610283"><ele>1735.8000000000002</ele><time>2026-04-25T14:24:45.953Z</time></trkpt><trkpt lat="46.6061255" lon="12.5611701"><ele>1742.6000000000001</ele><time>2026-04-25T14:24:46.954Z</time></trkpt><trkpt lat="46.6060867" lon="12.5612807"><ele>1749.4</ele><time>2026-04-25T14:24:47.954Z</time></trkpt><trkpt lat="46.6060454" lon="12.5613628"><ele>1756.2</ele><time>2026-04-25T14:24:48.954Z</time></trkpt><trkpt lat="46.6059678" lon="12.5613357"><ele>1763.0</ele><time>2026-04-25T14:24:50.953Z</time></trkpt><trkpt lat="46.6059428" lon="12.5611296"><ele>1762.9999999999998</ele><time>2026-04-25T14:24:52.953Z</time></trkpt><trkpt lat="46.6059232" lon="12.5610015"><ele>1763.0</ele><time>2026-04-25T14:24:53.954Z</time></trkpt><trkpt lat="46.6059035" lon="12.5608767"><ele>1763.0</ele><time>2026-04-25T14:24:54.952Z</time></trkpt><trkpt lat="46.6058775" lon="12.5607716"><ele>1763.0</ele><time>2026-04-25T14:24:55.953Z</time></trkpt><trkpt lat="46.605835" lon="12.5606852"><ele>1762.9999999999998</ele><time>2026-04-25T14:24:56.953Z</time></trkpt><trkpt lat="46.605777" lon="12.5606309"><ele>1763.0</ele><time>2026-04-25T14:24:57.953Z</time></trkpt><trkpt lat="46.6057106" lon="12.5605737"><ele>1762.9999999999998</ele><time>2026-04-25T14:24:58.954Z</time></trkpt><trkpt lat="46.6056396" lon="12.560505"><ele>1763.0</ele><time>2026-04-25T14:24:59.953Z</time></trkpt><trkpt lat="46.6055841" lon="12.560415"><ele>1763.0</ele><time>2026-04-25T14:25:00.953Z</time></trkpt><trkpt lat="46.6055485" lon="12.5603152"><ele>1763.0</ele><time>2026-04-25T14:25:01.954Z</time></trkpt><trkpt lat="46.6055084" lon="12.5602186"><ele>1762.9999999999998</ele><time>2026-04-25T14:25:02.953Z</time></trkpt><trkpt lat="46.6054647" lon="12.5601135"><ele>1763.0</ele><time>2026-04-25T14:25:03.954Z</time></trkpt><trkpt lat="46.605413" lon="12.5600186"><ele>1761.5714285714284</ele><time>2026-04-25T14:25:04.953Z</time></trkpt><trkpt lat="46.6053642" lon="12.5599287"><ele>1760.142857142857</ele><time>2026-04-25T14:25:05.953Z</time></trkpt><trkpt lat="46.6052936" lon="12.5598736"><ele>1758.7142857142858</ele><time>2026-04-25T14:25:06.952Z</time></trkpt><trkpt lat="46.6052205" lon="12.5598261"><ele>1757.2857142857142</ele><time>2026-04-25T14:25:07.954Z</time></trkpt><trkpt lat="46.6051548" lon="12.5597937"><ele>1755.857142857143</ele><time>2026-04-25T14:25:08.953Z</time></trkpt><trkpt lat="46.6050838" lon="12.5598187"><ele>1754.4285714285713</ele><time>2026-04-25T14:25:09.953Z</time></trkpt><trkpt lat="46.6050203" lon="12.5598534"><ele>1753.0</ele><time>2026-04-25T14:25:10.954Z</time></trkpt><trkpt lat="46.6049535" lon="12.5599097"><ele>1758.6000000000001</ele><time>2026-04-25T14:25:11.954Z</time></trkpt><trkpt lat="46.6048778" lon="12.5599664"><ele>1764.2000000000003</ele><time>2026-04-25T14:25:12.954Z</time></trkpt><trkpt lat="46.6047859" lon="12.5600144"><ele>1769.8</ele><time>2026-04-25T14:25:13.954Z</time></trkpt><trkpt lat="46.6046906" lon="12.5600384"><ele>1775.4</ele><time>2026-04-25T14:25:14.953Z</time></trkpt><trkpt lat="46.6045888" lon="12.5600516"><ele>1781.0</ele><time>2026-04-25T14:25:15.954Z</time></trkpt><trkpt lat="46.6044872" lon="12.5600573"><ele>1783.3333333333333</ele><time>2026-04-25T14:25:16.954Z</time></trkpt><trkpt lat="46.6043883" lon="12.5600592"><ele>1785.6666666666665</ele><time>2026-04-25T14:25:17.954Z</time></trkpt><trkpt lat="46.604294" lon="12.5600618"><ele>1788.0</ele><time>2026-04-25T14:25:18.954Z</time></trkpt><trkpt lat="46.6042157" lon="12.5600467"><ele>1790.3333333333335</ele><time>2026-04-25T14:25:19.953Z</time></trkpt><trkpt lat="46.6041318" lon="12.5600247"><ele>1792.6666666666667</ele><time>2026-04-25T14:25:20.954Z</time></trkpt><trkpt lat="46.6040631" lon="12.5599684"><ele>1795.0</ele><time>2026-04-25T14:25:21.953Z</time></trkpt><trkpt lat="46.6040022" lon="12.5599073"><ele>1795.0000000000002</ele><time>2026-04-25T14:25:22.953Z</time></trkpt><trkpt lat="46.6039881" lon="12.5598061"><ele>1795.0</ele><time>2026-04-25T14:25:23.953Z</time></trkpt><trkpt lat="46.6039808" lon="12.5596978"><ele>1795.0</ele><time>2026-04-25T14:25:24.953Z</time></trkpt><trkpt lat="46.603985" lon="12.5595713"><ele>1795.0</ele><time>2026-04-25T14:25:25.954Z</time></trkpt><trkpt lat="46.6039911" lon="12.5594464"><ele>1795.0000000000002</ele><time>2026-04-25T14:25:26.954Z</time></trkpt><trkpt lat="46.6039825" lon="12.5593254"><ele>1795.0</ele><time>2026-04-25T14:25:27.953Z</time></trkpt><trkpt lat="46.6039613" lon="12.5592113"><ele>1791.5000000000002</ele><time>2026-04-25T14:25:28.952Z</time></trkpt><trkpt lat="46.6039284" lon="12.5591214"><ele>1788.0</ele><time>2026-04-25T14:25:29.953Z</time></trkpt><trkpt lat="46.6038816" lon="12.5590533"><ele>1784.5</ele><time>2026-04-25T14:25:30.953Z</time></trkpt><trkpt lat="46.6037941" lon="12.5590101"><ele>1781.0</ele><time>2026-04-25T14:25:31.953Z</time></trkpt><trkpt lat="46.6037085" lon="12.5589598"><ele>1777.5000000000002</ele><time>2026-04-25T14:25:32.954Z</time></trkpt><trkpt lat="46.6036202" lon="12.5589231"><ele>1774.0</ele><time>2026-04-25T14:25:33.953Z</time></trkpt><trkpt lat="46.6035259" lon="12.5588762"><ele>1778.3333333333335</ele><time>2026-04-25T14:25:34.954Z</time></trkpt><trkpt lat="46.6034388" lon="12.5588211"><ele>1782.6666666666667</ele><time>2026-04-25T14:25:35.954Z</time></trkpt><trkpt lat="46.6033619" lon="12.5587564"><ele>1787.0</ele><time>2026-04-25T14:25:36.955Z</time></trkpt><trkpt lat="46.603288" lon="12.5586956"><ele>1791.3333333333335</ele><time>2026-04-25T14:25:37.953Z</time></trkpt><trkpt lat="46.6032162" lon="12.5586342"><ele>1795.6666666666667</ele><time>2026-04-25T14:25:38.954Z</time></trkpt><trkpt lat="46.6031408" lon="12.5585489"><ele>1800.0</ele><time>2026-04-25T14:25:39.954Z</time></trkpt><trkpt lat="46.603075" lon="12.5584518"><ele>1800.0</ele><time>2026-04-25T14:25:40.953Z</time></trkpt><trkpt lat="46.6030124" lon="12.5583451"><ele>1800.0</ele><time>2026-04-25T14:25:41.953Z</time></trkpt><trkpt lat="46.6029641" lon="12.5582297"><ele>1800.0</ele><time>2026-04-25T14:25:42.953Z</time></trkpt><trkpt lat="46.6029335" lon="12.5581133"><ele>1800.0</ele><time>2026-04-25T14:25:43.953Z</time></trkpt><trkpt lat="46.602908" lon="12.5579925"><ele>1800.0</ele><time>2026-04-25T14:25:44.954Z</time></trkpt><trkpt lat="46.6028894" lon="12.5578798"><ele>1800.0</ele><time>2026-04-25T14:25:45.954Z</time></trkpt><trkpt lat="46.6028761" lon="12.5577617"><ele>1797.3333333333333</ele><time>2026-04-25T14:25:46.954Z</time></trkpt><trkpt lat="46.6028695" lon="12.5576533"><ele>1794.6666666666665</ele><time>2026-04-25T14:25:47.953Z</time></trkpt><trkpt lat="46.6028596" lon="12.5574965"><ele>1792.0</ele><time>2026-04-25T14:25:49.954Z</time></trkpt><trkpt lat="46.6028217" lon="12.557386"><ele>1789.3333333333333</ele><time>2026-04-25T14:25:51.953Z</time></trkpt><trkpt lat="46.6027815" lon="12.5572922"><ele>1786.6666666666665</ele><time>2026-04-25T14:25:53.954Z</time></trkpt><trkpt lat="46.6027801" lon="12.5571988"><ele>1784.0</ele><time>2026-04-25T14:25:55.952Z</time></trkpt><trkpt lat="46.6028204" lon="12.5570985"><ele>1784.4999999999998</ele><time>2026-04-25T14:25:57.954Z</time></trkpt><trkpt lat="46.6028487" lon="12.5569304"><ele>1785.0</ele><time>2026-04-25T14:25:59.954Z</time></trkpt><trkpt lat="46.6028671" lon="12.5568146"><ele>1785.5</ele><time>2026-04-25T14:26:00.953Z</time></trkpt><trkpt lat="46.6028836" lon="12.5567033"><ele>1786.0</ele><time>2026-04-25T14:26:01.953Z</time></trkpt><trkpt lat="46.6029029" lon="12.5565908"><ele>1786.4999999999998</ele><time>2026-04-25T14:26:02.954Z</time></trkpt><trkpt lat="46.602924" lon="12.5564748"><ele>1787.0</ele><time>2026-04-25T14:26:03.954Z</time></trkpt><trkpt lat="46.6029402" lon="12.5563612"><ele>1786.9999999999998</ele><time>2026-04-25T14:26:04.954Z</time></trkpt><trkpt lat="46.602923" lon="12.5562525"><ele>1787.0</ele><time>2026-04-25T14:26:05.954Z</time></trkpt><trkpt lat="46.6029068" lon="12.556144"><ele>1787.0</ele><time>2026-04-25T14:26:06.953Z</time></trkpt><trkpt lat="46.6028914" lon="12.5560333"><ele>1787.0</ele><time>2026-04-25T14:26:07.953Z</time></trkpt><trkpt lat="46.6028727" lon="12.5559271"><ele>1786.9999999999998</ele><time>2026-04-25T14:26:08.953Z</time></trkpt><trkpt lat="46.6028576" lon="12.5558165"><ele>1787.0</ele><time>2026-04-25T14:26:09.954Z</time></trkpt><trkpt lat="46.6028357" lon="12.5557016"><ele>1791.6666666666665</ele><time>2026-04-25T14:26:10.953Z</time></trkpt><trkpt lat="46.6028158" lon="12.5555918"><ele>1796.3333333333333</ele><time>2026-04-25T14:26:11.955Z</time></trkpt><trkpt lat="46.6027953" lon="12.5554809"><ele>1801.0</ele><time>2026-04-25T14:26:12.955Z</time></trkpt><trkpt lat="46.6027755" lon="12.5553703"><ele>1805.6666666666665</ele><time>2026-04-25T14:26:13.955Z</time></trkpt><trkpt lat="46.6027499" lon="12.555263"><ele>1810.3333333333333</ele><time>2026-04-25T14:26:14.953Z</time></trkpt><trkpt lat="46.6027122" lon="12.5551501"><ele>1815.0</ele><time>2026-04-25T14:26:15.954Z</time></trkpt><trkpt lat="46.6026727" lon="12.5550367"><ele>1815.0</ele><time>2026-04-25T14:26:16.952Z</time></trkpt><trkpt lat="46.6026361" lon="12.5549281"><ele>1815.0</ele><time>2026-04-25T14:26:17.954Z</time></trkpt><trkpt lat="46.6025997" lon="12.5548071"><ele>1815.0</ele><time>2026-04-25T14:26:18.954Z</time></trkpt><trkpt lat="46.602567" lon="12.5546923"><ele>1815.0</ele><time>2026-04-25T14:26:19.953Z</time></trkpt><trkpt lat="46.6025407" lon="12.5545709"><ele>1815.0</ele><time>2026-04-25T14:26:20.952Z</time></trkpt><trkpt lat="46.6025261" lon="12.5544387"><ele>1815.0</ele><time>2026-04-25T14:26:21.953Z</time></trkpt><trkpt lat="46.6025299" lon="12.5543103"><ele>1813.3333333333333</ele><time>2026-04-25T14:26:22.954Z</time></trkpt><trkpt lat="46.6025436" lon="12.5541725"><ele>1811.6666666666665</ele><time>2026-04-25T14:26:23.955Z</time></trkpt><trkpt lat="46.6025559" lon="12.5540493"><ele>1810.0</ele><time>2026-04-25T14:26:24.952Z</time></trkpt><trkpt lat="46.602557" lon="12.5539225"><ele>1808.3333333333333</ele><time>2026-04-25T14:26:25.953Z</time></trkpt><trkpt lat="46.602553" lon="12.5538088"><ele>1806.6666666666665</ele><time>2026-04-25T14:26:26.953Z</time></trkpt><trkpt lat="46.6025431" lon="12.5537028"><ele>1805.0</ele><time>2026-04-25T14:26:27.954Z</time></trkpt><trkpt lat="46.6025322" lon="12.5535987"><ele>1804.8571428571427</ele><time>2026-04-25T14:26:28.954Z</time></trkpt><trkpt lat="46.6025255" lon="12.5534895"><ele>1804.7142857142858</ele><time>2026-04-25T14:26:29.954Z</time></trkpt><trkpt lat="46.6025232" lon="12.5533763"><ele>1804.5714285714284</ele><time>2026-04-25T14:26:30.954Z</time></trkpt><trkpt lat="46.6025269" lon="12.5532699"><ele>1804.4285714285713</ele><time>2026-04-25T14:26:31.953Z</time></trkpt><trkpt lat="46.6025372" lon="12.553165"><ele>1804.2857142857142</ele><time>2026-04-25T14:26:32.953Z</time></trkpt><trkpt lat="46.6025533" lon="12.5530607"><ele>1804.142857142857</ele><time>2026-04-25T14:26:33.953Z</time></trkpt><trkpt lat="46.6025712" lon="12.5529568"><ele>1804.0</ele><time>2026-04-25T14:26:34.954Z</time></trkpt><trkpt lat="46.6025817" lon="12.5528516"><ele>1800.8000000000002</ele><time>2026-04-25T14:26:35.953Z</time></trkpt><trkpt lat="46.6025876" lon="12.5527556"><ele>1797.6000000000001</ele><time>2026-04-25T14:26:36.953Z</time></trkpt><trkpt lat="46.6025593" lon="12.5526039"><ele>1794.4</ele><time>2026-04-25T14:26:38.953Z</time></trkpt><trkpt lat="46.6024514" lon="12.5524802"><ele>1791.2</ele><time>2026-04-25T14:26:40.954Z</time></trkpt><trkpt lat="46.6023778" lon="12.5524199"><ele>1788.0</ele><time>2026-04-25T14:26:41.953Z</time></trkpt><trkpt lat="46.6022946" lon="12.5523611"><ele>1788.0</ele><time>2026-04-25T14:26:42.953Z</time></trkpt><trkpt lat="46.6022072" lon="12.552297"><ele>1788.0000000000002</ele><time>2026-04-25T14:26:43.954Z</time></trkpt><trkpt lat="46.602129" lon="12.5522153"><ele>1788.0000000000002</ele><time>2026-04-25T14:26:44.953Z</time></trkpt><trkpt lat="46.6020579" lon="12.552118"><ele>1788.0</ele><time>2026-04-25T14:26:45.954Z</time></trkpt><trkpt lat="46.6020192" lon="12.55198"><ele>1788.0</ele><time>2026-04-25T14:26:46.953Z</time></trkpt><trkpt lat="46.6019679" lon="12.5518384"><ele>1791.4</ele><time>2026-04-25T14:26:47.954Z</time></trkpt><trkpt lat="46.6019245" lon="12.5517024"><ele>1794.8000000000002</ele><time>2026-04-25T14:26:48.954Z</time></trkpt><trkpt lat="46.6018871" lon="12.5515698"><ele>1798.2</ele><time>2026-04-25T14:26:49.953Z</time></trkpt><trkpt lat="46.6018447" lon="12.5514468"><ele>1801.6</ele><time>2026-04-25T14:26:50.953Z</time></trkpt><trkpt lat="46.6017925" lon="12.5513338"><ele>1805.0</ele><time>2026-04-25T14:26:51.954Z</time></trkpt><trkpt lat="46.6017345" lon="12.5512409"><ele>1803.3333333333333</ele><time>2026-04-25T14:26:52.954Z</time></trkpt><trkpt lat="46.6016782" lon="12.5511599"><ele>1801.6666666666665</ele><time>2026-04-25T14:26:53.952Z</time></trkpt><trkpt lat="46.6016335" lon="12.5510736"><ele>1800.0</ele><time>2026-04-25T14:26:54.954Z</time></trkpt><trkpt lat="46.6016043" lon="12.5509709"><ele>1798.3333333333335</ele><time>2026-04-25T14:26:55.954Z</time></trkpt><trkpt lat="46.6015983" lon="12.5508476"><ele>1796.6666666666667</ele><time>2026-04-25T14:26:56.953Z</time></trkpt><trkpt lat="46.6015962" lon="12.5507307"><ele>1795.0</ele><time>2026-04-25T14:26:57.953Z</time></trkpt><trkpt lat="46.6015839" lon="12.5506145"><ele>1795.0000000000002</ele><time>2026-04-25T14:26:58.954Z</time></trkpt><trkpt lat="46.6015634" lon="12.5505092"><ele>1795.0</ele><time>2026-04-25T14:26:59.953Z</time></trkpt><trkpt lat="46.6015212" lon="12.5504278"><ele>1795.0</ele><time>2026-04-25T14:27:00.954Z</time></trkpt><trkpt lat="46.6014704" lon="12.5503636"><ele>1795.0</ele><time>2026-04-25T14:27:01.955Z</time></trkpt><trkpt lat="46.6013968" lon="12.5503394"><ele>1795.0000000000002</ele><time>2026-04-25T14:27:02.952Z</time></trkpt><trkpt lat="46.6013192" lon="12.5503357"><ele>1795.0</ele><time>2026-04-25T14:27:03.953Z</time></trkpt><trkpt lat="46.6012322" lon="12.5503525"><ele>1794.1428571428573</ele><time>2026-04-25T14:27:04.954Z</time></trkpt><trkpt lat="46.6011477" lon="12.5503717"><ele>1793.2857142857144</ele><time>2026-04-25T14:27:05.952Z</time></trkpt><trkpt lat="46.6010689" lon="12.5503906"><ele>1792.4285714285716</ele><time>2026-04-25T14:27:06.952Z</time></trkpt><trkpt lat="46.6009895" lon="12.5504045"><ele>1791.5714285714287</ele><time>2026-04-25T14:27:07.954Z</time></trkpt><trkpt lat="46.6009213" lon="12.5503915"><ele>1790.7142857142858</ele><time>2026-04-25T14:27:08.954Z</time></trkpt><trkpt lat="46.6008555" lon="12.5503937"><ele>1789.8571428571431</ele><time>2026-04-25T14:27:09.954Z</time></trkpt><trkpt lat="46.6007924" lon="12.5503991"><ele>1789.0</ele><time>2026-04-25T14:27:10.954Z</time></trkpt><trkpt lat="46.6007298" lon="12.5504211"><ele>1790.8571428571431</ele><time>2026-04-25T14:27:11.954Z</time></trkpt><trkpt lat="46.6006685" lon="12.550508"><ele>1792.7142857142858</ele><time>2026-04-25T14:27:13.954Z</time></trkpt><trkpt lat="46.6006537" lon="12.5506032"><ele>1794.5714285714287</ele><time>2026-04-25T14:27:14.954Z</time></trkpt><trkpt lat="46.6006313" lon="12.5507029"><ele>1796.4285714285716</ele><time>2026-04-25T14:27:15.953Z</time></trkpt><trkpt lat="46.6006085" lon="12.5508075"><ele>1798.2857142857144</ele><time>2026-04-25T14:27:16.953Z</time></trkpt><trkpt lat="46.6005833" lon="12.5508959"><ele>1800.1428571428573</ele><time>2026-04-25T14:27:17.953Z</time></trkpt><trkpt lat="46.6005511" lon="12.550983"><ele>1802.0</ele><time>2026-04-25T14:27:18.954Z</time></trkpt><trkpt lat="46.6005388" lon="12.5510808"><ele>1802.0</ele><time>2026-04-25T14:27:19.954Z</time></trkpt><trkpt lat="46.6005357" lon="12.5511748"><ele>1801.9999999999998</ele><time>2026-04-25T14:27:20.954Z</time></trkpt><trkpt lat="46.6005363" lon="12.5512731"><ele>1801.9999999999998</ele><time>2026-04-25T14:27:21.953Z</time></trkpt><trkpt lat="46.600585" lon="12.551425"><ele>1802.0</ele><time>2026-04-25T14:27:23.954Z</time></trkpt><trkpt lat="46.6006454" lon="12.5515481"><ele>1802.0</ele><time>2026-04-25T14:27:25.954Z</time></trkpt><trkpt lat="46.6006786" lon="12.5517036"><ele>1805.5</ele><time>2026-04-25T14:27:27.954Z</time></trkpt><trkpt lat="46.6006993" lon="12.5518808"><ele>1809.0</ele><time>2026-04-25T14:27:29.954Z</time></trkpt><trkpt lat="46.6007287" lon="12.5520242"><ele>1812.5</ele><time>2026-04-25T14:27:31.954Z</time></trkpt><trkpt lat="46.60079" lon="12.5521679"><ele>1816.0</ele><time>2026-04-25T14:27:33.952Z</time></trkpt><trkpt lat="46.6008678" lon="12.5523096"><ele>1817.5714285714287</ele><time>2026-04-25T14:27:35.954Z</time></trkpt><trkpt lat="46.6009208" lon="12.5523709"><ele>1819.1428571428573</ele><time>2026-04-25T14:27:36.955Z</time></trkpt><trkpt lat="46.6009813" lon="12.5524319"><ele>1820.7142857142858</ele><time>2026-04-25T14:27:37.953Z</time></trkpt><trkpt lat="46.6010413" lon="12.552498"><ele>1822.2857142857142</ele><time>2026-04-25T14:27:38.954Z</time></trkpt><trkpt lat="46.6010798" lon="12.5525719"><ele>1823.857142857143</ele><time>2026-04-25T14:27:39.954Z</time></trkpt><trkpt lat="46.6010987" lon="12.5526708"><ele>1825.4285714285716</ele><time>2026-04-25T14:27:40.954Z</time></trkpt><trkpt lat="46.6011054" lon="12.5527824"><ele>1827.0</ele><time>2026-04-25T14:27:41.953Z</time></trkpt><trkpt lat="46.6010967" lon="12.5528963"><ele>1828.6666666666667</ele><time>2026-04-25T14:27:42.953Z</time></trkpt><trkpt lat="46.6010777" lon="12.5530055"><ele>1830.3333333333335</ele><time>2026-04-25T14:27:43.953Z</time></trkpt><trkpt lat="46.6010365" lon="12.5530992"><ele>1832.0</ele><time>2026-04-25T14:27:44.953Z</time></trkpt><trkpt lat="46.6009854" lon="12.5531858"><ele>1833.6666666666667</ele><time>2026-04-25T14:27:45.953Z</time></trkpt><trkpt lat="46.6009358" lon="12.5532492"><ele>1835.3333333333335</ele><time>2026-04-25T14:27:46.953Z</time></trkpt><trkpt lat="46.6008969" lon="12.5533218"><ele>1837.0</ele><time>2026-04-25T14:27:47.952Z</time></trkpt><trkpt lat="46.6009146" lon="12.553457"><ele>1837.0000000000002</ele><time>2026-04-25T14:27:49.953Z</time></trkpt><trkpt lat="46.6009849" lon="12.5534719"><ele>1837.0</ele><time>2026-04-25T14:27:50.953Z</time></trkpt><trkpt lat="46.601045" lon="12.5535015"><ele>1837.0</ele><time>2026-04-25T14:27:51.954Z</time></trkpt><trkpt lat="46.6011142" lon="12.5535523"><ele>1837.0</ele><time>2026-04-25T14:27:52.955Z</time></trkpt><trkpt lat="46.6011781" lon="12.5535927"><ele>1837.0000000000002</ele><time>2026-04-25T14:27:53.954Z</time></trkpt><trkpt lat="46.6012611" lon="12.5536859"><ele>1837.0</ele><time>2026-04-25T14:27:55.954Z</time></trkpt><trkpt lat="46.6012509" lon="12.5538307"><ele>1839.0</ele><time>2026-04-25T14:27:57.954Z</time></trkpt><trkpt lat="46.6011734" lon="12.5540004"><ele>1840.9999999999998</ele><time>2026-04-25T14:27:59.953Z</time></trkpt><trkpt lat="46.6011223" lon="12.5541021"><ele>1842.9999999999998</ele><time>2026-04-25T14:28:00.953Z</time></trkpt><trkpt lat="46.6010675" lon="12.5542103"><ele>1845.0</ele><time>2026-04-25T14:28:01.954Z</time></trkpt><trkpt lat="46.6010042" lon="12.5543183"><ele>1847.0</ele><time>2026-04-25T14:28:02.953Z</time></trkpt><trkpt lat="46.6009408" lon="12.5544231"><ele>1847.1666666666665</ele><time>2026-04-25T14:28:03.953Z</time></trkpt><trkpt lat="46.6008841" lon="12.5545212"><ele>1847.3333333333333</ele><time>2026-04-25T14:28:04.954Z</time></trkpt><trkpt lat="46.6008307" lon="12.554619"><ele>1847.5</ele><time>2026-04-25T14:28:05.953Z</time></trkpt><trkpt lat="46.600782" lon="12.5547231"><ele>1847.6666666666665</ele><time>2026-04-25T14:28:06.955Z</time></trkpt><trkpt lat="46.6007375" lon="12.5548208"><ele>1847.8333333333333</ele><time>2026-04-25T14:28:07.954Z</time></trkpt><trkpt lat="46.6006967" lon="12.5549172"><ele>1848.0</ele><time>2026-04-25T14:28:08.953Z</time></trkpt><trkpt lat="46.6006473" lon="12.5550096"><ele>1850.5</ele><time>2026-04-25T14:28:09.955Z</time></trkpt><trkpt lat="46.6005936" lon="12.5551018"><ele>1853.0</ele><time>2026-04-25T14:28:10.954Z</time></trkpt><trkpt lat="46.6005426" lon="12.5552027"><ele>1855.5</ele><time>2026-04-25T14:28:11.953Z</time></trkpt><trkpt lat="46.6004915" lon="12.5552954"><ele>1858.0</ele><time>2026-04-25T14:28:12.953Z</time></trkpt><trkpt lat="46.6004311" lon="12.5553753"><ele>1860.5</ele><time>2026-04-25T14:28:13.954Z</time></trkpt><trkpt lat="46.6003537" lon="12.5554416"><ele>1863.0</ele><time>2026-04-25T14:28:14.952Z</time></trkpt><trkpt lat="46.6002674" lon="12.555508"><ele>1864.6000000000001</ele><time>2026-04-25T14:28:15.954Z</time></trkpt><trkpt lat="46.6001783" lon="12.5555708"><ele>1866.2000000000003</ele><time>2026-04-25T14:28:16.953Z</time></trkpt><trkpt lat="46.6000896" lon="12.5556238"><ele>1867.8</ele><time>2026-04-25T14:28:17.953Z</time></trkpt><trkpt lat="46.6000009" lon="12.5556641"><ele>1869.4</ele><time>2026-04-25T14:28:18.953Z</time></trkpt><trkpt lat="46.5999143" lon="12.5557007"><ele>1871.0</ele><time>2026-04-25T14:28:19.952Z</time></trkpt><trkpt lat="46.5998299" lon="12.5557411"><ele>1871.0</ele><time>2026-04-25T14:28:20.954Z</time></trkpt><trkpt lat="46.5997494" lon="12.5558043"><ele>1871.0</ele><time>2026-04-25T14:28:21.955Z</time></trkpt><trkpt lat="46.5996748" lon="12.5558969"><ele>1871.0</ele><time>2026-04-25T14:28:22.953Z</time></trkpt><trkpt lat="46.5996014" lon="12.5560026"><ele>1871.0</ele><time>2026-04-25T14:28:23.953Z</time></trkpt><trkpt lat="46.5995274" lon="12.55611"><ele>1871.0</ele><time>2026-04-25T14:28:24.954Z</time></trkpt><trkpt lat="46.5994585" lon="12.5562232"><ele>1873.1999999999998</ele><time>2026-04-25T14:28:25.952Z</time></trkpt><trkpt lat="46.599389" lon="12.5563363"><ele>1875.3999999999999</ele><time>2026-04-25T14:28:26.954Z</time></trkpt><trkpt lat="46.5993154" lon="12.5564356"><ele>1877.6</ele><time>2026-04-25T14:28:27.953Z</time></trkpt><trkpt lat="46.599243" lon="12.5565306"><ele>1879.8</ele><time>2026-04-25T14:28:28.954Z</time></trkpt><trkpt lat="46.5991704" lon="12.5566311"><ele>1882.0</ele><time>2026-04-25T14:28:29.953Z</time></trkpt><trkpt lat="46.5990947" lon="12.5567306"><ele>1882.0000000000002</ele><time>2026-04-25T14:28:30.953Z</time></trkpt><trkpt lat="46.5990202" lon="12.5568286"><ele>1882.0</ele><time>2026-04-25T14:28:31.953Z</time></trkpt><trkpt lat="46.5989558" lon="12.5569057"><ele>1882.0</ele><time>2026-04-25T14:28:32.952Z</time></trkpt><trkpt lat="46.598905" lon="12.55699"><ele>1882.0</ele><time>2026-04-25T14:28:33.953Z</time></trkpt><trkpt lat="46.5988597" lon="12.5570775"><ele>1882.0000000000002</ele><time>2026-04-25T14:28:34.954Z</time></trkpt><trkpt lat="46.5988159" lon="12.5571683"><ele>1882.0</ele><time>2026-04-25T14:28:35.953Z</time></trkpt><trkpt lat="46.5987814" lon="12.5572743"><ele>1882.0</ele><time>2026-04-25T14:28:36.954Z</time></trkpt><trkpt lat="46.5987345" lon="12.557382"><ele>1881.9999999999998</ele><time>2026-04-25T14:28:37.954Z</time></trkpt><trkpt lat="46.5986816" lon="12.5574951"><ele>1881.9999999999998</ele><time>2026-04-25T14:28:38.953Z</time></trkpt><trkpt lat="46.5986221" lon="12.5575998"><ele>1882.0</ele><time>2026-04-25T14:28:39.955Z</time></trkpt><trkpt lat="46.5985673" lon="12.5577109"><ele>1882.0</ele><time>2026-04-25T14:28:40.953Z</time></trkpt><trkpt lat="46.5985142" lon="12.5578147"><ele>1885.1666666666667</ele><time>2026-04-25T14:28:41.955Z</time></trkpt><trkpt lat="46.5984628" lon="12.5578977"><ele>1888.3333333333335</ele><time>2026-04-25T14:28:42.954Z</time></trkpt><trkpt lat="46.5984074" lon="12.5579753"><ele>1891.5</ele><time>2026-04-25T14:28:43.953Z</time></trkpt><trkpt lat="46.5983401" lon="12.5580452"><ele>1894.6666666666665</ele><time>2026-04-25T14:28:44.954Z</time></trkpt><trkpt lat="46.5982718" lon="12.5581035"><ele>1897.8333333333333</ele><time>2026-04-25T14:28:45.953Z</time></trkpt><trkpt lat="46.5982095" lon="12.5581579"><ele>1901.0</ele><time>2026-04-25T14:28:46.954Z</time></trkpt><trkpt lat="46.5981479" lon="12.5582162"><ele>1900.9999999999998</ele><time>2026-04-25T14:28:47.953Z</time></trkpt><trkpt lat="46.5980781" lon="12.5582682"><ele>1901.0</ele><time>2026-04-25T14:28:48.954Z</time></trkpt><trkpt lat="46.5980223" lon="12.5583127"><ele>1901.0</ele><time>2026-04-25T14:28:49.953Z</time></trkpt><trkpt lat="46.5979665" lon="12.5583631"><ele>1901.0</ele><time>2026-04-25T14:28:50.953Z</time></trkpt><trkpt lat="46.5979124" lon="12.5584101"><ele>1900.9999999999998</ele><time>2026-04-25T14:28:51.954Z</time></trkpt><trkpt lat="46.597812" lon="12.5585043"><ele>1901.0</ele><time>2026-04-25T14:28:53.955Z</time></trkpt><trkpt lat="46.5977544" lon="12.5585482"><ele>1899.3333333333333</ele><time>2026-04-25T14:28:54.954Z</time></trkpt><trkpt lat="46.5976539" lon="12.5586555"><ele>1897.6666666666665</ele><time>2026-04-25T14:28:56.954Z</time></trkpt><trkpt lat="46.597602" lon="12.5587189"><ele>1896.0</ele><time>2026-04-25T14:28:57.953Z</time></trkpt><trkpt lat="46.5975311" lon="12.5587647"><ele>1894.3333333333335</ele><time>2026-04-25T14:28:58.952Z</time></trkpt><trkpt lat="46.5974541" lon="12.558782"><ele>1892.6666666666667</ele><time>2026-04-25T14:28:59.953Z</time></trkpt><trkpt lat="46.5973711" lon="12.5588011"><ele>1891.0</ele><time>2026-04-25T14:29:00.954Z</time></trkpt><trkpt lat="46.5972958" lon="12.5588093"><ele>1891.0000000000002</ele><time>2026-04-25T14:29:01.954Z</time></trkpt><trkpt lat="46.5972221" lon="12.5588315"><ele>1891.0</ele><time>2026-04-25T14:29:02.953Z</time></trkpt><trkpt lat="46.5971562" lon="12.5588798"><ele>1891.0</ele><time>2026-04-25T14:29:03.953Z</time></trkpt><trkpt lat="46.5970889" lon="12.5589281"><ele>1891.0</ele><time>2026-04-25T14:29:04.954Z</time></trkpt><trkpt lat="46.5970229" lon="12.5589857"><ele>1891.0000000000002</ele><time>2026-04-25T14:29:05.953Z</time></trkpt><trkpt lat="46.596956" lon="12.5590424"><ele>1891.0</ele><time>2026-04-25T14:29:06.954Z</time></trkpt><trkpt lat="46.5968895" lon="12.5590899"><ele>1891.3333333333335</ele><time>2026-04-25T14:29:07.953Z</time></trkpt><trkpt lat="46.5968243" lon="12.5591552"><ele>1891.6666666666667</ele><time>2026-04-25T14:29:08.953Z</time></trkpt><trkpt lat="46.5967469" lon="12.5591919"><ele>1892.0</ele><time>2026-04-25T14:29:09.954Z</time></trkpt><trkpt lat="46.5966724" lon="12.5592207"><ele>1892.3333333333335</ele><time>2026-04-25T14:29:10.953Z</time></trkpt><trkpt lat="46.5965937" lon="12.5592446"><ele>1892.6666666666667</ele><time>2026-04-25T14:29:11.953Z</time></trkpt><trkpt lat="46.5965176" lon="12.5592726"><ele>1893.0</ele><time>2026-04-25T14:29:12.954Z</time></trkpt><trkpt lat="46.5964451" lon="12.5592981"><ele>1893.0</ele><time>2026-04-25T14:29:13.953Z</time></trkpt><trkpt lat="46.5963778" lon="12.5593049"><ele>1893.0</ele><time>2026-04-25T14:29:14.952Z</time></trkpt><trkpt lat="46.5962537" lon="12.5593436"><ele>1893.0</ele><time>2026-04-25T14:29:16.955Z</time></trkpt><trkpt lat="46.5961867" lon="12.5593869"><ele>1893.0</ele><time>2026-04-25T14:29:17.955Z</time></trkpt><trkpt lat="46.5961236" lon="12.5594256"><ele>1893.0</ele><time>2026-04-25T14:29:18.954Z</time></trkpt><trkpt lat="46.5960598" lon="12.5594439"><ele>1893.0</ele><time>2026-04-25T14:29:19.953Z</time></trkpt><trkpt lat="46.5959988" lon="12.5594668"><ele>1891.8333333333333</ele><time>2026-04-25T14:29:20.954Z</time></trkpt><trkpt lat="46.5959346" lon="12.5595033"><ele>1890.6666666666665</ele><time>2026-04-25T14:29:21.954Z</time></trkpt><trkpt lat="46.5958617" lon="12.5595452"><ele>1889.5</ele><time>2026-04-25T14:29:22.955Z</time></trkpt><trkpt lat="46.5957925" lon="12.5595856"><ele>1888.3333333333333</ele><time>2026-04-25T14:29:23.952Z</time></trkpt><trkpt lat="46.5957182" lon="12.5596319"><ele>1887.1666666666665</ele><time>2026-04-25T14:29:24.953Z</time></trkpt><trkpt lat="46.595641" lon="12.5596779"><ele>1886.0</ele><time>2026-04-25T14:29:25.953Z</time></trkpt><trkpt lat="46.5955617" lon="12.5597214"><ele>1885.9999999999998</ele><time>2026-04-25T14:29:26.953Z</time></trkpt><trkpt lat="46.5954785" lon="12.5597711"><ele>1886.0</ele><time>2026-04-25T14:29:27.952Z</time></trkpt><trkpt lat="46.5954" lon="12.5598263"><ele>1886.0</ele><time>2026-04-25T14:29:28.953Z</time></trkpt><trkpt lat="46.5953213" lon="12.5598749"><ele>1886.0</ele><time>2026-04-25T14:29:29.955Z</time></trkpt><trkpt lat="46.5952461" lon="12.5599207"><ele>1885.9999999999998</ele><time>2026-04-25T14:29:30.953Z</time></trkpt><trkpt lat="46.595165" lon="12.5599736"><ele>1886.0</ele><time>2026-04-25T14:29:31.953Z</time></trkpt><trkpt lat="46.5950828" lon="12.5600355"><ele>1884.8333333333333</ele><time>2026-04-25T14:29:32.953Z</time></trkpt><trkpt lat="46.5950042" lon="12.5600933"><ele>1883.6666666666665</ele><time>2026-04-25T14:29:33.953Z</time></trkpt><trkpt lat="46.5949168" lon="12.5601389"><ele>1882.5</ele><time>2026-04-25T14:29:34.954Z</time></trkpt><trkpt lat="46.5948498" lon="12.5602172"><ele>1881.3333333333335</ele><time>2026-04-25T14:29:35.953Z</time></trkpt><trkpt lat="46.5947835" lon="12.5602802"><ele>1880.1666666666667</ele><time>2026-04-25T14:29:36.953Z</time></trkpt><trkpt lat="46.5947008" lon="12.5603244"><ele>1879.0</ele><time>2026-04-25T14:29:37.953Z</time></trkpt><trkpt lat="46.5946136" lon="12.5603604"><ele>1879.2</ele><time>2026-04-25T14:29:38.954Z</time></trkpt><trkpt lat="46.5945226" lon="12.560397"><ele>1879.4</ele><time>2026-04-25T14:29:39.954Z</time></trkpt><trkpt lat="46.5944256" lon="12.5604159"><ele>1879.6</ele><time>2026-04-25T14:29:40.952Z</time></trkpt><trkpt lat="46.5943316" lon="12.5604387"><ele>1879.8</ele><time>2026-04-25T14:29:41.954Z</time></trkpt><trkpt lat="46.5942362" lon="12.5604693"><ele>1880.0</ele><time>2026-04-25T14:29:42.953Z</time></trkpt><trkpt lat="46.5941537" lon="12.5604869"><ele>1879.9999999999998</ele><time>2026-04-25T14:29:43.954Z</time></trkpt><trkpt lat="46.5940805" lon="12.5605184"><ele>1880.0</ele><time>2026-04-25T14:29:44.952Z</time></trkpt><trkpt lat="46.5940062" lon="12.5605584"><ele>1880.0</ele><time>2026-04-25T14:29:45.953Z</time></trkpt><trkpt lat="46.5939318" lon="12.5606039"><ele>1880.0</ele><time>2026-04-25T14:29:46.952Z</time></trkpt><trkpt lat="46.5938498" lon="12.5606477"><ele>1879.9999999999998</ele><time>2026-04-25T14:29:47.954Z</time></trkpt><trkpt lat="46.5937663" lon="12.5606888"><ele>1880.0</ele><time>2026-04-25T14:29:48.954Z</time></trkpt><trkpt lat="46.5936811" lon="12.5607185"><ele>1879.5714285714284</ele><time>2026-04-25T14:29:49.954Z</time></trkpt><trkpt lat="46.5935934" lon="12.5607424"><ele>1879.1428571428569</ele><time>2026-04-25T14:29:50.954Z</time></trkpt><trkpt lat="46.5935112" lon="12.5607613"><ele>1878.7142857142858</ele><time>2026-04-25T14:29:51.953Z</time></trkpt><trkpt lat="46.5934428" lon="12.5607409"><ele>1878.2857142857142</ele><time>2026-04-25T14:29:52.953Z</time></trkpt><trkpt lat="46.5933825" lon="12.5607079"><ele>1877.857142857143</ele><time>2026-04-25T14:29:53.953Z</time></trkpt><trkpt lat="46.5933171" lon="12.5606901"><ele>1877.4285714285716</ele><time>2026-04-25T14:29:54.954Z</time></trkpt><trkpt lat="46.593243" lon="12.5607007"><ele>1877.0000000000002</ele><time>2026-04-25T14:29:55.953Z</time></trkpt><trkpt lat="46.5931647" lon="12.5607132"><ele>1876.9999999999998</ele><time>2026-04-25T14:29:56.953Z</time></trkpt><trkpt lat="46.5930894" lon="12.5607099"><ele>1877.0</ele><time>2026-04-25T14:29:57.953Z</time></trkpt><trkpt lat="46.5930108" lon="12.560702"><ele>1877.0</ele><time>2026-04-25T14:29:58.954Z</time></trkpt><trkpt lat="46.5929283" lon="12.5606956"><ele>1877.0</ele><time>2026-04-25T14:29:59.952Z</time></trkpt><trkpt lat="46.5928501" lon="12.5607005"><ele>1876.9999999999998</ele><time>2026-04-25T14:30:00.954Z</time></trkpt><trkpt lat="46.5927626" lon="12.5607227"><ele>1877.0</ele><time>2026-04-25T14:30:01.952Z</time></trkpt><trkpt lat="46.5926741" lon="12.5607511"><ele>1877.9999999999998</ele><time>2026-04-25T14:30:02.954Z</time></trkpt><trkpt lat="46.5925854" lon="12.5607635"><ele>1879.0</ele><time>2026-04-25T14:30:03.952Z</time></trkpt><trkpt lat="46.5924934" lon="12.5607669"><ele>1880.0</ele><time>2026-04-25T14:30:04.953Z</time></trkpt><trkpt lat="46.5924056" lon="12.56077"><ele>1881.0</ele><time>2026-04-25T14:30:05.954Z</time></trkpt><trkpt lat="46.5923239" lon="12.5607792"><ele>1881.9999999999998</ele><time>2026-04-25T14:30:06.953Z</time></trkpt><trkpt lat="46.5922414" lon="12.5607808"><ele>1883.0</ele><time>2026-04-25T14:30:07.953Z</time></trkpt><trkpt lat="46.5921585" lon="12.5608241"><ele>1882.9999999999998</ele><time>2026-04-25T14:30:08.954Z</time></trkpt><trkpt lat="46.5920988" lon="12.5609064"><ele>1883.0</ele><time>2026-04-25T14:30:09.953Z</time></trkpt><trkpt lat="46.5919963" lon="12.5610158"><ele>1883.0</ele><time>2026-04-25T14:30:11.954Z</time></trkpt><trkpt lat="46.5919492" lon="12.5610812"><ele>1883.0</ele><time>2026-04-25T14:30:12.953Z</time></trkpt><trkpt lat="46.5918916" lon="12.5611683"><ele>1882.9999999999998</ele><time>2026-04-25T14:30:13.953Z</time></trkpt><trkpt lat="46.5918368" lon="12.56126"><ele>1883.0</ele><time>2026-04-25T14:30:14.954Z</time></trkpt><trkpt lat="46.5917795" lon="12.5613461"><ele>1882.9999999999998</ele><time>2026-04-25T14:30:15.953Z</time></trkpt><trkpt lat="46.5917322" lon="12.5614317"><ele>1883.0</ele><time>2026-04-25T14:30:16.954Z</time></trkpt><trkpt lat="46.591697" lon="12.5615417"><ele>1883.0</ele><time>2026-04-25T14:30:17.953Z</time></trkpt><trkpt lat="46.5916497" lon="12.5616437"><ele>1883.0</ele><time>2026-04-25T14:30:18.953Z</time></trkpt><trkpt lat="46.5915929" lon="12.5617352"><ele>1882.9999999999998</ele><time>2026-04-25T14:30:19.954Z</time></trkpt><trkpt lat="46.5915435" lon="12.561824"><ele>1883.0</ele><time>2026-04-25T14:30:20.954Z</time></trkpt><trkpt lat="46.5914838" lon="12.5619"><ele>1882.9999999999998</ele><time>2026-04-25T14:30:21.953Z</time></trkpt><trkpt lat="46.5914227" lon="12.5619652"><ele>1883.0</ele><time>2026-04-25T14:30:22.953Z</time></trkpt><trkpt lat="46.5913535" lon="12.5620185"><ele>1883.0</ele><time>2026-04-25T14:30:23.953Z</time></trkpt><trkpt lat="46.5912671" lon="12.5620592"><ele>1883.0</ele><time>2026-04-25T14:30:24.954Z</time></trkpt><trkpt lat="46.5911721" lon="12.5621055"><ele>1882.9999999999998</ele><time>2026-04-25T14:30:25.953Z</time></trkpt><trkpt lat="46.5910791" lon="12.5621614"><ele>1883.0</ele><time>2026-04-25T14:30:26.953Z</time></trkpt><trkpt lat="46.5909906" lon="12.5622266"><ele>1882.3333333333333</ele><time>2026-04-25T14:30:27.953Z</time></trkpt><trkpt lat="46.5909123" lon="12.5622859"><ele>1881.6666666666665</ele><time>2026-04-25T14:30:28.953Z</time></trkpt><trkpt lat="46.590833" lon="12.5623432"><ele>1881.0</ele><time>2026-04-25T14:30:29.954Z</time></trkpt><trkpt lat="46.5907607" lon="12.5624073"><ele>1880.3333333333335</ele><time>2026-04-25T14:30:30.954Z</time></trkpt><trkpt lat="46.5906965" lon="12.5624753"><ele>1879.6666666666667</ele><time>2026-04-25T14:30:31.953Z</time></trkpt><trkpt lat="46.5906286" lon="12.5625146"><ele>1879.0</ele><time>2026-04-25T14:30:32.953Z</time></trkpt><trkpt lat="46.5905587" lon="12.5625588"><ele>1879.0</ele><time>2026-04-25T14:30:33.953Z</time></trkpt><trkpt lat="46.5904783" lon="12.5626045"><ele>1879.0</ele><time>2026-04-25T14:30:34.954Z</time></trkpt><trkpt lat="46.590386" lon="12.562632"><ele>1879.0</ele><time>2026-04-25T14:30:35.953Z</time></trkpt><trkpt lat="46.5903019" lon="12.5626575"><ele>1879.0</ele><time>2026-04-25T14:30:36.953Z</time></trkpt><trkpt lat="46.5902103" lon="12.5626696"><ele>1879.0</ele><time>2026-04-25T14:30:37.954Z</time></trkpt><trkpt lat="46.5901186" lon="12.5626711"><ele>1879.6666666666667</ele><time>2026-04-25T14:30:38.954Z</time></trkpt><trkpt lat="46.5900315" lon="12.562683"><ele>1880.3333333333335</ele><time>2026-04-25T14:30:39.953Z</time></trkpt><trkpt lat="46.5899478" lon="12.5627436"><ele>1881.0</ele><time>2026-04-25T14:30:40.954Z</time></trkpt><trkpt lat="46.5898715" lon="12.562798"><ele>1881.6666666666665</ele><time>2026-04-25T14:30:41.953Z</time></trkpt><trkpt lat="46.5897983" lon="12.5628531"><ele>1882.3333333333333</ele><time>2026-04-25T14:30:42.954Z</time></trkpt><trkpt lat="46.5897218" lon="12.5629028"><ele>1883.0</ele><time>2026-04-25T14:30:43.953Z</time></trkpt><trkpt lat="46.5896491" lon="12.5629718"><ele>1880.3333333333333</ele><time>2026-04-25T14:30:44.953Z</time></trkpt><trkpt lat="46.5895861" lon="12.5630241"><ele>1877.6666666666665</ele><time>2026-04-25T14:30:45.953Z</time></trkpt><trkpt lat="46.5895125" lon="12.5630751"><ele>1875.0</ele><time>2026-04-25T14:30:46.953Z</time></trkpt><trkpt lat="46.5894338" lon="12.5631256"><ele>1872.3333333333335</ele><time>2026-04-25T14:30:47.954Z</time></trkpt><trkpt lat="46.589347" lon="12.5631739"><ele>1869.6666666666667</ele><time>2026-04-25T14:30:48.954Z</time></trkpt><trkpt lat="46.5892625" lon="12.5632182"><ele>1867.0</ele><time>2026-04-25T14:30:49.954Z</time></trkpt><trkpt lat="46.5891755" lon="12.5632301"><ele>1866.0</ele><time>2026-04-25T14:30:50.954Z</time></trkpt><trkpt lat="46.5890859" lon="12.5632438"><ele>1864.9999999999998</ele><time>2026-04-25T14:30:51.953Z</time></trkpt><trkpt lat="46.5889912" lon="12.5632369"><ele>1863.9999999999998</ele><time>2026-04-25T14:30:52.954Z</time></trkpt><trkpt lat="46.5889063" lon="12.5632386"><ele>1863.0</ele><time>2026-04-25T14:30:53.953Z</time></trkpt><trkpt lat="46.5888283" lon="12.5632237"><ele>1862.0</ele><time>2026-04-25T14:30:54.954Z</time></trkpt><trkpt lat="46.5887215" lon="12.5631371"><ele>1860.1666666666665</ele><time>2026-04-25T14:30:56.954Z</time></trkpt><trkpt lat="46.5886718" lon="12.5630591"><ele>1858.3333333333333</ele><time>2026-04-25T14:30:57.953Z</time></trkpt><trkpt lat="46.5886104" lon="12.5629711"><ele>1856.5</ele><time>2026-04-25T14:30:58.954Z</time></trkpt><trkpt lat="46.5885553" lon="12.5628735"><ele>1854.6666666666665</ele><time>2026-04-25T14:30:59.953Z</time></trkpt><trkpt lat="46.5885021" lon="12.5627804"><ele>1852.8333333333333</ele><time>2026-04-25T14:31:00.954Z</time></trkpt><trkpt lat="46.5884527" lon="12.5626913"><ele>1851.0</ele><time>2026-04-25T14:31:01.954Z</time></trkpt><trkpt lat="46.588421" lon="12.5625803"><ele>1851.0</ele><time>2026-04-25T14:31:02.954Z</time></trkpt><trkpt lat="46.5883955" lon="12.5624655"><ele>1851.0</ele><time>2026-04-25T14:31:03.954Z</time></trkpt><trkpt lat="46.5883647" lon="12.5623426"><ele>1851.0</ele><time>2026-04-25T14:31:04.954Z</time></trkpt><trkpt lat="46.5883396" lon="12.5622111"><ele>1851.0</ele><time>2026-04-25T14:31:05.954Z</time></trkpt><trkpt lat="46.5883079" lon="12.5620585"><ele>1851.0</ele><time>2026-04-25T14:31:06.953Z</time></trkpt><trkpt lat="46.5882712" lon="12.5619203"><ele>1851.8</ele><time>2026-04-25T14:31:07.953Z</time></trkpt><trkpt lat="46.588222" lon="12.5617832"><ele>1852.6</ele><time>2026-04-25T14:31:08.953Z</time></trkpt><trkpt lat="46.5881598" lon="12.5616493"><ele>1853.4</ele><time>2026-04-25T14:31:09.954Z</time></trkpt><trkpt lat="46.5880955" lon="12.5615172"><ele>1854.2</ele><time>2026-04-25T14:31:10.954Z</time></trkpt><trkpt lat="46.5880272" lon="12.5613809"><ele>1855.0</ele><time>2026-04-25T14:31:11.952Z</time></trkpt><trkpt lat="46.5879782" lon="12.5612642"><ele>1855.6666666666667</ele><time>2026-04-25T14:31:12.954Z</time></trkpt><trkpt lat="46.5879349" lon="12.5611531"><ele>1856.3333333333335</ele><time>2026-04-25T14:31:13.953Z</time></trkpt><trkpt lat="46.5879016" lon="12.5610403"><ele>1857.0</ele><time>2026-04-25T14:31:14.954Z</time></trkpt><trkpt lat="46.5879111" lon="12.5609184"><ele>1857.6666666666665</ele><time>2026-04-25T14:31:15.953Z</time></trkpt><trkpt lat="46.5879097" lon="12.5607985"><ele>1858.3333333333333</ele><time>2026-04-25T14:31:16.954Z</time></trkpt><trkpt lat="46.5878873" lon="12.5606715"><ele>1859.0</ele><time>2026-04-25T14:31:17.954Z</time></trkpt><trkpt lat="46.5878562" lon="12.5605517"><ele>1855.6666666666665</ele><time>2026-04-25T14:31:18.954Z</time></trkpt><trkpt lat="46.5878324" lon="12.5604385"><ele>1852.3333333333333</ele><time>2026-04-25T14:31:19.953Z</time></trkpt><trkpt lat="46.5878378" lon="12.5603216"><ele>1849.0</ele><time>2026-04-25T14:31:20.953Z</time></trkpt><trkpt lat="46.5878325" lon="12.5602049"><ele>1845.6666666666665</ele><time>2026-04-25T14:31:21.954Z</time></trkpt><trkpt lat="46.5878386" lon="12.5600799"><ele>1842.3333333333333</ele><time>2026-04-25T14:31:22.953Z</time></trkpt><trkpt lat="46.5878293" lon="12.5599589"><ele>1839.0</ele><time>2026-04-25T14:31:23.952Z</time></trkpt><trkpt lat="46.5878206" lon="12.5598388"><ele>1839.0</ele><time>2026-04-25T14:31:24.953Z</time></trkpt><trkpt lat="46.5878164" lon="12.55972"><ele>1839.0</ele><time>2026-04-25T14:31:25.953Z</time></trkpt><trkpt lat="46.5878074" lon="12.5596078"><ele>1839.0</ele><time>2026-04-25T14:31:26.954Z</time></trkpt><trkpt lat="46.5878051" lon="12.5595034"><ele>1839.0</ele><time>2026-04-25T14:31:27.953Z</time></trkpt><trkpt lat="46.5878333" lon="12.5594027"><ele>1839.0</ele><time>2026-04-25T14:31:28.954Z</time></trkpt><trkpt lat="46.5878668" lon="12.5592989"><ele>1839.0</ele><time>2026-04-25T14:31:29.954Z</time></trkpt><trkpt lat="46.5878973" lon="12.5591936"><ele>1839.8000000000002</ele><time>2026-04-25T14:31:30.954Z</time></trkpt><trkpt lat="46.5879307" lon="12.5590833"><ele>1840.6000000000001</ele><time>2026-04-25T14:31:31.953Z</time></trkpt><trkpt lat="46.587991" lon="12.5589871"><ele>1841.4</ele><time>2026-04-25T14:31:32.953Z</time></trkpt><trkpt lat="46.5880312" lon="12.5589041"><ele>1842.2</ele><time>2026-04-25T14:31:33.954Z</time></trkpt><trkpt lat="46.588067" lon="12.5587515"><ele>1843.0</ele><time>2026-04-25T14:31:35.953Z</time></trkpt><trkpt lat="46.5880092" lon="12.5586125"><ele>1839.6666666666667</ele><time>2026-04-25T14:31:37.953Z</time></trkpt><trkpt lat="46.587904" lon="12.5586175"><ele>1836.3333333333335</ele><time>2026-04-25T14:31:39.954Z</time></trkpt><trkpt lat="46.5878377" lon="12.5586423"><ele>1833.0</ele><time>2026-04-25T14:31:40.953Z</time></trkpt><trkpt lat="46.5877662" lon="12.5586367"><ele>1829.6666666666665</ele><time>2026-04-25T14:31:41.954Z</time></trkpt><trkpt lat="46.5876905" lon="12.5586069"><ele>1826.3333333333333</ele><time>2026-04-25T14:31:42.952Z</time></trkpt><trkpt lat="46.5876098" lon="12.5585862"><ele>1823.0</ele><time>2026-04-25T14:31:43.954Z</time></trkpt><trkpt lat="46.587525" lon="12.5585586"><ele>1822.9999999999998</ele><time>2026-04-25T14:31:44.954Z</time></trkpt><trkpt lat="46.5874312" lon="12.5585226"><ele>1823.0</ele><time>2026-04-25T14:31:45.953Z</time></trkpt><trkpt lat="46.5873445" lon="12.5584832"><ele>1823.0</ele><time>2026-04-25T14:31:46.954Z</time></trkpt><trkpt lat="46.5872614" lon="12.5584658"><ele>1823.0</ele><time>2026-04-25T14:31:47.953Z</time></trkpt><trkpt lat="46.5871856" lon="12.5584639"><ele>1822.9999999999998</ele><time>2026-04-25T14:31:48.953Z</time></trkpt><trkpt lat="46.5871283" lon="12.5585112"><ele>1823.0</ele><time>2026-04-25T14:31:49.953Z</time></trkpt><trkpt lat="46.5870704" lon="12.5585556"><ele>1823.0</ele><time>2026-04-25T14:31:50.952Z</time></trkpt><trkpt lat="46.5870137" lon="12.5585997"><ele>1823.0000000000002</ele><time>2026-04-25T14:31:51.953Z</time></trkpt><trkpt lat="46.586949" lon="12.558635"><ele>1823.0</ele><time>2026-04-25T14:31:52.953Z</time></trkpt><trkpt lat="46.5868813" lon="12.5586802"><ele>1823.0</ele><time>2026-04-25T14:31:53.953Z</time></trkpt><trkpt lat="46.5868165" lon="12.558735"><ele>1823.0000000000002</ele><time>2026-04-25T14:31:54.954Z</time></trkpt><trkpt lat="46.5867458" lon="12.5588005"><ele>1823.0</ele><time>2026-04-25T14:31:55.954Z</time></trkpt><trkpt lat="46.5866769" lon="12.5588562"><ele>1823.0</ele><time>2026-04-25T14:31:56.953Z</time></trkpt><trkpt lat="46.5865981" lon="12.5589009"><ele>1822.4999999999998</ele><time>2026-04-25T14:31:57.954Z</time></trkpt><trkpt lat="46.5865272" lon="12.5589673"><ele>1822.0</ele><time>2026-04-25T14:31:58.953Z</time></trkpt><trkpt lat="46.5864762" lon="12.5590428"><ele>1821.5</ele><time>2026-04-25T14:31:59.954Z</time></trkpt><trkpt lat="46.5864114" lon="12.559131"><ele>1821.0</ele><time>2026-04-25T14:32:01.954Z</time></trkpt><trkpt lat="46.5863504" lon="12.5590806"><ele>1820.4999999999998</ele><time>2026-04-25T14:32:03.954Z</time></trkpt><trkpt lat="46.5863299" lon="12.5589454"><ele>1820.0</ele><time>2026-04-25T14:32:05.954Z</time></trkpt><trkpt lat="46.5863171" lon="12.5587747"><ele>1818.9999999999998</ele><time>2026-04-25T14:32:07.953Z</time></trkpt><trkpt lat="46.5863122" lon="12.5586819"><ele>1818.0</ele><time>2026-04-25T14:32:08.954Z</time></trkpt><trkpt lat="46.5863129" lon="12.5585833"><ele>1817.0</ele><time>2026-04-25T14:32:09.954Z</time></trkpt><trkpt lat="46.5863146" lon="12.5584786"><ele>1816.0</ele><time>2026-04-25T14:32:10.954Z</time></trkpt><trkpt lat="46.5863127" lon="12.558367"><ele>1814.9999999999998</ele><time>2026-04-25T14:32:11.954Z</time></trkpt><trkpt lat="46.5863091" lon="12.5582583"><ele>1814.0</ele><time>2026-04-25T14:32:12.954Z</time></trkpt><trkpt lat="46.5863046" lon="12.5580916"><ele>1813.9999999999998</ele><time>2026-04-25T14:32:14.953Z</time></trkpt><trkpt lat="46.5863083" lon="12.5579212"><ele>1814.0</ele><time>2026-04-25T14:32:16.953Z</time></trkpt><trkpt lat="46.5863301" lon="12.55783"><ele>1814.0</ele><time>2026-04-25T14:32:17.953Z</time></trkpt><trkpt lat="46.5863678" lon="12.5577376"><ele>1814.0</ele><time>2026-04-25T14:32:18.953Z</time></trkpt><trkpt lat="46.586427" lon="12.5576519"><ele>1813.9999999999998</ele><time>2026-04-25T14:32:19.954Z</time></trkpt><trkpt lat="46.5864833" lon="12.5575587"><ele>1814.0</ele><time>2026-04-25T14:32:20.952Z</time></trkpt><trkpt lat="46.5865459" lon="12.5574757"><ele>1811.714285714286</ele><time>2026-04-25T14:32:21.952Z</time></trkpt><trkpt lat="46.5865924" lon="12.5574129"><ele>1809.4285714285716</ele><time>2026-04-25T14:32:22.953Z</time></trkpt><trkpt lat="46.5866495" lon="12.5573642"><ele>1807.142857142857</ele><time>2026-04-25T14:32:23.953Z</time></trkpt><trkpt lat="46.5867132" lon="12.5573337"><ele>1804.857142857143</ele><time>2026-04-25T14:32:24.954Z</time></trkpt><trkpt lat="46.5867843" lon="12.557309"><ele>1802.5714285714284</ele><time>2026-04-25T14:32:25.954Z</time></trkpt><trkpt lat="46.5868659" lon="12.5572916"><ele>1800.285714285714</ele><time>2026-04-25T14:32:26.953Z</time></trkpt><trkpt lat="46.5869503" lon="12.5572873"><ele>1797.9999999999998</ele><time>2026-04-25T14:32:27.953Z</time></trkpt><trkpt lat="46.5870356" lon="12.5572984"><ele>1797.8333333333335</ele><time>2026-04-25T14:32:28.953Z</time></trkpt><trkpt lat="46.5871163" lon="12.5573092"><ele>1797.6666666666667</ele><time>2026-04-25T14:32:29.954Z</time></trkpt><trkpt lat="46.5871866" lon="12.5573222"><ele>1797.5</ele><time>2026-04-25T14:32:30.954Z</time></trkpt><trkpt lat="46.5872866" lon="12.5573325"><ele>1797.3333333333335</ele><time>2026-04-25T14:32:32.954Z</time></trkpt><trkpt lat="46.5873065" lon="12.5572434"><ele>1797.1666666666667</ele><time>2026-04-25T14:32:35.953Z</time></trkpt><trkpt lat="46.5872218" lon="12.5572119"><ele>1797.0</ele><time>2026-04-25T14:32:37.952Z</time></trkpt><trkpt lat="46.5871455" lon="12.5571942"><ele>1797.0</ele><time>2026-04-25T14:32:39.954Z</time></trkpt><trkpt lat="46.5870672" lon="12.5571232"><ele>1796.9999999999998</ele><time>2026-04-25T14:32:41.953Z</time></trkpt><trkpt lat="46.5869779" lon="12.5570182"><ele>1796.9999999999998</ele><time>2026-04-25T14:32:43.953Z</time></trkpt><trkpt lat="46.5868649" lon="12.5569223"><ele>1797.0</ele><time>2026-04-25T14:32:45.952Z</time></trkpt><trkpt lat="46.5868033" lon="12.5568814"><ele>1797.0</ele><time>2026-04-25T14:32:46.954Z</time></trkpt><trkpt lat="46.5866916" lon="12.5568247"><ele>1792.8333333333333</ele><time>2026-04-25T14:32:48.953Z</time></trkpt><trkpt lat="46.5866084" lon="12.5568308"><ele>1788.6666666666665</ele><time>2026-04-25T14:32:50.954Z</time></trkpt><trkpt lat="46.5865362" lon="12.5568207"><ele>1784.5</ele><time>2026-04-25T14:32:52.954Z</time></trkpt><trkpt lat="46.5864625" lon="12.5568094"><ele>1780.3333333333333</ele><time>2026-04-25T14:32:54.953Z</time></trkpt><trkpt lat="46.586392" lon="12.556807"><ele>1776.1666666666665</ele><time>2026-04-25T14:32:56.954Z</time></trkpt><trkpt lat="46.5863137" lon="12.5568218"><ele>1772.0</ele><time>2026-04-25T14:32:58.953Z</time></trkpt><trkpt lat="46.5862201" lon="12.5568443"><ele>1770.1666666666665</ele><time>2026-04-25T14:33:00.953Z</time></trkpt><trkpt lat="46.5861041" lon="12.5569163"><ele>1768.3333333333333</ele><time>2026-04-25T14:33:02.953Z</time></trkpt><trkpt lat="46.5860398" lon="12.5569709"><ele>1766.5</ele><time>2026-04-25T14:33:03.953Z</time></trkpt><trkpt lat="46.5859737" lon="12.5570279"><ele>1764.6666666666665</ele><time>2026-04-25T14:33:04.953Z</time></trkpt><trkpt lat="46.5859052" lon="12.5570814"><ele>1762.8333333333333</ele><time>2026-04-25T14:33:05.953Z</time></trkpt><trkpt lat="46.5858306" lon="12.5571412"><ele>1761.0</ele><time>2026-04-25T14:33:06.954Z</time></trkpt><trkpt lat="46.5857528" lon="12.5572079"><ele>1760.1999999999998</ele><time>2026-04-25T14:33:07.953Z</time></trkpt><trkpt lat="46.5856705" lon="12.5572768"><ele>1759.3999999999999</ele><time>2026-04-25T14:33:08.953Z</time></trkpt><trkpt lat="46.5855852" lon="12.5573507"><ele>1758.6</ele><time>2026-04-25T14:33:09.954Z</time></trkpt><trkpt lat="46.5854961" lon="12.5574275"><ele>1757.8</ele><time>2026-04-25T14:33:10.954Z</time></trkpt><trkpt lat="46.5854069" lon="12.557501"><ele>1757.0</ele><time>2026-04-25T14:33:11.954Z</time></trkpt><trkpt lat="46.5853239" lon="12.5575723"><ele>1757.0</ele><time>2026-04-25T14:33:12.954Z</time></trkpt><trkpt lat="46.5852575" lon="12.5576357"><ele>1756.9999999999998</ele><time>2026-04-25T14:33:13.953Z</time></trkpt><trkpt lat="46.585144" lon="12.5576816"><ele>1756.9999999999998</ele><time>2026-04-25T14:33:15.953Z</time></trkpt><trkpt lat="46.5850704" lon="12.5575564"><ele>1757.0</ele><time>2026-04-25T14:33:17.953Z</time></trkpt><trkpt lat="46.5850419" lon="12.5574735"><ele>1757.0</ele><time>2026-04-25T14:33:18.952Z</time></trkpt><trkpt lat="46.5849748" lon="12.5573316"><ele>1757.0</ele><time>2026-04-25T14:33:20.954Z</time></trkpt><trkpt lat="46.5849055" lon="12.5571949"><ele>1756.9999999999998</ele><time>2026-04-25T14:33:22.954Z</time></trkpt><trkpt lat="46.5848273" lon="12.5570948"><ele>1756.9999999999998</ele><time>2026-04-25T14:33:24.954Z</time></trkpt><trkpt lat="46.584753" lon="12.5570188"><ele>1757.0</ele><time>2026-04-25T14:33:26.954Z</time></trkpt><trkpt lat="46.5846962" lon="12.5569513"><ele>1757.0</ele><time>2026-04-25T14:33:28.952Z</time></trkpt><trkpt lat="46.584603" lon="12.5568593"><ele>1756.1666666666665</ele><time>2026-04-25T14:33:30.952Z</time></trkpt><trkpt lat="46.5845372" lon="12.5568095"><ele>1755.3333333333333</ele><time>2026-04-25T14:33:31.953Z</time></trkpt><trkpt lat="46.5844607" lon="12.5567539"><ele>1754.5</ele><time>2026-04-25T14:33:32.953Z</time></trkpt><trkpt lat="46.5843841" lon="12.5567"><ele>1753.6666666666665</ele><time>2026-04-25T14:33:33.953Z</time></trkpt><trkpt lat="46.5843139" lon="12.5566424"><ele>1752.8333333333333</ele><time>2026-04-25T14:33:34.954Z</time></trkpt><trkpt lat="46.5842452" lon="12.5566091"><ele>1752.0</ele><time>2026-04-25T14:33:35.953Z</time></trkpt><trkpt lat="46.584183" lon="12.5565893"><ele>1751.8333333333333</ele><time>2026-04-25T14:33:36.954Z</time></trkpt><trkpt lat="46.5840574" lon="12.5566236"><ele>1751.6666666666665</ele><time>2026-04-25T14:33:38.952Z</time></trkpt><trkpt lat="46.5839924" lon="12.5566522"><ele>1751.5</ele><time>2026-04-25T14:33:39.954Z</time></trkpt><trkpt lat="46.583918" lon="12.5566914"><ele>1751.3333333333333</ele><time>2026-04-25T14:33:40.952Z</time></trkpt><trkpt lat="46.5838443" lon="12.556732"><ele>1751.1666666666665</ele><time>2026-04-25T14:33:41.954Z</time></trkpt><trkpt lat="46.583764" lon="12.556761"><ele>1751.0</ele><time>2026-04-25T14:33:42.953Z</time></trkpt><trkpt lat="46.583688" lon="12.5567813"><ele>1749.6666666666665</ele><time>2026-04-25T14:33:43.953Z</time></trkpt><trkpt lat="46.5836093" lon="12.5567945"><ele>1748.3333333333333</ele><time>2026-04-25T14:33:44.953Z</time></trkpt><trkpt lat="46.5835338" lon="12.5568265"><ele>1747.0</ele><time>2026-04-25T14:33:45.953Z</time></trkpt><trkpt lat="46.5834649" lon="12.5568723"><ele>1745.6666666666665</ele><time>2026-04-25T14:33:46.952Z</time></trkpt><trkpt lat="46.5833952" lon="12.5569254"><ele>1744.3333333333333</ele><time>2026-04-25T14:33:47.952Z</time></trkpt><trkpt lat="46.5833173" lon="12.5569685"><ele>1743.0</ele><time>2026-04-25T14:33:48.953Z</time></trkpt><trkpt lat="46.5832439" lon="12.5569947"><ele>1743.0</ele><time>2026-04-25T14:33:49.953Z</time></trkpt><trkpt lat="46.5831681" lon="12.5570108"><ele>1743.0</ele><time>2026-04-25T14:33:50.953Z</time></trkpt><trkpt lat="46.5830923" lon="12.55696"><ele>1743.0</ele><time>2026-04-25T14:33:51.954Z</time></trkpt><trkpt lat="46.5830143" lon="12.5569011"><ele>1743.0</ele><time>2026-04-25T14:33:52.952Z</time></trkpt><trkpt lat="46.5829303" lon="12.5568464"><ele>1743.0</ele><time>2026-04-25T14:33:53.954Z</time></trkpt><trkpt lat="46.5828438" lon="12.556783"><ele>1743.0</ele><time>2026-04-25T14:33:54.954Z</time></trkpt><trkpt lat="46.5827584" lon="12.5567099"><ele>1741.8333333333333</ele><time>2026-04-25T14:33:55.954Z</time></trkpt><trkpt lat="46.582679" lon="12.556624"><ele>1740.6666666666665</ele><time>2026-04-25T14:33:56.953Z</time></trkpt><trkpt lat="46.582607" lon="12.5565256"><ele>1739.5</ele><time>2026-04-25T14:33:57.953Z</time></trkpt><trkpt lat="46.5825485" lon="12.5564406"><ele>1738.3333333333333</ele><time>2026-04-25T14:33:58.952Z</time></trkpt><trkpt lat="46.5824866" lon="12.5563825"><ele>1737.1666666666665</ele><time>2026-04-25T14:33:59.953Z</time></trkpt><trkpt lat="46.5824031" lon="12.5563657"><ele>1736.0</ele><time>2026-04-25T14:34:00.954Z</time></trkpt><trkpt lat="46.5823186" lon="12.5563474"><ele>1736.0</ele><time>2026-04-25T14:34:01.954Z</time></trkpt><trkpt lat="46.5822352" lon="12.5562967"><ele>1736.0</ele><time>2026-04-25T14:34:02.954Z</time></trkpt><trkpt lat="46.5821517" lon="12.5562392"><ele>1736.0</ele><time>2026-04-25T14:34:03.954Z</time></trkpt><trkpt lat="46.5820679" lon="12.5561856"><ele>1736.0</ele><time>2026-04-25T14:34:04.954Z</time></trkpt><trkpt lat="46.5819782" lon="12.5561476"><ele>1736.0</ele><time>2026-04-25T14:34:05.954Z</time></trkpt><trkpt lat="46.5818899" lon="12.5561016"><ele>1732.4999999999998</ele><time>2026-04-25T14:34:06.953Z</time></trkpt><trkpt lat="46.5818092" lon="12.5560335"><ele>1729.0</ele><time>2026-04-25T14:34:07.954Z</time></trkpt><trkpt lat="46.5817401" lon="12.5559544"><ele>1725.5</ele><time>2026-04-25T14:34:08.953Z</time></trkpt><trkpt lat="46.5816813" lon="12.5558801"><ele>1722.0</ele><time>2026-04-25T14:34:09.953Z</time></trkpt><trkpt lat="46.5816156" lon="12.5558213"><ele>1718.4999999999998</ele><time>2026-04-25T14:34:10.953Z</time></trkpt><trkpt lat="46.5815388" lon="12.5558195"><ele>1715.0</ele><time>2026-04-25T14:34:11.954Z</time></trkpt><trkpt lat="46.5814597" lon="12.5558698"><ele>1715.0</ele><time>2026-04-25T14:34:12.953Z</time></trkpt><trkpt lat="46.581378" lon="12.5559039"><ele>1715.0</ele><time>2026-04-25T14:34:13.953Z</time></trkpt><trkpt lat="46.5812897" lon="12.5559359"><ele>1715.0</ele><time>2026-04-25T14:34:14.953Z</time></trkpt><trkpt lat="46.5811997" lon="12.555968"><ele>1715.0</ele><time>2026-04-25T14:34:15.954Z</time></trkpt><trkpt lat="46.5811135" lon="12.5560221"><ele>1715.0</ele><time>2026-04-25T14:34:16.953Z</time></trkpt><trkpt lat="46.5810287" lon="12.5560701"><ele>1715.8333333333333</ele><time>2026-04-25T14:34:17.953Z</time></trkpt><trkpt lat="46.5809447" lon="12.5560947"><ele>1716.6666666666665</ele><time>2026-04-25T14:34:18.953Z</time></trkpt><trkpt lat="46.5808642" lon="12.5560871"><ele>1717.5</ele><time>2026-04-25T14:34:19.954Z</time></trkpt><trkpt lat="46.5807853" lon="12.5560958"><ele>1718.3333333333335</ele><time>2026-04-25T14:34:20.955Z</time></trkpt><trkpt lat="46.580704" lon="12.5561494"><ele>1719.1666666666667</ele><time>2026-04-25T14:34:21.952Z</time></trkpt><trkpt lat="46.5806227" lon="12.5562147"><ele>1720.0</ele><time>2026-04-25T14:34:22.952Z</time></trkpt><trkpt lat="46.5805407" lon="12.5562814"><ele>1720.0</ele><time>2026-04-25T14:34:23.952Z</time></trkpt><trkpt lat="46.5804457" lon="12.5563393"><ele>1720.0</ele><time>2026-04-25T14:34:24.953Z</time></trkpt><trkpt lat="46.5803445" lon="12.556389"><ele>1720.0</ele><time>2026-04-25T14:34:25.953Z</time></trkpt><trkpt lat="46.580233" lon="12.5564256"><ele>1720.0</ele><time>2026-04-25T14:34:26.954Z</time></trkpt><trkpt lat="46.5801332" lon="12.5564605"><ele>1720.0</ele><time>2026-04-25T14:34:27.954Z</time></trkpt><trkpt lat="46.5800543" lon="12.5564593"><ele>1717.1666666666667</ele><time>2026-04-25T14:34:28.954Z</time></trkpt><trkpt lat="46.5799673" lon="12.5564353"><ele>1714.3333333333335</ele><time>2026-04-25T14:34:29.953Z</time></trkpt><trkpt lat="46.579886" lon="12.5563841"><ele>1711.5</ele><time>2026-04-25T14:34:30.953Z</time></trkpt><trkpt lat="46.5798089" lon="12.5563434"><ele>1708.6666666666665</ele><time>2026-04-25T14:34:31.954Z</time></trkpt><trkpt lat="46.5797347" lon="12.556322"><ele>1705.8333333333333</ele><time>2026-04-25T14:34:32.954Z</time></trkpt><trkpt lat="46.5796551" lon="12.5563264"><ele>1703.0</ele><time>2026-04-25T14:34:33.953Z</time></trkpt><trkpt lat="46.5795729" lon="12.5563798"><ele>1700.3333333333333</ele><time>2026-04-25T14:34:34.955Z</time></trkpt><trkpt lat="46.5794933" lon="12.556435"><ele>1697.6666666666665</ele><time>2026-04-25T14:34:35.953Z</time></trkpt><trkpt lat="46.5794136" lon="12.5565051"><ele>1695.0</ele><time>2026-04-25T14:34:36.953Z</time></trkpt><trkpt lat="46.5793507" lon="12.5565806"><ele>1692.3333333333335</ele><time>2026-04-25T14:34:37.955Z</time></trkpt><trkpt lat="46.579297" lon="12.5566658"><ele>1689.6666666666667</ele><time>2026-04-25T14:34:38.952Z</time></trkpt><trkpt lat="46.5792401" lon="12.556743"><ele>1687.0</ele><time>2026-04-25T14:34:39.954Z</time></trkpt><trkpt lat="46.5791578" lon="12.5567844"><ele>1687.0</ele><time>2026-04-25T14:34:40.954Z</time></trkpt><trkpt lat="46.5790662" lon="12.5568013"><ele>1687.0</ele><time>2026-04-25T14:34:41.954Z</time></trkpt><trkpt lat="46.5789704" lon="12.556804"><ele>1687.0</ele><time>2026-04-25T14:34:42.953Z</time></trkpt><trkpt lat="46.5788681" lon="12.5568009"><ele>1687.0</ele><time>2026-04-25T14:34:43.954Z</time></trkpt><trkpt lat="46.5787584" lon="12.5568052"><ele>1687.0</ele><time>2026-04-25T14:34:44.953Z</time></trkpt><trkpt lat="46.57865" lon="12.556812"><ele>1684.6</ele><time>2026-04-25T14:34:45.955Z</time></trkpt><trkpt lat="46.5785413" lon="12.5568153"><ele>1682.1999999999998</ele><time>2026-04-25T14:34:46.953Z</time></trkpt><trkpt lat="46.5784342" lon="12.5568199"><ele>1679.8</ele><time>2026-04-25T14:34:47.954Z</time></trkpt><trkpt lat="46.5783334" lon="12.5568331"><ele>1677.4</ele><time>2026-04-25T14:34:48.953Z</time></trkpt><trkpt lat="46.5782608" lon="12.556853"><ele>1675.0</ele><time>2026-04-25T14:34:49.953Z</time></trkpt><trkpt lat="46.5781803" lon="12.556898"><ele>1675.0</ele><time>2026-04-25T14:34:50.953Z</time></trkpt><trkpt lat="46.5781032" lon="12.556962"><ele>1675.0</ele><time>2026-04-25T14:34:51.953Z</time></trkpt><trkpt lat="46.5780355" lon="12.5570266"><ele>1675.0</ele><time>2026-04-25T14:34:52.953Z</time></trkpt><trkpt lat="46.5779811" lon="12.5570795"><ele>1675.0</ele><time>2026-04-25T14:34:53.953Z</time></trkpt><trkpt lat="46.5778728" lon="12.557122"><ele>1675.0</ele><time>2026-04-25T14:34:55.953Z</time></trkpt><trkpt lat="46.5777853" lon="12.5570024"><ele>1673.3333333333335</ele><time>2026-04-25T14:34:57.953Z</time></trkpt><trkpt lat="46.5777721" lon="12.5569036"><ele>1671.6666666666667</ele><time>2026-04-25T14:34:58.953Z</time></trkpt><trkpt lat="46.5777378" lon="12.5567739"><ele>1670.0</ele><time>2026-04-25T14:35:00.953Z</time></trkpt><trkpt lat="46.5776559" lon="12.5567862"><ele>1668.3333333333335</ele><time>2026-04-25T14:35:02.954Z</time></trkpt><trkpt lat="46.5775876" lon="12.5569167"><ele>1666.6666666666667</ele><time>2026-04-25T14:35:04.953Z</time></trkpt><trkpt lat="46.5775454" lon="12.5569915"><ele>1665.0</ele><time>2026-04-25T14:35:05.953Z</time></trkpt><trkpt lat="46.5775006" lon="12.5570716"><ele>1665.0</ele><time>2026-04-25T14:35:06.955Z</time></trkpt><trkpt lat="46.5774511" lon="12.557156"><ele>1665.0</ele><time>2026-04-25T14:35:07.953Z</time></trkpt><trkpt lat="46.5773969" lon="12.5572422"><ele>1665.0</ele><time>2026-04-25T14:35:08.954Z</time></trkpt><trkpt lat="46.577342" lon="12.5573292"><ele>1665.0</ele><time>2026-04-25T14:35:09.953Z</time></trkpt><trkpt lat="46.5772843" lon="12.5574109"><ele>1665.0</ele><time>2026-04-25T14:35:10.954Z</time></trkpt><trkpt lat="46.5772248" lon="12.5574897"><ele>1665.0</ele><time>2026-04-25T14:35:11.953Z</time></trkpt><trkpt lat="46.5771655" lon="12.5575613"><ele>1665.0</ele><time>2026-04-25T14:35:12.955Z</time></trkpt><trkpt lat="46.5770987" lon="12.5576326"><ele>1665.0</ele><time>2026-04-25T14:35:13.955Z</time></trkpt><trkpt lat="46.5770285" lon="12.557705"><ele>1665.0</ele><time>2026-04-25T14:35:14.953Z</time></trkpt><trkpt lat="46.5769628" lon="12.5577833"><ele>1665.0</ele><time>2026-04-25T14:35:15.954Z</time></trkpt><trkpt lat="46.5768892" lon="12.5578538"><ele>1665.0</ele><time>2026-04-25T14:35:16.954Z</time></trkpt><trkpt lat="46.5768056" lon="12.5579253"><ele>1665.0</ele><time>2026-04-25T14:35:17.954Z</time></trkpt><trkpt lat="46.5767172" lon="12.5579854"><ele>1662.4</ele><time>2026-04-25T14:35:18.954Z</time></trkpt><trkpt lat="46.5766198" lon="12.5580357"><ele>1659.8</ele><time>2026-04-25T14:35:19.953Z</time></trkpt><trkpt lat="46.5765207" lon="12.5580793"><ele>1657.1999999999998</ele><time>2026-04-25T14:35:20.954Z</time></trkpt><trkpt lat="46.5764159" lon="12.5581322"><ele>1654.6</ele><time>2026-04-25T14:35:21.953Z</time></trkpt><trkpt lat="46.5763084" lon="12.558186"><ele>1652.0</ele><time>2026-04-25T14:35:22.954Z</time></trkpt><trkpt lat="46.5762055" lon="12.5582486"><ele>1649.6</ele><time>2026-04-25T14:35:23.954Z</time></trkpt><trkpt lat="46.5761162" lon="12.5582989"><ele>1647.1999999999998</ele><time>2026-04-25T14:35:24.953Z</time></trkpt><trkpt lat="46.5760402" lon="12.5583163"><ele>1644.8</ele><time>2026-04-25T14:35:25.953Z</time></trkpt><trkpt lat="46.5759717" lon="12.5583116"><ele>1642.4</ele><time>2026-04-25T14:35:26.953Z</time></trkpt><trkpt lat="46.575871" lon="12.5582219"><ele>1640.0</ele><time>2026-04-25T14:35:28.953Z</time></trkpt><trkpt lat="46.5758237" lon="12.5580716"><ele>1639.9999999999998</ele><time>2026-04-25T14:35:30.954Z</time></trkpt><trkpt lat="46.5758037" lon="12.5579803"><ele>1640.0</ele><time>2026-04-25T14:35:31.953Z</time></trkpt><trkpt lat="46.5757901" lon="12.5578855"><ele>1640.0</ele><time>2026-04-25T14:35:32.954Z</time></trkpt><trkpt lat="46.5757697" lon="12.5577812"><ele>1640.0</ele><time>2026-04-25T14:35:33.954Z</time></trkpt><trkpt lat="46.5757556" lon="12.5576686"><ele>1639.9999999999998</ele><time>2026-04-25T14:35:34.954Z</time></trkpt><trkpt lat="46.5757383" lon="12.5575557"><ele>1640.0</ele><time>2026-04-25T14:35:35.954Z</time></trkpt><trkpt lat="46.5756756" lon="12.5574401"><ele>1639.1666666666665</ele><time>2026-04-25T14:35:37.954Z</time></trkpt><trkpt lat="46.5755914" lon="12.5574562"><ele>1638.3333333333333</ele><time>2026-04-25T14:35:39.953Z</time></trkpt><trkpt lat="46.5754927" lon="12.5575474"><ele>1637.5</ele><time>2026-04-25T14:35:41.954Z</time></trkpt><trkpt lat="46.5754384" lon="12.5576085"><ele>1636.6666666666665</ele><time>2026-04-25T14:35:42.954Z</time></trkpt><trkpt lat="46.575375" lon="12.5576603"><ele>1635.8333333333333</ele><time>2026-04-25T14:35:43.954Z</time></trkpt><trkpt lat="46.5753086" lon="12.5577206"><ele>1635.0</ele><time>2026-04-25T14:35:44.953Z</time></trkpt><trkpt lat="46.5752513" lon="12.5578069"><ele>1632.6</ele><time>2026-04-25T14:35:45.953Z</time></trkpt><trkpt lat="46.5751939" lon="12.5579092"><ele>1630.2</ele><time>2026-04-25T14:35:46.953Z</time></trkpt><trkpt lat="46.5751384" lon="12.5580143"><ele>1627.8000000000002</ele><time>2026-04-25T14:35:47.953Z</time></trkpt><trkpt lat="46.5750736" lon="12.5581297"><ele>1625.4</ele><time>2026-04-25T14:35:48.953Z</time></trkpt><trkpt lat="46.5750032" lon="12.5582417"><ele>1623.0</ele><time>2026-04-25T14:35:49.953Z</time></trkpt><trkpt lat="46.5749274" lon="12.558357"><ele>1623.0</ele><time>2026-04-25T14:35:50.954Z</time></trkpt><trkpt lat="46.5748497" lon="12.5584714"><ele>1623.0</ele><time>2026-04-25T14:35:51.954Z</time></trkpt><trkpt lat="46.5747634" lon="12.5585692"><ele>1623.0</ele><time>2026-04-25T14:35:52.955Z</time></trkpt><trkpt lat="46.5746901" lon="12.5586527"><ele>1623.0</ele><time>2026-04-25T14:35:53.953Z</time></trkpt><trkpt lat="46.5746296" lon="12.5587342"><ele>1623.0</ele><time>2026-04-25T14:35:54.953Z</time></trkpt><trkpt lat="46.5745748" lon="12.5588314"><ele>1623.0</ele><time>2026-04-25T14:35:55.952Z</time></trkpt><trkpt lat="46.5745307" lon="12.5589357"><ele>1623.0</ele><time>2026-04-25T14:35:56.954Z</time></trkpt><trkpt lat="46.5744831" lon="12.5590449"><ele>1623.0</ele><time>2026-04-25T14:35:57.953Z</time></trkpt><trkpt lat="46.5744041" lon="12.5591308"><ele>1623.0</ele><time>2026-04-25T14:35:58.953Z</time></trkpt><trkpt lat="46.5743234" lon="12.5592187"><ele>1623.0</ele><time>2026-04-25T14:35:59.953Z</time></trkpt><trkpt lat="46.5742313" lon="12.5592975"><ele>1619.4</ele><time>2026-04-25T14:36:00.952Z</time></trkpt><trkpt lat="46.5741381" lon="12.5593659"><ele>1615.8000000000002</ele><time>2026-04-25T14:36:01.953Z</time></trkpt><trkpt lat="46.574047" lon="12.559431"><ele>1612.2</ele><time>2026-04-25T14:36:02.953Z</time></trkpt><trkpt lat="46.5739695" lon="12.55948"><ele>1608.6</ele><time>2026-04-25T14:36:03.952Z</time></trkpt><trkpt lat="46.573898" lon="12.5595465"><ele>1605.0</ele><time>2026-04-25T14:36:04.954Z</time></trkpt><trkpt lat="46.5738319" lon="12.5596309"><ele>1605.0</ele><time>2026-04-25T14:36:05.954Z</time></trkpt><trkpt lat="46.5737708" lon="12.5597298"><ele>1605.0</ele><time>2026-04-25T14:36:06.953Z</time></trkpt><trkpt lat="46.5737134" lon="12.5598471"><ele>1605.0</ele><time>2026-04-25T14:36:07.954Z</time></trkpt><trkpt lat="46.5736637" lon="12.559972"><ele>1605.0</ele><time>2026-04-25T14:36:08.954Z</time></trkpt><trkpt lat="46.5736198" lon="12.5601057"><ele>1605.0</ele><time>2026-04-25T14:36:09.952Z</time></trkpt><trkpt lat="46.5735983" lon="12.5602301"><ele>1602.0</ele><time>2026-04-25T14:36:10.953Z</time></trkpt><trkpt lat="46.5735782" lon="12.5603642"><ele>1599.0</ele><time>2026-04-25T14:36:11.954Z</time></trkpt><trkpt lat="46.5735649" lon="12.5605075"><ele>1596.0</ele><time>2026-04-25T14:36:12.953Z</time></trkpt><trkpt lat="46.5735582" lon="12.5606567"><ele>1593.0</ele><time>2026-04-25T14:36:13.953Z</time></trkpt><trkpt lat="46.5735514" lon="12.5608145"><ele>1590.0</ele><time>2026-04-25T14:36:14.954Z</time></trkpt><trkpt lat="46.5735409" lon="12.5609735"><ele>1588.8333333333333</ele><time>2026-04-25T14:36:15.953Z</time></trkpt><trkpt lat="46.5735307" lon="12.5611123"><ele>1587.6666666666665</ele><time>2026-04-25T14:36:16.955Z</time></trkpt><trkpt lat="46.5735203" lon="12.5612437"><ele>1586.5</ele><time>2026-04-25T14:36:17.953Z</time></trkpt><trkpt lat="46.5735192" lon="12.5613442"><ele>1585.3333333333333</ele><time>2026-04-25T14:36:18.952Z</time></trkpt><trkpt lat="46.5735262" lon="12.561455"><ele>1584.1666666666665</ele><time>2026-04-25T14:36:19.952Z</time></trkpt><trkpt lat="46.5735403" lon="12.5615714"><ele>1583.0</ele><time>2026-04-25T14:36:20.953Z</time></trkpt><trkpt lat="46.573565" lon="12.5616697"><ele>1583.6666666666665</ele><time>2026-04-25T14:36:21.953Z</time></trkpt><trkpt lat="46.5736092" lon="12.561748"><ele>1584.3333333333333</ele><time>2026-04-25T14:36:22.953Z</time></trkpt><trkpt lat="46.5736631" lon="12.5618096"><ele>1585.0</ele><time>2026-04-25T14:36:23.954Z</time></trkpt><trkpt lat="46.5737317" lon="12.5618587"><ele>1585.6666666666665</ele><time>2026-04-25T14:36:24.953Z</time></trkpt><trkpt lat="46.5738044" lon="12.5618974"><ele>1586.3333333333333</ele><time>2026-04-25T14:36:25.953Z</time></trkpt><trkpt lat="46.573897" lon="12.5619384"><ele>1587.0</ele><time>2026-04-25T14:36:26.954Z</time></trkpt><trkpt lat="46.5739893" lon="12.5619826"><ele>1584.3999999999999</ele><time>2026-04-25T14:36:27.953Z</time></trkpt><trkpt lat="46.5740672" lon="12.5620465"><ele>1581.8</ele><time>2026-04-25T14:36:28.953Z</time></trkpt><trkpt lat="46.5741309" lon="12.5621447"><ele>1579.2</ele><time>2026-04-25T14:36:29.953Z</time></trkpt><trkpt lat="46.5741738" lon="12.5622633"><ele>1576.6</ele><time>2026-04-25T14:36:30.953Z</time></trkpt><trkpt lat="46.574203" lon="12.5623978"><ele>1574.0</ele><time>2026-04-25T14:36:31.953Z</time></trkpt><trkpt lat="46.5742234" lon="12.5625346"><ele>1574.0</ele><time>2026-04-25T14:36:32.953Z</time></trkpt><trkpt lat="46.5742381" lon="12.5626803"><ele>1574.0</ele><time>2026-04-25T14:36:33.953Z</time></trkpt><trkpt lat="46.5742472" lon="12.5628343"><ele>1574.0</ele><time>2026-04-25T14:36:34.953Z</time></trkpt><trkpt lat="46.5742654" lon="12.5629795"><ele>1574.0</ele><time>2026-04-25T14:36:35.952Z</time></trkpt><trkpt lat="46.5742777" lon="12.5630878"><ele>1574.0</ele><time>2026-04-25T14:36:36.954Z</time></trkpt><trkpt lat="46.5742766" lon="12.5632255"><ele>1570.6</ele><time>2026-04-25T14:36:39.954Z</time></trkpt><trkpt lat="46.5741768" lon="12.5632818"><ele>1567.2</ele><time>2026-04-25T14:36:41.955Z</time></trkpt><trkpt lat="46.5740408" lon="12.563249"><ele>1563.8</ele><time>2026-04-25T14:36:43.954Z</time></trkpt><trkpt lat="46.5739618" lon="12.5632489"><ele>1560.3999999999999</ele><time>2026-04-25T14:36:44.953Z</time></trkpt><trkpt lat="46.5738791" lon="12.563223"><ele>1557.0</ele><time>2026-04-25T14:36:45.954Z</time></trkpt><trkpt lat="46.5737949" lon="12.5631919"><ele>1557.0</ele><time>2026-04-25T14:36:46.954Z</time></trkpt><trkpt lat="46.5737124" lon="12.5631761"><ele>1557.0</ele><time>2026-04-25T14:36:47.953Z</time></trkpt><trkpt lat="46.5736202" lon="12.5631425"><ele>1557.0</ele><time>2026-04-25T14:36:48.953Z</time></trkpt><trkpt lat="46.5735335" lon="12.5631078"><ele>1557.0</ele><time>2026-04-25T14:36:49.954Z</time></trkpt><trkpt lat="46.5734607" lon="12.563078"><ele>1557.0</ele><time>2026-04-25T14:36:50.953Z</time></trkpt><trkpt lat="46.5734007" lon="12.5630322"><ele>1557.0</ele><time>2026-04-25T14:36:52.952Z</time></trkpt><trkpt lat="46.5733942" lon="12.5631272"><ele>1555.0</ele><time>2026-04-25T14:36:56.954Z</time></trkpt><trkpt lat="46.573431" lon="12.5632425"><ele>1553.0</ele><time>2026-04-25T14:36:58.952Z</time></trkpt><trkpt lat="46.5734468" lon="12.5633317"><ele>1551.0</ele><time>2026-04-25T14:36:59.954Z</time></trkpt><trkpt lat="46.5734612" lon="12.5634324"><ele>1549.0</ele><time>2026-04-25T14:37:00.953Z</time></trkpt><trkpt lat="46.5734731" lon="12.56354"><ele>1547.0</ele><time>2026-04-25T14:37:01.953Z</time></trkpt><trkpt lat="46.5734868" lon="12.5636533"><ele>1545.0</ele><time>2026-04-25T14:37:02.953Z</time></trkpt><trkpt lat="46.5734983" lon="12.5637804"><ele>1542.6666666666667</ele><time>2026-04-25T14:37:03.953Z</time></trkpt><trkpt lat="46.5735041" lon="12.5639055"><ele>1540.3333333333333</ele><time>2026-04-25T14:37:04.954Z</time></trkpt><trkpt lat="46.5735164" lon="12.5640275"><ele>1538.0</ele><time>2026-04-25T14:37:05.953Z</time></trkpt><trkpt lat="46.5735321" lon="12.5641443"><ele>1535.6666666666665</ele><time>2026-04-25T14:37:06.953Z</time></trkpt><trkpt lat="46.573553" lon="12.5642693"><ele>1533.3333333333333</ele><time>2026-04-25T14:37:07.954Z</time></trkpt><trkpt lat="46.5735852" lon="12.5643969"><ele>1531.0</ele><time>2026-04-25T14:37:08.953Z</time></trkpt><trkpt lat="46.5736222" lon="12.5645229"><ele>1531.4</ele><time>2026-04-25T14:37:09.954Z</time></trkpt><trkpt lat="46.5736643" lon="12.56467"><ele>1531.8</ele><time>2026-04-25T14:37:10.953Z</time></trkpt><trkpt lat="46.5737074" lon="12.5648184"><ele>1532.2</ele><time>2026-04-25T14:37:11.953Z</time></trkpt><trkpt lat="46.573745" lon="12.5649675"><ele>1532.6000000000001</ele><time>2026-04-25T14:37:12.953Z</time></trkpt><trkpt lat="46.5737714" lon="12.5651087"><ele>1533.0</ele><time>2026-04-25T14:37:13.953Z</time></trkpt><trkpt lat="46.5738063" lon="12.5652579"><ele>1529.8000000000002</ele><time>2026-04-25T14:37:14.953Z</time></trkpt><trkpt lat="46.5738401" lon="12.5653944"><ele>1526.6</ele><time>2026-04-25T14:37:15.953Z</time></trkpt><trkpt lat="46.5738716" lon="12.5654987"><ele>1523.4</ele><time>2026-04-25T14:37:16.954Z</time></trkpt><trkpt lat="46.5739335" lon="12.5656641"><ele>1520.1999999999998</ele><time>2026-04-25T14:37:18.953Z</time></trkpt><trkpt lat="46.5739873" lon="12.5657891"><ele>1517.0</ele><time>2026-04-25T14:37:20.953Z</time></trkpt><trkpt lat="46.5740116" lon="12.5658936"><ele>1517.0</ele><time>2026-04-25T14:37:22.953Z</time></trkpt><trkpt lat="46.5739639" lon="12.5659684"><ele>1517.0</ele><time>2026-04-25T14:37:24.954Z</time></trkpt><trkpt lat="46.573862" lon="12.5659173"><ele>1517.0</ele><time>2026-04-25T14:37:26.954Z</time></trkpt><trkpt lat="46.5738002" lon="12.5658689"><ele>1517.0</ele><time>2026-04-25T14:37:27.954Z</time></trkpt><trkpt lat="46.5737292" lon="12.5658149"><ele>1517.0</ele><time>2026-04-25T14:37:28.952Z</time></trkpt><trkpt lat="46.5736505" lon="12.5657539"><ele>1517.0</ele><time>2026-04-25T14:37:29.954Z</time></trkpt><trkpt lat="46.5735671" lon="12.5656941"><ele>1514.3333333333335</ele><time>2026-04-25T14:37:30.952Z</time></trkpt><trkpt lat="46.5734988" lon="12.565646"><ele>1511.6666666666667</ele><time>2026-04-25T14:37:31.953Z</time></trkpt><trkpt lat="46.5734355" lon="12.5656499"><ele>1509.0</ele><time>2026-04-25T14:37:33.953Z</time></trkpt><trkpt lat="46.5734196" lon="12.5657926"><ele>1506.3333333333333</ele><time>2026-04-25T14:37:36.953Z</time></trkpt><trkpt lat="46.5734961" lon="12.5659128"><ele>1503.6666666666665</ele><time>2026-04-25T14:37:38.953Z</time></trkpt><trkpt lat="46.5735388" lon="12.5659875"><ele>1501.0</ele><time>2026-04-25T14:37:39.952Z</time></trkpt><trkpt lat="46.5735789" lon="12.5660681"><ele>1500.1666666666665</ele><time>2026-04-25T14:37:40.954Z</time></trkpt><trkpt lat="46.5736514" lon="12.5662159"><ele>1499.3333333333333</ele><time>2026-04-25T14:37:42.953Z</time></trkpt><trkpt lat="46.5736929" lon="12.5662933"><ele>1498.5</ele><time>2026-04-25T14:37:43.953Z</time></trkpt><trkpt lat="46.5737337" lon="12.5663744"><ele>1497.6666666666667</ele><time>2026-04-25T14:37:44.954Z</time></trkpt><trkpt lat="46.5737564" lon="12.5664668"><ele>1496.8333333333335</ele><time>2026-04-25T14:37:45.953Z</time></trkpt><trkpt lat="46.5737458" lon="12.5665945"><ele>1496.0</ele><time>2026-04-25T14:37:47.954Z</time></trkpt><trkpt lat="46.5736575" lon="12.5666308"><ele>1494.3333333333335</ele><time>2026-04-25T14:37:49.954Z</time></trkpt><trkpt lat="46.5736014" lon="12.5665887"><ele>1492.6666666666667</ele><time>2026-04-25T14:37:50.952Z</time></trkpt><trkpt lat="46.5735389" lon="12.5665308"><ele>1491.0</ele><time>2026-04-25T14:37:51.954Z</time></trkpt><trkpt lat="46.5734843" lon="12.5664809"><ele>1489.3333333333333</ele><time>2026-04-25T14:37:52.953Z</time></trkpt><trkpt lat="46.5733897" lon="12.5664852"><ele>1487.6666666666665</ele><time>2026-04-25T14:37:54.953Z</time></trkpt><trkpt lat="46.5733123" lon="12.5665806"><ele>1486.0</ele><time>2026-04-25T14:37:56.954Z</time></trkpt><trkpt lat="46.5732078" lon="12.5666873"><ele>1486.0</ele><time>2026-04-25T14:37:58.954Z</time></trkpt><trkpt lat="46.5731408" lon="12.5667494"><ele>1486.0</ele><time>2026-04-25T14:37:59.954Z</time></trkpt><trkpt lat="46.5730675" lon="12.5668227"><ele>1486.0</ele><time>2026-04-25T14:38:00.953Z</time></trkpt><trkpt lat="46.5729983" lon="12.5668847"><ele>1486.0</ele><time>2026-04-25T14:38:01.953Z</time></trkpt><trkpt lat="46.5729423" lon="12.5669355"><ele>1486.0</ele><time>2026-04-25T14:38:02.953Z</time></trkpt><trkpt lat="46.5728684" lon="12.5669996"><ele>1486.0</ele><time>2026-04-25T14:38:04.954Z</time></trkpt><trkpt lat="46.5728184" lon="12.56707"><ele>1480.5</ele><time>2026-04-25T14:38:08.953Z</time></trkpt><trkpt lat="46.5727471" lon="12.5671094"><ele>1475.0</ele><time>2026-04-25T14:38:13.953Z</time></trkpt><trkpt lat="46.5726747" lon="12.5671513"><ele>1469.5</ele><time>2026-04-25T14:38:16.953Z</time></trkpt><trkpt lat="46.5726177" lon="12.5671945"><ele>1464.0</ele><time>2026-04-25T14:38:19.954Z</time></trkpt><trkpt lat="46.572544" lon="12.5672484"><ele>1458.5</ele><time>2026-04-25T14:48:16.953Z</time></trkpt><trkpt lat="46.5724718" lon="12.567226"><ele>1453.0</ele><time>2026-04-25T14:48:18.952Z</time></trkpt><trkpt lat="46.5723693" lon="12.5671548"><ele>1453.0000000000002</ele><time>2026-04-25T14:48:20.951Z</time></trkpt><trkpt lat="46.5723229" lon="12.5670861"><ele>1453.0</ele><time>2026-04-25T14:48:21.952Z</time></trkpt><trkpt lat="46.5722895" lon="12.5669553"><ele>1453.0</ele><time>2026-04-25T14:48:22.952Z</time></trkpt><trkpt lat="46.5722699" lon="12.5668581"><ele>1453.0</ele><time>2026-04-25T14:48:23.952Z</time></trkpt><trkpt lat="46.5722648" lon="12.5667598"><ele>1453.0</ele><time>2026-04-25T14:48:24.952Z</time></trkpt><trkpt lat="46.5722625" lon="12.5666672"><ele>1453.0000000000002</ele><time>2026-04-25T14:48:25.953Z</time></trkpt><trkpt lat="46.5722653" lon="12.5665756"><ele>1453.0</ele><time>2026-04-25T14:48:26.953Z</time></trkpt><trkpt lat="46.5723124" lon="12.5664022"><ele>1455.1666666666665</ele><time>2026-04-25T14:48:28.953Z</time></trkpt><trkpt lat="46.5723504" lon="12.5663113"><ele>1457.3333333333333</ele><time>2026-04-25T14:48:29.952Z</time></trkpt><trkpt lat="46.5723938" lon="12.5662173"><ele>1459.5</ele><time>2026-04-25T14:48:30.952Z</time></trkpt><trkpt lat="46.5724335" lon="12.5661316"><ele>1461.6666666666667</ele><time>2026-04-25T14:48:31.952Z</time></trkpt><trkpt lat="46.5724771" lon="12.5659697"><ele>1463.8333333333335</ele><time>2026-04-25T14:48:33.954Z</time></trkpt><trkpt lat="46.5724229" lon="12.5658526"><ele>1466.0</ele><time>2026-04-25T14:48:35.953Z</time></trkpt><trkpt lat="46.5723563" lon="12.565799"><ele>1467.0</ele><time>2026-04-25T14:48:37.953Z</time></trkpt><trkpt lat="46.572292" lon="12.5657557"><ele>1468.0</ele><time>2026-04-25T14:48:39.953Z</time></trkpt><trkpt lat="46.5722098" lon="12.5657049"><ele>1469.0</ele><time>2026-04-25T14:48:42.952Z</time></trkpt><trkpt lat="46.5721314" lon="12.5656384"><ele>1470.0</ele><time>2026-04-25T14:48:45.953Z</time></trkpt><trkpt lat="46.5720616" lon="12.5655332"><ele>1471.0</ele><time>2026-04-25T14:48:48.953Z</time></trkpt><trkpt lat="46.5720125" lon="12.5653388"><ele>1465.6666666666665</ele><time>2026-04-25T14:48:50.953Z</time></trkpt><trkpt lat="46.5719758" lon="12.5652363"><ele>1460.3333333333333</ele><time>2026-04-25T14:48:51.954Z</time></trkpt><trkpt lat="46.5719455" lon="12.5651305"><ele>1455.0</ele><time>2026-04-25T14:48:52.953Z</time></trkpt><trkpt lat="46.5719209" lon="12.5650285"><ele>1449.6666666666667</ele><time>2026-04-25T14:48:53.952Z</time></trkpt><trkpt lat="46.5718964" lon="12.5649381"><ele>1444.3333333333335</ele><time>2026-04-25T14:48:54.952Z</time></trkpt><trkpt lat="46.5718373" lon="12.5648071"><ele>1439.0</ele><time>2026-04-25T14:48:56.953Z</time></trkpt><trkpt lat="46.5717188" lon="12.5647659"><ele>1439.0</ele><time>2026-04-25T14:48:58.952Z</time></trkpt><trkpt lat="46.5716437" lon="12.5647575"><ele>1439.0</ele><time>2026-04-25T14:48:59.953Z</time></trkpt><trkpt lat="46.5715318" lon="12.5646728"><ele>1439.0</ele><time>2026-04-25T14:49:01.953Z</time></trkpt><trkpt lat="46.5714902" lon="12.5646017"><ele>1439.0</ele><time>2026-04-25T14:49:02.953Z</time></trkpt><trkpt lat="46.5714579" lon="12.5645113"><ele>1439.0</ele><time>2026-04-25T14:49:03.952Z</time></trkpt><trkpt lat="46.5714287" lon="12.5643473"><ele>1442.4</ele><time>2026-04-25T14:49:05.952Z</time></trkpt><trkpt lat="46.5714123" lon="12.5642028"><ele>1445.8000000000002</ele><time>2026-04-25T14:49:07.952Z</time></trkpt><trkpt lat="46.5713341" lon="12.5640932"><ele>1449.1999999999998</ele><time>2026-04-25T14:49:09.952Z</time></trkpt><trkpt lat="46.5712522" lon="12.5639987"><ele>1452.6</ele><time>2026-04-25T14:49:11.952Z</time></trkpt><trkpt lat="46.5711938" lon="12.563844"><ele>1456.0</ele><time>2026-04-25T14:49:13.952Z</time></trkpt><trkpt lat="46.5711641" lon="12.5637289"><ele>1450.1666666666665</ele><time>2026-04-25T14:49:14.952Z</time></trkpt><trkpt lat="46.5711304" lon="12.5636118"><ele>1444.3333333333333</ele><time>2026-04-25T14:49:15.951Z</time></trkpt><trkpt lat="46.5710963" lon="12.5634985"><ele>1438.5</ele><time>2026-04-25T14:49:16.952Z</time></trkpt><trkpt lat="46.5710587" lon="12.5634047"><ele>1432.6666666666667</ele><time>2026-04-25T14:49:17.952Z</time></trkpt><trkpt lat="46.5710174" lon="12.5633292"><ele>1426.8333333333335</ele><time>2026-04-25T14:49:18.951Z</time></trkpt><trkpt lat="46.5709453" lon="12.5632831"><ele>1421.0</ele><time>2026-04-25T14:49:20.953Z</time></trkpt><trkpt lat="46.5709043" lon="12.5633769"><ele>1421.0</ele><time>2026-04-25T14:49:22.952Z</time></trkpt><trkpt lat="46.5709303" lon="12.5635309"><ele>1421.0</ele><time>2026-04-25T14:49:24.952Z</time></trkpt><trkpt lat="46.5709675" lon="12.5636841"><ele>1421.0</ele><time>2026-04-25T14:49:26.954Z</time></trkpt><trkpt lat="46.5709323" lon="12.5637721"><ele>1421.0</ele><time>2026-04-25T14:49:28.952Z</time></trkpt><trkpt lat="46.5708479" lon="12.5637298"><ele>1421.0</ele><time>2026-04-25T14:49:30.952Z</time></trkpt><trkpt lat="46.5707976" lon="12.5636637"><ele>1421.0</ele><time>2026-04-25T14:49:31.952Z</time></trkpt><trkpt lat="46.570734" lon="12.5635938"><ele>1421.0</ele><time>2026-04-25T14:49:32.953Z</time></trkpt><trkpt lat="46.5706656" lon="12.5635247"><ele>1421.0</ele><time>2026-04-25T14:49:33.952Z</time></trkpt><trkpt lat="46.5705911" lon="12.5634549"><ele>1421.0</ele><time>2026-04-25T14:49:34.951Z</time></trkpt><trkpt lat="46.5705142" lon="12.5633899"><ele>1421.0</ele><time>2026-04-25T14:49:35.952Z</time></trkpt><trkpt lat="46.5704159" lon="12.5633782"><ele>1421.0</ele><time>2026-04-25T14:49:36.951Z</time></trkpt><trkpt lat="46.570323" lon="12.5633759"><ele>1414.8333333333335</ele><time>2026-04-25T14:49:37.953Z</time></trkpt><trkpt lat="46.5702297" lon="12.5633718"><ele>1408.6666666666667</ele><time>2026-04-25T14:49:38.952Z</time></trkpt><trkpt lat="46.5701452" lon="12.5633454"><ele>1402.5</ele><time>2026-04-25T14:49:39.952Z</time></trkpt><trkpt lat="46.5700631" lon="12.5633109"><ele>1396.3333333333333</ele><time>2026-04-25T14:49:40.953Z</time></trkpt><trkpt lat="46.5699977" lon="12.5632327"><ele>1390.1666666666665</ele><time>2026-04-25T14:49:41.953Z</time></trkpt><trkpt lat="46.5699354" lon="12.5631524"><ele>1384.0</ele><time>2026-04-25T14:49:42.953Z</time></trkpt><trkpt lat="46.5698805" lon="12.5630642"><ele>1384.0</ele><time>2026-04-25T14:49:43.953Z</time></trkpt><trkpt lat="46.5698305" lon="12.5629798"><ele>1384.0</ele><time>2026-04-25T14:49:44.952Z</time></trkpt><trkpt lat="46.5697761" lon="12.5628972"><ele>1384.0</ele><time>2026-04-25T14:49:45.952Z</time></trkpt><trkpt lat="46.5697256" lon="12.5628132"><ele>1384.0</ele><time>2026-04-25T14:49:46.951Z</time></trkpt><trkpt lat="46.5696732" lon="12.56273"><ele>1384.0</ele><time>2026-04-25T14:49:47.952Z</time></trkpt><trkpt lat="46.5696215" lon="12.5626359"><ele>1384.0</ele><time>2026-04-25T14:49:48.952Z</time></trkpt><trkpt lat="46.5695707" lon="12.5625419"><ele>1379.2</ele><time>2026-04-25T14:49:49.953Z</time></trkpt><trkpt lat="46.5695114" lon="12.5624523"><ele>1374.4</ele><time>2026-04-25T14:49:50.952Z</time></trkpt><trkpt lat="46.5694578" lon="12.5623691"><ele>1369.6</ele><time>2026-04-25T14:49:51.953Z</time></trkpt><trkpt lat="46.5694115" lon="12.5622092"><ele>1364.8</ele><time>2026-04-25T14:49:53.953Z</time></trkpt><trkpt lat="46.5694419" lon="12.5620182"><ele>1360.0</ele><time>2026-04-25T14:49:55.953Z</time></trkpt><trkpt lat="46.569462" lon="12.5619041"><ele>1360.0</ele><time>2026-04-25T14:49:56.952Z</time></trkpt><trkpt lat="46.5694667" lon="12.5617816"><ele>1360.0</ele><time>2026-04-25T14:49:57.952Z</time></trkpt><trkpt lat="46.569441" lon="12.561653"><ele>1360.0</ele><time>2026-04-25T14:49:58.953Z</time></trkpt><trkpt lat="46.5694151" lon="12.5615223"><ele>1360.0</ele><time>2026-04-25T14:49:59.952Z</time></trkpt><trkpt lat="46.5693974" lon="12.561388"><ele>1360.0</ele><time>2026-04-25T14:50:00.953Z</time></trkpt><trkpt lat="46.5693822" lon="12.5612511"><ele>1359.4</ele><time>2026-04-25T14:50:01.952Z</time></trkpt><trkpt lat="46.5693761" lon="12.5610996"><ele>1358.8</ele><time>2026-04-25T14:50:02.951Z</time></trkpt><trkpt lat="46.5693397" lon="12.5609586"><ele>1358.1999999999998</ele><time>2026-04-25T14:50:03.951Z</time></trkpt><trkpt lat="46.5693018" lon="12.5608298"><ele>1357.6</ele><time>2026-04-25T14:50:04.952Z</time></trkpt><trkpt lat="46.5692628" lon="12.5607114"><ele>1357.0</ele><time>2026-04-25T14:50:05.952Z</time></trkpt><trkpt lat="46.5692303" lon="12.5605872"><ele>1357.0</ele><time>2026-04-25T14:50:06.953Z</time></trkpt><trkpt lat="46.5691911" lon="12.5604627"><ele>1357.0</ele><time>2026-04-25T14:50:07.953Z</time></trkpt><trkpt lat="46.569159" lon="12.5603392"><ele>1357.0</ele><time>2026-04-25T14:50:08.953Z</time></trkpt><trkpt lat="46.5691419" lon="12.5602134"><ele>1357.0</ele><time>2026-04-25T14:50:09.953Z</time></trkpt><trkpt lat="46.5691229" lon="12.5600811"><ele>1357.0</ele><time>2026-04-25T14:50:10.952Z</time></trkpt><trkpt lat="46.5691023" lon="12.5599525"><ele>1359.0</ele><time>2026-04-25T14:50:11.953Z</time></trkpt><trkpt lat="46.5690667" lon="12.5598337"><ele>1361.0</ele><time>2026-04-25T14:50:12.954Z</time></trkpt><trkpt lat="46.5690179" lon="12.5597067"><ele>1363.0</ele><time>2026-04-25T14:50:13.953Z</time></trkpt><trkpt lat="46.5689554" lon="12.5595843"><ele>1365.0</ele><time>2026-04-25T14:50:14.953Z</time></trkpt><trkpt lat="46.5688958" lon="12.5594525"><ele>1367.0</ele><time>2026-04-25T14:50:15.951Z</time></trkpt><trkpt lat="46.5688356" lon="12.5593281"><ele>1369.1999999999998</ele><time>2026-04-25T14:50:16.952Z</time></trkpt><trkpt lat="46.5687683" lon="12.5592157"><ele>1371.4</ele><time>2026-04-25T14:50:17.951Z</time></trkpt><trkpt lat="46.5687025" lon="12.5591154"><ele>1373.6</ele><time>2026-04-25T14:50:18.953Z</time></trkpt><trkpt lat="46.568636" lon="12.5590152"><ele>1375.8000000000002</ele><time>2026-04-25T14:50:19.953Z</time></trkpt><trkpt lat="46.5685734" lon="12.5589026"><ele>1378.0</ele><time>2026-04-25T14:50:20.953Z</time></trkpt><trkpt lat="46.5685102" lon="12.5587866"><ele>1373.6000000000001</ele><time>2026-04-25T14:50:21.952Z</time></trkpt><trkpt lat="46.5684498" lon="12.558677"><ele>1369.2</ele><time>2026-04-25T14:50:22.952Z</time></trkpt><trkpt lat="46.5683732" lon="12.5585726"><ele>1364.8</ele><time>2026-04-25T14:50:23.952Z</time></trkpt><trkpt lat="46.5683021" lon="12.5584697"><ele>1360.4</ele><time>2026-04-25T14:50:24.951Z</time></trkpt><trkpt lat="46.5682294" lon="12.5583722"><ele>1356.0</ele><time>2026-04-25T14:50:25.953Z</time></trkpt><trkpt lat="46.5681499" lon="12.5582873"><ele>1356.0</ele><time>2026-04-25T14:50:26.952Z</time></trkpt><trkpt lat="46.5680731" lon="12.5582066"><ele>1356.0</ele><time>2026-04-25T14:50:27.952Z</time></trkpt><trkpt lat="46.568" lon="12.558121"><ele>1356.0</ele><time>2026-04-25T14:50:28.952Z</time></trkpt><trkpt lat="46.5679263" lon="12.558045"><ele>1356.0</ele><time>2026-04-25T14:50:29.952Z</time></trkpt><trkpt lat="46.567844" lon="12.5579846"><ele>1356.0</ele><time>2026-04-25T14:50:30.953Z</time></trkpt><trkpt lat="46.567761" lon="12.5579404"><ele>1352.5</ele><time>2026-04-25T14:50:31.952Z</time></trkpt><trkpt lat="46.5676856" lon="12.5578929"><ele>1349.0</ele><time>2026-04-25T14:50:32.953Z</time></trkpt><trkpt lat="46.5676342" lon="12.5578298"><ele>1345.5</ele><time>2026-04-25T14:50:33.952Z</time></trkpt><trkpt lat="46.5675809" lon="12.5577666"><ele>1342.0</ele><time>2026-04-25T14:50:34.952Z</time></trkpt><trkpt lat="46.5675004" lon="12.5576319"><ele>1338.5</ele><time>2026-04-25T14:50:36.953Z</time></trkpt><trkpt lat="46.5674644" lon="12.5575442"><ele>1335.0</ele><time>2026-04-25T14:50:37.952Z</time></trkpt><trkpt lat="46.5674338" lon="12.5574452"><ele>1335.0</ele><time>2026-04-25T14:50:38.952Z</time></trkpt><trkpt lat="46.5674056" lon="12.5573414"><ele>1335.0</ele><time>2026-04-25T14:50:39.952Z</time></trkpt><trkpt lat="46.5673717" lon="12.5572384"><ele>1335.0</ele><time>2026-04-25T14:50:40.952Z</time></trkpt><trkpt lat="46.5673396" lon="12.5571229"><ele>1335.0</ele><time>2026-04-25T14:50:41.953Z</time></trkpt><trkpt lat="46.5672997" lon="12.5570085"><ele>1335.0</ele><time>2026-04-25T14:50:42.953Z</time></trkpt><trkpt lat="46.5672563" lon="12.5568891"><ele>1335.0</ele><time>2026-04-25T14:50:43.952Z</time></trkpt><trkpt lat="46.5672078" lon="12.5567728"><ele>1334.0</ele><time>2026-04-25T14:50:44.951Z</time></trkpt><trkpt lat="46.5671541" lon="12.5566606"><ele>1333.0</ele><time>2026-04-25T14:50:45.951Z</time></trkpt><trkpt lat="46.5670994" lon="12.5565445"><ele>1332.0</ele><time>2026-04-25T14:50:46.952Z</time></trkpt><trkpt lat="46.5670441" lon="12.5564303"><ele>1331.0</ele><time>2026-04-25T14:50:47.952Z</time></trkpt><trkpt lat="46.5669935" lon="12.5563083"><ele>1330.0</ele><time>2026-04-25T14:50:48.952Z</time></trkpt><trkpt lat="46.5669561" lon="12.5561962"><ele>1326.0</ele><time>2026-04-25T14:50:49.952Z</time></trkpt><trkpt lat="46.5669212" lon="12.5561008"><ele>1322.0</ele><time>2026-04-25T14:50:50.951Z</time></trkpt><trkpt lat="46.5668897" lon="12.5560111"><ele>1318.0</ele><time>2026-04-25T14:50:51.953Z</time></trkpt><trkpt lat="46.5668659" lon="12.5559248"><ele>1314.0</ele><time>2026-04-25T14:50:52.952Z</time></trkpt><trkpt lat="46.5668555" lon="12.5558335"><ele>1310.0</ele><time>2026-04-25T14:50:53.951Z</time></trkpt><trkpt lat="46.5668739" lon="12.5556827"><ele>1306.0</ele><time>2026-04-25T14:50:55.951Z</time></trkpt><trkpt lat="46.5668947" lon="12.5555962"><ele>1302.0</ele><time>2026-04-25T14:50:57.951Z</time></trkpt><trkpt lat="46.5667997" lon="12.5555779"><ele>1302.0</ele><time>2026-04-25T14:51:00.952Z</time></trkpt><trkpt lat="46.5667457" lon="12.5556707"><ele>1302.0</ele><time>2026-04-25T14:51:01.952Z</time></trkpt><trkpt lat="46.5667027" lon="12.5558014"><ele>1302.0</ele><time>2026-04-25T14:51:02.952Z</time></trkpt><trkpt lat="46.5666675" lon="12.5559587"><ele>1302.0</ele><time>2026-04-25T14:51:03.952Z</time></trkpt><trkpt lat="46.5666368" lon="12.5561314"><ele>1302.0</ele><time>2026-04-25T14:51:04.952Z</time></trkpt><trkpt lat="46.5666321" lon="12.5563217"><ele>1302.5</ele><time>2026-04-25T14:51:05.952Z</time></trkpt><trkpt lat="46.566629" lon="12.5565086"><ele>1303.0</ele><time>2026-04-25T14:51:06.952Z</time></trkpt><trkpt lat="46.5666315" lon="12.5566869"><ele>1303.5</ele><time>2026-04-25T14:51:07.952Z</time></trkpt><trkpt lat="46.566636" lon="12.5568616"><ele>1304.0</ele><time>2026-04-25T14:51:08.952Z</time></trkpt><trkpt lat="46.5666615" lon="12.5570317"><ele>1302.5</ele><time>2026-04-25T14:51:09.953Z</time></trkpt><trkpt lat="46.5666981" lon="12.5571964"><ele>1301.0</ele><time>2026-04-25T14:51:10.952Z</time></trkpt><trkpt lat="46.5667454" lon="12.5573606"><ele>1299.5</ele><time>2026-04-25T14:51:11.953Z</time></trkpt><trkpt lat="46.5667941" lon="12.5575187"><ele>1298.0</ele><time>2026-04-25T14:51:12.953Z</time></trkpt><trkpt lat="46.5668382" lon="12.5576772"><ele>1298.0</ele><time>2026-04-25T14:51:13.953Z</time></trkpt><trkpt lat="46.5668827" lon="12.5578298"><ele>1298.0</ele><time>2026-04-25T14:51:14.952Z</time></trkpt><trkpt lat="46.5669334" lon="12.5579688"><ele>1298.0</ele><time>2026-04-25T14:51:15.953Z</time></trkpt><trkpt lat="46.5669866" lon="12.5581004"><ele>1298.0</ele><time>2026-04-25T14:51:16.953Z</time></trkpt><trkpt lat="46.567058" lon="12.558218"><ele>1298.0</ele><time>2026-04-25T14:51:17.952Z</time></trkpt><trkpt lat="46.567152" lon="12.5583153"><ele>1297.0</ele><time>2026-04-25T14:51:18.952Z</time></trkpt><trkpt lat="46.5672632" lon="12.558392"><ele>1296.0</ele><time>2026-04-25T14:51:19.951Z</time></trkpt><trkpt lat="46.5673785" lon="12.5584751"><ele>1295.0</ele><time>2026-04-25T14:51:20.951Z</time></trkpt><trkpt lat="46.5674815" lon="12.5585827"><ele>1294.0</ele><time>2026-04-25T14:51:21.952Z</time></trkpt><trkpt lat="46.5675777" lon="12.5587023"><ele>1294.0</ele><time>2026-04-25T14:51:22.953Z</time></trkpt><trkpt lat="46.5676377" lon="12.5588736"><ele>1294.0</ele><time>2026-04-25T14:51:23.953Z</time></trkpt><trkpt lat="46.5676986" lon="12.5590491"><ele>1294.0</ele><time>2026-04-25T14:51:24.951Z</time></trkpt><trkpt lat="46.5677574" lon="12.5592319"><ele>1294.0</ele><time>2026-04-25T14:51:25.953Z</time></trkpt><trkpt lat="46.5678176" lon="12.5594115"><ele>1301.0</ele><time>2026-04-25T14:51:26.952Z</time></trkpt><trkpt lat="46.5678844" lon="12.5595794"><ele>1308.0</ele><time>2026-04-25T14:51:27.952Z</time></trkpt><trkpt lat="46.5679595" lon="12.5597318"><ele>1315.0</ele><time>2026-04-25T14:51:28.951Z</time></trkpt><trkpt lat="46.5680372" lon="12.559869"><ele>1322.0</ele><time>2026-04-25T14:51:29.953Z</time></trkpt><trkpt lat="46.5681003" lon="12.5600011"><ele>1322.0</ele><time>2026-04-25T14:51:30.952Z</time></trkpt><trkpt lat="46.5681458" lon="12.5601289"><ele>1322.0</ele><time>2026-04-25T14:51:31.952Z</time></trkpt><trkpt lat="46.5681681" lon="12.5602594"><ele>1322.0</ele><time>2026-04-25T14:51:32.953Z</time></trkpt><trkpt lat="46.5681688" lon="12.5603902"><ele>1322.0</ele><time>2026-04-25T14:51:33.952Z</time></trkpt><trkpt lat="46.5681584" lon="12.5605062"><ele>1322.0</ele><time>2026-04-25T14:51:34.952Z</time></trkpt><trkpt lat="46.5681443" lon="12.5606032"><ele>1322.0</ele><time>2026-04-25T14:51:35.952Z</time></trkpt><trkpt lat="46.5681361" lon="12.5607011"><ele>1320.4285714285713</ele><time>2026-04-25T14:51:36.953Z</time></trkpt><trkpt lat="46.5681274" lon="12.5608005"><ele>1318.857142857143</ele><time>2026-04-25T14:51:37.952Z</time></trkpt><trkpt lat="46.5681217" lon="12.5609013"><ele>1317.2857142857142</ele><time>2026-04-25T14:51:38.953Z</time></trkpt><trkpt lat="46.5681233" lon="12.5610051"><ele>1315.7142857142858</ele><time>2026-04-25T14:51:39.952Z</time></trkpt><trkpt lat="46.5681286" lon="12.5611098"><ele>1314.142857142857</ele><time>2026-04-25T14:51:40.952Z</time></trkpt><trkpt lat="46.5681342" lon="12.5612179"><ele>1312.5714285714287</ele><time>2026-04-25T14:51:41.951Z</time></trkpt><trkpt lat="46.5681353" lon="12.5613213"><ele>1311.0</ele><time>2026-04-25T14:51:42.952Z</time></trkpt><trkpt lat="46.5681327" lon="12.5614144"><ele>1309.25</ele><time>2026-04-25T14:51:43.952Z</time></trkpt><trkpt lat="46.5681384" lon="12.5615651"><ele>1307.5</ele><time>2026-04-25T14:51:45.952Z</time></trkpt><trkpt lat="46.5681685" lon="12.5617368"><ele>1305.75</ele><time>2026-04-25T14:51:47.951Z</time></trkpt><trkpt lat="46.5681897" lon="12.5619071"><ele>1304.0</ele><time>2026-04-25T14:51:49.952Z</time></trkpt><trkpt lat="46.5682005" lon="12.5620622"><ele>1303.0</ele><time>2026-04-25T14:51:51.952Z</time></trkpt><trkpt lat="46.5681972" lon="12.5622161"><ele>1302.0</ele><time>2026-04-25T14:51:53.952Z</time></trkpt><trkpt lat="46.5681703" lon="12.5623646"><ele>1301.0</ele><time>2026-04-25T14:51:55.952Z</time></trkpt><trkpt lat="46.5681087" lon="12.5624942"><ele>1300.0</ele><time>2026-04-25T14:51:57.953Z</time></trkpt><trkpt lat="46.5680428" lon="12.5626023"><ele>1299.0</ele><time>2026-04-25T14:51:59.952Z</time></trkpt><trkpt lat="46.567981" lon="12.5625603"><ele>1299.0</ele><time>2026-04-25T14:52:02.952Z</time></trkpt><trkpt lat="46.567928" lon="12.5624586"><ele>1299.0</ele><time>2026-04-25T14:52:06.952Z</time></trkpt><trkpt lat="46.5678783" lon="12.5623394"><ele>1299.0</ele><time>2026-04-25T14:52:08.951Z</time></trkpt><trkpt lat="46.5678006" lon="12.5622402"><ele>1299.0</ele><time>2026-04-25T14:52:10.951Z</time></trkpt><trkpt lat="46.5677214" lon="12.5621451"><ele>1299.0</ele><time>2026-04-25T14:52:12.953Z</time></trkpt><trkpt lat="46.5676523" lon="12.56203"><ele>1290.0</ele><time>2026-04-25T14:52:14.952Z</time></trkpt><trkpt lat="46.5675911" lon="12.5618968"><ele>1281.0</ele><time>2026-04-25T14:52:16.951Z</time></trkpt><trkpt lat="46.5675274" lon="12.561871"><ele>1272.0</ele><time>2026-04-25T14:52:19.952Z</time></trkpt><trkpt lat="46.567509" lon="12.5619775"><ele>1263.0</ele><time>2026-04-25T14:52:21.953Z</time></trkpt><trkpt lat="46.567488" lon="12.5621265"><ele>1254.0</ele><time>2026-04-25T14:52:23.951Z</time></trkpt><trkpt lat="46.5674746" lon="12.5622844"><ele>1253.3333333333333</ele><time>2026-04-25T14:52:25.952Z</time></trkpt><trkpt lat="46.5674663" lon="12.562444"><ele>1252.6666666666667</ele><time>2026-04-25T14:52:27.951Z</time></trkpt><trkpt lat="46.5674553" lon="12.5625896"><ele>1252.0</ele><time>2026-04-25T14:52:29.952Z</time></trkpt><trkpt lat="46.5674238" lon="12.5626788"><ele>1251.3333333333335</ele><time>2026-04-25T14:52:31.952Z</time></trkpt><trkpt lat="46.5673527" lon="12.5627035"><ele>1250.6666666666667</ele><time>2026-04-25T14:52:33.952Z</time></trkpt><trkpt lat="46.5672863" lon="12.5626455"><ele>1250.0</ele><time>2026-04-25T14:52:35.952Z</time></trkpt><trkpt lat="46.5672296" lon="12.5625528"><ele>1250.0</ele><time>2026-04-25T14:52:37.952Z</time></trkpt><trkpt lat="46.567177" lon="12.5624367"><ele>1250.0</ele><time>2026-04-25T14:52:39.952Z</time></trkpt><trkpt lat="46.5671246" lon="12.5623263"><ele>1250.0</ele><time>2026-04-25T14:52:41.953Z</time></trkpt><trkpt lat="46.5670914" lon="12.5622052"><ele>1250.0</ele><time>2026-04-25T14:52:43.952Z</time></trkpt><trkpt lat="46.5670555" lon="12.5620937"><ele>1250.0</ele><time>2026-04-25T14:52:45.952Z</time></trkpt><trkpt lat="46.5670077" lon="12.5619998"><ele>1250.0</ele><time>2026-04-25T14:52:47.951Z</time></trkpt><trkpt lat="46.5669291" lon="12.5619026"><ele>1243.6666666666667</ele><time>2026-04-25T14:52:49.952Z</time></trkpt><trkpt lat="46.5668802" lon="12.5618074"><ele>1237.3333333333335</ele><time>2026-04-25T14:52:51.953Z</time></trkpt><trkpt lat="46.5668395" lon="12.5616667"><ele>1231.0</ele><time>2026-04-25T14:52:53.952Z</time></trkpt><trkpt lat="46.5668299" lon="12.5615351"><ele>1224.6666666666667</ele><time>2026-04-25T14:52:55.952Z</time></trkpt><trkpt lat="46.5668445" lon="12.5614203"><ele>1218.3333333333333</ele><time>2026-04-25T14:52:57.953Z</time></trkpt><trkpt lat="46.5668198" lon="12.5613279"><ele>1212.0</ele><time>2026-04-25T14:52:59.952Z</time></trkpt><trkpt lat="46.5667315" lon="12.5612747"><ele>1212.0</ele><time>2026-04-25T14:53:01.952Z</time></trkpt><trkpt lat="46.5666379" lon="12.5612325"><ele>1212.0</ele><time>2026-04-25T14:53:03.952Z</time></trkpt><trkpt lat="46.566553" lon="12.5611635"><ele>1212.0</ele><time>2026-04-25T14:53:05.952Z</time></trkpt><trkpt lat="46.5664866" lon="12.5610991"><ele>1212.0</ele><time>2026-04-25T14:53:07.952Z</time></trkpt><trkpt lat="46.5664174" lon="12.5610498"><ele>1212.0</ele><time>2026-04-25T14:53:09.952Z</time></trkpt><trkpt lat="46.5663433" lon="12.5610027"><ele>1212.0</ele><time>2026-04-25T14:53:11.952Z</time></trkpt><trkpt lat="46.5662521" lon="12.5609639"><ele>1207.2857142857142</ele><time>2026-04-25T14:53:13.951Z</time></trkpt><trkpt lat="46.5661829" lon="12.5609522"><ele>1202.5714285714284</ele><time>2026-04-25T14:53:15.952Z</time></trkpt><trkpt lat="46.5661066" lon="12.5609593"><ele>1197.8571428571427</ele><time>2026-04-25T14:53:18.951Z</time></trkpt><trkpt lat="46.5660266" lon="12.5609804"><ele>1193.142857142857</ele><time>2026-04-25T14:53:21.953Z</time></trkpt><trkpt lat="46.5659616" lon="12.5609936"><ele>1188.4285714285713</ele><time>2026-04-25T14:53:24.952Z</time></trkpt><trkpt lat="46.5659493" lon="12.5611089"><ele>1183.7142857142856</ele><time>2026-04-25T14:53:26.951Z</time></trkpt><trkpt lat="46.5659403" lon="12.5612028"><ele>1179.0</ele><time>2026-04-25T14:53:27.952Z</time></trkpt><trkpt lat="46.5659227" lon="12.5613021"><ele>1178.0</ele><time>2026-04-25T14:53:28.952Z</time></trkpt><trkpt lat="46.5659046" lon="12.5614192"><ele>1177.0</ele><time>2026-04-25T14:53:29.953Z</time></trkpt><trkpt lat="46.5658903" lon="12.5615421"><ele>1176.0</ele><time>2026-04-25T14:53:30.951Z</time></trkpt><trkpt lat="46.5658779" lon="12.5616679"><ele>1175.0</ele><time>2026-04-25T14:53:31.952Z</time></trkpt><trkpt lat="46.5658631" lon="12.5617973"><ele>1174.0</ele><time>2026-04-25T14:53:32.952Z</time></trkpt><trkpt lat="46.5658415" lon="12.5619124"><ele>1173.0</ele><time>2026-04-25T14:53:33.952Z</time></trkpt><trkpt lat="46.565821" lon="12.5620126"><ele>1172.5</ele><time>2026-04-25T14:53:34.952Z</time></trkpt><trkpt lat="46.5658337" lon="12.5621896"><ele>1172.0</ele><time>2026-04-25T14:53:36.952Z</time></trkpt><trkpt lat="46.5658684" lon="12.5622764"><ele>1171.5</ele><time>2026-04-25T14:53:37.952Z</time></trkpt><trkpt lat="46.5659056" lon="12.5623601"><ele>1171.0</ele><time>2026-04-25T14:53:38.951Z</time></trkpt><trkpt lat="46.5659228" lon="12.5624541"><ele>1170.5</ele><time>2026-04-25T14:53:39.953Z</time></trkpt><trkpt lat="46.5658931" lon="12.5626243"><ele>1170.0</ele><time>2026-04-25T14:53:41.952Z</time></trkpt><trkpt lat="46.5658688" lon="12.5627248"><ele>1170.0</ele><time>2026-04-25T14:53:42.952Z</time></trkpt><trkpt lat="46.5658514" lon="12.562821"><ele>1170.0</ele><time>2026-04-25T14:53:43.953Z</time></trkpt><trkpt lat="46.5658368" lon="12.5629235"><ele>1170.0</ele><time>2026-04-25T14:53:44.952Z</time></trkpt><trkpt lat="46.565827" lon="12.5630326"><ele>1170.0</ele><time>2026-04-25T14:53:45.952Z</time></trkpt><trkpt lat="46.5658173" lon="12.5631429"><ele>1170.0</ele><time>2026-04-25T14:53:46.953Z</time></trkpt><trkpt lat="46.5658079" lon="12.5632668"><ele>1170.0</ele><time>2026-04-25T14:53:47.951Z</time></trkpt><trkpt lat="46.5657957" lon="12.5633788"><ele>1169.4285714285716</ele><time>2026-04-25T14:53:48.951Z</time></trkpt><trkpt lat="46.5657782" lon="12.5634782"><ele>1168.857142857143</ele><time>2026-04-25T14:53:49.952Z</time></trkpt><trkpt lat="46.5657318" lon="12.5635957"><ele>1168.2857142857142</ele><time>2026-04-25T14:53:50.952Z</time></trkpt><trkpt lat="46.5656908" lon="12.5636916"><ele>1167.7142857142858</ele><time>2026-04-25T14:53:51.952Z</time></trkpt><trkpt lat="46.5656516" lon="12.5637821"><ele>1167.142857142857</ele><time>2026-04-25T14:53:52.952Z</time></trkpt><trkpt lat="46.5656197" lon="12.5638702"><ele>1166.5714285714287</ele><time>2026-04-25T14:53:53.953Z</time></trkpt><trkpt lat="46.5656003" lon="12.5639605"><ele>1166.0</ele><time>2026-04-25T14:53:54.951Z</time></trkpt><trkpt lat="46.5655835" lon="12.5640541"><ele>1165.3333333333335</ele><time>2026-04-25T14:53:55.952Z</time></trkpt><trkpt lat="46.5655789" lon="12.5641533"><ele>1164.6666666666667</ele><time>2026-04-25T14:53:56.952Z</time></trkpt><trkpt lat="46.5655759" lon="12.5642621"><ele>1164.0</ele><time>2026-04-25T14:53:57.952Z</time></trkpt><trkpt lat="46.5655665" lon="12.5643677"><ele>1163.3333333333333</ele><time>2026-04-25T14:53:58.953Z</time></trkpt><trkpt lat="46.5655487" lon="12.5644803"><ele>1162.6666666666665</ele><time>2026-04-25T14:53:59.952Z</time></trkpt><trkpt lat="46.5655333" lon="12.5645911"><ele>1162.0</ele><time>2026-04-25T14:54:00.952Z</time></trkpt><trkpt lat="46.5655192" lon="12.5647043"><ele>1160.5</ele><time>2026-04-25T14:54:01.951Z</time></trkpt><trkpt lat="46.5655125" lon="12.5648055"><ele>1159.0</ele><time>2026-04-25T14:54:02.952Z</time></trkpt><trkpt lat="46.5655233" lon="12.5649752"><ele>1157.5</ele><time>2026-04-25T14:54:04.953Z</time></trkpt><trkpt lat="46.5655443" lon="12.5650632"><ele>1156.0</ele><time>2026-04-25T14:54:05.952Z</time></trkpt><trkpt lat="46.5655795" lon="12.5651529"><ele>1154.5</ele><time>2026-04-25T14:54:06.952Z</time></trkpt><trkpt lat="46.5656126" lon="12.5652493"><ele>1153.0</ele><time>2026-04-25T14:54:07.952Z</time></trkpt><trkpt lat="46.5656344" lon="12.5653533"><ele>1151.2</ele><time>2026-04-25T14:54:08.953Z</time></trkpt><trkpt lat="46.5656406" lon="12.5654684"><ele>1149.4</ele><time>2026-04-25T14:54:09.952Z</time></trkpt><trkpt lat="46.5656228" lon="12.5655777"><ele>1147.6000000000001</ele><time>2026-04-25T14:54:10.952Z</time></trkpt><trkpt lat="46.5655862" lon="12.5656653"><ele>1145.8</ele><time>2026-04-25T14:54:11.952Z</time></trkpt><trkpt lat="46.5655461" lon="12.5658019"><ele>1144.0</ele><time>2026-04-25T14:54:13.953Z</time></trkpt><trkpt lat="46.5655795" lon="12.5659851"><ele>1144.0</ele><time>2026-04-25T14:54:15.952Z</time></trkpt><trkpt lat="46.565621" lon="12.5660911"><ele>1144.0</ele><time>2026-04-25T14:54:16.952Z</time></trkpt><trkpt lat="46.5656622" lon="12.5662079"><ele>1144.0</ele><time>2026-04-25T14:54:17.953Z</time></trkpt><trkpt lat="46.5656998" lon="12.5663294"><ele>1144.0</ele><time>2026-04-25T14:54:18.952Z</time></trkpt><trkpt lat="46.5657219" lon="12.5664626"><ele>1144.0</ele><time>2026-04-25T14:54:19.952Z</time></trkpt><trkpt lat="46.5657292" lon="12.5665953"><ele>1141.0</ele><time>2026-04-25T14:54:20.952Z</time></trkpt><trkpt lat="46.5657495" lon="12.5667166"><ele>1138.0</ele><time>2026-04-25T14:54:21.951Z</time></trkpt><trkpt lat="46.5657985" lon="12.5668329"><ele>1135.0</ele><time>2026-04-25T14:54:22.952Z</time></trkpt><trkpt lat="46.5658627" lon="12.5669488"><ele>1132.0</ele><time>2026-04-25T14:54:23.952Z</time></trkpt><trkpt lat="46.5659306" lon="12.5670451"><ele>1129.0</ele><time>2026-04-25T14:54:24.952Z</time></trkpt><trkpt lat="46.5659913" lon="12.5671224"><ele>1130.0</ele><time>2026-04-25T14:54:25.952Z</time></trkpt><trkpt lat="46.566071" lon="12.5671811"><ele>1131.0</ele><time>2026-04-25T14:54:26.952Z</time></trkpt><trkpt lat="46.5661599" lon="12.5672188"><ele>1132.0</ele><time>2026-04-25T14:54:27.951Z</time></trkpt><trkpt lat="46.5662448" lon="12.567253"><ele>1133.0</ele><time>2026-04-25T14:54:28.951Z</time></trkpt><trkpt lat="46.5663655" lon="12.567318"><ele>1134.0</ele><time>2026-04-25T14:54:30.952Z</time></trkpt><trkpt lat="46.5664342" lon="12.5673324"><ele>1134.0</ele><time>2026-04-25T14:54:31.952Z</time></trkpt><trkpt lat="46.5664982" lon="12.567354"><ele>1134.0</ele><time>2026-04-25T14:54:32.952Z</time></trkpt><trkpt lat="46.5666055" lon="12.5673304"><ele>1134.0</ele><time>2026-04-25T14:54:34.952Z</time></trkpt><trkpt lat="46.5666796" lon="12.567327"><ele>1134.0</ele><time>2026-04-25T14:54:35.952Z</time></trkpt><trkpt lat="46.5667491" lon="12.5673366"><ele>1134.0</ele><time>2026-04-25T14:54:36.952Z</time></trkpt><trkpt lat="46.5668078" lon="12.5673779"><ele>1134.0</ele><time>2026-04-25T14:54:37.952Z</time></trkpt><trkpt lat="46.5668565" lon="12.5674366"><ele>1134.0</ele><time>2026-04-25T14:54:38.952Z</time></trkpt><trkpt lat="46.5669005" lon="12.5675026"><ele>1134.0</ele><time>2026-04-25T14:54:39.953Z</time></trkpt><trkpt lat="46.5669418" lon="12.5676001"><ele>1134.0</ele><time>2026-04-25T14:54:40.953Z</time></trkpt><trkpt lat="46.5669777" lon="12.5677025"><ele>1134.0</ele><time>2026-04-25T14:54:41.952Z</time></trkpt><trkpt lat="46.5670243" lon="12.5678104"><ele>1134.0</ele><time>2026-04-25T14:54:42.951Z</time></trkpt><trkpt lat="46.5670538" lon="12.5679159"><ele>1134.0</ele><time>2026-04-25T14:54:43.951Z</time></trkpt><trkpt lat="46.5670668" lon="12.5680316"><ele>1134.0</ele><time>2026-04-25T14:54:44.952Z</time></trkpt><trkpt lat="46.5670697" lon="12.5681275"><ele>1137.2</ele><time>2026-04-25T14:54:45.951Z</time></trkpt><trkpt lat="46.5670968" lon="12.5682209"><ele>1140.4</ele><time>2026-04-25T14:54:46.951Z</time></trkpt><trkpt lat="46.5671443" lon="12.5683406"><ele>1143.6</ele><time>2026-04-25T14:54:48.952Z</time></trkpt><trkpt lat="46.5671084" lon="12.5684656"><ele>1146.8</ele><time>2026-04-25T14:54:51.951Z</time></trkpt><trkpt lat="46.5670439" lon="12.5685644"><ele>1150.0</ele><time>2026-04-25T14:54:53.952Z</time></trkpt><trkpt lat="46.5670176" lon="12.5687121"><ele>1147.8</ele><time>2026-04-25T14:54:55.952Z</time></trkpt><trkpt lat="46.5669901" lon="12.5688186"><ele>1145.6</ele><time>2026-04-25T14:54:57.952Z</time></trkpt><trkpt lat="46.5670166" lon="12.568951"><ele>1143.4</ele><time>2026-04-25T14:55:00.952Z</time></trkpt><trkpt lat="46.5671189" lon="12.5690222"><ele>1141.2</ele><time>2026-04-25T14:55:02.952Z</time></trkpt><trkpt lat="46.5672128" lon="12.5691369"><ele>1139.0</ele><time>2026-04-25T14:55:04.952Z</time></trkpt><trkpt lat="46.56725" lon="12.5692192"><ele>1139.0</ele><time>2026-04-25T14:55:05.952Z</time></trkpt><trkpt lat="46.5672986" lon="12.5693027"><ele>1139.0</ele><time>2026-04-25T14:55:06.952Z</time></trkpt><trkpt lat="46.5673511" lon="12.5693648"><ele>1139.0</ele><time>2026-04-25T14:55:07.952Z</time></trkpt><trkpt lat="46.5673991" lon="12.5694357"><ele>1139.0</ele><time>2026-04-25T14:55:08.951Z</time></trkpt><trkpt lat="46.5674541" lon="12.5695703"><ele>1139.0</ele><time>2026-04-25T14:55:10.952Z</time></trkpt><trkpt lat="46.5674549" lon="12.5696713"><ele>1139.0</ele><time>2026-04-25T14:55:12.952Z</time></trkpt><trkpt lat="46.5673856" lon="12.5696896"><ele>1134.8333333333335</ele><time>2026-04-25T14:55:13.951Z</time></trkpt><trkpt lat="46.5673079" lon="12.569791"><ele>1130.6666666666667</ele><time>2026-04-25T14:55:15.952Z</time></trkpt><trkpt lat="46.5672743" lon="12.5698816"><ele>1126.5</ele><time>2026-04-25T14:55:16.952Z</time></trkpt><trkpt lat="46.5672433" lon="12.5699775"><ele>1122.3333333333333</ele><time>2026-04-25T14:55:17.951Z</time></trkpt><trkpt lat="46.567217" lon="12.5700821"><ele>1118.1666666666665</ele><time>2026-04-25T14:55:18.951Z</time></trkpt><trkpt lat="46.5671882" lon="12.5701848"><ele>1114.0</ele><time>2026-04-25T14:55:19.952Z</time></trkpt><trkpt lat="46.5671615" lon="12.570291"><ele>1114.8333333333333</ele><time>2026-04-25T14:55:20.952Z</time></trkpt><trkpt lat="46.5671317" lon="12.5703863"><ele>1115.6666666666665</ele><time>2026-04-25T14:55:21.952Z</time></trkpt><trkpt lat="46.5670998" lon="12.5704778"><ele>1116.5</ele><time>2026-04-25T14:55:22.952Z</time></trkpt><trkpt lat="46.567073" lon="12.570566"><ele>1117.3333333333333</ele><time>2026-04-25T14:55:23.952Z</time></trkpt><trkpt lat="46.567036" lon="12.5706488"><ele>1118.1666666666667</ele><time>2026-04-25T14:55:24.952Z</time></trkpt><trkpt lat="46.5669627" lon="12.5707599"><ele>1119.0</ele><time>2026-04-25T14:55:26.952Z</time></trkpt><trkpt lat="46.5669138" lon="12.5708936"><ele>1113.0</ele><time>2026-04-25T14:55:28.952Z</time></trkpt><trkpt lat="46.5669026" lon="12.5709844"><ele>1107.0</ele><time>2026-04-25T14:55:29.952Z</time></trkpt><trkpt lat="46.5668929" lon="12.5710826"><ele>1101.0</ele><time>2026-04-25T14:55:30.951Z</time></trkpt><trkpt lat="46.5668663" lon="12.571186"><ele>1095.0</ele><time>2026-04-25T14:55:31.952Z</time></trkpt><trkpt lat="46.5668249" lon="12.5712802"><ele>1089.0</ele><time>2026-04-25T14:55:32.952Z</time></trkpt><trkpt lat="46.5667745" lon="12.5713727"><ele>1083.0</ele><time>2026-04-25T14:55:33.952Z</time></trkpt><trkpt lat="46.5667216" lon="12.5714488"><ele>1077.0</ele><time>2026-04-25T14:55:34.953Z</time></trkpt><trkpt lat="46.5666725" lon="12.5715109"><ele>1077.0</ele><time>2026-04-25T14:55:35.952Z</time></trkpt><trkpt lat="46.5666091" lon="12.5716427"><ele>1077.0</ele><time>2026-04-25T14:55:37.952Z</time></trkpt><trkpt lat="46.5665918" lon="12.5718274"><ele>1077.0</ele><time>2026-04-25T14:55:39.952Z</time></trkpt><trkpt lat="46.5665988" lon="12.5719291"><ele>1077.0</ele><time>2026-04-25T14:55:40.951Z</time></trkpt><trkpt lat="46.5666085" lon="12.5720249"><ele>1077.0</ele><time>2026-04-25T14:55:41.953Z</time></trkpt><trkpt lat="46.5666232" lon="12.572119"><ele>1077.0</ele><time>2026-04-25T14:55:42.952Z</time></trkpt><trkpt lat="46.5666583" lon="12.5722833"><ele>1075.2</ele><time>2026-04-25T14:55:44.952Z</time></trkpt><trkpt lat="46.5667005" lon="12.5724174"><ele>1073.4</ele><time>2026-04-25T14:55:46.952Z</time></trkpt><trkpt lat="46.5667914" lon="12.5725556"><ele>1071.6</ele><time>2026-04-25T14:55:48.952Z</time></trkpt><trkpt lat="46.5668444" lon="12.5726416"><ele>1069.8</ele><time>2026-04-25T14:55:49.952Z</time></trkpt><trkpt lat="46.5668877" lon="12.5727309"><ele>1068.0</ele><time>2026-04-25T14:55:50.952Z</time></trkpt><trkpt lat="46.5669113" lon="12.57282"><ele>1065.8</ele><time>2026-04-25T14:55:51.952Z</time></trkpt><trkpt lat="46.5669444" lon="12.572971"><ele>1063.6</ele><time>2026-04-25T14:55:53.952Z</time></trkpt><trkpt lat="46.5669194" lon="12.5731443"><ele>1061.4</ele><time>2026-04-25T14:55:55.952Z</time></trkpt><trkpt lat="46.5668942" lon="12.5732333"><ele>1059.2</ele><time>2026-04-25T14:55:56.952Z</time></trkpt><trkpt lat="46.5668409" lon="12.5733583"><ele>1057.0</ele><time>2026-04-25T14:55:58.952Z</time></trkpt><trkpt lat="46.5668036" lon="12.5734564"><ele>1057.0</ele><time>2026-04-25T14:56:00.952Z</time></trkpt><trkpt lat="46.5667988" lon="12.5736231"><ele>1057.0</ele><time>2026-04-25T14:56:02.952Z</time></trkpt><trkpt lat="46.5668003" lon="12.5737163"><ele>1057.0</ele><time>2026-04-25T14:56:03.952Z</time></trkpt><trkpt lat="46.5668104" lon="12.5738202"><ele>1057.0</ele><time>2026-04-25T14:56:04.952Z</time></trkpt><trkpt lat="46.5668196" lon="12.5739165"><ele>1057.0</ele><time>2026-04-25T14:56:05.952Z</time></trkpt><trkpt lat="46.5668254" lon="12.5740122"><ele>1057.0</ele><time>2026-04-25T14:56:06.951Z</time></trkpt><trkpt lat="46.5668276" lon="12.5741068"><ele>1057.0</ele><time>2026-04-25T14:56:07.951Z</time></trkpt><trkpt lat="46.5668316" lon="12.5742006"><ele>1054.8333333333333</ele><time>2026-04-25T14:56:08.952Z</time></trkpt><trkpt lat="46.5668369" lon="12.5742955"><ele>1052.6666666666665</ele><time>2026-04-25T14:56:09.952Z</time></trkpt><trkpt lat="46.5668518" lon="12.5744056"><ele>1050.5</ele><time>2026-04-25T14:56:10.952Z</time></trkpt><trkpt lat="46.5668628" lon="12.5745064"><ele>1048.3333333333333</ele><time>2026-04-25T14:56:11.952Z</time></trkpt><trkpt lat="46.5668613" lon="12.5746915"><ele>1046.1666666666667</ele><time>2026-04-25T14:56:13.952Z</time></trkpt><trkpt lat="46.5668531" lon="12.574786"><ele>1044.0</ele><time>2026-04-25T14:56:14.952Z</time></trkpt><trkpt lat="46.5668412" lon="12.5749367"><ele>1042.3333333333333</ele><time>2026-04-25T14:56:16.952Z</time></trkpt><trkpt lat="46.566821" lon="12.5750474"><ele>1040.6666666666667</ele><time>2026-04-25T14:56:18.952Z</time></trkpt><trkpt lat="46.5667996" lon="12.5751871"><ele>1039.0</ele><time>2026-04-25T14:56:20.952Z</time></trkpt><trkpt lat="46.5667912" lon="12.5753545"><ele>1037.3333333333335</ele><time>2026-04-25T14:56:22.952Z</time></trkpt><trkpt lat="46.5667912" lon="12.5754576"><ele>1035.6666666666667</ele><time>2026-04-25T14:56:23.951Z</time></trkpt><trkpt lat="46.5667963" lon="12.5755597"><ele>1034.0</ele><time>2026-04-25T14:56:24.952Z</time></trkpt><trkpt lat="46.5667779" lon="12.5757258"><ele>1031.6666666666667</ele><time>2026-04-25T14:56:26.952Z</time></trkpt><trkpt lat="46.5667292" lon="12.5758668"><ele>1029.3333333333335</ele><time>2026-04-25T14:56:28.952Z</time></trkpt><trkpt lat="46.5667012" lon="12.5759509"><ele>1027.0</ele><time>2026-04-25T14:56:29.951Z</time></trkpt><trkpt lat="46.5666713" lon="12.5760494"><ele>1024.6666666666667</ele><time>2026-04-25T14:56:30.952Z</time></trkpt><trkpt lat="46.5666378" lon="12.576163"><ele>1022.3333333333334</ele><time>2026-04-25T14:56:31.951Z</time></trkpt><trkpt lat="46.5666079" lon="12.5762979"><ele>1020.0</ele><time>2026-04-25T14:56:32.952Z</time></trkpt><trkpt lat="46.5665771" lon="12.5764338"><ele>1017.8333333333334</ele><time>2026-04-25T14:56:33.952Z</time></trkpt><trkpt lat="46.5665469" lon="12.5765619"><ele>1015.6666666666667</ele><time>2026-04-25T14:56:34.952Z</time></trkpt><trkpt lat="46.5665101" lon="12.5766761"><ele>1013.5</ele><time>2026-04-25T14:56:35.952Z</time></trkpt><trkpt lat="46.5664689" lon="12.5767844"><ele>1011.3333333333334</ele><time>2026-04-25T14:56:36.952Z</time></trkpt><trkpt lat="46.5664296" lon="12.576873"><ele>1009.1666666666667</ele><time>2026-04-25T14:56:37.952Z</time></trkpt><trkpt lat="46.5663942" lon="12.5769675"><ele>1007.0</ele><time>2026-04-25T14:56:38.952Z</time></trkpt><trkpt lat="46.5663602" lon="12.5770779"><ele>1005.4000000000001</ele><time>2026-04-25T14:56:39.952Z</time></trkpt><trkpt lat="46.5663251" lon="12.577204"><ele>1003.8000000000001</ele><time>2026-04-25T14:56:40.952Z</time></trkpt><trkpt lat="46.5663082" lon="12.57735"><ele>1002.2</ele><time>2026-04-25T14:56:41.951Z</time></trkpt><trkpt lat="46.5662971" lon="12.5775065"><ele>1000.6</ele><time>2026-04-25T14:56:42.953Z</time></trkpt><trkpt lat="46.5662892" lon="12.5776516"><ele>999.0</ele><time>2026-04-25T14:56:43.952Z</time></trkpt><trkpt lat="46.5662849" lon="12.5777879"><ele>998.2</ele><time>2026-04-25T14:56:44.951Z</time></trkpt><trkpt lat="46.5662943" lon="12.5779109"><ele>997.4000000000001</ele><time>2026-04-25T14:56:45.952Z</time></trkpt><trkpt lat="46.5662993" lon="12.5780162"><ele>996.6</ele><time>2026-04-25T14:56:46.952Z</time></trkpt><trkpt lat="46.5662522" lon="12.5781411"><ele>995.8</ele><time>2026-04-25T14:56:48.953Z</time></trkpt><trkpt lat="46.5661788" lon="12.5782546"><ele>995.0</ele><time>2026-04-25T14:56:50.952Z</time></trkpt><trkpt lat="46.5661802" lon="12.5783826"><ele>995.0</ele><time>2026-04-25T14:56:51.952Z</time></trkpt><trkpt lat="46.5661867" lon="12.5785206"><ele>995.0</ele><time>2026-04-25T14:56:52.951Z</time></trkpt><trkpt lat="46.5662068" lon="12.5786738"><ele>995.0</ele><time>2026-04-25T14:56:53.952Z</time></trkpt><trkpt lat="46.5662267" lon="12.5788271"><ele>995.0</ele><time>2026-04-25T14:56:54.952Z</time></trkpt><trkpt lat="46.566249" lon="12.5789945"><ele>995.0</ele><time>2026-04-25T14:56:55.952Z</time></trkpt><trkpt lat="46.5662713" lon="12.5791646"><ele>994.2</ele><time>2026-04-25T14:56:56.952Z</time></trkpt><trkpt lat="46.5662873" lon="12.5793341"><ele>993.4</ele><time>2026-04-25T14:56:57.952Z</time></trkpt><trkpt lat="46.5662994" lon="12.5794624"><ele>992.5999999999999</ele><time>2026-04-25T14:56:58.951Z</time></trkpt><trkpt lat="46.5663052" lon="12.5795568"><ele>991.8</ele><time>2026-04-25T14:56:59.953Z</time></trkpt><trkpt lat="46.5662697" lon="12.5796975"><ele>991.0</ele><time>2026-04-25T14:57:01.951Z</time></trkpt><trkpt lat="46.5662036" lon="12.5798668"><ele>984.4999999999999</ele><time>2026-04-25T14:57:03.951Z</time></trkpt><trkpt lat="46.5661727" lon="12.5799692"><ele>978.0</ele><time>2026-04-25T14:57:04.952Z</time></trkpt><trkpt lat="46.5661548" lon="12.5800668"><ele>971.5</ele><time>2026-04-25T14:57:05.952Z</time></trkpt><trkpt lat="46.5660988" lon="12.5801945"><ele>965.0</ele><time>2026-04-25T14:57:07.952Z</time></trkpt><trkpt lat="46.5660029" lon="12.580273"><ele>958.4999999999999</ele><time>2026-04-25T14:57:09.952Z</time></trkpt><trkpt lat="46.5659826" lon="12.5803614"><ele>952.0</ele><time>2026-04-25T14:57:10.951Z</time></trkpt><trkpt lat="46.5659739" lon="12.5804622"><ele>951.9999999999999</ele><time>2026-04-25T14:57:11.953Z</time></trkpt><trkpt lat="46.5659518" lon="12.5805654"><ele>952.0</ele><time>2026-04-25T14:57:12.952Z</time></trkpt><trkpt lat="46.5659232" lon="12.5806524"><ele>952.0</ele><time>2026-04-25T14:57:13.951Z</time></trkpt><trkpt lat="46.5658654" lon="12.5807006"><ele>952.0</ele><time>2026-04-25T14:57:14.952Z</time></trkpt><trkpt lat="46.5657432" lon="12.5807147"><ele>951.9999999999999</ele><time>2026-04-25T14:57:16.952Z</time></trkpt><trkpt lat="46.5656828" lon="12.5806661"><ele>952.0</ele><time>2026-04-25T14:57:17.951Z</time></trkpt><trkpt lat="46.5656111" lon="12.5806218"><ele>952.0</ele><time>2026-04-25T14:57:18.951Z</time></trkpt><trkpt lat="46.5655427" lon="12.5805918"><ele>952.0</ele><time>2026-04-25T14:57:19.952Z</time></trkpt><trkpt lat="46.5654592" lon="12.580518"><ele>952.0</ele><time>2026-04-25T14:57:21.952Z</time></trkpt><trkpt lat="46.5654135" lon="12.5804098"><ele>952.0</ele><time>2026-04-25T14:57:25.952Z</time></trkpt><trkpt lat="46.5653891" lon="12.5802413"><ele>952.0</ele><time>2026-04-25T14:57:27.952Z</time></trkpt><trkpt lat="46.5653747" lon="12.5801228"><ele>950.4000000000001</ele><time>2026-04-25T14:57:28.952Z</time></trkpt><trkpt lat="46.5653582" lon="12.5799945"><ele>948.8000000000001</ele><time>2026-04-25T14:57:29.952Z</time></trkpt><trkpt lat="46.5653397" lon="12.5798615"><ele>947.2</ele><time>2026-04-25T14:57:30.951Z</time></trkpt><trkpt lat="46.5653187" lon="12.5797144"><ele>945.6</ele><time>2026-04-25T14:57:31.952Z</time></trkpt><trkpt lat="46.5652927" lon="12.5795641"><ele>944.0</ele><time>2026-04-25T14:57:32.952Z</time></trkpt><trkpt lat="46.5652675" lon="12.5794102"><ele>943.8000000000001</ele><time>2026-04-25T14:57:33.951Z</time></trkpt><trkpt lat="46.565245" lon="12.5792615"><ele>943.6000000000001</ele><time>2026-04-25T14:57:34.952Z</time></trkpt><trkpt lat="46.5652186" lon="12.5791219"><ele>943.4</ele><time>2026-04-25T14:57:35.952Z</time></trkpt><trkpt lat="46.5651937" lon="12.5789889"><ele>943.2</ele><time>2026-04-25T14:57:36.952Z</time></trkpt><trkpt lat="46.5651649" lon="12.5788882"><ele>943.0</ele><time>2026-04-25T14:57:37.952Z</time></trkpt><trkpt lat="46.5650598" lon="12.5788291"><ele>943.0</ele><time>2026-04-25T14:57:39.951Z</time></trkpt><trkpt lat="46.5649634" lon="12.5789689"><ele>943.0</ele><time>2026-04-25T14:57:41.952Z</time></trkpt><trkpt lat="46.564928" lon="12.5790943"><ele>943.0</ele><time>2026-04-25T14:57:42.952Z</time></trkpt><trkpt lat="46.5648992" lon="12.5792383"><ele>943.0</ele><time>2026-04-25T14:57:43.952Z</time></trkpt><trkpt lat="46.5648654" lon="12.5793887"><ele>943.0</ele><time>2026-04-25T14:57:44.952Z</time></trkpt><trkpt lat="46.5648336" lon="12.5795417"><ele>943.2</ele><time>2026-04-25T14:57:45.951Z</time></trkpt><trkpt lat="46.5648082" lon="12.5796998"><ele>943.4</ele><time>2026-04-25T14:57:46.952Z</time></trkpt><trkpt lat="46.5647795" lon="12.5798582"><ele>943.6000000000001</ele><time>2026-04-25T14:57:47.952Z</time></trkpt><trkpt lat="46.5647514" lon="12.5800157"><ele>943.8000000000001</ele><time>2026-04-25T14:57:48.951Z</time></trkpt><trkpt lat="46.5647174" lon="12.580168"><ele>944.0</ele><time>2026-04-25T14:57:49.951Z</time></trkpt><trkpt lat="46.5646844" lon="12.5803183"><ele>944.0</ele><time>2026-04-25T14:57:50.952Z</time></trkpt><trkpt lat="46.564652" lon="12.5804682"><ele>944.0000000000001</ele><time>2026-04-25T14:57:51.952Z</time></trkpt><trkpt lat="46.564626" lon="12.5806179"><ele>944.0000000000001</ele><time>2026-04-25T14:57:52.953Z</time></trkpt><trkpt lat="46.5645946" lon="12.5807674"><ele>944.0</ele><time>2026-04-25T14:57:53.951Z</time></trkpt><trkpt lat="46.5645584" lon="12.5809073"><ele>944.0</ele><time>2026-04-25T14:57:54.952Z</time></trkpt><trkpt lat="46.5645174" lon="12.5810361"><ele>943.0</ele><time>2026-04-25T14:57:55.952Z</time></trkpt><trkpt lat="46.5644623" lon="12.5811426"><ele>942.0000000000001</ele><time>2026-04-25T14:57:56.952Z</time></trkpt><trkpt lat="46.5643908" lon="12.5812214"><ele>941.0000000000001</ele><time>2026-04-25T14:57:57.952Z</time></trkpt><trkpt lat="46.5643132" lon="12.5812883"><ele>940.0</ele><time>2026-04-25T14:57:58.952Z</time></trkpt><trkpt lat="46.5642159" lon="12.5813358"><ele>939.0</ele><time>2026-04-25T14:57:59.951Z</time></trkpt><trkpt lat="46.5641314" lon="12.5813903"><ele>939.0</ele><time>2026-04-25T14:58:00.952Z</time></trkpt><trkpt lat="46.5640482" lon="12.5814406"><ele>939.0</ele><time>2026-04-25T14:58:01.952Z</time></trkpt><trkpt lat="46.5639722" lon="12.5814843"><ele>939.0</ele><time>2026-04-25T14:58:02.952Z</time></trkpt><trkpt lat="46.5639059" lon="12.5815184"><ele>939.0</ele><time>2026-04-25T14:58:03.952Z</time></trkpt><trkpt lat="46.5638032" lon="12.581496"><ele>939.0</ele><time>2026-04-25T14:58:05.952Z</time></trkpt><trkpt lat="46.5637563" lon="12.5813858"><ele>939.0</ele><time>2026-04-25T14:58:07.952Z</time></trkpt><trkpt lat="46.563706" lon="12.5812807"><ele>939.0</ele><time>2026-04-25T14:58:09.952Z</time></trkpt><trkpt lat="46.5636706" lon="12.5811866"><ele>943.0</ele><time>2026-04-25T14:58:11.952Z</time></trkpt><trkpt lat="46.5636778" lon="12.5810927"><ele>940.0</ele><time>2026-04-25T14:58:13.952Z</time></trkpt><trkpt lat="46.5637464" lon="12.5811027"><ele>937.0</ele><time>2026-04-25T14:58:18.952Z</time></trkpt><trkpt lat="46.5638218" lon="12.5811328"><ele>937.0</ele><time>2026-04-25T14:58:28.952Z</time></trkpt><trkpt lat="46.5638218" lon="12.581017"><ele>937.0</ele><time>2026-04-25T14:58:32.951Z</time></trkpt><trkpt lat="46.5638059" lon="12.5809279"><ele>937.0</ele><time>2026-04-25T14:58:36.952Z</time></trkpt></trkseg></trk></gpx>